<?xml version="1.0" encoding="UTF-8" standalone="no" ?>
<gpx xmlns="http://www.topografix.com/GPX/1/1" xmlns:xsi="http://www.w3.org/2001/XMLSchema-instance" xsi:schemaLocation="http://www.topografix.com/GPX/1/1 http://www.topografix.com/GPX/1/1/gpx.xsd" version="1.1" creator="VisuGPX - https://www.visugpx.com">
  <metadata>
    <name>Lamargelle aux Bois (Combe aux Cerf)</name>
  </metadata>
  <trk>
    <name><![CDATA[Lamargelle ]]></name>
    <trkseg>
      <trkpt lat="47.7023" lon="5.04671">
        <ele>384.47</ele>
        <time>2022-05-16T06:50:01Z</time>
      </trkpt>
      <trkpt lat="47.7023" lon="5.04676">
        <ele>384.37</ele>
        <time>2022-05-16T06:51:46Z</time>
      </trkpt>
      <trkpt lat="47.70227" lon="5.04677">
        <ele>384.22</ele>
        <time>2022-05-16T06:54:22Z</time>
      </trkpt>
      <trkpt lat="47.70229" lon="5.0468">
        <ele>384.25</ele>
        <time>2022-05-16T06:56:53Z</time>
      </trkpt>
      <trkpt lat="47.70231" lon="5.04683">
        <ele>384.26</ele>
        <time>2022-05-16T06:56:56Z</time>
      </trkpt>
      <trkpt lat="47.70229" lon="5.04684">
        <ele>384.18</ele>
        <time>2022-05-16T06:57:24Z</time>
      </trkpt>
      <trkpt lat="47.70231" lon="5.04681">
        <ele>384.31</ele>
        <time>2022-05-16T06:58:48Z</time>
      </trkpt>
      <trkpt lat="47.7023" lon="5.04678">
        <ele>384.33</ele>
        <time>2022-05-16T07:12:18Z</time>
      </trkpt>
      <trkpt lat="47.70227" lon="5.04676">
        <ele>384.23</ele>
        <time>2022-05-16T07:12:23Z</time>
      </trkpt>
      <trkpt lat="47.70228" lon="5.0468">
        <ele>384.22</ele>
        <time>2022-05-16T07:12:30Z</time>
      </trkpt>
      <trkpt lat="47.70229" lon="5.04685">
        <ele>384.17</ele>
        <time>2022-05-16T07:12:36Z</time>
      </trkpt>
      <trkpt lat="47.70231" lon="5.04688">
        <ele>384.15</ele>
        <time>2022-05-16T07:12:38Z</time>
      </trkpt>
      <trkpt lat="47.70233" lon="5.04691">
        <ele>384.1</ele>
        <time>2022-05-16T07:12:41Z</time>
      </trkpt>
      <trkpt lat="47.70235" lon="5.04694">
        <ele>384.01</ele>
        <time>2022-05-16T07:12:43Z</time>
      </trkpt>
      <trkpt lat="47.70238" lon="5.04696">
        <ele>384.06</ele>
        <time>2022-05-16T07:12:46Z</time>
      </trkpt>
      <trkpt lat="47.70241" lon="5.04697">
        <ele>384.12</ele>
        <time>2022-05-16T07:12:48Z</time>
      </trkpt>
      <trkpt lat="47.70244" lon="5.04698">
        <ele>384.2</ele>
        <time>2022-05-16T07:12:51Z</time>
      </trkpt>
      <trkpt lat="47.70247" lon="5.04699">
        <ele>384.29</ele>
        <time>2022-05-16T07:12:54Z</time>
      </trkpt>
      <trkpt lat="47.7025" lon="5.04697">
        <ele>384.18</ele>
        <time>2022-05-16T07:12:57Z</time>
      </trkpt>
      <trkpt lat="47.70253" lon="5.04696">
        <ele>384.55</ele>
        <time>2022-05-16T07:12:59Z</time>
      </trkpt>
      <trkpt lat="47.70256" lon="5.04694">
        <ele>384.88</ele>
        <time>2022-05-16T07:13:02Z</time>
      </trkpt>
      <trkpt lat="47.70258" lon="5.04693">
        <ele>385.2</ele>
        <time>2022-05-16T07:13:06Z</time>
      </trkpt>
      <trkpt lat="47.70261" lon="5.04691">
        <ele>385.64</ele>
        <time>2022-05-16T07:13:08Z</time>
      </trkpt>
      <trkpt lat="47.70263" lon="5.04689">
        <ele>385.9</ele>
        <time>2022-05-16T07:13:11Z</time>
      </trkpt>
      <trkpt lat="47.70266" lon="5.04686">
        <ele>386.21</ele>
        <time>2022-05-16T07:13:14Z</time>
      </trkpt>
      <trkpt lat="47.70268" lon="5.04684">
        <ele>386.37</ele>
        <time>2022-05-16T07:13:18Z</time>
      </trkpt>
      <trkpt lat="47.70271" lon="5.0468">
        <ele>386.49</ele>
        <time>2022-05-16T07:13:20Z</time>
      </trkpt>
      <trkpt lat="47.70273" lon="5.04677">
        <ele>386.49</ele>
        <time>2022-05-16T07:13:23Z</time>
      </trkpt>
      <trkpt lat="47.70275" lon="5.04673">
        <ele>386.36</ele>
        <time>2022-05-16T07:13:25Z</time>
      </trkpt>
      <trkpt lat="47.70276" lon="5.0467">
        <ele>386.21</ele>
        <time>2022-05-16T07:13:28Z</time>
      </trkpt>
      <trkpt lat="47.70279" lon="5.04667">
        <ele>386.2</ele>
        <time>2022-05-16T07:13:31Z</time>
      </trkpt>
      <trkpt lat="47.70281" lon="5.04663">
        <ele>386.45</ele>
        <time>2022-05-16T07:13:33Z</time>
      </trkpt>
      <trkpt lat="47.70283" lon="5.04659">
        <ele>386.7</ele>
        <time>2022-05-16T07:13:36Z</time>
      </trkpt>
      <trkpt lat="47.70284" lon="5.04655">
        <ele>386.8</ele>
        <time>2022-05-16T07:13:39Z</time>
      </trkpt>
      <trkpt lat="47.70286" lon="5.04652">
        <ele>387.03</ele>
        <time>2022-05-16T07:13:40Z</time>
      </trkpt>
      <trkpt lat="47.70288" lon="5.04648">
        <ele>387.22</ele>
        <time>2022-05-16T07:13:43Z</time>
      </trkpt>
      <trkpt lat="47.7029" lon="5.04645">
        <ele>387.42</ele>
        <time>2022-05-16T07:13:45Z</time>
      </trkpt>
      <trkpt lat="47.70292" lon="5.04642">
        <ele>387.59</ele>
        <time>2022-05-16T07:13:47Z</time>
      </trkpt>
      <trkpt lat="47.70294" lon="5.0464">
        <ele>387.78</ele>
        <time>2022-05-16T07:13:50Z</time>
      </trkpt>
      <trkpt lat="47.70296" lon="5.04636">
        <ele>387.8</ele>
        <time>2022-05-16T07:13:52Z</time>
      </trkpt>
      <trkpt lat="47.70298" lon="5.04633">
        <ele>387.82</ele>
        <time>2022-05-16T07:13:55Z</time>
      </trkpt>
      <trkpt lat="47.703" lon="5.04631">
        <ele>387.89</ele>
        <time>2022-05-16T07:13:57Z</time>
      </trkpt>
      <trkpt lat="47.70302" lon="5.04627">
        <ele>387.81</ele>
        <time>2022-05-16T07:13:59Z</time>
      </trkpt>
      <trkpt lat="47.70304" lon="5.04623">
        <ele>387.72</ele>
        <time>2022-05-16T07:14:02Z</time>
      </trkpt>
      <trkpt lat="47.70306" lon="5.0462">
        <ele>387.67</ele>
        <time>2022-05-16T07:14:04Z</time>
      </trkpt>
      <trkpt lat="47.70308" lon="5.04616">
        <ele>387.57</ele>
        <time>2022-05-16T07:14:06Z</time>
      </trkpt>
      <trkpt lat="47.7031" lon="5.04613">
        <ele>387.58</ele>
        <time>2022-05-16T07:14:09Z</time>
      </trkpt>
      <trkpt lat="47.70312" lon="5.04609">
        <ele>387.33</ele>
        <time>2022-05-16T07:14:12Z</time>
      </trkpt>
      <trkpt lat="47.70314" lon="5.04606">
        <ele>387.05</ele>
        <time>2022-05-16T07:14:14Z</time>
      </trkpt>
      <trkpt lat="47.70316" lon="5.04603">
        <ele>386.78</ele>
        <time>2022-05-16T07:14:18Z</time>
      </trkpt>
      <trkpt lat="47.70317" lon="5.04599">
        <ele>386.24</ele>
        <time>2022-05-16T07:14:20Z</time>
      </trkpt>
      <trkpt lat="47.70319" lon="5.04596">
        <ele>386</ele>
        <time>2022-05-16T07:14:23Z</time>
      </trkpt>
      <trkpt lat="47.70321" lon="5.04591">
        <ele>385.45</ele>
        <time>2022-05-16T07:14:26Z</time>
      </trkpt>
      <trkpt lat="47.70321" lon="5.04586">
        <ele>384.65</ele>
        <time>2022-05-16T07:14:29Z</time>
      </trkpt>
      <trkpt lat="47.70321" lon="5.04582">
        <ele>384.15</ele>
        <time>2022-05-16T07:14:40Z</time>
      </trkpt>
      <trkpt lat="47.70322" lon="5.04578">
        <ele>384.06</ele>
        <time>2022-05-16T07:14:43Z</time>
      </trkpt>
      <trkpt lat="47.70324" lon="5.04575">
        <ele>384.16</ele>
        <time>2022-05-16T07:14:44Z</time>
      </trkpt>
      <trkpt lat="47.70326" lon="5.04571">
        <ele>384.17</ele>
        <time>2022-05-16T07:14:47Z</time>
      </trkpt>
      <trkpt lat="47.70328" lon="5.04568">
        <ele>384.23</ele>
        <time>2022-05-16T07:14:49Z</time>
      </trkpt>
      <trkpt lat="47.7033" lon="5.04565">
        <ele>384.28</ele>
        <time>2022-05-16T07:14:52Z</time>
      </trkpt>
      <trkpt lat="47.70333" lon="5.04563">
        <ele>384.5</ele>
        <time>2022-05-16T07:14:54Z</time>
      </trkpt>
      <trkpt lat="47.70336" lon="5.0456">
        <ele>384.7</ele>
        <time>2022-05-16T07:14:57Z</time>
      </trkpt>
      <trkpt lat="47.70338" lon="5.04557">
        <ele>384.78</ele>
        <time>2022-05-16T07:14:58Z</time>
      </trkpt>
      <trkpt lat="47.70341" lon="5.04555">
        <ele>385.08</ele>
        <time>2022-05-16T07:15:01Z</time>
      </trkpt>
      <trkpt lat="47.70343" lon="5.04552">
        <ele>385.21</ele>
        <time>2022-05-16T07:15:03Z</time>
      </trkpt>
      <trkpt lat="47.70346" lon="5.04549">
        <ele>385.39</ele>
        <time>2022-05-16T07:15:06Z</time>
      </trkpt>
      <trkpt lat="47.70349" lon="5.04548">
        <ele>385.64</ele>
        <time>2022-05-16T07:15:08Z</time>
      </trkpt>
      <trkpt lat="47.70352" lon="5.04545">
        <ele>385.67</ele>
        <time>2022-05-16T07:15:10Z</time>
      </trkpt>
      <trkpt lat="47.70355" lon="5.04544">
        <ele>385.82</ele>
        <time>2022-05-16T07:15:13Z</time>
      </trkpt>
      <trkpt lat="47.70358" lon="5.04542">
        <ele>385.82</ele>
        <time>2022-05-16T07:15:15Z</time>
      </trkpt>
      <trkpt lat="47.7036" lon="5.0454">
        <ele>385.69</ele>
        <time>2022-05-16T07:15:17Z</time>
      </trkpt>
      <trkpt lat="47.70363" lon="5.04538">
        <ele>385.49</ele>
        <time>2022-05-16T07:15:19Z</time>
      </trkpt>
      <trkpt lat="47.70366" lon="5.04536">
        <ele>385.26</ele>
        <time>2022-05-16T07:15:21Z</time>
      </trkpt>
      <trkpt lat="47.70369" lon="5.04534">
        <ele>385.05</ele>
        <time>2022-05-16T07:15:23Z</time>
      </trkpt>
      <trkpt lat="47.70372" lon="5.04532">
        <ele>384.88</ele>
        <time>2022-05-16T07:15:25Z</time>
      </trkpt>
      <trkpt lat="47.70374" lon="5.0453">
        <ele>384.71</ele>
        <time>2022-05-16T07:15:28Z</time>
      </trkpt>
      <trkpt lat="47.70377" lon="5.04528">
        <ele>384.59</ele>
        <time>2022-05-16T07:15:30Z</time>
      </trkpt>
      <trkpt lat="47.7038" lon="5.04526">
        <ele>384.49</ele>
        <time>2022-05-16T07:15:32Z</time>
      </trkpt>
      <trkpt lat="47.70382" lon="5.04524">
        <ele>384.34</ele>
        <time>2022-05-16T07:15:34Z</time>
      </trkpt>
      <trkpt lat="47.70385" lon="5.04522">
        <ele>384.24</ele>
        <time>2022-05-16T07:15:37Z</time>
      </trkpt>
      <trkpt lat="47.70388" lon="5.0452">
        <ele>384.13</ele>
        <time>2022-05-16T07:15:38Z</time>
      </trkpt>
      <trkpt lat="47.7039" lon="5.04518">
        <ele>384.1</ele>
        <time>2022-05-16T07:15:41Z</time>
      </trkpt>
      <trkpt lat="47.70392" lon="5.04515">
        <ele>384.07</ele>
        <time>2022-05-16T07:15:43Z</time>
      </trkpt>
      <trkpt lat="47.70394" lon="5.04512">
        <ele>384.03</ele>
        <time>2022-05-16T07:15:45Z</time>
      </trkpt>
      <trkpt lat="47.70397" lon="5.04509">
        <ele>384.14</ele>
        <time>2022-05-16T07:15:48Z</time>
      </trkpt>
      <trkpt lat="47.70399" lon="5.04506">
        <ele>384.1</ele>
        <time>2022-05-16T07:15:50Z</time>
      </trkpt>
      <trkpt lat="47.70402" lon="5.04504">
        <ele>384.32</ele>
        <time>2022-05-16T07:15:52Z</time>
      </trkpt>
      <trkpt lat="47.70405" lon="5.04502">
        <ele>384.54</ele>
        <time>2022-05-16T07:15:54Z</time>
      </trkpt>
      <trkpt lat="47.70407" lon="5.04499">
        <ele>384.51</ele>
        <time>2022-05-16T07:15:57Z</time>
      </trkpt>
      <trkpt lat="47.70409" lon="5.04496">
        <ele>384.5</ele>
        <time>2022-05-16T07:15:59Z</time>
      </trkpt>
      <trkpt lat="47.70411" lon="5.04493">
        <ele>384.48</ele>
        <time>2022-05-16T07:16:02Z</time>
      </trkpt>
      <trkpt lat="47.70414" lon="5.0449">
        <ele>384.57</ele>
        <time>2022-05-16T07:16:04Z</time>
      </trkpt>
      <trkpt lat="47.70416" lon="5.04487">
        <ele>384.51</ele>
        <time>2022-05-16T07:16:07Z</time>
      </trkpt>
      <trkpt lat="47.70419" lon="5.04483">
        <ele>384.74</ele>
        <time>2022-05-16T07:16:10Z</time>
      </trkpt>
      <trkpt lat="47.70421" lon="5.0448">
        <ele>384.96</ele>
        <time>2022-05-16T07:16:11Z</time>
      </trkpt>
      <trkpt lat="47.70422" lon="5.04476">
        <ele>384.87</ele>
        <time>2022-05-16T07:16:14Z</time>
      </trkpt>
      <trkpt lat="47.70424" lon="5.04472">
        <ele>385.12</ele>
        <time>2022-05-16T07:16:16Z</time>
      </trkpt>
      <trkpt lat="47.70425" lon="5.04468">
        <ele>385.46</ele>
        <time>2022-05-16T07:16:19Z</time>
      </trkpt>
      <trkpt lat="47.70427" lon="5.04464">
        <ele>386.05</ele>
        <time>2022-05-16T07:16:22Z</time>
      </trkpt>
      <trkpt lat="47.70428" lon="5.0446">
        <ele>386.34</ele>
        <time>2022-05-16T07:16:24Z</time>
      </trkpt>
      <trkpt lat="47.70429" lon="5.04456">
        <ele>386.62</ele>
        <time>2022-05-16T07:16:27Z</time>
      </trkpt>
      <trkpt lat="47.70431" lon="5.04452">
        <ele>387.1</ele>
        <time>2022-05-16T07:16:29Z</time>
      </trkpt>
      <trkpt lat="47.70433" lon="5.04449">
        <ele>387.56</ele>
        <time>2022-05-16T07:16:32Z</time>
      </trkpt>
      <trkpt lat="47.70435" lon="5.04444">
        <ele>387.98</ele>
        <time>2022-05-16T07:16:35Z</time>
      </trkpt>
      <trkpt lat="47.70436" lon="5.04441">
        <ele>388.29</ele>
        <time>2022-05-16T07:16:37Z</time>
      </trkpt>
      <trkpt lat="47.70438" lon="5.04437">
        <ele>388.79</ele>
        <time>2022-05-16T07:16:40Z</time>
      </trkpt>
      <trkpt lat="47.70439" lon="5.04433">
        <ele>389.07</ele>
        <time>2022-05-16T07:16:42Z</time>
      </trkpt>
      <trkpt lat="47.7044" lon="5.04428">
        <ele>389.32</ele>
        <time>2022-05-16T07:16:44Z</time>
      </trkpt>
      <trkpt lat="47.70441" lon="5.04425">
        <ele>389.52</ele>
        <time>2022-05-16T07:16:47Z</time>
      </trkpt>
      <trkpt lat="47.70442" lon="5.0442">
        <ele>389.7</ele>
        <time>2022-05-16T07:16:50Z</time>
      </trkpt>
      <trkpt lat="47.70444" lon="5.04416">
        <ele>389.98</ele>
        <time>2022-05-16T07:16:52Z</time>
      </trkpt>
      <trkpt lat="47.70445" lon="5.04413">
        <ele>390.25</ele>
        <time>2022-05-16T07:16:54Z</time>
      </trkpt>
      <trkpt lat="47.70447" lon="5.04409">
        <ele>390.8</ele>
        <time>2022-05-16T07:16:57Z</time>
      </trkpt>
      <trkpt lat="47.70448" lon="5.04405">
        <ele>391.13</ele>
        <time>2022-05-16T07:17:00Z</time>
      </trkpt>
      <trkpt lat="47.70449" lon="5.04401">
        <ele>391.46</ele>
        <time>2022-05-16T07:17:02Z</time>
      </trkpt>
      <trkpt lat="47.70451" lon="5.04396">
        <ele>391.98</ele>
        <time>2022-05-16T07:17:04Z</time>
      </trkpt>
      <trkpt lat="47.70452" lon="5.04393">
        <ele>392.25</ele>
        <time>2022-05-16T07:17:07Z</time>
      </trkpt>
      <trkpt lat="47.70454" lon="5.04389">
        <ele>392.72</ele>
        <time>2022-05-16T07:17:10Z</time>
      </trkpt>
      <trkpt lat="47.70456" lon="5.04385">
        <ele>393.22</ele>
        <time>2022-05-16T07:17:12Z</time>
      </trkpt>
      <trkpt lat="47.70458" lon="5.04382">
        <ele>393.69</ele>
        <time>2022-05-16T07:17:14Z</time>
      </trkpt>
      <trkpt lat="47.7046" lon="5.04378">
        <ele>394.19</ele>
        <time>2022-05-16T07:17:17Z</time>
      </trkpt>
      <trkpt lat="47.70462" lon="5.04375">
        <ele>394.66</ele>
        <time>2022-05-16T07:17:20Z</time>
      </trkpt>
      <trkpt lat="47.70465" lon="5.04374">
        <ele>395.24</ele>
        <time>2022-05-16T07:17:24Z</time>
      </trkpt>
      <trkpt lat="47.70467" lon="5.04371">
        <ele>395.7</ele>
        <time>2022-05-16T07:17:27Z</time>
      </trkpt>
      <trkpt lat="47.70468" lon="5.04368">
        <ele>395.99</ele>
        <time>2022-05-16T07:17:29Z</time>
      </trkpt>
      <trkpt lat="47.7047" lon="5.04363">
        <ele>396.53</ele>
        <time>2022-05-16T07:17:32Z</time>
      </trkpt>
      <trkpt lat="47.70472" lon="5.0436">
        <ele>397.04</ele>
        <time>2022-05-16T07:17:35Z</time>
      </trkpt>
      <trkpt lat="47.70474" lon="5.04356">
        <ele>397.58</ele>
        <time>2022-05-16T07:17:38Z</time>
      </trkpt>
      <trkpt lat="47.70476" lon="5.04353">
        <ele>398.07</ele>
        <time>2022-05-16T07:17:40Z</time>
      </trkpt>
      <trkpt lat="47.70478" lon="5.0435">
        <ele>398.59</ele>
        <time>2022-05-16T07:17:43Z</time>
      </trkpt>
      <trkpt lat="47.70481" lon="5.04347">
        <ele>399.29</ele>
        <time>2022-05-16T07:17:45Z</time>
      </trkpt>
      <trkpt lat="47.70483" lon="5.04345">
        <ele>399.77</ele>
        <time>2022-05-16T07:17:48Z</time>
      </trkpt>
      <trkpt lat="47.70485" lon="5.04342">
        <ele>400.39</ele>
        <time>2022-05-16T07:17:50Z</time>
      </trkpt>
      <trkpt lat="47.70487" lon="5.04338">
        <ele>401.15</ele>
        <time>2022-05-16T07:17:53Z</time>
      </trkpt>
      <trkpt lat="47.70489" lon="5.04334">
        <ele>401.94</ele>
        <time>2022-05-16T07:17:55Z</time>
      </trkpt>
      <trkpt lat="47.7049" lon="5.0433">
        <ele>402.76</ele>
        <time>2022-05-16T07:17:58Z</time>
      </trkpt>
      <trkpt lat="47.70491" lon="5.04326">
        <ele>403.61</ele>
        <time>2022-05-16T07:18:01Z</time>
      </trkpt>
      <trkpt lat="47.70493" lon="5.04322">
        <ele>404.68</ele>
        <time>2022-05-16T07:18:03Z</time>
      </trkpt>
      <trkpt lat="47.70494" lon="5.04318">
        <ele>405.56</ele>
        <time>2022-05-16T07:18:06Z</time>
      </trkpt>
      <trkpt lat="47.70494" lon="5.04313">
        <ele>406.42</ele>
        <time>2022-05-16T07:18:09Z</time>
      </trkpt>
      <trkpt lat="47.70494" lon="5.04309">
        <ele>407.11</ele>
        <time>2022-05-16T07:18:12Z</time>
      </trkpt>
      <trkpt lat="47.70494" lon="5.04303">
        <ele>407.96</ele>
        <time>2022-05-16T07:18:16Z</time>
      </trkpt>
      <trkpt lat="47.70494" lon="5.04299">
        <ele>408.36</ele>
        <time>2022-05-16T07:18:18Z</time>
      </trkpt>
      <trkpt lat="47.70494" lon="5.04294">
        <ele>408.86</ele>
        <time>2022-05-16T07:18:21Z</time>
      </trkpt>
      <trkpt lat="47.70494" lon="5.0429">
        <ele>409.26</ele>
        <time>2022-05-16T07:18:23Z</time>
      </trkpt>
      <trkpt lat="47.70493" lon="5.04286">
        <ele>409.42</ele>
        <time>2022-05-16T07:18:26Z</time>
      </trkpt>
      <trkpt lat="47.70493" lon="5.04281">
        <ele>409.92</ele>
        <time>2022-05-16T07:18:29Z</time>
      </trkpt>
      <trkpt lat="47.70493" lon="5.04276">
        <ele>410.43</ele>
        <time>2022-05-16T07:18:32Z</time>
      </trkpt>
      <trkpt lat="47.70493" lon="5.04272">
        <ele>410.86</ele>
        <time>2022-05-16T07:18:34Z</time>
      </trkpt>
      <trkpt lat="47.70492" lon="5.04268">
        <ele>410.99</ele>
        <time>2022-05-16T07:18:37Z</time>
      </trkpt>
      <trkpt lat="47.70492" lon="5.04263">
        <ele>411.5</ele>
        <time>2022-05-16T07:18:39Z</time>
      </trkpt>
      <trkpt lat="47.70491" lon="5.04259">
        <ele>411.56</ele>
        <time>2022-05-16T07:18:42Z</time>
      </trkpt>
      <trkpt lat="47.70491" lon="5.04255">
        <ele>411.95</ele>
        <time>2022-05-16T07:18:45Z</time>
      </trkpt>
      <trkpt lat="47.7049" lon="5.04251">
        <ele>411.95</ele>
        <time>2022-05-16T07:18:48Z</time>
      </trkpt>
      <trkpt lat="47.7049" lon="5.04246">
        <ele>412.29</ele>
        <time>2022-05-16T07:18:50Z</time>
      </trkpt>
      <trkpt lat="47.70489" lon="5.04242">
        <ele>412.16</ele>
        <time>2022-05-16T07:18:54Z</time>
      </trkpt>
      <trkpt lat="47.70489" lon="5.04237">
        <ele>412.48</ele>
        <time>2022-05-16T07:18:56Z</time>
      </trkpt>
      <trkpt lat="47.70488" lon="5.04233">
        <ele>412.39</ele>
        <time>2022-05-16T07:18:59Z</time>
      </trkpt>
      <trkpt lat="47.70489" lon="5.04228">
        <ele>413.06</ele>
        <time>2022-05-16T07:19:01Z</time>
      </trkpt>
      <trkpt lat="47.70489" lon="5.04224">
        <ele>413.32</ele>
        <time>2022-05-16T07:19:04Z</time>
      </trkpt>
      <trkpt lat="47.70489" lon="5.0422">
        <ele>413.5</ele>
        <time>2022-05-16T07:19:06Z</time>
      </trkpt>
      <trkpt lat="47.70489" lon="5.04216">
        <ele>413.61</ele>
        <time>2022-05-16T07:19:09Z</time>
      </trkpt>
      <trkpt lat="47.70489" lon="5.04212">
        <ele>413.73</ele>
        <time>2022-05-16T07:19:12Z</time>
      </trkpt>
      <trkpt lat="47.7049" lon="5.04208">
        <ele>414.13</ele>
        <time>2022-05-16T07:19:14Z</time>
      </trkpt>
      <trkpt lat="47.7049" lon="5.04202">
        <ele>414.28</ele>
        <time>2022-05-16T07:19:16Z</time>
      </trkpt>
      <trkpt lat="47.7049" lon="5.04198">
        <ele>414.39</ele>
        <time>2022-05-16T07:19:19Z</time>
      </trkpt>
      <trkpt lat="47.7049" lon="5.04193">
        <ele>414.51</ele>
        <time>2022-05-16T07:19:21Z</time>
      </trkpt>
      <trkpt lat="47.70491" lon="5.04188">
        <ele>414.89</ele>
        <time>2022-05-16T07:19:25Z</time>
      </trkpt>
      <trkpt lat="47.70492" lon="5.04183">
        <ele>415.28</ele>
        <time>2022-05-16T07:19:28Z</time>
      </trkpt>
      <trkpt lat="47.70493" lon="5.04178">
        <ele>415.68</ele>
        <time>2022-05-16T07:19:31Z</time>
      </trkpt>
      <trkpt lat="47.70493" lon="5.04174">
        <ele>415.79</ele>
        <time>2022-05-16T07:19:33Z</time>
      </trkpt>
      <trkpt lat="47.70494" lon="5.04169">
        <ele>416.21</ele>
        <time>2022-05-16T07:19:36Z</time>
      </trkpt>
      <trkpt lat="47.70495" lon="5.04164">
        <ele>416.58</ele>
        <time>2022-05-16T07:19:39Z</time>
      </trkpt>
      <trkpt lat="47.70495" lon="5.04159">
        <ele>416.61</ele>
        <time>2022-05-16T07:19:41Z</time>
      </trkpt>
      <trkpt lat="47.70495" lon="5.04155">
        <ele>416.64</ele>
        <time>2022-05-16T07:19:44Z</time>
      </trkpt>
      <trkpt lat="47.70496" lon="5.04151">
        <ele>416.93</ele>
        <time>2022-05-16T07:19:47Z</time>
      </trkpt>
      <trkpt lat="47.70497" lon="5.04146">
        <ele>417.22</ele>
        <time>2022-05-16T07:19:49Z</time>
      </trkpt>
      <trkpt lat="47.70497" lon="5.04141">
        <ele>417.24</ele>
        <time>2022-05-16T07:19:52Z</time>
      </trkpt>
      <trkpt lat="47.70498" lon="5.04138">
        <ele>417.5</ele>
        <time>2022-05-16T07:19:54Z</time>
      </trkpt>
      <trkpt lat="47.70498" lon="5.04132">
        <ele>417.5</ele>
        <time>2022-05-16T07:19:58Z</time>
      </trkpt>
      <trkpt lat="47.70499" lon="5.04128">
        <ele>417.75</ele>
        <time>2022-05-16T07:19:59Z</time>
      </trkpt>
      <trkpt lat="47.70499" lon="5.04124">
        <ele>417.75</ele>
        <time>2022-05-16T07:20:02Z</time>
      </trkpt>
      <trkpt lat="47.705" lon="5.04119">
        <ele>418</ele>
        <time>2022-05-16T07:20:05Z</time>
      </trkpt>
      <trkpt lat="47.70501" lon="5.04115">
        <ele>418.14</ele>
        <time>2022-05-16T07:20:07Z</time>
      </trkpt>
      <trkpt lat="47.70501" lon="5.0411">
        <ele>418.18</ele>
        <time>2022-05-16T07:20:10Z</time>
      </trkpt>
      <trkpt lat="47.70502" lon="5.04106">
        <ele>418.47</ele>
        <time>2022-05-16T07:20:13Z</time>
      </trkpt>
      <trkpt lat="47.70503" lon="5.04101">
        <ele>418.8</ele>
        <time>2022-05-16T07:20:16Z</time>
      </trkpt>
      <trkpt lat="47.70502" lon="5.04097">
        <ele>418.8</ele>
        <time>2022-05-16T07:20:20Z</time>
      </trkpt>
      <trkpt lat="47.70503" lon="5.04092">
        <ele>419.12</ele>
        <time>2022-05-16T07:20:23Z</time>
      </trkpt>
      <trkpt lat="47.70505" lon="5.04089">
        <ele>419.52</ele>
        <time>2022-05-16T07:20:27Z</time>
      </trkpt>
      <trkpt lat="47.70506" lon="5.04085">
        <ele>419.8</ele>
        <time>2022-05-16T07:20:29Z</time>
      </trkpt>
      <trkpt lat="47.70507" lon="5.04081">
        <ele>419.97</ele>
        <time>2022-05-16T07:20:32Z</time>
      </trkpt>
      <trkpt lat="47.70507" lon="5.04077">
        <ele>419.89</ele>
        <time>2022-05-16T07:20:36Z</time>
      </trkpt>
      <trkpt lat="47.70508" lon="5.04073">
        <ele>419.99</ele>
        <time>2022-05-16T07:20:38Z</time>
      </trkpt>
      <trkpt lat="47.70507" lon="5.04068">
        <ele>419.73</ele>
        <time>2022-05-16T07:20:41Z</time>
      </trkpt>
      <trkpt lat="47.70508" lon="5.04064">
        <ele>419.86</ele>
        <time>2022-05-16T07:20:44Z</time>
      </trkpt>
      <trkpt lat="47.70508" lon="5.0406">
        <ele>419.8</ele>
        <time>2022-05-16T07:20:47Z</time>
      </trkpt>
      <trkpt lat="47.70508" lon="5.04055">
        <ele>419.73</ele>
        <time>2022-05-16T07:20:50Z</time>
      </trkpt>
      <trkpt lat="47.70509" lon="5.0405">
        <ele>419.94</ele>
        <time>2022-05-16T07:20:53Z</time>
      </trkpt>
      <trkpt lat="47.70509" lon="5.04046">
        <ele>419.94</ele>
        <time>2022-05-16T07:20:56Z</time>
      </trkpt>
      <trkpt lat="47.70509" lon="5.04041">
        <ele>419.94</ele>
        <time>2022-05-16T07:20:59Z</time>
      </trkpt>
      <trkpt lat="47.7051" lon="5.04036">
        <ele>420.16</ele>
        <time>2022-05-16T07:21:02Z</time>
      </trkpt>
      <trkpt lat="47.70511" lon="5.04032">
        <ele>420.38</ele>
        <time>2022-05-16T07:21:04Z</time>
      </trkpt>
      <trkpt lat="47.70511" lon="5.04028">
        <ele>420.38</ele>
        <time>2022-05-16T07:21:06Z</time>
      </trkpt>
      <trkpt lat="47.70513" lon="5.04024">
        <ele>420.59</ele>
        <time>2022-05-16T07:21:08Z</time>
      </trkpt>
      <trkpt lat="47.70514" lon="5.04019">
        <ele>420.55</ele>
        <time>2022-05-16T07:21:11Z</time>
      </trkpt>
      <trkpt lat="47.70516" lon="5.04015">
        <ele>420.87</ele>
        <time>2022-05-16T07:21:13Z</time>
      </trkpt>
      <trkpt lat="47.70517" lon="5.0401">
        <ele>420.93</ele>
        <time>2022-05-16T07:21:16Z</time>
      </trkpt>
      <trkpt lat="47.70519" lon="5.04006">
        <ele>421.36</ele>
        <time>2022-05-16T07:21:18Z</time>
      </trkpt>
      <trkpt lat="47.7052" lon="5.04002">
        <ele>421.54</ele>
        <time>2022-05-16T07:21:20Z</time>
      </trkpt>
      <trkpt lat="47.70522" lon="5.03999">
        <ele>422.05</ele>
        <time>2022-05-16T07:21:22Z</time>
      </trkpt>
      <trkpt lat="47.70523" lon="5.03994">
        <ele>421.98</ele>
        <time>2022-05-16T07:21:24Z</time>
      </trkpt>
      <trkpt lat="47.70525" lon="5.0399">
        <ele>422.34</ele>
        <time>2022-05-16T07:21:27Z</time>
      </trkpt>
      <trkpt lat="47.70526" lon="5.03986">
        <ele>422.38</ele>
        <time>2022-05-16T07:21:29Z</time>
      </trkpt>
      <trkpt lat="47.70527" lon="5.03982">
        <ele>422.43</ele>
        <time>2022-05-16T07:21:31Z</time>
      </trkpt>
      <trkpt lat="47.70529" lon="5.03979">
        <ele>422.55</ele>
        <time>2022-05-16T07:21:33Z</time>
      </trkpt>
      <trkpt lat="47.7053" lon="5.03975">
        <ele>422.34</ele>
        <time>2022-05-16T07:21:36Z</time>
      </trkpt>
      <trkpt lat="47.70533" lon="5.03971">
        <ele>422.28</ele>
        <time>2022-05-16T07:21:38Z</time>
      </trkpt>
      <trkpt lat="47.70534" lon="5.03968">
        <ele>422.13</ele>
        <time>2022-05-16T07:21:40Z</time>
      </trkpt>
      <trkpt lat="47.70536" lon="5.03965">
        <ele>422.12</ele>
        <time>2022-05-16T07:21:42Z</time>
      </trkpt>
      <trkpt lat="47.70538" lon="5.03962">
        <ele>422.17</ele>
        <time>2022-05-16T07:21:45Z</time>
      </trkpt>
      <trkpt lat="47.70541" lon="5.03959">
        <ele>422.43</ele>
        <time>2022-05-16T07:21:47Z</time>
      </trkpt>
      <trkpt lat="47.70543" lon="5.03957">
        <ele>422.65</ele>
        <time>2022-05-16T07:21:50Z</time>
      </trkpt>
      <trkpt lat="47.70546" lon="5.03955">
        <ele>423.08</ele>
        <time>2022-05-16T07:21:52Z</time>
      </trkpt>
      <trkpt lat="47.70549" lon="5.03954">
        <ele>423.56</ele>
        <time>2022-05-16T07:21:56Z</time>
      </trkpt>
      <trkpt lat="47.70552" lon="5.03953">
        <ele>424.08</ele>
        <time>2022-05-16T07:21:58Z</time>
      </trkpt>
      <trkpt lat="47.70555" lon="5.03953">
        <ele>424.6</ele>
        <time>2022-05-16T07:23:01Z</time>
      </trkpt>
      <trkpt lat="47.70557" lon="5.03954">
        <ele>424.59</ele>
        <time>2022-05-16T07:23:02Z</time>
      </trkpt>
      <trkpt lat="47.7056" lon="5.03956">
        <ele>424.4</ele>
        <time>2022-05-16T07:23:05Z</time>
      </trkpt>
      <trkpt lat="47.70563" lon="5.03958">
        <ele>424.24</ele>
        <time>2022-05-16T07:23:08Z</time>
      </trkpt>
      <trkpt lat="47.70566" lon="5.0396">
        <ele>424.11</ele>
        <time>2022-05-16T07:23:11Z</time>
      </trkpt>
      <trkpt lat="47.70569" lon="5.03961">
        <ele>424.01</ele>
        <time>2022-05-16T07:23:13Z</time>
      </trkpt>
      <trkpt lat="47.70572" lon="5.03963">
        <ele>423.94</ele>
        <time>2022-05-16T07:23:16Z</time>
      </trkpt>
      <trkpt lat="47.70575" lon="5.03964">
        <ele>423.88</ele>
        <time>2022-05-16T07:23:18Z</time>
      </trkpt>
      <trkpt lat="47.70578" lon="5.03966">
        <ele>423.86</ele>
        <time>2022-05-16T07:23:21Z</time>
      </trkpt>
      <trkpt lat="47.70581" lon="5.03968">
        <ele>423.87</ele>
        <time>2022-05-16T07:23:23Z</time>
      </trkpt>
      <trkpt lat="47.70584" lon="5.03969">
        <ele>423.87</ele>
        <time>2022-05-16T07:23:25Z</time>
      </trkpt>
      <trkpt lat="47.70586" lon="5.03971">
        <ele>423.87</ele>
        <time>2022-05-16T07:23:27Z</time>
      </trkpt>
      <trkpt lat="47.70589" lon="5.03973">
        <ele>423.85</ele>
        <time>2022-05-16T07:23:30Z</time>
      </trkpt>
      <trkpt lat="47.70592" lon="5.03975">
        <ele>423.91</ele>
        <time>2022-05-16T07:23:33Z</time>
      </trkpt>
      <trkpt lat="47.70595" lon="5.03977">
        <ele>424.04</ele>
        <time>2022-05-16T07:23:36Z</time>
      </trkpt>
      <trkpt lat="47.70598" lon="5.03978">
        <ele>424.12</ele>
        <time>2022-05-16T07:23:38Z</time>
      </trkpt>
      <trkpt lat="47.70601" lon="5.0398">
        <ele>424.36</ele>
        <time>2022-05-16T07:23:41Z</time>
      </trkpt>
      <trkpt lat="47.70604" lon="5.03981">
        <ele>424.51</ele>
        <time>2022-05-16T07:23:43Z</time>
      </trkpt>
      <trkpt lat="47.70607" lon="5.03982">
        <ele>424.7</ele>
        <time>2022-05-16T07:23:46Z</time>
      </trkpt>
      <trkpt lat="47.7061" lon="5.03983">
        <ele>424.92</ele>
        <time>2022-05-16T07:23:48Z</time>
      </trkpt>
      <trkpt lat="47.70612" lon="5.03984">
        <ele>425.41</ele>
        <time>2022-05-16T07:23:51Z</time>
      </trkpt>
      <trkpt lat="47.70615" lon="5.03986">
        <ele>426.74</ele>
        <time>2022-05-16T07:23:53Z</time>
      </trkpt>
      <trkpt lat="47.70618" lon="5.03988">
        <ele>428.04</ele>
        <time>2022-05-16T07:23:56Z</time>
      </trkpt>
      <trkpt lat="47.7062" lon="5.0399">
        <ele>428.99</ele>
        <time>2022-05-16T07:23:58Z</time>
      </trkpt>
      <trkpt lat="47.70623" lon="5.03991">
        <ele>430.08</ele>
        <time>2022-05-16T07:24:00Z</time>
      </trkpt>
      <trkpt lat="47.70626" lon="5.03992">
        <ele>431.16</ele>
        <time>2022-05-16T07:24:03Z</time>
      </trkpt>
      <trkpt lat="47.7063" lon="5.03993">
        <ele>432.52</ele>
        <time>2022-05-16T07:24:06Z</time>
      </trkpt>
      <trkpt lat="47.70633" lon="5.03994">
        <ele>433.56</ele>
        <time>2022-05-16T07:24:08Z</time>
      </trkpt>
      <trkpt lat="47.70636" lon="5.03995">
        <ele>434.59</ele>
        <time>2022-05-16T07:24:11Z</time>
      </trkpt>
      <trkpt lat="47.70639" lon="5.03995">
        <ele>435.48</ele>
        <time>2022-05-16T07:24:13Z</time>
      </trkpt>
      <trkpt lat="47.70642" lon="5.03996">
        <ele>436.19</ele>
        <time>2022-05-16T07:24:16Z</time>
      </trkpt>
      <trkpt lat="47.70645" lon="5.03997">
        <ele>436.92</ele>
        <time>2022-05-16T07:24:18Z</time>
      </trkpt>
      <trkpt lat="47.70648" lon="5.03998">
        <ele>437.68</ele>
        <time>2022-05-16T07:24:21Z</time>
      </trkpt>
      <trkpt lat="47.7065" lon="5.03999">
        <ele>438.25</ele>
        <time>2022-05-16T07:24:23Z</time>
      </trkpt>
      <trkpt lat="47.70653" lon="5.03999">
        <ele>438.89</ele>
        <time>2022-05-16T07:24:26Z</time>
      </trkpt>
      <trkpt lat="47.70656" lon="5.04">
        <ele>439.7</ele>
        <time>2022-05-16T07:24:29Z</time>
      </trkpt>
      <trkpt lat="47.70659" lon="5.04">
        <ele>440.34</ele>
        <time>2022-05-16T07:24:31Z</time>
      </trkpt>
      <trkpt lat="47.70662" lon="5.03999">
        <ele>440.79</ele>
        <time>2022-05-16T07:24:34Z</time>
      </trkpt>
      <trkpt lat="47.70666" lon="5.03999">
        <ele>441.64</ele>
        <time>2022-05-16T07:24:37Z</time>
      </trkpt>
      <trkpt lat="47.70668" lon="5.04">
        <ele>441.81</ele>
        <time>2022-05-16T07:24:40Z</time>
      </trkpt>
      <trkpt lat="47.70671" lon="5.04">
        <ele>441.38</ele>
        <time>2022-05-16T07:24:42Z</time>
      </trkpt>
      <trkpt lat="47.70674" lon="5.03999">
        <ele>440.72</ele>
        <time>2022-05-16T07:24:45Z</time>
      </trkpt>
      <trkpt lat="47.70677" lon="5.03998">
        <ele>440.05</ele>
        <time>2022-05-16T07:24:48Z</time>
      </trkpt>
      <trkpt lat="47.7068" lon="5.03997">
        <ele>439.38</ele>
        <time>2022-05-16T07:24:51Z</time>
      </trkpt>
      <trkpt lat="47.70683" lon="5.03996">
        <ele>438.7</ele>
        <time>2022-05-16T07:24:52Z</time>
      </trkpt>
      <trkpt lat="47.70686" lon="5.03996">
        <ele>438.25</ele>
        <time>2022-05-16T07:24:55Z</time>
      </trkpt>
      <trkpt lat="47.70689" lon="5.03995">
        <ele>437.56</ele>
        <time>2022-05-16T07:24:58Z</time>
      </trkpt>
      <trkpt lat="47.70692" lon="5.03994">
        <ele>436.86</ele>
        <time>2022-05-16T07:25:01Z</time>
      </trkpt>
      <trkpt lat="47.70695" lon="5.03993">
        <ele>436.26</ele>
        <time>2022-05-16T07:25:03Z</time>
      </trkpt>
      <trkpt lat="47.70699" lon="5.03992">
        <ele>436.17</ele>
        <time>2022-05-16T07:25:07Z</time>
      </trkpt>
      <trkpt lat="47.70702" lon="5.0399">
        <ele>435.87</ele>
        <time>2022-05-16T07:25:09Z</time>
      </trkpt>
      <trkpt lat="47.70704" lon="5.03987">
        <ele>435.37</ele>
        <time>2022-05-16T07:25:12Z</time>
      </trkpt>
      <trkpt lat="47.70707" lon="5.03985">
        <ele>435.2</ele>
        <time>2022-05-16T07:25:14Z</time>
      </trkpt>
      <trkpt lat="47.7071" lon="5.03982">
        <ele>434.92</ele>
        <time>2022-05-16T07:25:17Z</time>
      </trkpt>
      <trkpt lat="47.70712" lon="5.03979">
        <ele>434.62</ele>
        <time>2022-05-16T07:25:19Z</time>
      </trkpt>
      <trkpt lat="47.70715" lon="5.03976">
        <ele>434.51</ele>
        <time>2022-05-16T07:25:22Z</time>
      </trkpt>
      <trkpt lat="47.70717" lon="5.03974">
        <ele>434.49</ele>
        <time>2022-05-16T07:25:24Z</time>
      </trkpt>
      <trkpt lat="47.70719" lon="5.03972">
        <ele>434.49</ele>
        <time>2022-05-16T07:25:26Z</time>
      </trkpt>
      <trkpt lat="47.70722" lon="5.03969">
        <ele>434.27</ele>
        <time>2022-05-16T07:25:29Z</time>
      </trkpt>
      <trkpt lat="47.70725" lon="5.03967">
        <ele>434.61</ele>
        <time>2022-05-16T07:25:31Z</time>
      </trkpt>
      <trkpt lat="47.70728" lon="5.03964">
        <ele>434.8</ele>
        <time>2022-05-16T07:25:34Z</time>
      </trkpt>
      <trkpt lat="47.7073" lon="5.03961">
        <ele>434.76</ele>
        <time>2022-05-16T07:25:37Z</time>
      </trkpt>
      <trkpt lat="47.70732" lon="5.03959">
        <ele>434.94</ele>
        <time>2022-05-16T07:25:39Z</time>
      </trkpt>
      <trkpt lat="47.70735" lon="5.03956">
        <ele>435.25</ele>
        <time>2022-05-16T07:25:41Z</time>
      </trkpt>
      <trkpt lat="47.70737" lon="5.03954">
        <ele>435.49</ele>
        <time>2022-05-16T07:25:44Z</time>
      </trkpt>
      <trkpt lat="47.7074" lon="5.03951">
        <ele>435.87</ele>
        <time>2022-05-16T07:25:47Z</time>
      </trkpt>
      <trkpt lat="47.70742" lon="5.03949">
        <ele>436.16</ele>
        <time>2022-05-16T07:25:49Z</time>
      </trkpt>
      <trkpt lat="47.70745" lon="5.03945">
        <ele>436.47</ele>
        <time>2022-05-16T07:25:52Z</time>
      </trkpt>
      <trkpt lat="47.70748" lon="5.03943">
        <ele>437.09</ele>
        <time>2022-05-16T07:25:55Z</time>
      </trkpt>
      <trkpt lat="47.7075" lon="5.0394">
        <ele>437.2</ele>
        <time>2022-05-16T07:25:58Z</time>
      </trkpt>
      <trkpt lat="47.70753" lon="5.03938">
        <ele>437.98</ele>
        <time>2022-05-16T07:26:00Z</time>
      </trkpt>
      <trkpt lat="47.70756" lon="5.03936">
        <ele>438.72</ele>
        <time>2022-05-16T07:26:02Z</time>
      </trkpt>
      <trkpt lat="47.70759" lon="5.03934">
        <ele>439.44</ele>
        <time>2022-05-16T07:26:05Z</time>
      </trkpt>
      <trkpt lat="47.70762" lon="5.03931">
        <ele>439.91</ele>
        <time>2022-05-16T07:26:07Z</time>
      </trkpt>
      <trkpt lat="47.70764" lon="5.03929">
        <ele>440.2</ele>
        <time>2022-05-16T07:26:09Z</time>
      </trkpt>
      <trkpt lat="47.70767" lon="5.03927">
        <ele>440.82</ele>
        <time>2022-05-16T07:26:12Z</time>
      </trkpt>
      <trkpt lat="47.7077" lon="5.03925">
        <ele>441.41</ele>
        <time>2022-05-16T07:26:15Z</time>
      </trkpt>
      <trkpt lat="47.70773" lon="5.03922">
        <ele>441.73</ele>
        <time>2022-05-16T07:26:18Z</time>
      </trkpt>
      <trkpt lat="47.70775" lon="5.0392">
        <ele>441.92</ele>
        <time>2022-05-16T07:26:20Z</time>
      </trkpt>
      <trkpt lat="47.70778" lon="5.03916">
        <ele>441.95</ele>
        <time>2022-05-16T07:26:23Z</time>
      </trkpt>
      <trkpt lat="47.7078" lon="5.03914">
        <ele>442.25</ele>
        <time>2022-05-16T07:26:25Z</time>
      </trkpt>
      <trkpt lat="47.70783" lon="5.03912">
        <ele>442.88</ele>
        <time>2022-05-16T07:26:28Z</time>
      </trkpt>
      <trkpt lat="47.70785" lon="5.0391">
        <ele>443.2</ele>
        <time>2022-05-16T07:26:30Z</time>
      </trkpt>
      <trkpt lat="47.70788" lon="5.03908">
        <ele>443.87</ele>
        <time>2022-05-16T07:26:32Z</time>
      </trkpt>
      <trkpt lat="47.7079" lon="5.03905">
        <ele>444.04</ele>
        <time>2022-05-16T07:26:35Z</time>
      </trkpt>
      <trkpt lat="47.70793" lon="5.03902">
        <ele>444.58</ele>
        <time>2022-05-16T07:26:40Z</time>
      </trkpt>
      <trkpt lat="47.70795" lon="5.03899">
        <ele>444.79</ele>
        <time>2022-05-16T07:26:42Z</time>
      </trkpt>
      <trkpt lat="47.70797" lon="5.03896">
        <ele>445.02</ele>
        <time>2022-05-16T07:26:44Z</time>
      </trkpt>
      <trkpt lat="47.708" lon="5.03893">
        <ele>445.62</ele>
        <time>2022-05-16T07:26:47Z</time>
      </trkpt>
      <trkpt lat="47.70803" lon="5.0389">
        <ele>446.24</ele>
        <time>2022-05-16T07:26:49Z</time>
      </trkpt>
      <trkpt lat="47.70805" lon="5.03887">
        <ele>446.46</ele>
        <time>2022-05-16T07:26:51Z</time>
      </trkpt>
      <trkpt lat="47.70807" lon="5.03885">
        <ele>446.68</ele>
        <time>2022-05-16T07:26:54Z</time>
      </trkpt>
      <trkpt lat="47.7081" lon="5.03882">
        <ele>446.96</ele>
        <time>2022-05-16T07:26:57Z</time>
      </trkpt>
      <trkpt lat="47.70812" lon="5.03879">
        <ele>447.01</ele>
        <time>2022-05-16T07:26:58Z</time>
      </trkpt>
      <trkpt lat="47.70814" lon="5.03876">
        <ele>447.09</ele>
        <time>2022-05-16T07:27:01Z</time>
      </trkpt>
      <trkpt lat="47.70816" lon="5.03873">
        <ele>447.2</ele>
        <time>2022-05-16T07:27:03Z</time>
      </trkpt>
      <trkpt lat="47.70819" lon="5.0387">
        <ele>447.65</ele>
        <time>2022-05-16T07:27:06Z</time>
      </trkpt>
      <trkpt lat="47.70821" lon="5.03866">
        <ele>447.69</ele>
        <time>2022-05-16T07:27:08Z</time>
      </trkpt>
      <trkpt lat="47.70823" lon="5.03863">
        <ele>447.91</ele>
        <time>2022-05-16T07:27:10Z</time>
      </trkpt>
      <trkpt lat="47.70825" lon="5.0386">
        <ele>448.26</ele>
        <time>2022-05-16T07:27:14Z</time>
      </trkpt>
      <trkpt lat="47.70827" lon="5.03857">
        <ele>448.8</ele>
        <time>2022-05-16T07:27:23Z</time>
      </trkpt>
      <trkpt lat="47.70829" lon="5.03853">
        <ele>449.3</ele>
        <time>2022-05-16T07:27:24Z</time>
      </trkpt>
      <trkpt lat="47.70831" lon="5.0385">
        <ele>449.84</ele>
        <time>2022-05-16T07:27:27Z</time>
      </trkpt>
      <trkpt lat="47.70833" lon="5.03847">
        <ele>450.38</ele>
        <time>2022-05-16T07:27:29Z</time>
      </trkpt>
      <trkpt lat="47.70835" lon="5.03843">
        <ele>450.71</ele>
        <time>2022-05-16T07:27:32Z</time>
      </trkpt>
      <trkpt lat="47.70837" lon="5.03839">
        <ele>451</ele>
        <time>2022-05-16T07:27:35Z</time>
      </trkpt>
      <trkpt lat="47.70839" lon="5.03836">
        <ele>451.32</ele>
        <time>2022-05-16T07:27:38Z</time>
      </trkpt>
      <trkpt lat="47.70841" lon="5.03831">
        <ele>451.76</ele>
        <time>2022-05-16T07:27:41Z</time>
      </trkpt>
      <trkpt lat="47.70843" lon="5.03828">
        <ele>452.35</ele>
        <time>2022-05-16T07:27:44Z</time>
      </trkpt>
      <trkpt lat="47.70845" lon="5.03825">
        <ele>452.95</ele>
        <time>2022-05-16T07:27:46Z</time>
      </trkpt>
      <trkpt lat="47.70848" lon="5.03822">
        <ele>453.79</ele>
        <time>2022-05-16T07:27:49Z</time>
      </trkpt>
      <trkpt lat="47.7085" lon="5.03818">
        <ele>454.48</ele>
        <time>2022-05-16T07:27:52Z</time>
      </trkpt>
      <trkpt lat="47.70852" lon="5.03815">
        <ele>455.14</ele>
        <time>2022-05-16T07:27:53Z</time>
      </trkpt>
      <trkpt lat="47.70853" lon="5.03811">
        <ele>455.62</ele>
        <time>2022-05-16T07:27:57Z</time>
      </trkpt>
      <trkpt lat="47.70856" lon="5.03807">
        <ele>456.62</ele>
        <time>2022-05-16T07:27:59Z</time>
      </trkpt>
      <trkpt lat="47.70858" lon="5.03804">
        <ele>457.23</ele>
        <time>2022-05-16T07:28:02Z</time>
      </trkpt>
      <trkpt lat="47.70859" lon="5.038">
        <ele>457.51</ele>
        <time>2022-05-16T07:28:04Z</time>
      </trkpt>
      <trkpt lat="47.70861" lon="5.03795">
        <ele>457.98</ele>
        <time>2022-05-16T07:28:08Z</time>
      </trkpt>
      <trkpt lat="47.70862" lon="5.03792">
        <ele>458.24</ele>
        <time>2022-05-16T07:28:10Z</time>
      </trkpt>
      <trkpt lat="47.70864" lon="5.03788">
        <ele>458.79</ele>
        <time>2022-05-16T07:28:12Z</time>
      </trkpt>
      <trkpt lat="47.70866" lon="5.03783">
        <ele>459.37</ele>
        <time>2022-05-16T07:28:15Z</time>
      </trkpt>
      <trkpt lat="47.70867" lon="5.03779">
        <ele>459.69</ele>
        <time>2022-05-16T07:28:18Z</time>
      </trkpt>
      <trkpt lat="47.70869" lon="5.03776">
        <ele>460.57</ele>
        <time>2022-05-16T07:28:21Z</time>
      </trkpt>
      <trkpt lat="47.70871" lon="5.03772">
        <ele>461.73</ele>
        <time>2022-05-16T07:28:23Z</time>
      </trkpt>
      <trkpt lat="47.70872" lon="5.03769">
        <ele>462.41</ele>
        <time>2022-05-16T07:28:26Z</time>
      </trkpt>
      <trkpt lat="47.70875" lon="5.03765">
        <ele>463.61</ele>
        <time>2022-05-16T07:28:29Z</time>
      </trkpt>
      <trkpt lat="47.70877" lon="5.03762">
        <ele>464.36</ele>
        <time>2022-05-16T07:28:32Z</time>
      </trkpt>
      <trkpt lat="47.70878" lon="5.03758">
        <ele>464.97</ele>
        <time>2022-05-16T07:28:35Z</time>
      </trkpt>
      <trkpt lat="47.7088" lon="5.03754">
        <ele>465.67</ele>
        <time>2022-05-16T07:28:38Z</time>
      </trkpt>
      <trkpt lat="47.7088" lon="5.0375">
        <ele>466.04</ele>
        <time>2022-05-16T07:28:44Z</time>
      </trkpt>
      <trkpt lat="47.70881" lon="5.03746">
        <ele>466.54</ele>
        <time>2022-05-16T07:28:47Z</time>
      </trkpt>
      <trkpt lat="47.70882" lon="5.03742">
        <ele>467.05</ele>
        <time>2022-05-16T07:28:50Z</time>
      </trkpt>
      <trkpt lat="47.70884" lon="5.03738">
        <ele>467.69</ele>
        <time>2022-05-16T07:28:53Z</time>
      </trkpt>
      <trkpt lat="47.70886" lon="5.03734">
        <ele>468.36</ele>
        <time>2022-05-16T07:28:55Z</time>
      </trkpt>
      <trkpt lat="47.70887" lon="5.03731">
        <ele>468.8</ele>
        <time>2022-05-16T07:28:59Z</time>
      </trkpt>
      <trkpt lat="47.70889" lon="5.03728">
        <ele>469.39</ele>
        <time>2022-05-16T07:29:04Z</time>
      </trkpt>
      <trkpt lat="47.70891" lon="5.03724">
        <ele>469.97</ele>
        <time>2022-05-16T07:29:08Z</time>
      </trkpt>
      <trkpt lat="47.70891" lon="5.0372">
        <ele>470.31</ele>
        <time>2022-05-16T07:29:11Z</time>
      </trkpt>
      <trkpt lat="47.70891" lon="5.03715">
        <ele>470.67</ele>
        <time>2022-05-16T07:29:14Z</time>
      </trkpt>
      <trkpt lat="47.70891" lon="5.03711">
        <ele>470.96</ele>
        <time>2022-05-16T07:29:16Z</time>
      </trkpt>
      <trkpt lat="47.7089" lon="5.03707">
        <ele>471.18</ele>
        <time>2022-05-16T07:29:18Z</time>
      </trkpt>
      <trkpt lat="47.70889" lon="5.03703">
        <ele>471.39</ele>
        <time>2022-05-16T07:29:21Z</time>
      </trkpt>
      <trkpt lat="47.70887" lon="5.03698">
        <ele>471.47</ele>
        <time>2022-05-16T07:29:24Z</time>
      </trkpt>
      <trkpt lat="47.70884" lon="5.03695">
        <ele>471.26</ele>
        <time>2022-05-16T07:29:26Z</time>
      </trkpt>
      <trkpt lat="47.70882" lon="5.03692">
        <ele>470.7</ele>
        <time>2022-05-16T07:29:30Z</time>
      </trkpt>
      <trkpt lat="47.70879" lon="5.0369">
        <ele>470.05</ele>
        <time>2022-05-16T07:29:32Z</time>
      </trkpt>
      <trkpt lat="47.70877" lon="5.03688">
        <ele>469.56</ele>
        <time>2022-05-16T07:29:36Z</time>
      </trkpt>
      <trkpt lat="47.70874" lon="5.03686">
        <ele>468.97</ele>
        <time>2022-05-16T07:29:38Z</time>
      </trkpt>
      <trkpt lat="47.70871" lon="5.03685">
        <ele>468.5</ele>
        <time>2022-05-16T07:29:42Z</time>
      </trkpt>
      <trkpt lat="47.70869" lon="5.03682">
        <ele>467.99</ele>
        <time>2022-05-16T07:29:46Z</time>
      </trkpt>
      <trkpt lat="47.70868" lon="5.03678">
        <ele>467.51</ele>
        <time>2022-05-16T07:29:49Z</time>
      </trkpt>
      <trkpt lat="47.70867" lon="5.03673">
        <ele>466.98</ele>
        <time>2022-05-16T07:29:51Z</time>
      </trkpt>
      <trkpt lat="47.70866" lon="5.03669">
        <ele>466.55</ele>
        <time>2022-05-16T07:29:55Z</time>
      </trkpt>
      <trkpt lat="47.70867" lon="5.03664">
        <ele>466.27</ele>
        <time>2022-05-16T07:29:59Z</time>
      </trkpt>
      <trkpt lat="47.70869" lon="5.0366">
        <ele>466.12</ele>
        <time>2022-05-16T07:30:02Z</time>
      </trkpt>
      <trkpt lat="47.7087" lon="5.03657">
        <ele>465.96</ele>
        <time>2022-05-16T07:30:05Z</time>
      </trkpt>
      <trkpt lat="47.70872" lon="5.03653">
        <ele>465.71</ele>
        <time>2022-05-16T07:30:07Z</time>
      </trkpt>
      <trkpt lat="47.70874" lon="5.0365">
        <ele>465.49</ele>
        <time>2022-05-16T07:30:09Z</time>
      </trkpt>
      <trkpt lat="47.70877" lon="5.03645">
        <ele>465.03</ele>
        <time>2022-05-16T07:30:12Z</time>
      </trkpt>
      <trkpt lat="47.7088" lon="5.03643">
        <ele>464.77</ele>
        <time>2022-05-16T07:30:15Z</time>
      </trkpt>
      <trkpt lat="47.70883" lon="5.0364">
        <ele>464.35</ele>
        <time>2022-05-16T07:30:19Z</time>
      </trkpt>
      <trkpt lat="47.70887" lon="5.03636">
        <ele>464.08</ele>
        <time>2022-05-16T07:30:27Z</time>
      </trkpt>
      <trkpt lat="47.70889" lon="5.03633">
        <ele>464.01</ele>
        <time>2022-05-16T07:30:31Z</time>
      </trkpt>
      <trkpt lat="47.70892" lon="5.03632">
        <ele>464.17</ele>
        <time>2022-05-16T07:30:33Z</time>
      </trkpt>
      <trkpt lat="47.70894" lon="5.0363">
        <ele>464.25</ele>
        <time>2022-05-16T07:30:35Z</time>
      </trkpt>
      <trkpt lat="47.70897" lon="5.03628">
        <ele>464.36</ele>
        <time>2022-05-16T07:30:39Z</time>
      </trkpt>
      <trkpt lat="47.709" lon="5.03626">
        <ele>464.43</ele>
        <time>2022-05-16T07:30:41Z</time>
      </trkpt>
      <trkpt lat="47.70903" lon="5.03624">
        <ele>464.47</ele>
        <time>2022-05-16T07:30:44Z</time>
      </trkpt>
      <trkpt lat="47.70905" lon="5.03624">
        <ele>464.54</ele>
        <time>2022-05-16T07:30:49Z</time>
      </trkpt>
      <trkpt lat="47.70908" lon="5.03626">
        <ele>464.74</ele>
        <time>2022-05-16T07:30:54Z</time>
      </trkpt>
      <trkpt lat="47.70911" lon="5.03625">
        <ele>464.8</ele>
        <time>2022-05-16T07:30:57Z</time>
      </trkpt>
      <trkpt lat="47.70914" lon="5.03623">
        <ele>464.77</ele>
        <time>2022-05-16T07:31:00Z</time>
      </trkpt>
      <trkpt lat="47.70917" lon="5.03621">
        <ele>464.77</ele>
        <time>2022-05-16T07:31:03Z</time>
      </trkpt>
      <trkpt lat="47.7092" lon="5.03619">
        <ele>465.15</ele>
        <time>2022-05-16T07:31:05Z</time>
      </trkpt>
      <trkpt lat="47.70923" lon="5.03616">
        <ele>465.38</ele>
        <time>2022-05-16T07:31:06Z</time>
      </trkpt>
      <trkpt lat="47.70925" lon="5.03614">
        <ele>465.5</ele>
        <time>2022-05-16T07:31:09Z</time>
      </trkpt>
      <trkpt lat="47.70927" lon="5.0361">
        <ele>465.46</ele>
        <time>2022-05-16T07:31:11Z</time>
      </trkpt>
      <trkpt lat="47.70928" lon="5.03607">
        <ele>465.51</ele>
        <time>2022-05-16T07:31:13Z</time>
      </trkpt>
      <trkpt lat="47.70931" lon="5.03603">
        <ele>465.76</ele>
        <time>2022-05-16T07:31:15Z</time>
      </trkpt>
      <trkpt lat="47.70934" lon="5.03601">
        <ele>466.04</ele>
        <time>2022-05-16T07:31:18Z</time>
      </trkpt>
      <trkpt lat="47.70936" lon="5.03598">
        <ele>466.13</ele>
        <time>2022-05-16T07:31:20Z</time>
      </trkpt>
      <trkpt lat="47.70938" lon="5.03596">
        <ele>466.24</ele>
        <time>2022-05-16T07:31:22Z</time>
      </trkpt>
      <trkpt lat="47.70941" lon="5.03594">
        <ele>466.42</ele>
        <time>2022-05-16T07:31:25Z</time>
      </trkpt>
      <trkpt lat="47.70943" lon="5.03592">
        <ele>466.49</ele>
        <time>2022-05-16T07:31:27Z</time>
      </trkpt>
      <trkpt lat="47.70946" lon="5.0359">
        <ele>466.7</ele>
        <time>2022-05-16T07:31:30Z</time>
      </trkpt>
      <trkpt lat="47.70949" lon="5.03588">
        <ele>466.99</ele>
        <time>2022-05-16T07:31:33Z</time>
      </trkpt>
      <trkpt lat="47.70951" lon="5.03586">
        <ele>467.14</ele>
        <time>2022-05-16T07:31:36Z</time>
      </trkpt>
      <trkpt lat="47.70954" lon="5.03583">
        <ele>467.39</ele>
        <time>2022-05-16T07:31:40Z</time>
      </trkpt>
      <trkpt lat="47.70956" lon="5.03581">
        <ele>467.78</ele>
        <time>2022-05-16T07:31:42Z</time>
      </trkpt>
      <trkpt lat="47.70959" lon="5.03578">
        <ele>468.39</ele>
        <time>2022-05-16T07:31:45Z</time>
      </trkpt>
      <trkpt lat="47.70961" lon="5.03575">
        <ele>468.86</ele>
        <time>2022-05-16T07:31:49Z</time>
      </trkpt>
      <trkpt lat="47.70964" lon="5.03572">
        <ele>469.51</ele>
        <time>2022-05-16T07:31:52Z</time>
      </trkpt>
      <trkpt lat="47.70966" lon="5.03569">
        <ele>470.02</ele>
        <time>2022-05-16T07:31:55Z</time>
      </trkpt>
      <trkpt lat="47.70969" lon="5.03568">
        <ele>470.58</ele>
        <time>2022-05-16T07:31:58Z</time>
      </trkpt>
      <trkpt lat="47.70972" lon="5.03568">
        <ele>471.07</ele>
        <time>2022-05-16T07:32:00Z</time>
      </trkpt>
      <trkpt lat="47.70975" lon="5.03567">
        <ele>471.76</ele>
        <time>2022-05-16T07:32:03Z</time>
      </trkpt>
      <trkpt lat="47.70978" lon="5.03566">
        <ele>472.44</ele>
        <time>2022-05-16T07:32:06Z</time>
      </trkpt>
      <trkpt lat="47.70981" lon="5.03564">
        <ele>473.16</ele>
        <time>2022-05-16T07:32:08Z</time>
      </trkpt>
      <trkpt lat="47.70983" lon="5.03561">
        <ele>473.7</ele>
        <time>2022-05-16T07:32:11Z</time>
      </trkpt>
      <trkpt lat="47.70986" lon="5.03558">
        <ele>474.39</ele>
        <time>2022-05-16T07:32:15Z</time>
      </trkpt>
      <trkpt lat="47.70988" lon="5.03556">
        <ele>474.83</ele>
        <time>2022-05-16T07:32:17Z</time>
      </trkpt>
      <trkpt lat="47.70991" lon="5.03553">
        <ele>475.59</ele>
        <time>2022-05-16T07:32:21Z</time>
      </trkpt>
      <trkpt lat="47.70993" lon="5.0355">
        <ele>476.19</ele>
        <time>2022-05-16T07:32:23Z</time>
      </trkpt>
      <trkpt lat="47.70996" lon="5.03547">
        <ele>476.94</ele>
        <time>2022-05-16T07:32:26Z</time>
      </trkpt>
      <trkpt lat="47.70999" lon="5.03545">
        <ele>477.59</ele>
        <time>2022-05-16T07:32:29Z</time>
      </trkpt>
      <trkpt lat="47.71002" lon="5.03544">
        <ele>478.23</ele>
        <time>2022-05-16T07:32:31Z</time>
      </trkpt>
      <trkpt lat="47.71005" lon="5.03542">
        <ele>478.97</ele>
        <time>2022-05-16T07:32:34Z</time>
      </trkpt>
      <trkpt lat="47.71008" lon="5.03539">
        <ele>479.75</ele>
        <time>2022-05-16T07:32:37Z</time>
      </trkpt>
      <trkpt lat="47.71011" lon="5.03538">
        <ele>480.39</ele>
        <time>2022-05-16T07:32:39Z</time>
      </trkpt>
      <trkpt lat="47.71013" lon="5.03536">
        <ele>480.89</ele>
        <time>2022-05-16T07:32:42Z</time>
      </trkpt>
      <trkpt lat="47.71016" lon="5.03534">
        <ele>481.56</ele>
        <time>2022-05-16T07:32:44Z</time>
      </trkpt>
      <trkpt lat="47.71018" lon="5.03531">
        <ele>482.08</ele>
        <time>2022-05-16T07:32:47Z</time>
      </trkpt>
      <trkpt lat="47.71021" lon="5.03529">
        <ele>482.73</ele>
        <time>2022-05-16T07:32:50Z</time>
      </trkpt>
      <trkpt lat="47.71024" lon="5.03527">
        <ele>483.4</ele>
        <time>2022-05-16T07:32:53Z</time>
      </trkpt>
      <trkpt lat="47.71027" lon="5.03525">
        <ele>484.16</ele>
        <time>2022-05-16T07:32:55Z</time>
      </trkpt>
      <trkpt lat="47.71029" lon="5.03523">
        <ele>484.68</ele>
        <time>2022-05-16T07:32:58Z</time>
      </trkpt>
      <trkpt lat="47.71032" lon="5.03521">
        <ele>485.3</ele>
        <time>2022-05-16T07:33:01Z</time>
      </trkpt>
      <trkpt lat="47.71034" lon="5.03519">
        <ele>485.77</ele>
        <time>2022-05-16T07:33:03Z</time>
      </trkpt>
      <trkpt lat="47.71037" lon="5.03516">
        <ele>486.46</ele>
        <time>2022-05-16T07:33:07Z</time>
      </trkpt>
      <trkpt lat="47.71039" lon="5.03514">
        <ele>486.9</ele>
        <time>2022-05-16T07:33:09Z</time>
      </trkpt>
      <trkpt lat="47.71042" lon="5.03512">
        <ele>487.46</ele>
        <time>2022-05-16T07:33:13Z</time>
      </trkpt>
      <trkpt lat="47.71044" lon="5.03509">
        <ele>487.97</ele>
        <time>2022-05-16T07:33:16Z</time>
      </trkpt>
      <trkpt lat="47.71047" lon="5.03506">
        <ele>488.58</ele>
        <time>2022-05-16T07:33:20Z</time>
      </trkpt>
      <trkpt lat="47.7105" lon="5.03505">
        <ele>489</ele>
        <time>2022-05-16T07:33:23Z</time>
      </trkpt>
      <trkpt lat="47.71053" lon="5.03507">
        <ele>489.2</ele>
        <time>2022-05-16T07:33:26Z</time>
      </trkpt>
      <trkpt lat="47.71055" lon="5.03506">
        <ele>489.5</ele>
        <time>2022-05-16T07:33:28Z</time>
      </trkpt>
      <trkpt lat="47.71058" lon="5.03501">
        <ele>489.93</ele>
        <time>2022-05-16T07:33:31Z</time>
      </trkpt>
      <trkpt lat="47.71061" lon="5.03497">
        <ele>490.17</ele>
        <time>2022-05-16T07:33:34Z</time>
      </trkpt>
      <trkpt lat="47.71063" lon="5.03495">
        <ele>490.26</ele>
        <time>2022-05-16T07:33:37Z</time>
      </trkpt>
      <trkpt lat="47.71066" lon="5.03492">
        <ele>490.36</ele>
        <time>2022-05-16T07:33:40Z</time>
      </trkpt>
      <trkpt lat="47.71069" lon="5.03491">
        <ele>490.33</ele>
        <time>2022-05-16T07:33:43Z</time>
      </trkpt>
      <trkpt lat="47.71072" lon="5.03488">
        <ele>490.35</ele>
        <time>2022-05-16T07:33:46Z</time>
      </trkpt>
      <trkpt lat="47.71074" lon="5.03486">
        <ele>490.34</ele>
        <time>2022-05-16T07:33:49Z</time>
      </trkpt>
      <trkpt lat="47.71077" lon="5.03484">
        <ele>490.26</ele>
        <time>2022-05-16T07:33:51Z</time>
      </trkpt>
      <trkpt lat="47.71079" lon="5.03482">
        <ele>490.2</ele>
        <time>2022-05-16T07:33:55Z</time>
      </trkpt>
      <trkpt lat="47.71082" lon="5.0348">
        <ele>490.07</ele>
        <time>2022-05-16T07:33:57Z</time>
      </trkpt>
      <trkpt lat="47.71085" lon="5.03478">
        <ele>489.87</ele>
        <time>2022-05-16T07:34:00Z</time>
      </trkpt>
      <trkpt lat="47.71088" lon="5.03475">
        <ele>489.65</ele>
        <time>2022-05-16T07:34:03Z</time>
      </trkpt>
      <trkpt lat="47.7109" lon="5.03472">
        <ele>489.53</ele>
        <time>2022-05-16T07:34:05Z</time>
      </trkpt>
      <trkpt lat="47.71093" lon="5.03469">
        <ele>489.42</ele>
        <time>2022-05-16T07:34:07Z</time>
      </trkpt>
      <trkpt lat="47.71095" lon="5.03466">
        <ele>489.38</ele>
        <time>2022-05-16T07:34:09Z</time>
      </trkpt>
      <trkpt lat="47.71098" lon="5.03463">
        <ele>489.28</ele>
        <time>2022-05-16T07:34:12Z</time>
      </trkpt>
      <trkpt lat="47.711" lon="5.0346">
        <ele>489.24</ele>
        <time>2022-05-16T07:34:14Z</time>
      </trkpt>
      <trkpt lat="47.71103" lon="5.03457">
        <ele>489.13</ele>
        <time>2022-05-16T07:34:17Z</time>
      </trkpt>
      <trkpt lat="47.71105" lon="5.03455">
        <ele>489.06</ele>
        <time>2022-05-16T07:34:19Z</time>
      </trkpt>
      <trkpt lat="47.71109" lon="5.03453">
        <ele>488.84</ele>
        <time>2022-05-16T07:34:21Z</time>
      </trkpt>
      <trkpt lat="47.71111" lon="5.03452">
        <ele>488.74</ele>
        <time>2022-05-16T07:34:23Z</time>
      </trkpt>
      <trkpt lat="47.71114" lon="5.03449">
        <ele>488.75</ele>
        <time>2022-05-16T07:34:25Z</time>
      </trkpt>
      <trkpt lat="47.71116" lon="5.03446">
        <ele>488.78</ele>
        <time>2022-05-16T07:34:28Z</time>
      </trkpt>
      <trkpt lat="47.71118" lon="5.03442">
        <ele>488.6</ele>
        <time>2022-05-16T07:34:30Z</time>
      </trkpt>
      <trkpt lat="47.71119" lon="5.03438">
        <ele>488.32</ele>
        <time>2022-05-16T07:34:32Z</time>
      </trkpt>
      <trkpt lat="47.7112" lon="5.03434">
        <ele>488.05</ele>
        <time>2022-05-16T07:34:35Z</time>
      </trkpt>
      <trkpt lat="47.71122" lon="5.0343">
        <ele>487.77</ele>
        <time>2022-05-16T07:34:37Z</time>
      </trkpt>
      <trkpt lat="47.71122" lon="5.03425">
        <ele>487.48</ele>
        <time>2022-05-16T07:34:39Z</time>
      </trkpt>
      <trkpt lat="47.71123" lon="5.0342">
        <ele>487.19</ele>
        <time>2022-05-16T07:34:41Z</time>
      </trkpt>
      <trkpt lat="47.71124" lon="5.03416">
        <ele>486.97</ele>
        <time>2022-05-16T07:34:43Z</time>
      </trkpt>
      <trkpt lat="47.71124" lon="5.03411">
        <ele>486.72</ele>
        <time>2022-05-16T07:34:45Z</time>
      </trkpt>
      <trkpt lat="47.71125" lon="5.03407">
        <ele>486.48</ele>
        <time>2022-05-16T07:34:48Z</time>
      </trkpt>
      <trkpt lat="47.71125" lon="5.03402">
        <ele>486.21</ele>
        <time>2022-05-16T07:34:51Z</time>
      </trkpt>
      <trkpt lat="47.71124" lon="5.03398">
        <ele>486.06</ele>
        <time>2022-05-16T07:34:54Z</time>
      </trkpt>
      <trkpt lat="47.71124" lon="5.03394">
        <ele>485.86</ele>
        <time>2022-05-16T07:34:58Z</time>
      </trkpt>
      <trkpt lat="47.71125" lon="5.03385">
        <ele>485.57</ele>
        <time>2022-05-16T07:34:59Z</time>
      </trkpt>
      <trkpt lat="47.71127" lon="5.03381">
        <ele>485.45</ele>
        <time>2022-05-16T07:35:01Z</time>
      </trkpt>
      <trkpt lat="47.71127" lon="5.03376">
        <ele>485.55</ele>
        <time>2022-05-16T07:35:02Z</time>
      </trkpt>
      <trkpt lat="47.71127" lon="5.03372">
        <ele>485.63</ele>
        <time>2022-05-16T07:35:04Z</time>
      </trkpt>
      <trkpt lat="47.71127" lon="5.03367">
        <ele>485.73</ele>
        <time>2022-05-16T07:35:07Z</time>
      </trkpt>
      <trkpt lat="47.71128" lon="5.03363">
        <ele>485.74</ele>
        <time>2022-05-16T07:35:09Z</time>
      </trkpt>
      <trkpt lat="47.71128" lon="5.03359">
        <ele>485.81</ele>
        <time>2022-05-16T07:35:12Z</time>
      </trkpt>
      <trkpt lat="47.7113" lon="5.03355">
        <ele>485.62</ele>
        <time>2022-05-16T07:35:13Z</time>
      </trkpt>
      <trkpt lat="47.7113" lon="5.0335">
        <ele>485.61</ele>
        <time>2022-05-16T07:35:16Z</time>
      </trkpt>
      <trkpt lat="47.71132" lon="5.03346">
        <ele>485.22</ele>
        <time>2022-05-16T07:35:18Z</time>
      </trkpt>
      <trkpt lat="47.71134" lon="5.03344">
        <ele>484.77</ele>
        <time>2022-05-16T07:35:22Z</time>
      </trkpt>
      <trkpt lat="47.71136" lon="5.0334">
        <ele>484.16</ele>
        <time>2022-05-16T07:35:24Z</time>
      </trkpt>
      <trkpt lat="47.71135" lon="5.03335">
        <ele>484.19</ele>
        <time>2022-05-16T07:35:27Z</time>
      </trkpt>
      <trkpt lat="47.71135" lon="5.0333">
        <ele>484.21</ele>
        <time>2022-05-16T07:35:30Z</time>
      </trkpt>
      <trkpt lat="47.71135" lon="5.03326">
        <ele>484.31</ele>
        <time>2022-05-16T07:35:32Z</time>
      </trkpt>
      <trkpt lat="47.71137" lon="5.03322">
        <ele>483.9</ele>
        <time>2022-05-16T07:35:34Z</time>
      </trkpt>
      <trkpt lat="47.71138" lon="5.03317">
        <ele>483.81</ele>
        <time>2022-05-16T07:35:36Z</time>
      </trkpt>
      <trkpt lat="47.71139" lon="5.03313">
        <ele>483.72</ele>
        <time>2022-05-16T07:35:38Z</time>
      </trkpt>
      <trkpt lat="47.71139" lon="5.03308">
        <ele>483.9</ele>
        <time>2022-05-16T07:35:41Z</time>
      </trkpt>
      <trkpt lat="47.71139" lon="5.03304">
        <ele>483.99</ele>
        <time>2022-05-16T07:35:43Z</time>
      </trkpt>
      <trkpt lat="47.7114" lon="5.03299">
        <ele>483.96</ele>
        <time>2022-05-16T07:35:51Z</time>
      </trkpt>
      <trkpt lat="47.71141" lon="5.03294">
        <ele>483.97</ele>
        <time>2022-05-16T07:35:53Z</time>
      </trkpt>
      <trkpt lat="47.71141" lon="5.03289">
        <ele>484.03</ele>
        <time>2022-05-16T07:35:55Z</time>
      </trkpt>
      <trkpt lat="47.71142" lon="5.03284">
        <ele>484.12</ele>
        <time>2022-05-16T07:35:57Z</time>
      </trkpt>
      <trkpt lat="47.71143" lon="5.03278">
        <ele>484.29</ele>
        <time>2022-05-16T07:36:01Z</time>
      </trkpt>
      <trkpt lat="47.71144" lon="5.03274">
        <ele>484.32</ele>
        <time>2022-05-16T07:36:03Z</time>
      </trkpt>
      <trkpt lat="47.71145" lon="5.03269">
        <ele>484.3</ele>
        <time>2022-05-16T07:36:05Z</time>
      </trkpt>
      <trkpt lat="47.71145" lon="5.03265">
        <ele>484.24</ele>
        <time>2022-05-16T07:36:07Z</time>
      </trkpt>
      <trkpt lat="47.71146" lon="5.03261">
        <ele>484.2</ele>
        <time>2022-05-16T07:36:09Z</time>
      </trkpt>
      <trkpt lat="47.71146" lon="5.03257">
        <ele>484.13</ele>
        <time>2022-05-16T07:36:12Z</time>
      </trkpt>
      <trkpt lat="47.71147" lon="5.03253">
        <ele>484.06</ele>
        <time>2022-05-16T07:36:14Z</time>
      </trkpt>
      <trkpt lat="47.71148" lon="5.03248">
        <ele>483.98</ele>
        <time>2022-05-16T07:36:16Z</time>
      </trkpt>
      <trkpt lat="47.71149" lon="5.03243">
        <ele>483.93</ele>
        <time>2022-05-16T07:36:19Z</time>
      </trkpt>
      <trkpt lat="47.71149" lon="5.03238">
        <ele>483.88</ele>
        <time>2022-05-16T07:36:22Z</time>
      </trkpt>
      <trkpt lat="47.71149" lon="5.03234">
        <ele>483.84</ele>
        <time>2022-05-16T07:36:24Z</time>
      </trkpt>
      <trkpt lat="47.7115" lon="5.0323">
        <ele>483.86</ele>
        <time>2022-05-16T07:36:27Z</time>
      </trkpt>
      <trkpt lat="47.7115" lon="5.03226">
        <ele>483.83</ele>
        <time>2022-05-16T07:36:30Z</time>
      </trkpt>
      <trkpt lat="47.71152" lon="5.03222">
        <ele>483.96</ele>
        <time>2022-05-16T07:36:32Z</time>
      </trkpt>
      <trkpt lat="47.71153" lon="5.03218">
        <ele>484.24</ele>
        <time>2022-05-16T07:36:35Z</time>
      </trkpt>
      <trkpt lat="47.71154" lon="5.03214">
        <ele>484.49</ele>
        <time>2022-05-16T07:36:37Z</time>
      </trkpt>
      <trkpt lat="47.71154" lon="5.0321">
        <ele>484.69</ele>
        <time>2022-05-16T07:36:39Z</time>
      </trkpt>
      <trkpt lat="47.71155" lon="5.03205">
        <ele>484.94</ele>
        <time>2022-05-16T07:36:42Z</time>
      </trkpt>
      <trkpt lat="47.71156" lon="5.03201">
        <ele>485.11</ele>
        <time>2022-05-16T07:36:44Z</time>
      </trkpt>
      <trkpt lat="47.71156" lon="5.03196">
        <ele>485.32</ele>
        <time>2022-05-16T07:36:46Z</time>
      </trkpt>
      <trkpt lat="47.71157" lon="5.03191">
        <ele>485.51</ele>
        <time>2022-05-16T07:36:48Z</time>
      </trkpt>
      <trkpt lat="47.71158" lon="5.03187">
        <ele>485.68</ele>
        <time>2022-05-16T07:36:51Z</time>
      </trkpt>
      <trkpt lat="47.71159" lon="5.03183">
        <ele>485.87</ele>
        <time>2022-05-16T07:36:53Z</time>
      </trkpt>
      <trkpt lat="47.7116" lon="5.03178">
        <ele>486.14</ele>
        <time>2022-05-16T07:36:56Z</time>
      </trkpt>
      <trkpt lat="47.71161" lon="5.03173">
        <ele>486.43</ele>
        <time>2022-05-16T07:36:58Z</time>
      </trkpt>
      <trkpt lat="47.71162" lon="5.03169">
        <ele>486.69</ele>
        <time>2022-05-16T07:37:01Z</time>
      </trkpt>
      <trkpt lat="47.71163" lon="5.03165">
        <ele>486.89</ele>
        <time>2022-05-16T07:37:04Z</time>
      </trkpt>
      <trkpt lat="47.71163" lon="5.0316">
        <ele>486.96</ele>
        <time>2022-05-16T07:37:07Z</time>
      </trkpt>
      <trkpt lat="47.71163" lon="5.03156">
        <ele>487.02</ele>
        <time>2022-05-16T07:37:09Z</time>
      </trkpt>
      <trkpt lat="47.71163" lon="5.03152">
        <ele>487.08</ele>
        <time>2022-05-16T07:37:11Z</time>
      </trkpt>
      <trkpt lat="47.71164" lon="5.03147">
        <ele>487.11</ele>
        <time>2022-05-16T07:37:14Z</time>
      </trkpt>
      <trkpt lat="47.71165" lon="5.03143">
        <ele>487.09</ele>
        <time>2022-05-16T07:37:16Z</time>
      </trkpt>
      <trkpt lat="47.71166" lon="5.03138">
        <ele>487.17</ele>
        <time>2022-05-16T07:37:18Z</time>
      </trkpt>
      <trkpt lat="47.71166" lon="5.03134">
        <ele>487.74</ele>
        <time>2022-05-16T07:37:20Z</time>
      </trkpt>
      <trkpt lat="47.71166" lon="5.03128">
        <ele>488.58</ele>
        <time>2022-05-16T07:37:24Z</time>
      </trkpt>
      <trkpt lat="47.71166" lon="5.03122">
        <ele>489.42</ele>
        <time>2022-05-16T07:37:27Z</time>
      </trkpt>
      <trkpt lat="47.71166" lon="5.03117">
        <ele>490.12</ele>
        <time>2022-05-16T07:37:30Z</time>
      </trkpt>
      <trkpt lat="47.71167" lon="5.03112">
        <ele>490.85</ele>
        <time>2022-05-16T07:37:33Z</time>
      </trkpt>
      <trkpt lat="47.71168" lon="5.03108">
        <ele>491.03</ele>
        <time>2022-05-16T07:37:35Z</time>
      </trkpt>
      <trkpt lat="47.71169" lon="5.03104">
        <ele>491.13</ele>
        <time>2022-05-16T07:37:38Z</time>
      </trkpt>
      <trkpt lat="47.7117" lon="5.031">
        <ele>491.26</ele>
        <time>2022-05-16T07:37:40Z</time>
      </trkpt>
      <trkpt lat="47.71172" lon="5.03096">
        <ele>491.37</ele>
        <time>2022-05-16T07:37:43Z</time>
      </trkpt>
      <trkpt lat="47.71173" lon="5.03091">
        <ele>491.6</ele>
        <time>2022-05-16T07:37:46Z</time>
      </trkpt>
      <trkpt lat="47.71173" lon="5.03087">
        <ele>491.81</ele>
        <time>2022-05-16T07:37:49Z</time>
      </trkpt>
      <trkpt lat="47.71174" lon="5.03083">
        <ele>492.02</ele>
        <time>2022-05-16T07:37:53Z</time>
      </trkpt>
      <trkpt lat="47.71174" lon="5.03078">
        <ele>492.28</ele>
        <time>2022-05-16T07:37:56Z</time>
      </trkpt>
      <trkpt lat="47.71174" lon="5.03074">
        <ele>492.49</ele>
        <time>2022-05-16T07:37:59Z</time>
      </trkpt>
      <trkpt lat="47.71173" lon="5.0307">
        <ele>492.74</ele>
        <time>2022-05-16T07:38:04Z</time>
      </trkpt>
      <trkpt lat="47.71173" lon="5.03065">
        <ele>493.02</ele>
        <time>2022-05-16T07:38:08Z</time>
      </trkpt>
      <trkpt lat="47.71173" lon="5.0306">
        <ele>493.3</ele>
        <time>2022-05-16T07:38:11Z</time>
      </trkpt>
      <trkpt lat="47.71173" lon="5.03055">
        <ele>493.58</ele>
        <time>2022-05-16T07:38:13Z</time>
      </trkpt>
      <trkpt lat="47.71172" lon="5.03051">
        <ele>493.94</ele>
        <time>2022-05-16T07:38:16Z</time>
      </trkpt>
      <trkpt lat="47.71172" lon="5.03046">
        <ele>494.3</ele>
        <time>2022-05-16T07:38:18Z</time>
      </trkpt>
      <trkpt lat="47.71172" lon="5.03042">
        <ele>494.59</ele>
        <time>2022-05-16T07:38:21Z</time>
      </trkpt>
      <trkpt lat="47.71172" lon="5.03038">
        <ele>494.88</ele>
        <time>2022-05-16T07:38:24Z</time>
      </trkpt>
      <trkpt lat="47.71172" lon="5.03033">
        <ele>495.24</ele>
        <time>2022-05-16T07:38:28Z</time>
      </trkpt>
      <trkpt lat="47.71172" lon="5.03029">
        <ele>495.53</ele>
        <time>2022-05-16T07:38:30Z</time>
      </trkpt>
      <trkpt lat="47.71172" lon="5.03024">
        <ele>495.51</ele>
        <time>2022-05-16T07:38:33Z</time>
      </trkpt>
      <trkpt lat="47.71172" lon="5.0302">
        <ele>495.39</ele>
        <time>2022-05-16T07:38:35Z</time>
      </trkpt>
      <trkpt lat="47.71173" lon="5.03015">
        <ele>495.19</ele>
        <time>2022-05-16T07:38:38Z</time>
      </trkpt>
      <trkpt lat="47.71173" lon="5.03009">
        <ele>495.02</ele>
        <time>2022-05-16T07:38:41Z</time>
      </trkpt>
      <trkpt lat="47.71172" lon="5.03005">
        <ele>494.95</ele>
        <time>2022-05-16T07:38:44Z</time>
      </trkpt>
      <trkpt lat="47.71172" lon="5.03">
        <ele>494.81</ele>
        <time>2022-05-16T07:38:48Z</time>
      </trkpt>
      <trkpt lat="47.71172" lon="5.02996">
        <ele>494.64</ele>
        <time>2022-05-16T07:38:52Z</time>
      </trkpt>
      <trkpt lat="47.71172" lon="5.0299">
        <ele>494.38</ele>
        <time>2022-05-16T07:38:55Z</time>
      </trkpt>
      <trkpt lat="47.71172" lon="5.02986">
        <ele>494.21</ele>
        <time>2022-05-16T07:38:57Z</time>
      </trkpt>
      <trkpt lat="47.71172" lon="5.02981">
        <ele>493.99</ele>
        <time>2022-05-16T07:39:00Z</time>
      </trkpt>
      <trkpt lat="47.71172" lon="5.02977">
        <ele>493.82</ele>
        <time>2022-05-16T07:39:03Z</time>
      </trkpt>
      <trkpt lat="47.71172" lon="5.02973">
        <ele>493.65</ele>
        <time>2022-05-16T07:39:06Z</time>
      </trkpt>
      <trkpt lat="47.71173" lon="5.02969">
        <ele>493.22</ele>
        <time>2022-05-16T07:39:10Z</time>
      </trkpt>
      <trkpt lat="47.71174" lon="5.02964">
        <ele>492.66</ele>
        <time>2022-05-16T07:39:14Z</time>
      </trkpt>
      <trkpt lat="47.71175" lon="5.02959">
        <ele>492.11</ele>
        <time>2022-05-16T07:39:18Z</time>
      </trkpt>
      <trkpt lat="47.71177" lon="5.02956">
        <ele>491.72</ele>
        <time>2022-05-16T07:39:22Z</time>
      </trkpt>
      <trkpt lat="47.71178" lon="5.02952">
        <ele>491.3</ele>
        <time>2022-05-16T07:39:27Z</time>
      </trkpt>
      <trkpt lat="47.7118" lon="5.02949">
        <ele>490.93</ele>
        <time>2022-05-16T07:39:34Z</time>
      </trkpt>
      <trkpt lat="47.71179" lon="5.02945">
        <ele>490.61</ele>
        <time>2022-05-16T07:39:48Z</time>
      </trkpt>
      <trkpt lat="47.71177" lon="5.02942">
        <ele>490.48</ele>
        <time>2022-05-16T07:39:53Z</time>
      </trkpt>
      <trkpt lat="47.71174" lon="5.0294">
        <ele>490.46</ele>
        <time>2022-05-16T07:39:58Z</time>
      </trkpt>
      <trkpt lat="47.71172" lon="5.02939">
        <ele>490.45</ele>
        <time>2022-05-16T07:40:00Z</time>
      </trkpt>
      <trkpt lat="47.71168" lon="5.0294">
        <ele>490.64</ele>
        <time>2022-05-16T07:40:02Z</time>
      </trkpt>
      <trkpt lat="47.71166" lon="5.0294">
        <ele>490.68</ele>
        <time>2022-05-16T07:40:05Z</time>
      </trkpt>
      <trkpt lat="47.71162" lon="5.0294">
        <ele>490.68</ele>
        <time>2022-05-16T07:40:08Z</time>
      </trkpt>
      <trkpt lat="47.71159" lon="5.0294">
        <ele>490.68</ele>
        <time>2022-05-16T07:40:10Z</time>
      </trkpt>
      <trkpt lat="47.71156" lon="5.02941">
        <ele>490.75</ele>
        <time>2022-05-16T07:40:13Z</time>
      </trkpt>
      <trkpt lat="47.71154" lon="5.02942">
        <ele>490.82</ele>
        <time>2022-05-16T07:40:15Z</time>
      </trkpt>
      <trkpt lat="47.71151" lon="5.02942">
        <ele>490.82</ele>
        <time>2022-05-16T07:40:19Z</time>
      </trkpt>
      <trkpt lat="47.71148" lon="5.02941">
        <ele>490.75</ele>
        <time>2022-05-16T07:40:23Z</time>
      </trkpt>
      <trkpt lat="47.71145" lon="5.02941">
        <ele>490.75</ele>
        <time>2022-05-16T07:40:26Z</time>
      </trkpt>
      <trkpt lat="47.71142" lon="5.02941">
        <ele>490.75</ele>
        <time>2022-05-16T07:40:29Z</time>
      </trkpt>
      <trkpt lat="47.71139" lon="5.0294">
        <ele>490.68</ele>
        <time>2022-05-16T07:40:33Z</time>
      </trkpt>
      <trkpt lat="47.71136" lon="5.0294">
        <ele>490.92</ele>
        <time>2022-05-16T07:40:36Z</time>
      </trkpt>
      <trkpt lat="47.71133" lon="5.0294">
        <ele>491.17</ele>
        <time>2022-05-16T07:40:40Z</time>
      </trkpt>
      <trkpt lat="47.7113" lon="5.02939">
        <ele>491.37</ele>
        <time>2022-05-16T07:40:42Z</time>
      </trkpt>
      <trkpt lat="47.71126" lon="5.02938">
        <ele>491.68</ele>
        <time>2022-05-16T07:40:44Z</time>
      </trkpt>
      <trkpt lat="47.71123" lon="5.02937">
        <ele>491.91</ele>
        <time>2022-05-16T07:40:47Z</time>
      </trkpt>
      <trkpt lat="47.71121" lon="5.02936">
        <ele>492.07</ele>
        <time>2022-05-16T07:40:49Z</time>
      </trkpt>
      <trkpt lat="47.71118" lon="5.02935">
        <ele>492.34</ele>
        <time>2022-05-16T07:40:52Z</time>
      </trkpt>
      <trkpt lat="47.71115" lon="5.02934">
        <ele>492.61</ele>
        <time>2022-05-16T07:40:54Z</time>
      </trkpt>
      <trkpt lat="47.71112" lon="5.02934">
        <ele>492.91</ele>
        <time>2022-05-16T07:40:56Z</time>
      </trkpt>
      <trkpt lat="47.71109" lon="5.02934">
        <ele>493.1</ele>
        <time>2022-05-16T07:40:58Z</time>
      </trkpt>
      <trkpt lat="47.71106" lon="5.02934">
        <ele>493.25</ele>
        <time>2022-05-16T07:41:00Z</time>
      </trkpt>
      <trkpt lat="47.71103" lon="5.02933">
        <ele>493.41</ele>
        <time>2022-05-16T07:41:03Z</time>
      </trkpt>
      <trkpt lat="47.711" lon="5.02933">
        <ele>493.56</ele>
        <time>2022-05-16T07:41:04Z</time>
      </trkpt>
      <trkpt lat="47.71097" lon="5.02933">
        <ele>493.72</ele>
        <time>2022-05-16T07:41:05Z</time>
      </trkpt>
      <trkpt lat="47.71094" lon="5.02933">
        <ele>493.87</ele>
        <time>2022-05-16T07:41:08Z</time>
      </trkpt>
      <trkpt lat="47.7109" lon="5.02933">
        <ele>494.07</ele>
        <time>2022-05-16T07:41:10Z</time>
      </trkpt>
      <trkpt lat="47.71087" lon="5.02932">
        <ele>494.26</ele>
        <time>2022-05-16T07:41:12Z</time>
      </trkpt>
      <trkpt lat="47.71084" lon="5.02932">
        <ele>494.41</ele>
        <time>2022-05-16T07:41:13Z</time>
      </trkpt>
      <trkpt lat="47.71081" lon="5.02931">
        <ele>494.19</ele>
        <time>2022-05-16T07:41:16Z</time>
      </trkpt>
      <trkpt lat="47.71077" lon="5.02931">
        <ele>493.68</ele>
        <time>2022-05-16T07:41:19Z</time>
      </trkpt>
      <trkpt lat="47.71074" lon="5.0293">
        <ele>493.35</ele>
        <time>2022-05-16T07:41:22Z</time>
      </trkpt>
      <trkpt lat="47.71071" lon="5.02931">
        <ele>492.92</ele>
        <time>2022-05-16T07:41:24Z</time>
      </trkpt>
      <trkpt lat="47.71068" lon="5.02932">
        <ele>492.49</ele>
        <time>2022-05-16T07:41:27Z</time>
      </trkpt>
      <trkpt lat="47.71065" lon="5.02932">
        <ele>492.1</ele>
        <time>2022-05-16T07:41:31Z</time>
      </trkpt>
      <trkpt lat="47.71062" lon="5.02931">
        <ele>491.78</ele>
        <time>2022-05-16T07:41:33Z</time>
      </trkpt>
      <trkpt lat="47.71059" lon="5.0293">
        <ele>491.47</ele>
        <time>2022-05-16T07:41:37Z</time>
      </trkpt>
      <trkpt lat="47.71056" lon="5.0293">
        <ele>491.1</ele>
        <time>2022-05-16T07:41:38Z</time>
      </trkpt>
      <trkpt lat="47.71053" lon="5.02929">
        <ele>490.7</ele>
        <time>2022-05-16T07:41:40Z</time>
      </trkpt>
      <trkpt lat="47.7105" lon="5.02927">
        <ele>490.38</ele>
        <time>2022-05-16T07:41:42Z</time>
      </trkpt>
      <trkpt lat="47.71047" lon="5.02926">
        <ele>489.99</ele>
        <time>2022-05-16T07:41:44Z</time>
      </trkpt>
      <trkpt lat="47.71044" lon="5.02925">
        <ele>489.61</ele>
        <time>2022-05-16T07:41:45Z</time>
      </trkpt>
      <trkpt lat="47.71041" lon="5.02924">
        <ele>489.24</ele>
        <time>2022-05-16T07:41:47Z</time>
      </trkpt>
      <trkpt lat="47.71038" lon="5.02923">
        <ele>488.87</ele>
        <time>2022-05-16T07:41:49Z</time>
      </trkpt>
      <trkpt lat="47.71035" lon="5.02921">
        <ele>488.61</ele>
        <time>2022-05-16T07:41:51Z</time>
      </trkpt>
      <trkpt lat="47.71031" lon="5.02919">
        <ele>488.22</ele>
        <time>2022-05-16T07:41:52Z</time>
      </trkpt>
      <trkpt lat="47.71028" lon="5.02918">
        <ele>487.89</ele>
        <time>2022-05-16T07:41:54Z</time>
      </trkpt>
      <trkpt lat="47.71025" lon="5.02917">
        <ele>487.77</ele>
        <time>2022-05-16T07:41:57Z</time>
      </trkpt>
      <trkpt lat="47.71022" lon="5.02917">
        <ele>487.56</ele>
        <time>2022-05-16T07:42:02Z</time>
      </trkpt>
      <trkpt lat="47.71019" lon="5.02917">
        <ele>487.34</ele>
        <time>2022-05-16T07:42:04Z</time>
      </trkpt>
      <trkpt lat="47.71016" lon="5.02917">
        <ele>487.13</ele>
        <time>2022-05-16T07:42:08Z</time>
      </trkpt>
      <trkpt lat="47.71014" lon="5.02917">
        <ele>486.99</ele>
        <time>2022-05-16T07:42:10Z</time>
      </trkpt>
      <trkpt lat="47.71011" lon="5.02917">
        <ele>486.78</ele>
        <time>2022-05-16T07:42:13Z</time>
      </trkpt>
      <trkpt lat="47.71007" lon="5.02916">
        <ele>486.5</ele>
        <time>2022-05-16T07:42:16Z</time>
      </trkpt>
      <trkpt lat="47.71004" lon="5.02915">
        <ele>486.29</ele>
        <time>2022-05-16T07:42:18Z</time>
      </trkpt>
      <trkpt lat="47.71001" lon="5.02914">
        <ele>486.07</ele>
        <time>2022-05-16T07:42:21Z</time>
      </trkpt>
      <trkpt lat="47.70998" lon="5.02911">
        <ele>486.43</ele>
        <time>2022-05-16T07:42:23Z</time>
      </trkpt>
      <trkpt lat="47.70995" lon="5.02908">
        <ele>487.08</ele>
        <time>2022-05-16T07:42:26Z</time>
      </trkpt>
      <trkpt lat="47.70994" lon="5.02904">
        <ele>487.3</ele>
        <time>2022-05-16T07:42:29Z</time>
      </trkpt>
      <trkpt lat="47.70993" lon="5.02898">
        <ele>487.51</ele>
        <time>2022-05-16T07:42:32Z</time>
      </trkpt>
      <trkpt lat="47.70992" lon="5.02893">
        <ele>487.73</ele>
        <time>2022-05-16T07:42:34Z</time>
      </trkpt>
      <trkpt lat="47.70992" lon="5.02889">
        <ele>487.73</ele>
        <time>2022-05-16T07:42:36Z</time>
      </trkpt>
      <trkpt lat="47.70992" lon="5.02884">
        <ele>487.63</ele>
        <time>2022-05-16T07:42:38Z</time>
      </trkpt>
      <trkpt lat="47.70992" lon="5.02879">
        <ele>487.52</ele>
        <time>2022-05-16T07:42:41Z</time>
      </trkpt>
      <trkpt lat="47.70991" lon="5.02875">
        <ele>487.62</ele>
        <time>2022-05-16T07:42:42Z</time>
      </trkpt>
      <trkpt lat="47.70991" lon="5.0287">
        <ele>487.5</ele>
        <time>2022-05-16T07:42:48Z</time>
      </trkpt>
      <trkpt lat="47.70991" lon="5.02864">
        <ele>487.36</ele>
        <time>2022-05-16T07:42:50Z</time>
      </trkpt>
      <trkpt lat="47.70991" lon="5.02859">
        <ele>487.25</ele>
        <time>2022-05-16T07:42:53Z</time>
      </trkpt>
      <trkpt lat="47.7099" lon="5.02854">
        <ele>487.26</ele>
        <time>2022-05-16T07:42:57Z</time>
      </trkpt>
      <trkpt lat="47.70989" lon="5.0285">
        <ele>487.27</ele>
        <time>2022-05-16T07:42:59Z</time>
      </trkpt>
      <trkpt lat="47.70988" lon="5.02846">
        <ele>487.26</ele>
        <time>2022-05-16T07:43:01Z</time>
      </trkpt>
      <trkpt lat="47.70987" lon="5.02842">
        <ele>487.23</ele>
        <time>2022-05-16T07:43:04Z</time>
      </trkpt>
      <trkpt lat="47.70986" lon="5.02837">
        <ele>487.14</ele>
        <time>2022-05-16T07:43:06Z</time>
      </trkpt>
      <trkpt lat="47.70986" lon="5.02833">
        <ele>486.99</ele>
        <time>2022-05-16T07:43:10Z</time>
      </trkpt>
      <trkpt lat="47.70985" lon="5.02829">
        <ele>486.83</ele>
        <time>2022-05-16T07:43:14Z</time>
      </trkpt>
      <trkpt lat="47.70984" lon="5.02824">
        <ele>486.57</ele>
        <time>2022-05-16T07:43:16Z</time>
      </trkpt>
      <trkpt lat="47.70983" lon="5.0282">
        <ele>486.34</ele>
        <time>2022-05-16T07:43:17Z</time>
      </trkpt>
      <trkpt lat="47.70982" lon="5.02816">
        <ele>486.08</ele>
        <time>2022-05-16T07:43:19Z</time>
      </trkpt>
      <trkpt lat="47.7098" lon="5.02812">
        <ele>485.78</ele>
        <time>2022-05-16T07:43:21Z</time>
      </trkpt>
      <trkpt lat="47.70979" lon="5.02808">
        <ele>485.44</ele>
        <time>2022-05-16T07:43:24Z</time>
      </trkpt>
      <trkpt lat="47.70978" lon="5.02803">
        <ele>485.04</ele>
        <time>2022-05-16T07:43:26Z</time>
      </trkpt>
      <trkpt lat="47.70977" lon="5.02799">
        <ele>484.74</ele>
        <time>2022-05-16T07:43:29Z</time>
      </trkpt>
      <trkpt lat="47.70976" lon="5.02794">
        <ele>484.36</ele>
        <time>2022-05-16T07:43:32Z</time>
      </trkpt>
      <trkpt lat="47.70975" lon="5.02789">
        <ele>483.97</ele>
        <time>2022-05-16T07:43:34Z</time>
      </trkpt>
      <trkpt lat="47.70974" lon="5.02784">
        <ele>483.56</ele>
        <time>2022-05-16T07:43:36Z</time>
      </trkpt>
      <trkpt lat="47.70973" lon="5.0278">
        <ele>483.21</ele>
        <time>2022-05-16T07:43:37Z</time>
      </trkpt>
      <trkpt lat="47.70972" lon="5.02775">
        <ele>482.87</ele>
        <time>2022-05-16T07:43:39Z</time>
      </trkpt>
      <trkpt lat="47.70971" lon="5.02771">
        <ele>482.89</ele>
        <time>2022-05-16T07:43:41Z</time>
      </trkpt>
      <trkpt lat="47.70971" lon="5.02764">
        <ele>482.36</ele>
        <time>2022-05-16T07:43:45Z</time>
      </trkpt>
      <trkpt lat="47.70971" lon="5.02757">
        <ele>481.83</ele>
        <time>2022-05-16T07:43:48Z</time>
      </trkpt>
      <trkpt lat="47.70971" lon="5.02752">
        <ele>481.46</ele>
        <time>2022-05-16T07:43:50Z</time>
      </trkpt>
      <trkpt lat="47.70971" lon="5.02748">
        <ele>481.31</ele>
        <time>2022-05-16T07:43:52Z</time>
      </trkpt>
      <trkpt lat="47.70971" lon="5.02743">
        <ele>481.32</ele>
        <time>2022-05-16T07:43:55Z</time>
      </trkpt>
      <trkpt lat="47.70971" lon="5.02738">
        <ele>481.33</ele>
        <time>2022-05-16T07:43:57Z</time>
      </trkpt>
      <trkpt lat="47.70971" lon="5.02734">
        <ele>481.33</ele>
        <time>2022-05-16T07:43:59Z</time>
      </trkpt>
      <trkpt lat="47.70971" lon="5.02727">
        <ele>481.34</ele>
        <time>2022-05-16T07:44:03Z</time>
      </trkpt>
      <trkpt lat="47.7097" lon="5.02721">
        <ele>481.67</ele>
        <time>2022-05-16T07:44:06Z</time>
      </trkpt>
      <trkpt lat="47.7097" lon="5.02717">
        <ele>481.77</ele>
        <time>2022-05-16T07:44:08Z</time>
      </trkpt>
      <trkpt lat="47.7097" lon="5.02712">
        <ele>481.89</ele>
        <time>2022-05-16T07:44:10Z</time>
      </trkpt>
      <trkpt lat="47.7097" lon="5.02708">
        <ele>481.99</ele>
        <time>2022-05-16T07:44:12Z</time>
      </trkpt>
      <trkpt lat="47.7097" lon="5.02702">
        <ele>482.14</ele>
        <time>2022-05-16T07:44:14Z</time>
      </trkpt>
      <trkpt lat="47.70969" lon="5.02698">
        <ele>482.4</ele>
        <time>2022-05-16T07:44:16Z</time>
      </trkpt>
      <trkpt lat="47.70969" lon="5.02694">
        <ele>482.46</ele>
        <time>2022-05-16T07:44:19Z</time>
      </trkpt>
      <trkpt lat="47.70969" lon="5.02689">
        <ele>482.4</ele>
        <time>2022-05-16T07:44:21Z</time>
      </trkpt>
      <trkpt lat="47.70969" lon="5.02685">
        <ele>482.35</ele>
        <time>2022-05-16T07:44:22Z</time>
      </trkpt>
      <trkpt lat="47.70968" lon="5.0268">
        <ele>482.37</ele>
        <time>2022-05-16T07:44:25Z</time>
      </trkpt>
      <trkpt lat="47.70968" lon="5.02676">
        <ele>482.31</ele>
        <time>2022-05-16T07:44:27Z</time>
      </trkpt>
      <trkpt lat="47.70968" lon="5.02671">
        <ele>482.22</ele>
        <time>2022-05-16T07:44:30Z</time>
      </trkpt>
      <trkpt lat="47.70967" lon="5.02667">
        <ele>482.19</ele>
        <time>2022-05-16T07:44:32Z</time>
      </trkpt>
      <trkpt lat="47.70966" lon="5.02662">
        <ele>481.93</ele>
        <time>2022-05-16T07:44:35Z</time>
      </trkpt>
      <trkpt lat="47.70965" lon="5.02657">
        <ele>481.65</ele>
        <time>2022-05-16T07:44:36Z</time>
      </trkpt>
      <trkpt lat="47.70963" lon="5.02653">
        <ele>481.51</ele>
        <time>2022-05-16T07:44:38Z</time>
      </trkpt>
      <trkpt lat="47.70962" lon="5.02649">
        <ele>481.33</ele>
        <time>2022-05-16T07:44:40Z</time>
      </trkpt>
      <trkpt lat="47.7096" lon="5.02645">
        <ele>481.22</ele>
        <time>2022-05-16T07:44:42Z</time>
      </trkpt>
      <trkpt lat="47.70959" lon="5.02641">
        <ele>481.07</ele>
        <time>2022-05-16T07:44:44Z</time>
      </trkpt>
      <trkpt lat="47.70957" lon="5.02637">
        <ele>481.02</ele>
        <time>2022-05-16T07:44:47Z</time>
      </trkpt>
      <trkpt lat="47.70956" lon="5.02633">
        <ele>480.92</ele>
        <time>2022-05-16T07:44:51Z</time>
      </trkpt>
      <trkpt lat="47.70955" lon="5.02629">
        <ele>480.8</ele>
        <time>2022-05-16T07:44:53Z</time>
      </trkpt>
      <trkpt lat="47.70954" lon="5.02625">
        <ele>480.66</ele>
        <time>2022-05-16T07:44:56Z</time>
      </trkpt>
      <trkpt lat="47.70953" lon="5.0262">
        <ele>480.44</ele>
        <time>2022-05-16T07:44:58Z</time>
      </trkpt>
      <trkpt lat="47.70953" lon="5.02615">
        <ele>480.19</ele>
        <time>2022-05-16T07:45:00Z</time>
      </trkpt>
      <trkpt lat="47.70951" lon="5.02609">
        <ele>479.87</ele>
        <time>2022-05-16T07:45:03Z</time>
      </trkpt>
      <trkpt lat="47.70949" lon="5.02603">
        <ele>479.46</ele>
        <time>2022-05-16T07:45:06Z</time>
      </trkpt>
      <trkpt lat="47.70948" lon="5.026">
        <ele>479.25</ele>
        <time>2022-05-16T07:45:08Z</time>
      </trkpt>
      <trkpt lat="47.70947" lon="5.02595">
        <ele>478.89</ele>
        <time>2022-05-16T07:45:12Z</time>
      </trkpt>
      <trkpt lat="47.70946" lon="5.02591">
        <ele>478.59</ele>
        <time>2022-05-16T07:45:14Z</time>
      </trkpt>
      <trkpt lat="47.70945" lon="5.02586">
        <ele>478.21</ele>
        <time>2022-05-16T07:45:16Z</time>
      </trkpt>
      <trkpt lat="47.70945" lon="5.02581">
        <ele>478.18</ele>
        <time>2022-05-16T07:45:19Z</time>
      </trkpt>
      <trkpt lat="47.70944" lon="5.02576">
        <ele>478.59</ele>
        <time>2022-05-16T07:45:22Z</time>
      </trkpt>
      <trkpt lat="47.70943" lon="5.02571">
        <ele>479.06</ele>
        <time>2022-05-16T07:45:24Z</time>
      </trkpt>
      <trkpt lat="47.70942" lon="5.02567">
        <ele>479.41</ele>
        <time>2022-05-16T07:45:26Z</time>
      </trkpt>
      <trkpt lat="47.70942" lon="5.02563">
        <ele>479.65</ele>
        <time>2022-05-16T07:45:29Z</time>
      </trkpt>
      <trkpt lat="47.70941" lon="5.02559">
        <ele>479.94</ele>
        <time>2022-05-16T07:45:31Z</time>
      </trkpt>
      <trkpt lat="47.7094" lon="5.02554">
        <ele>479.94</ele>
        <time>2022-05-16T07:45:33Z</time>
      </trkpt>
      <trkpt lat="47.70938" lon="5.0255">
        <ele>479.43</ele>
        <time>2022-05-16T07:45:35Z</time>
      </trkpt>
      <trkpt lat="47.70937" lon="5.02546">
        <ele>478.89</ele>
        <time>2022-05-16T07:45:37Z</time>
      </trkpt>
      <trkpt lat="47.70936" lon="5.02542">
        <ele>478.35</ele>
        <time>2022-05-16T07:45:39Z</time>
      </trkpt>
      <trkpt lat="47.70935" lon="5.02537">
        <ele>477.67</ele>
        <time>2022-05-16T07:45:43Z</time>
      </trkpt>
      <trkpt lat="47.70935" lon="5.02533">
        <ele>477.09</ele>
        <time>2022-05-16T07:45:49Z</time>
      </trkpt>
      <trkpt lat="47.70934" lon="5.0253">
        <ele>476.7</ele>
        <time>2022-05-16T07:45:52Z</time>
      </trkpt>
      <trkpt lat="47.70931" lon="5.02528">
        <ele>476.52</ele>
        <time>2022-05-16T07:45:56Z</time>
      </trkpt>
      <trkpt lat="47.70929" lon="5.02529">
        <ele>476.73</ele>
        <time>2022-05-16T07:46:06Z</time>
      </trkpt>
      <trkpt lat="47.70926" lon="5.02531">
        <ele>477.13</ele>
        <time>2022-05-16T07:46:08Z</time>
      </trkpt>
      <trkpt lat="47.70924" lon="5.02534">
        <ele>477.63</ele>
        <time>2022-05-16T07:46:12Z</time>
      </trkpt>
      <trkpt lat="47.70922" lon="5.02536">
        <ele>477.99</ele>
        <time>2022-05-16T07:46:15Z</time>
      </trkpt>
      <trkpt lat="47.7092" lon="5.02538">
        <ele>478.35</ele>
        <time>2022-05-16T07:46:19Z</time>
      </trkpt>
      <trkpt lat="47.70917" lon="5.02542">
        <ele>479.04</ele>
        <time>2022-05-16T07:46:21Z</time>
      </trkpt>
      <trkpt lat="47.70916" lon="5.02545">
        <ele>479.55</ele>
        <time>2022-05-16T07:46:24Z</time>
      </trkpt>
      <trkpt lat="47.70914" lon="5.02548">
        <ele>480.2</ele>
        <time>2022-05-16T07:46:26Z</time>
      </trkpt>
      <trkpt lat="47.70911" lon="5.0255">
        <ele>480.81</ele>
        <time>2022-05-16T07:46:29Z</time>
      </trkpt>
      <trkpt lat="47.70908" lon="5.02552">
        <ele>481.42</ele>
        <time>2022-05-16T07:46:32Z</time>
      </trkpt>
      <trkpt lat="47.70905" lon="5.02555">
        <ele>482.18</ele>
        <time>2022-05-16T07:46:35Z</time>
      </trkpt>
      <trkpt lat="47.70903" lon="5.02557">
        <ele>482.61</ele>
        <time>2022-05-16T07:46:38Z</time>
      </trkpt>
      <trkpt lat="47.70901" lon="5.02561">
        <ele>483.19</ele>
        <time>2022-05-16T07:46:41Z</time>
      </trkpt>
      <trkpt lat="47.709" lon="5.02565">
        <ele>483.68</ele>
        <time>2022-05-16T07:46:44Z</time>
      </trkpt>
      <trkpt lat="47.70898" lon="5.02569">
        <ele>484.31</ele>
        <time>2022-05-16T07:46:47Z</time>
      </trkpt>
      <trkpt lat="47.70896" lon="5.02573">
        <ele>484.96</ele>
        <time>2022-05-16T07:46:50Z</time>
      </trkpt>
      <trkpt lat="47.70893" lon="5.02576">
        <ele>485.66</ele>
        <time>2022-05-16T07:46:53Z</time>
      </trkpt>
      <trkpt lat="47.70891" lon="5.02578">
        <ele>486.13</ele>
        <time>2022-05-16T07:46:55Z</time>
      </trkpt>
      <trkpt lat="47.70888" lon="5.0258">
        <ele>486.69</ele>
        <time>2022-05-16T07:46:57Z</time>
      </trkpt>
      <trkpt lat="47.70885" lon="5.02582">
        <ele>487.12</ele>
        <time>2022-05-16T07:46:59Z</time>
      </trkpt>
      <trkpt lat="47.70882" lon="5.02585">
        <ele>487.83</ele>
        <time>2022-05-16T07:47:01Z</time>
      </trkpt>
      <trkpt lat="47.7088" lon="5.02587">
        <ele>488.35</ele>
        <time>2022-05-16T07:47:03Z</time>
      </trkpt>
      <trkpt lat="47.70877" lon="5.0259">
        <ele>489.09</ele>
        <time>2022-05-16T07:47:06Z</time>
      </trkpt>
      <trkpt lat="47.70875" lon="5.02592">
        <ele>489.56</ele>
        <time>2022-05-16T07:47:08Z</time>
      </trkpt>
      <trkpt lat="47.70871" lon="5.02594">
        <ele>490.1</ele>
        <time>2022-05-16T07:47:09Z</time>
      </trkpt>
      <trkpt lat="47.70868" lon="5.02596">
        <ele>490.55</ele>
        <time>2022-05-16T07:47:11Z</time>
      </trkpt>
      <trkpt lat="47.70866" lon="5.02598">
        <ele>490.95</ele>
        <time>2022-05-16T07:47:13Z</time>
      </trkpt>
      <trkpt lat="47.70863" lon="5.02601">
        <ele>491.49</ele>
        <time>2022-05-16T07:47:16Z</time>
      </trkpt>
      <trkpt lat="47.70861" lon="5.02604">
        <ele>491.98</ele>
        <time>2022-05-16T07:47:19Z</time>
      </trkpt>
      <trkpt lat="47.70858" lon="5.02607">
        <ele>492.44</ele>
        <time>2022-05-16T07:47:21Z</time>
      </trkpt>
      <trkpt lat="47.70856" lon="5.02609">
        <ele>492.72</ele>
        <time>2022-05-16T07:47:24Z</time>
      </trkpt>
      <trkpt lat="47.70853" lon="5.02612">
        <ele>493.03</ele>
        <time>2022-05-16T07:47:26Z</time>
      </trkpt>
      <trkpt lat="47.7085" lon="5.02616">
        <ele>493.18</ele>
        <time>2022-05-16T07:47:29Z</time>
      </trkpt>
      <trkpt lat="47.70848" lon="5.02619">
        <ele>493.28</ele>
        <time>2022-05-16T07:47:31Z</time>
      </trkpt>
      <trkpt lat="47.70846" lon="5.02622">
        <ele>493.39</ele>
        <time>2022-05-16T07:47:33Z</time>
      </trkpt>
      <trkpt lat="47.70843" lon="5.02626">
        <ele>493.54</ele>
        <time>2022-05-16T07:47:37Z</time>
      </trkpt>
      <trkpt lat="47.7084" lon="5.02629">
        <ele>493.64</ele>
        <time>2022-05-16T07:47:38Z</time>
      </trkpt>
      <trkpt lat="47.70837" lon="5.02633">
        <ele>493.79</ele>
        <time>2022-05-16T07:47:41Z</time>
      </trkpt>
      <trkpt lat="47.70835" lon="5.02636">
        <ele>493.9</ele>
        <time>2022-05-16T07:47:46Z</time>
      </trkpt>
      <trkpt lat="47.70832" lon="5.02638">
        <ele>494.02</ele>
        <time>2022-05-16T07:47:49Z</time>
      </trkpt>
      <trkpt lat="47.70829" lon="5.02639">
        <ele>494.16</ele>
        <time>2022-05-16T07:47:53Z</time>
      </trkpt>
      <trkpt lat="47.70826" lon="5.02641">
        <ele>494.28</ele>
        <time>2022-05-16T07:47:55Z</time>
      </trkpt>
      <trkpt lat="47.70823" lon="5.02643">
        <ele>494.43</ele>
        <time>2022-05-16T07:47:58Z</time>
      </trkpt>
      <trkpt lat="47.70821" lon="5.02646">
        <ele>494.56</ele>
        <time>2022-05-16T07:48:00Z</time>
      </trkpt>
      <trkpt lat="47.70818" lon="5.02649">
        <ele>494.75</ele>
        <time>2022-05-16T07:48:02Z</time>
      </trkpt>
      <trkpt lat="47.70816" lon="5.02653">
        <ele>494.94</ele>
        <time>2022-05-16T07:48:06Z</time>
      </trkpt>
      <trkpt lat="47.70814" lon="5.02655">
        <ele>495.1</ele>
        <time>2022-05-16T07:48:08Z</time>
      </trkpt>
      <trkpt lat="47.70812" lon="5.02658">
        <ele>495.3</ele>
        <time>2022-05-16T07:48:12Z</time>
      </trkpt>
      <trkpt lat="47.70809" lon="5.0266">
        <ele>495.54</ele>
        <time>2022-05-16T07:48:14Z</time>
      </trkpt>
      <trkpt lat="47.70807" lon="5.02662">
        <ele>495.74</ele>
        <time>2022-05-16T07:48:16Z</time>
      </trkpt>
      <trkpt lat="47.70804" lon="5.02665">
        <ele>495.94</ele>
        <time>2022-05-16T07:48:18Z</time>
      </trkpt>
      <trkpt lat="47.70802" lon="5.02667">
        <ele>495.99</ele>
        <time>2022-05-16T07:48:21Z</time>
      </trkpt>
      <trkpt lat="47.70799" lon="5.02669">
        <ele>495.96</ele>
        <time>2022-05-16T07:48:25Z</time>
      </trkpt>
      <trkpt lat="47.70796" lon="5.0267">
        <ele>495.96</ele>
        <time>2022-05-16T07:48:27Z</time>
      </trkpt>
      <trkpt lat="47.70793" lon="5.02672">
        <ele>495.98</ele>
        <time>2022-05-16T07:48:30Z</time>
      </trkpt>
      <trkpt lat="47.70791" lon="5.02673">
        <ele>496.01</ele>
        <time>2022-05-16T07:48:33Z</time>
      </trkpt>
      <trkpt lat="47.70788" lon="5.02675">
        <ele>496.08</ele>
        <time>2022-05-16T07:48:36Z</time>
      </trkpt>
      <trkpt lat="47.70786" lon="5.02678">
        <ele>496.17</ele>
        <time>2022-05-16T07:48:39Z</time>
      </trkpt>
      <trkpt lat="47.70783" lon="5.02681">
        <ele>496.32</ele>
        <time>2022-05-16T07:48:43Z</time>
      </trkpt>
      <trkpt lat="47.70781" lon="5.02684">
        <ele>496.48</ele>
        <time>2022-05-16T07:48:44Z</time>
      </trkpt>
      <trkpt lat="47.70779" lon="5.02688">
        <ele>496.7</ele>
        <time>2022-05-16T07:48:47Z</time>
      </trkpt>
      <trkpt lat="47.70776" lon="5.02691">
        <ele>496.84</ele>
        <time>2022-05-16T07:48:49Z</time>
      </trkpt>
      <trkpt lat="47.70774" lon="5.02693">
        <ele>496.83</ele>
        <time>2022-05-16T07:48:52Z</time>
      </trkpt>
      <trkpt lat="47.70772" lon="5.02697">
        <ele>496.7</ele>
        <time>2022-05-16T07:48:53Z</time>
      </trkpt>
      <trkpt lat="47.70769" lon="5.027">
        <ele>496.48</ele>
        <time>2022-05-16T07:48:55Z</time>
      </trkpt>
      <trkpt lat="47.70765" lon="5.02701">
        <ele>496.3</ele>
        <time>2022-05-16T07:48:57Z</time>
      </trkpt>
      <trkpt lat="47.70762" lon="5.02703">
        <ele>496.12</ele>
        <time>2022-05-16T07:48:59Z</time>
      </trkpt>
      <trkpt lat="47.70759" lon="5.02705">
        <ele>495.94</ele>
        <time>2022-05-16T07:49:01Z</time>
      </trkpt>
      <trkpt lat="47.70756" lon="5.02707">
        <ele>495.76</ele>
        <time>2022-05-16T07:49:03Z</time>
      </trkpt>
      <trkpt lat="47.70753" lon="5.0271">
        <ele>495.55</ele>
        <time>2022-05-16T07:49:05Z</time>
      </trkpt>
      <trkpt lat="47.7075" lon="5.02712">
        <ele>495.37</ele>
        <time>2022-05-16T07:49:08Z</time>
      </trkpt>
      <trkpt lat="47.70748" lon="5.02715">
        <ele>495.55</ele>
        <time>2022-05-16T07:49:11Z</time>
      </trkpt>
      <trkpt lat="47.70746" lon="5.02718">
        <ele>495.73</ele>
        <time>2022-05-16T07:49:14Z</time>
      </trkpt>
      <trkpt lat="47.70744" lon="5.02721">
        <ele>495.91</ele>
        <time>2022-05-16T07:49:17Z</time>
      </trkpt>
      <trkpt lat="47.70742" lon="5.02723">
        <ele>496.12</ele>
        <time>2022-05-16T07:49:20Z</time>
      </trkpt>
      <trkpt lat="47.70739" lon="5.02726">
        <ele>496.39</ele>
        <time>2022-05-16T07:49:22Z</time>
      </trkpt>
      <trkpt lat="47.70737" lon="5.02728">
        <ele>496.57</ele>
        <time>2022-05-16T07:49:25Z</time>
      </trkpt>
      <trkpt lat="47.70734" lon="5.02731">
        <ele>496.81</ele>
        <time>2022-05-16T07:49:26Z</time>
      </trkpt>
      <trkpt lat="47.70732" lon="5.02734">
        <ele>496.89</ele>
        <time>2022-05-16T07:49:29Z</time>
      </trkpt>
      <trkpt lat="47.70729" lon="5.02736">
        <ele>497.15</ele>
        <time>2022-05-16T07:49:32Z</time>
      </trkpt>
      <trkpt lat="47.70727" lon="5.02739">
        <ele>497.21</ele>
        <time>2022-05-16T07:49:34Z</time>
      </trkpt>
      <trkpt lat="47.70724" lon="5.02741">
        <ele>497.44</ele>
        <time>2022-05-16T07:49:36Z</time>
      </trkpt>
      <trkpt lat="47.70722" lon="5.02745">
        <ele>497.35</ele>
        <time>2022-05-16T07:49:38Z</time>
      </trkpt>
      <trkpt lat="47.7072" lon="5.02748">
        <ele>497.05</ele>
        <time>2022-05-16T07:49:42Z</time>
      </trkpt>
      <trkpt lat="47.70717" lon="5.02751">
        <ele>496.81</ele>
        <time>2022-05-16T07:49:43Z</time>
      </trkpt>
      <trkpt lat="47.70715" lon="5.02754">
        <ele>496.74</ele>
        <time>2022-05-16T07:49:46Z</time>
      </trkpt>
      <trkpt lat="47.70713" lon="5.02758">
        <ele>496.67</ele>
        <time>2022-05-16T07:49:48Z</time>
      </trkpt>
      <trkpt lat="47.70711" lon="5.02761">
        <ele>496.6</ele>
        <time>2022-05-16T07:49:50Z</time>
      </trkpt>
      <trkpt lat="47.70709" lon="5.02764">
        <ele>496.52</ele>
        <time>2022-05-16T07:49:52Z</time>
      </trkpt>
      <trkpt lat="47.70707" lon="5.02768">
        <ele>496.45</ele>
        <time>2022-05-16T07:49:55Z</time>
      </trkpt>
      <trkpt lat="47.70704" lon="5.02771">
        <ele>496.34</ele>
        <time>2022-05-16T07:49:56Z</time>
      </trkpt>
      <trkpt lat="47.70702" lon="5.02774">
        <ele>496.27</ele>
        <time>2022-05-16T07:49:58Z</time>
      </trkpt>
      <trkpt lat="47.707" lon="5.02777">
        <ele>496.2</ele>
        <time>2022-05-16T07:50:01Z</time>
      </trkpt>
      <trkpt lat="47.70697" lon="5.02779">
        <ele>496.09</ele>
        <time>2022-05-16T07:50:04Z</time>
      </trkpt>
      <trkpt lat="47.70694" lon="5.02781">
        <ele>496.03</ele>
        <time>2022-05-16T07:50:06Z</time>
      </trkpt>
      <trkpt lat="47.70691" lon="5.02783">
        <ele>496.22</ele>
        <time>2022-05-16T07:50:10Z</time>
      </trkpt>
      <trkpt lat="47.70689" lon="5.02786">
        <ele>496.33</ele>
        <time>2022-05-16T07:50:12Z</time>
      </trkpt>
      <trkpt lat="47.70687" lon="5.02789">
        <ele>496.43</ele>
        <time>2022-05-16T07:50:21Z</time>
      </trkpt>
      <trkpt lat="47.70685" lon="5.02792">
        <ele>496.51</ele>
        <time>2022-05-16T07:50:23Z</time>
      </trkpt>
      <trkpt lat="47.70683" lon="5.02794">
        <ele>496.58</ele>
        <time>2022-05-16T07:50:28Z</time>
      </trkpt>
      <trkpt lat="47.70679" lon="5.02796">
        <ele>496.75</ele>
        <time>2022-05-16T07:50:31Z</time>
      </trkpt>
      <trkpt lat="47.70676" lon="5.02797">
        <ele>496.87</ele>
        <time>2022-05-16T07:50:33Z</time>
      </trkpt>
      <trkpt lat="47.70673" lon="5.02797">
        <ele>497.01</ele>
        <time>2022-05-16T07:50:38Z</time>
      </trkpt>
      <trkpt lat="47.7067" lon="5.028">
        <ele>497.06</ele>
        <time>2022-05-16T07:50:40Z</time>
      </trkpt>
      <trkpt lat="47.70669" lon="5.02803">
        <ele>497</ele>
        <time>2022-05-16T07:50:44Z</time>
      </trkpt>
      <trkpt lat="47.70667" lon="5.02806">
        <ele>496.94</ele>
        <time>2022-05-16T07:50:47Z</time>
      </trkpt>
      <trkpt lat="47.70665" lon="5.0281">
        <ele>496.59</ele>
        <time>2022-05-16T07:50:49Z</time>
      </trkpt>
      <trkpt lat="47.70663" lon="5.02813">
        <ele>496.36</ele>
        <time>2022-05-16T07:50:52Z</time>
      </trkpt>
      <trkpt lat="47.7066" lon="5.02816">
        <ele>496.2</ele>
        <time>2022-05-16T07:50:54Z</time>
      </trkpt>
      <trkpt lat="47.70658" lon="5.02818">
        <ele>496.11</ele>
        <time>2022-05-16T07:50:57Z</time>
      </trkpt>
      <trkpt lat="47.70656" lon="5.02821">
        <ele>495.93</ele>
        <time>2022-05-16T07:51:00Z</time>
      </trkpt>
      <trkpt lat="47.70653" lon="5.02823">
        <ele>495.92</ele>
        <time>2022-05-16T07:51:02Z</time>
      </trkpt>
      <trkpt lat="47.7065" lon="5.02826">
        <ele>495.83</ele>
        <time>2022-05-16T07:51:04Z</time>
      </trkpt>
      <trkpt lat="47.70647" lon="5.02828">
        <ele>495.86</ele>
        <time>2022-05-16T07:51:07Z</time>
      </trkpt>
      <trkpt lat="47.70644" lon="5.02831">
        <ele>495.82</ele>
        <time>2022-05-16T07:51:09Z</time>
      </trkpt>
      <trkpt lat="47.70641" lon="5.02833">
        <ele>495.87</ele>
        <time>2022-05-16T07:51:13Z</time>
      </trkpt>
      <trkpt lat="47.70638" lon="5.02834">
        <ele>495.86</ele>
        <time>2022-05-16T07:51:15Z</time>
      </trkpt>
      <trkpt lat="47.70635" lon="5.02835">
        <ele>495.46</ele>
        <time>2022-05-16T07:51:18Z</time>
      </trkpt>
      <trkpt lat="47.70633" lon="5.02834">
        <ele>495.32</ele>
        <time>2022-05-16T07:51:21Z</time>
      </trkpt>
      <trkpt lat="47.70629" lon="5.02834">
        <ele>494.88</ele>
        <time>2022-05-16T07:51:25Z</time>
      </trkpt>
      <trkpt lat="47.70627" lon="5.02833">
        <ele>494.73</ele>
        <time>2022-05-16T07:51:27Z</time>
      </trkpt>
      <trkpt lat="47.70624" lon="5.02833">
        <ele>494.41</ele>
        <time>2022-05-16T07:51:28Z</time>
      </trkpt>
      <trkpt lat="47.70621" lon="5.02833">
        <ele>494.08</ele>
        <time>2022-05-16T07:51:31Z</time>
      </trkpt>
      <trkpt lat="47.70618" lon="5.02834">
        <ele>493.7</ele>
        <time>2022-05-16T07:51:33Z</time>
      </trkpt>
      <trkpt lat="47.70615" lon="5.02834">
        <ele>493.37</ele>
        <time>2022-05-16T07:51:36Z</time>
      </trkpt>
      <trkpt lat="47.70612" lon="5.02835">
        <ele>492.98</ele>
        <time>2022-05-16T07:51:38Z</time>
      </trkpt>
      <trkpt lat="47.70609" lon="5.02835">
        <ele>492.59</ele>
        <time>2022-05-16T07:51:43Z</time>
      </trkpt>
      <trkpt lat="47.70606" lon="5.02835">
        <ele>492.17</ele>
        <time>2022-05-16T07:51:45Z</time>
      </trkpt>
      <trkpt lat="47.70603" lon="5.02835">
        <ele>491.75</ele>
        <time>2022-05-16T07:51:48Z</time>
      </trkpt>
      <trkpt lat="47.706" lon="5.02835">
        <ele>491.33</ele>
        <time>2022-05-16T07:51:50Z</time>
      </trkpt>
      <trkpt lat="47.70597" lon="5.02836">
        <ele>490.87</ele>
        <time>2022-05-16T07:51:52Z</time>
      </trkpt>
      <trkpt lat="47.70594" lon="5.02837">
        <ele>490.43</ele>
        <time>2022-05-16T07:51:56Z</time>
      </trkpt>
      <trkpt lat="47.70592" lon="5.02838">
        <ele>490.14</ele>
        <time>2022-05-16T07:51:58Z</time>
      </trkpt>
      <trkpt lat="47.70589" lon="5.02837">
        <ele>489.76</ele>
        <time>2022-05-16T07:52:02Z</time>
      </trkpt>
      <trkpt lat="47.70586" lon="5.02836">
        <ele>489.37</ele>
        <time>2022-05-16T07:52:04Z</time>
      </trkpt>
      <trkpt lat="47.70582" lon="5.02836">
        <ele>488.9</ele>
        <time>2022-05-16T07:52:07Z</time>
      </trkpt>
      <trkpt lat="47.70579" lon="5.02836">
        <ele>488.67</ele>
        <time>2022-05-16T07:52:09Z</time>
      </trkpt>
      <trkpt lat="47.70577" lon="5.02837">
        <ele>488.51</ele>
        <time>2022-05-16T07:52:12Z</time>
      </trkpt>
      <trkpt lat="47.70574" lon="5.02837">
        <ele>488.28</ele>
        <time>2022-05-16T07:52:17Z</time>
      </trkpt>
      <trkpt lat="47.7057" lon="5.02836">
        <ele>487.99</ele>
        <time>2022-05-16T07:52:19Z</time>
      </trkpt>
      <trkpt lat="47.70567" lon="5.02835">
        <ele>487.79</ele>
        <time>2022-05-16T07:52:23Z</time>
      </trkpt>
      <trkpt lat="47.70564" lon="5.02834">
        <ele>487.59</ele>
        <time>2022-05-16T07:52:27Z</time>
      </trkpt>
      <trkpt lat="47.70562" lon="5.02833">
        <ele>487.45</ele>
        <time>2022-05-16T07:52:38Z</time>
      </trkpt>
      <trkpt lat="47.70559" lon="5.02833">
        <ele>487.23</ele>
        <time>2022-05-16T07:52:58Z</time>
      </trkpt>
      <trkpt lat="47.70555" lon="5.02831">
        <ele>486.83</ele>
        <time>2022-05-16T07:53:10Z</time>
      </trkpt>
      <trkpt lat="47.70552" lon="5.02829">
        <ele>486.67</ele>
        <time>2022-05-16T07:53:12Z</time>
      </trkpt>
      <trkpt lat="47.7055" lon="5.02828">
        <ele>486.58</ele>
        <time>2022-05-16T07:53:15Z</time>
      </trkpt>
      <trkpt lat="47.70546" lon="5.02829">
        <ele>486.63</ele>
        <time>2022-05-16T07:53:19Z</time>
      </trkpt>
      <trkpt lat="47.70544" lon="5.0283">
        <ele>486.71</ele>
        <time>2022-05-16T07:53:25Z</time>
      </trkpt>
      <trkpt lat="47.70541" lon="5.02832">
        <ele>486.88</ele>
        <time>2022-05-16T07:53:26Z</time>
      </trkpt>
      <trkpt lat="47.70538" lon="5.02834">
        <ele>486.96</ele>
        <time>2022-05-16T07:53:29Z</time>
      </trkpt>
      <trkpt lat="47.70535" lon="5.02833">
        <ele>486.97</ele>
        <time>2022-05-16T07:53:33Z</time>
      </trkpt>
      <trkpt lat="47.70532" lon="5.02832">
        <ele>486.86</ele>
        <time>2022-05-16T07:53:36Z</time>
      </trkpt>
      <trkpt lat="47.70529" lon="5.0283">
        <ele>486.65</ele>
        <time>2022-05-16T07:53:39Z</time>
      </trkpt>
      <trkpt lat="47.70526" lon="5.02829">
        <ele>486.86</ele>
        <time>2022-05-16T07:53:43Z</time>
      </trkpt>
      <trkpt lat="47.70523" lon="5.02827">
        <ele>487.22</ele>
        <time>2022-05-16T07:53:45Z</time>
      </trkpt>
      <trkpt lat="47.70521" lon="5.02826">
        <ele>487.49</ele>
        <time>2022-05-16T07:53:47Z</time>
      </trkpt>
      <trkpt lat="47.70518" lon="5.02826">
        <ele>488.06</ele>
        <time>2022-05-16T07:53:50Z</time>
      </trkpt>
      <trkpt lat="47.70515" lon="5.02825">
        <ele>488.54</ele>
        <time>2022-05-16T07:53:53Z</time>
      </trkpt>
      <trkpt lat="47.70512" lon="5.02823">
        <ele>488.94</ele>
        <time>2022-05-16T07:54:00Z</time>
      </trkpt>
      <trkpt lat="47.7051" lon="5.0282">
        <ele>489.07</ele>
        <time>2022-05-16T07:54:23Z</time>
      </trkpt>
      <trkpt lat="47.70508" lon="5.02817">
        <ele>489.21</ele>
        <time>2022-05-16T07:54:29Z</time>
      </trkpt>
      <trkpt lat="47.70505" lon="5.02816">
        <ele>489.74</ele>
        <time>2022-05-16T07:54:33Z</time>
      </trkpt>
      <trkpt lat="47.70502" lon="5.02815">
        <ele>490.27</ele>
        <time>2022-05-16T07:54:36Z</time>
      </trkpt>
      <trkpt lat="47.70499" lon="5.02814">
        <ele>490.65</ele>
        <time>2022-05-16T07:54:40Z</time>
      </trkpt>
      <trkpt lat="47.70497" lon="5.02813">
        <ele>490.67</ele>
        <time>2022-05-16T07:54:51Z</time>
      </trkpt>
      <trkpt lat="47.70494" lon="5.02812">
        <ele>490.75</ele>
        <time>2022-05-16T07:55:13Z</time>
      </trkpt>
      <trkpt lat="47.70492" lon="5.02814">
        <ele>490.92</ele>
        <time>2022-05-16T07:55:35Z</time>
      </trkpt>
      <trkpt lat="47.70489" lon="5.02815">
        <ele>491.07</ele>
        <time>2022-05-16T07:55:40Z</time>
      </trkpt>
      <trkpt lat="47.70486" lon="5.02817">
        <ele>491.21</ele>
        <time>2022-05-16T07:55:43Z</time>
      </trkpt>
      <trkpt lat="47.70483" lon="5.02817">
        <ele>491.29</ele>
        <time>2022-05-16T07:55:46Z</time>
      </trkpt>
      <trkpt lat="47.70481" lon="5.02815">
        <ele>491.35</ele>
        <time>2022-05-16T07:55:49Z</time>
      </trkpt>
      <trkpt lat="47.70478" lon="5.02814">
        <ele>491.47</ele>
        <time>2022-05-16T07:55:52Z</time>
      </trkpt>
      <trkpt lat="47.70475" lon="5.02812">
        <ele>491.64</ele>
        <time>2022-05-16T07:55:55Z</time>
      </trkpt>
      <trkpt lat="47.70473" lon="5.0281">
        <ele>491.8</ele>
        <time>2022-05-16T07:55:58Z</time>
      </trkpt>
      <trkpt lat="47.7047" lon="5.02808">
        <ele>491.69</ele>
        <time>2022-05-16T07:56:02Z</time>
      </trkpt>
      <trkpt lat="47.70467" lon="5.02806">
        <ele>491.43</ele>
        <time>2022-05-16T07:56:07Z</time>
      </trkpt>
      <trkpt lat="47.70465" lon="5.02803">
        <ele>490.99</ele>
        <time>2022-05-16T07:56:11Z</time>
      </trkpt>
      <trkpt lat="47.70463" lon="5.02801">
        <ele>490.62</ele>
        <time>2022-05-16T07:56:16Z</time>
      </trkpt>
      <trkpt lat="47.7046" lon="5.028">
        <ele>490.26</ele>
        <time>2022-05-16T07:56:22Z</time>
      </trkpt>
      <trkpt lat="47.70457" lon="5.02799">
        <ele>489.91</ele>
        <time>2022-05-16T07:56:26Z</time>
      </trkpt>
      <trkpt lat="47.70454" lon="5.02799">
        <ele>489.63</ele>
        <time>2022-05-16T07:56:28Z</time>
      </trkpt>
      <trkpt lat="47.70451" lon="5.02798">
        <ele>489.31</ele>
        <time>2022-05-16T07:56:30Z</time>
      </trkpt>
      <trkpt lat="47.70448" lon="5.02797">
        <ele>489</ele>
        <time>2022-05-16T07:56:33Z</time>
      </trkpt>
      <trkpt lat="47.70445" lon="5.02796">
        <ele>488.7</ele>
        <time>2022-05-16T07:56:34Z</time>
      </trkpt>
      <trkpt lat="47.70442" lon="5.02795">
        <ele>488.6</ele>
        <time>2022-05-16T07:56:36Z</time>
      </trkpt>
      <trkpt lat="47.70439" lon="5.02794">
        <ele>488.55</ele>
        <time>2022-05-16T07:56:38Z</time>
      </trkpt>
      <trkpt lat="47.70436" lon="5.02793">
        <ele>488.52</ele>
        <time>2022-05-16T07:56:39Z</time>
      </trkpt>
      <trkpt lat="47.70433" lon="5.02792">
        <ele>488.5</ele>
        <time>2022-05-16T07:56:41Z</time>
      </trkpt>
      <trkpt lat="47.7043" lon="5.02791">
        <ele>488.5</ele>
        <time>2022-05-16T07:56:44Z</time>
      </trkpt>
      <trkpt lat="47.70427" lon="5.0279">
        <ele>488.52</ele>
        <time>2022-05-16T07:56:48Z</time>
      </trkpt>
      <trkpt lat="47.70424" lon="5.0279">
        <ele>488.53</ele>
        <time>2022-05-16T07:56:50Z</time>
      </trkpt>
      <trkpt lat="47.70421" lon="5.02788">
        <ele>488.59</ele>
        <time>2022-05-16T07:56:53Z</time>
      </trkpt>
      <trkpt lat="47.70418" lon="5.02787">
        <ele>488.65</ele>
        <time>2022-05-16T07:56:57Z</time>
      </trkpt>
      <trkpt lat="47.70415" lon="5.02787">
        <ele>488.59</ele>
        <time>2022-05-16T07:57:01Z</time>
      </trkpt>
      <trkpt lat="47.70412" lon="5.02789">
        <ele>488.36</ele>
        <time>2022-05-16T07:57:03Z</time>
      </trkpt>
      <trkpt lat="47.7041" lon="5.02791">
        <ele>488.17</ele>
        <time>2022-05-16T07:57:05Z</time>
      </trkpt>
      <trkpt lat="47.70407" lon="5.02793">
        <ele>487.91</ele>
        <time>2022-05-16T07:57:08Z</time>
      </trkpt>
      <trkpt lat="47.70405" lon="5.02796">
        <ele>487.65</ele>
        <time>2022-05-16T07:57:11Z</time>
      </trkpt>
      <trkpt lat="47.70404" lon="5.02799">
        <ele>487.43</ele>
        <time>2022-05-16T07:57:14Z</time>
      </trkpt>
      <trkpt lat="47.70401" lon="5.02802">
        <ele>487.07</ele>
        <time>2022-05-16T07:57:18Z</time>
      </trkpt>
      <trkpt lat="47.704" lon="5.02807">
        <ele>486.74</ele>
        <time>2022-05-16T07:57:21Z</time>
      </trkpt>
      <trkpt lat="47.70399" lon="5.02811">
        <ele>486.48</ele>
        <time>2022-05-16T07:57:24Z</time>
      </trkpt>
      <trkpt lat="47.70398" lon="5.02815">
        <ele>486.2</ele>
        <time>2022-05-16T07:57:25Z</time>
      </trkpt>
      <trkpt lat="47.70397" lon="5.02819">
        <ele>485.9</ele>
        <time>2022-05-16T07:57:29Z</time>
      </trkpt>
      <trkpt lat="47.70396" lon="5.02824">
        <ele>485.52</ele>
        <time>2022-05-16T07:57:32Z</time>
      </trkpt>
      <trkpt lat="47.70395" lon="5.02828">
        <ele>485.18</ele>
        <time>2022-05-16T07:57:35Z</time>
      </trkpt>
      <trkpt lat="47.70393" lon="5.02833">
        <ele>484.61</ele>
        <time>2022-05-16T07:57:38Z</time>
      </trkpt>
      <trkpt lat="47.70391" lon="5.02837">
        <ele>484.3</ele>
        <time>2022-05-16T07:57:41Z</time>
      </trkpt>
      <trkpt lat="47.7039" lon="5.02842">
        <ele>484.16</ele>
        <time>2022-05-16T07:57:44Z</time>
      </trkpt>
      <trkpt lat="47.70388" lon="5.02845">
        <ele>483.92</ele>
        <time>2022-05-16T07:57:46Z</time>
      </trkpt>
      <trkpt lat="47.70385" lon="5.02848">
        <ele>483.65</ele>
        <time>2022-05-16T07:57:48Z</time>
      </trkpt>
      <trkpt lat="47.70383" lon="5.02852">
        <ele>483.51</ele>
        <time>2022-05-16T07:57:49Z</time>
      </trkpt>
      <trkpt lat="47.70382" lon="5.02856">
        <ele>483.46</ele>
        <time>2022-05-16T07:57:51Z</time>
      </trkpt>
      <trkpt lat="47.7038" lon="5.0286">
        <ele>483.35</ele>
        <time>2022-05-16T07:57:54Z</time>
      </trkpt>
      <trkpt lat="47.70379" lon="5.02864">
        <ele>483.7</ele>
        <time>2022-05-16T07:57:56Z</time>
      </trkpt>
      <trkpt lat="47.70377" lon="5.02869">
        <ele>484.28</ele>
        <time>2022-05-16T07:57:59Z</time>
      </trkpt>
      <trkpt lat="47.70375" lon="5.02872">
        <ele>484.57</ele>
        <time>2022-05-16T07:58:02Z</time>
      </trkpt>
      <trkpt lat="47.70373" lon="5.02876">
        <ele>485</ele>
        <time>2022-05-16T07:58:04Z</time>
      </trkpt>
      <trkpt lat="47.70371" lon="5.02879">
        <ele>485.29</ele>
        <time>2022-05-16T07:58:07Z</time>
      </trkpt>
      <trkpt lat="47.7037" lon="5.02882">
        <ele>485.65</ele>
        <time>2022-05-16T07:58:10Z</time>
      </trkpt>
      <trkpt lat="47.70368" lon="5.02885">
        <ele>485.94</ele>
        <time>2022-05-16T07:58:12Z</time>
      </trkpt>
      <trkpt lat="47.70365" lon="5.02888">
        <ele>486.15</ele>
        <time>2022-05-16T07:58:15Z</time>
      </trkpt>
      <trkpt lat="47.70363" lon="5.02891">
        <ele>486.35</ele>
        <time>2022-05-16T07:58:19Z</time>
      </trkpt>
      <trkpt lat="47.7036" lon="5.02894">
        <ele>486.54</ele>
        <time>2022-05-16T07:58:20Z</time>
      </trkpt>
      <trkpt lat="47.70358" lon="5.02897">
        <ele>486.84</ele>
        <time>2022-05-16T07:58:23Z</time>
      </trkpt>
      <trkpt lat="47.70355" lon="5.029">
        <ele>487.11</ele>
        <time>2022-05-16T07:58:27Z</time>
      </trkpt>
      <trkpt lat="47.70352" lon="5.02902">
        <ele>487.26</ele>
        <time>2022-05-16T07:58:30Z</time>
      </trkpt>
      <trkpt lat="47.70349" lon="5.02905">
        <ele>487.49</ele>
        <time>2022-05-16T07:58:33Z</time>
      </trkpt>
      <trkpt lat="47.70346" lon="5.02908">
        <ele>487.69</ele>
        <time>2022-05-16T07:58:34Z</time>
      </trkpt>
      <trkpt lat="47.70344" lon="5.02911">
        <ele>487.9</ele>
        <time>2022-05-16T07:58:37Z</time>
      </trkpt>
      <trkpt lat="47.70342" lon="5.02913">
        <ele>488.01</ele>
        <time>2022-05-16T07:58:38Z</time>
      </trkpt>
      <trkpt lat="47.7034" lon="5.02918">
        <ele>488.34</ele>
        <time>2022-05-16T07:58:40Z</time>
      </trkpt>
      <trkpt lat="47.70339" lon="5.02922">
        <ele>488.59</ele>
        <time>2022-05-16T07:58:42Z</time>
      </trkpt>
      <trkpt lat="47.70338" lon="5.02927">
        <ele>488.91</ele>
        <time>2022-05-16T07:58:44Z</time>
      </trkpt>
      <trkpt lat="47.70337" lon="5.02931">
        <ele>489.16</ele>
        <time>2022-05-16T07:58:46Z</time>
      </trkpt>
      <trkpt lat="47.70335" lon="5.02935">
        <ele>489.38</ele>
        <time>2022-05-16T07:58:48Z</time>
      </trkpt>
      <trkpt lat="47.70334" lon="5.02939">
        <ele>489.63</ele>
        <time>2022-05-16T07:58:52Z</time>
      </trkpt>
      <trkpt lat="47.70331" lon="5.02944">
        <ele>489.72</ele>
        <time>2022-05-16T07:58:55Z</time>
      </trkpt>
      <trkpt lat="47.7033" lon="5.02947">
        <ele>489.72</ele>
        <time>2022-05-16T07:58:57Z</time>
      </trkpt>
      <trkpt lat="47.70328" lon="5.02951">
        <ele>489.61</ele>
        <time>2022-05-16T07:59:00Z</time>
      </trkpt>
      <trkpt lat="47.70328" lon="5.02955">
        <ele>489.73</ele>
        <time>2022-05-16T07:59:02Z</time>
      </trkpt>
      <trkpt lat="47.70328" lon="5.02959">
        <ele>489.85</ele>
        <time>2022-05-16T07:59:05Z</time>
      </trkpt>
      <trkpt lat="47.70328" lon="5.02964">
        <ele>489.99</ele>
        <time>2022-05-16T07:59:08Z</time>
      </trkpt>
      <trkpt lat="47.70328" lon="5.02969">
        <ele>490.14</ele>
        <time>2022-05-16T07:59:10Z</time>
      </trkpt>
      <trkpt lat="47.70329" lon="5.02973">
        <ele>490.34</ele>
        <time>2022-05-16T07:59:12Z</time>
      </trkpt>
      <trkpt lat="47.70328" lon="5.02979">
        <ele>489.94</ele>
        <time>2022-05-16T07:59:14Z</time>
      </trkpt>
      <trkpt lat="47.70327" lon="5.02982">
        <ele>489.66</ele>
        <time>2022-05-16T07:59:16Z</time>
      </trkpt>
      <trkpt lat="47.70326" lon="5.02987">
        <ele>489.27</ele>
        <time>2022-05-16T07:59:19Z</time>
      </trkpt>
      <trkpt lat="47.70324" lon="5.02991">
        <ele>488.75</ele>
        <time>2022-05-16T07:59:21Z</time>
      </trkpt>
      <trkpt lat="47.70323" lon="5.02995">
        <ele>488.39</ele>
        <time>2022-05-16T07:59:23Z</time>
      </trkpt>
      <trkpt lat="47.70321" lon="5.02998">
        <ele>487.88</ele>
        <time>2022-05-16T07:59:25Z</time>
      </trkpt>
      <trkpt lat="47.70318" lon="5.02999">
        <ele>487.3</ele>
        <time>2022-05-16T07:59:28Z</time>
      </trkpt>
      <trkpt lat="47.70313" lon="5.02998">
        <ele>486.46</ele>
        <time>2022-05-16T07:59:32Z</time>
      </trkpt>
      <trkpt lat="47.7031" lon="5.02997">
        <ele>486</ele>
        <time>2022-05-16T07:59:33Z</time>
      </trkpt>
      <trkpt lat="47.70307" lon="5.02997">
        <ele>485.47</ele>
        <time>2022-05-16T07:59:34Z</time>
      </trkpt>
      <trkpt lat="47.70304" lon="5.02996">
        <ele>485.24</ele>
        <time>2022-05-16T07:59:36Z</time>
      </trkpt>
      <trkpt lat="47.70301" lon="5.02996">
        <ele>485.15</ele>
        <time>2022-05-16T07:59:38Z</time>
      </trkpt>
      <trkpt lat="47.70298" lon="5.02995">
        <ele>485.14</ele>
        <time>2022-05-16T07:59:41Z</time>
      </trkpt>
      <trkpt lat="47.70294" lon="5.02994">
        <ele>485.11</ele>
        <time>2022-05-16T07:59:45Z</time>
      </trkpt>
      <trkpt lat="47.70291" lon="5.02994">
        <ele>485.02</ele>
        <time>2022-05-16T07:59:47Z</time>
      </trkpt>
      <trkpt lat="47.70288" lon="5.02993">
        <ele>485.03</ele>
        <time>2022-05-16T07:59:50Z</time>
      </trkpt>
      <trkpt lat="47.70285" lon="5.02991">
        <ele>485.15</ele>
        <time>2022-05-16T07:59:53Z</time>
      </trkpt>
      <trkpt lat="47.70282" lon="5.0299">
        <ele>485.18</ele>
        <time>2022-05-16T07:59:55Z</time>
      </trkpt>
      <trkpt lat="47.7028" lon="5.02989">
        <ele>485.24</ele>
        <time>2022-05-16T07:59:57Z</time>
      </trkpt>
      <trkpt lat="47.70277" lon="5.02989">
        <ele>485.24</ele>
        <time>2022-05-16T08:00:00Z</time>
      </trkpt>
      <trkpt lat="47.70274" lon="5.02988">
        <ele>485.57</ele>
        <time>2022-05-16T08:00:02Z</time>
      </trkpt>
      <trkpt lat="47.70271" lon="5.02987">
        <ele>485.89</ele>
        <time>2022-05-16T08:00:04Z</time>
      </trkpt>
      <trkpt lat="47.70268" lon="5.02986">
        <ele>486.22</ele>
        <time>2022-05-16T08:00:07Z</time>
      </trkpt>
      <trkpt lat="47.70265" lon="5.02985">
        <ele>486.54</ele>
        <time>2022-05-16T08:00:10Z</time>
      </trkpt>
      <trkpt lat="47.70262" lon="5.02984">
        <ele>486.86</ele>
        <time>2022-05-16T08:00:13Z</time>
      </trkpt>
      <trkpt lat="47.70259" lon="5.02982">
        <ele>487.3</ele>
        <time>2022-05-16T08:00:16Z</time>
      </trkpt>
      <trkpt lat="47.70256" lon="5.02981">
        <ele>487.62</ele>
        <time>2022-05-16T08:00:18Z</time>
      </trkpt>
      <trkpt lat="47.70254" lon="5.0298">
        <ele>487.87</ele>
        <time>2022-05-16T08:00:21Z</time>
      </trkpt>
      <trkpt lat="47.70251" lon="5.02979">
        <ele>488.2</ele>
        <time>2022-05-16T08:00:23Z</time>
      </trkpt>
      <trkpt lat="47.70248" lon="5.02978">
        <ele>488.61</ele>
        <time>2022-05-16T08:00:25Z</time>
      </trkpt>
      <trkpt lat="47.70244" lon="5.02976">
        <ele>489.27</ele>
        <time>2022-05-16T08:00:28Z</time>
      </trkpt>
      <trkpt lat="47.70241" lon="5.02975">
        <ele>489.7</ele>
        <time>2022-05-16T08:00:30Z</time>
      </trkpt>
      <trkpt lat="47.70239" lon="5.02974">
        <ele>490.02</ele>
        <time>2022-05-16T08:00:33Z</time>
      </trkpt>
      <trkpt lat="47.70236" lon="5.02973">
        <ele>490.44</ele>
        <time>2022-05-16T08:00:36Z</time>
      </trkpt>
      <trkpt lat="47.70233" lon="5.02971">
        <ele>490.93</ele>
        <time>2022-05-16T08:00:38Z</time>
      </trkpt>
      <trkpt lat="47.7023" lon="5.0297">
        <ele>491.36</ele>
        <time>2022-05-16T08:00:41Z</time>
      </trkpt>
      <trkpt lat="47.70227" lon="5.02969">
        <ele>491.79</ele>
        <time>2022-05-16T08:00:42Z</time>
      </trkpt>
      <trkpt lat="47.70224" lon="5.02968">
        <ele>492.24</ele>
        <time>2022-05-16T08:00:44Z</time>
      </trkpt>
      <trkpt lat="47.70221" lon="5.02968">
        <ele>492.52</ele>
        <time>2022-05-16T08:00:48Z</time>
      </trkpt>
      <trkpt lat="47.70218" lon="5.02967">
        <ele>492.75</ele>
        <time>2022-05-16T08:00:50Z</time>
      </trkpt>
      <trkpt lat="47.70215" lon="5.02965">
        <ele>493.03</ele>
        <time>2022-05-16T08:00:52Z</time>
      </trkpt>
      <trkpt lat="47.70212" lon="5.02964">
        <ele>493.19</ele>
        <time>2022-05-16T08:00:55Z</time>
      </trkpt>
      <trkpt lat="47.7021" lon="5.02963">
        <ele>493.29</ele>
        <time>2022-05-16T08:00:57Z</time>
      </trkpt>
      <trkpt lat="47.70207" lon="5.02961">
        <ele>493.42</ele>
        <time>2022-05-16T08:01:00Z</time>
      </trkpt>
      <trkpt lat="47.70204" lon="5.0296">
        <ele>493.48</ele>
        <time>2022-05-16T08:01:03Z</time>
      </trkpt>
      <trkpt lat="47.70201" lon="5.0296">
        <ele>493.5</ele>
        <time>2022-05-16T08:01:04Z</time>
      </trkpt>
      <trkpt lat="47.70198" lon="5.02959">
        <ele>493.51</ele>
        <time>2022-05-16T08:01:06Z</time>
      </trkpt>
      <trkpt lat="47.70195" lon="5.02959">
        <ele>493.52</ele>
        <time>2022-05-16T08:01:08Z</time>
      </trkpt>
      <trkpt lat="47.70192" lon="5.02958">
        <ele>493.23</ele>
        <time>2022-05-16T08:01:11Z</time>
      </trkpt>
      <trkpt lat="47.70189" lon="5.02958">
        <ele>492.9</ele>
        <time>2022-05-16T08:01:14Z</time>
      </trkpt>
      <trkpt lat="47.70186" lon="5.02956">
        <ele>492.56</ele>
        <time>2022-05-16T08:01:17Z</time>
      </trkpt>
      <trkpt lat="47.70183" lon="5.02955">
        <ele>492.24</ele>
        <time>2022-05-16T08:01:19Z</time>
      </trkpt>
      <trkpt lat="47.7018" lon="5.02953">
        <ele>491.95</ele>
        <time>2022-05-16T08:01:22Z</time>
      </trkpt>
      <trkpt lat="47.70177" lon="5.02952">
        <ele>491.67</ele>
        <time>2022-05-16T08:01:24Z</time>
      </trkpt>
      <trkpt lat="47.70174" lon="5.02951">
        <ele>491.42</ele>
        <time>2022-05-16T08:01:27Z</time>
      </trkpt>
      <trkpt lat="47.7017" lon="5.0295">
        <ele>491.09</ele>
        <time>2022-05-16T08:01:29Z</time>
      </trkpt>
      <trkpt lat="47.70166" lon="5.02949">
        <ele>490.82</ele>
        <time>2022-05-16T08:01:31Z</time>
      </trkpt>
      <trkpt lat="47.70164" lon="5.02947">
        <ele>490.83</ele>
        <time>2022-05-16T08:01:34Z</time>
      </trkpt>
      <trkpt lat="47.70161" lon="5.02946">
        <ele>490.76</ele>
        <time>2022-05-16T08:01:36Z</time>
      </trkpt>
      <trkpt lat="47.70158" lon="5.02944">
        <ele>490.67</ele>
        <time>2022-05-16T08:01:38Z</time>
      </trkpt>
      <trkpt lat="47.70155" lon="5.02943">
        <ele>490.53</ele>
        <time>2022-05-16T08:01:40Z</time>
      </trkpt>
      <trkpt lat="47.70152" lon="5.02942">
        <ele>490.38</ele>
        <time>2022-05-16T08:01:42Z</time>
      </trkpt>
      <trkpt lat="47.70149" lon="5.02941">
        <ele>490.24</ele>
        <time>2022-05-16T08:01:44Z</time>
      </trkpt>
      <trkpt lat="47.70146" lon="5.02939">
        <ele>490.06</ele>
        <time>2022-05-16T08:01:46Z</time>
      </trkpt>
      <trkpt lat="47.70143" lon="5.02938">
        <ele>489.92</ele>
        <time>2022-05-16T08:01:48Z</time>
      </trkpt>
      <trkpt lat="47.7014" lon="5.02937">
        <ele>489.77</ele>
        <time>2022-05-16T08:01:51Z</time>
      </trkpt>
      <trkpt lat="47.70136" lon="5.02936">
        <ele>489.87</ele>
        <time>2022-05-16T08:01:54Z</time>
      </trkpt>
      <trkpt lat="47.70134" lon="5.02935">
        <ele>489.95</ele>
        <time>2022-05-16T08:01:55Z</time>
      </trkpt>
      <trkpt lat="47.70131" lon="5.02934">
        <ele>490.09</ele>
        <time>2022-05-16T08:01:57Z</time>
      </trkpt>
      <trkpt lat="47.70128" lon="5.02932">
        <ele>490.16</ele>
        <time>2022-05-16T08:01:59Z</time>
      </trkpt>
      <trkpt lat="47.70124" lon="5.0293">
        <ele>490.27</ele>
        <time>2022-05-16T08:02:00Z</time>
      </trkpt>
      <trkpt lat="47.70121" lon="5.0293">
        <ele>490.43</ele>
        <time>2022-05-16T08:02:02Z</time>
      </trkpt>
      <trkpt lat="47.70118" lon="5.02929">
        <ele>490.53</ele>
        <time>2022-05-16T08:02:04Z</time>
      </trkpt>
      <trkpt lat="47.70115" lon="5.0293">
        <ele>490.75</ele>
        <time>2022-05-16T08:02:07Z</time>
      </trkpt>
      <trkpt lat="47.70112" lon="5.0293">
        <ele>490.91</ele>
        <time>2022-05-16T08:02:09Z</time>
      </trkpt>
      <trkpt lat="47.70109" lon="5.02929">
        <ele>490.94</ele>
        <time>2022-05-16T08:02:12Z</time>
      </trkpt>
      <trkpt lat="47.70106" lon="5.02927">
        <ele>490.91</ele>
        <time>2022-05-16T08:02:14Z</time>
      </trkpt>
      <trkpt lat="47.70103" lon="5.02926">
        <ele>490.96</ele>
        <time>2022-05-16T08:02:17Z</time>
      </trkpt>
      <trkpt lat="47.70101" lon="5.02925">
        <ele>491</ele>
        <time>2022-05-16T08:02:18Z</time>
      </trkpt>
      <trkpt lat="47.70098" lon="5.02924">
        <ele>491.1</ele>
        <time>2022-05-16T08:02:20Z</time>
      </trkpt>
      <trkpt lat="47.70095" lon="5.02924">
        <ele>491.23</ele>
        <time>2022-05-16T08:02:22Z</time>
      </trkpt>
      <trkpt lat="47.70092" lon="5.02923">
        <ele>491.36</ele>
        <time>2022-05-16T08:02:24Z</time>
      </trkpt>
      <trkpt lat="47.70089" lon="5.02922">
        <ele>491.52</ele>
        <time>2022-05-16T08:02:26Z</time>
      </trkpt>
      <trkpt lat="47.70086" lon="5.02921">
        <ele>491.7</ele>
        <time>2022-05-16T08:02:29Z</time>
      </trkpt>
      <trkpt lat="47.70083" lon="5.0292">
        <ele>491.84</ele>
        <time>2022-05-16T08:02:30Z</time>
      </trkpt>
      <trkpt lat="47.7008" lon="5.02919">
        <ele>491.56</ele>
        <time>2022-05-16T08:02:33Z</time>
      </trkpt>
      <trkpt lat="47.70077" lon="5.02918">
        <ele>491.27</ele>
        <time>2022-05-16T08:02:36Z</time>
      </trkpt>
      <trkpt lat="47.70074" lon="5.02917">
        <ele>490.98</ele>
        <time>2022-05-16T08:02:38Z</time>
      </trkpt>
      <trkpt lat="47.70071" lon="5.02916">
        <ele>490.64</ele>
        <time>2022-05-16T08:02:41Z</time>
      </trkpt>
      <trkpt lat="47.70068" lon="5.02915">
        <ele>490.29</ele>
        <time>2022-05-16T08:02:43Z</time>
      </trkpt>
      <trkpt lat="47.70065" lon="5.02914">
        <ele>489.95</ele>
        <time>2022-05-16T08:02:46Z</time>
      </trkpt>
      <trkpt lat="47.70062" lon="5.02912">
        <ele>489.62</ele>
        <time>2022-05-16T08:02:48Z</time>
      </trkpt>
      <trkpt lat="47.70059" lon="5.0291">
        <ele>489.31</ele>
        <time>2022-05-16T08:02:50Z</time>
      </trkpt>
      <trkpt lat="47.70056" lon="5.02909">
        <ele>489.04</ele>
        <time>2022-05-16T08:02:54Z</time>
      </trkpt>
      <trkpt lat="47.70052" lon="5.02908">
        <ele>488.66</ele>
        <time>2022-05-16T08:02:55Z</time>
      </trkpt>
      <trkpt lat="47.70049" lon="5.02908">
        <ele>488.37</ele>
        <time>2022-05-16T08:02:57Z</time>
      </trkpt>
      <trkpt lat="47.70046" lon="5.02907">
        <ele>488.09</ele>
        <time>2022-05-16T08:02:59Z</time>
      </trkpt>
      <trkpt lat="47.70043" lon="5.02905">
        <ele>487.83</ele>
        <time>2022-05-16T08:03:01Z</time>
      </trkpt>
      <trkpt lat="47.7004" lon="5.02904">
        <ele>487.58</ele>
        <time>2022-05-16T08:03:03Z</time>
      </trkpt>
      <trkpt lat="47.70036" lon="5.02903">
        <ele>487.23</ele>
        <time>2022-05-16T08:03:06Z</time>
      </trkpt>
      <trkpt lat="47.70033" lon="5.02902">
        <ele>486.99</ele>
        <time>2022-05-16T08:03:08Z</time>
      </trkpt>
      <trkpt lat="47.70031" lon="5.02902">
        <ele>486.81</ele>
        <time>2022-05-16T08:03:10Z</time>
      </trkpt>
      <trkpt lat="47.70028" lon="5.02901">
        <ele>486.58</ele>
        <time>2022-05-16T08:03:11Z</time>
      </trkpt>
      <trkpt lat="47.70024" lon="5.02901">
        <ele>486.49</ele>
        <time>2022-05-16T08:03:14Z</time>
      </trkpt>
      <trkpt lat="47.7002" lon="5.02901">
        <ele>486.41</ele>
        <time>2022-05-16T08:03:15Z</time>
      </trkpt>
      <trkpt lat="47.70017" lon="5.029">
        <ele>486.37</ele>
        <time>2022-05-16T08:03:17Z</time>
      </trkpt>
      <trkpt lat="47.70014" lon="5.029">
        <ele>486.3</ele>
        <time>2022-05-16T08:03:20Z</time>
      </trkpt>
      <trkpt lat="47.70011" lon="5.02899">
        <ele>486.25</ele>
        <time>2022-05-16T08:03:22Z</time>
      </trkpt>
      <trkpt lat="47.70008" lon="5.02898">
        <ele>486.19</ele>
        <time>2022-05-16T08:03:24Z</time>
      </trkpt>
      <trkpt lat="47.70005" lon="5.02897">
        <ele>486.13</ele>
        <time>2022-05-16T08:03:26Z</time>
      </trkpt>
      <trkpt lat="47.70002" lon="5.02896">
        <ele>486.05</ele>
        <time>2022-05-16T08:03:28Z</time>
      </trkpt>
      <trkpt lat="47.69999" lon="5.02895">
        <ele>486.02</ele>
        <time>2022-05-16T08:03:29Z</time>
      </trkpt>
      <trkpt lat="47.69997" lon="5.02894">
        <ele>486.07</ele>
        <time>2022-05-16T08:03:32Z</time>
      </trkpt>
      <trkpt lat="47.69994" lon="5.02893">
        <ele>486.15</ele>
        <time>2022-05-16T08:03:33Z</time>
      </trkpt>
      <trkpt lat="47.6999" lon="5.02892">
        <ele>486.28</ele>
        <time>2022-05-16T08:03:35Z</time>
      </trkpt>
      <trkpt lat="47.69986" lon="5.0289">
        <ele>486.46</ele>
        <time>2022-05-16T08:03:36Z</time>
      </trkpt>
      <trkpt lat="47.69983" lon="5.02888">
        <ele>486.55</ele>
        <time>2022-05-16T08:03:38Z</time>
      </trkpt>
      <trkpt lat="47.6998" lon="5.02886">
        <ele>486.5</ele>
        <time>2022-05-16T08:03:41Z</time>
      </trkpt>
      <trkpt lat="47.69977" lon="5.02885">
        <ele>486.48</ele>
        <time>2022-05-16T08:03:44Z</time>
      </trkpt>
      <trkpt lat="47.69973" lon="5.02884">
        <ele>486.46</ele>
        <time>2022-05-16T08:03:46Z</time>
      </trkpt>
      <trkpt lat="47.6997" lon="5.02883">
        <ele>486.49</ele>
        <time>2022-05-16T08:03:49Z</time>
      </trkpt>
      <trkpt lat="47.69967" lon="5.02881">
        <ele>486.5</ele>
        <time>2022-05-16T08:03:51Z</time>
      </trkpt>
      <trkpt lat="47.69964" lon="5.02881">
        <ele>486.7</ele>
        <time>2022-05-16T08:03:53Z</time>
      </trkpt>
      <trkpt lat="47.69961" lon="5.02881">
        <ele>486.9</ele>
        <time>2022-05-16T08:03:54Z</time>
      </trkpt>
      <trkpt lat="47.69958" lon="5.02879">
        <ele>486.99</ele>
        <time>2022-05-16T08:03:57Z</time>
      </trkpt>
      <trkpt lat="47.69955" lon="5.02878">
        <ele>487.17</ele>
        <time>2022-05-16T08:03:58Z</time>
      </trkpt>
      <trkpt lat="47.69952" lon="5.02876">
        <ele>487.35</ele>
        <time>2022-05-16T08:04:00Z</time>
      </trkpt>
      <trkpt lat="47.69949" lon="5.02875">
        <ele>487.59</ele>
        <time>2022-05-16T08:04:02Z</time>
      </trkpt>
      <trkpt lat="47.69946" lon="5.02874">
        <ele>487.85</ele>
        <time>2022-05-16T08:04:04Z</time>
      </trkpt>
      <trkpt lat="47.69942" lon="5.02873">
        <ele>487.65</ele>
        <time>2022-05-16T08:04:06Z</time>
      </trkpt>
      <trkpt lat="47.69939" lon="5.02872">
        <ele>487.22</ele>
        <time>2022-05-16T08:04:07Z</time>
      </trkpt>
      <trkpt lat="47.69936" lon="5.02872">
        <ele>486.78</ele>
        <time>2022-05-16T08:04:09Z</time>
      </trkpt>
      <trkpt lat="47.69933" lon="5.02871">
        <ele>486.35</ele>
        <time>2022-05-16T08:04:11Z</time>
      </trkpt>
      <trkpt lat="47.6993" lon="5.02871">
        <ele>485.92</ele>
        <time>2022-05-16T08:04:12Z</time>
      </trkpt>
      <trkpt lat="47.69927" lon="5.02869">
        <ele>485.49</ele>
        <time>2022-05-16T08:04:14Z</time>
      </trkpt>
      <trkpt lat="47.69924" lon="5.02867">
        <ele>485.06</ele>
        <time>2022-05-16T08:04:16Z</time>
      </trkpt>
      <trkpt lat="47.69921" lon="5.02866">
        <ele>484.62</ele>
        <time>2022-05-16T08:04:18Z</time>
      </trkpt>
      <trkpt lat="47.69918" lon="5.02864">
        <ele>484.19</ele>
        <time>2022-05-16T08:04:19Z</time>
      </trkpt>
      <trkpt lat="47.69916" lon="5.02863">
        <ele>484.03</ele>
        <time>2022-05-16T08:04:21Z</time>
      </trkpt>
      <trkpt lat="47.69913" lon="5.02862">
        <ele>484.14</ele>
        <time>2022-05-16T08:04:23Z</time>
      </trkpt>
      <trkpt lat="47.6991" lon="5.02861">
        <ele>484.24</ele>
        <time>2022-05-16T08:04:26Z</time>
      </trkpt>
      <trkpt lat="47.69907" lon="5.0286">
        <ele>484.35</ele>
        <time>2022-05-16T08:04:29Z</time>
      </trkpt>
      <trkpt lat="47.69904" lon="5.02858">
        <ele>484.5</ele>
        <time>2022-05-16T08:04:32Z</time>
      </trkpt>
      <trkpt lat="47.69901" lon="5.02857">
        <ele>484.67</ele>
        <time>2022-05-16T08:04:35Z</time>
      </trkpt>
      <trkpt lat="47.69898" lon="5.02856">
        <ele>484.86</ele>
        <time>2022-05-16T08:04:37Z</time>
      </trkpt>
      <trkpt lat="47.69895" lon="5.02854">
        <ele>485.12</ele>
        <time>2022-05-16T08:04:39Z</time>
      </trkpt>
      <trkpt lat="47.69891" lon="5.02852">
        <ele>485.51</ele>
        <time>2022-05-16T08:04:41Z</time>
      </trkpt>
      <trkpt lat="47.69888" lon="5.02851">
        <ele>485.78</ele>
        <time>2022-05-16T08:04:42Z</time>
      </trkpt>
      <trkpt lat="47.69886" lon="5.02849">
        <ele>486.03</ele>
        <time>2022-05-16T08:04:43Z</time>
      </trkpt>
      <trkpt lat="47.69883" lon="5.02847">
        <ele>486.33</ele>
        <time>2022-05-16T08:04:45Z</time>
      </trkpt>
      <trkpt lat="47.69879" lon="5.02846">
        <ele>486.61</ele>
        <time>2022-05-16T08:04:48Z</time>
      </trkpt>
      <trkpt lat="47.69876" lon="5.02845">
        <ele>486.82</ele>
        <time>2022-05-16T08:04:50Z</time>
      </trkpt>
      <trkpt lat="47.69873" lon="5.02844">
        <ele>487.02</ele>
        <time>2022-05-16T08:04:53Z</time>
      </trkpt>
      <trkpt lat="47.6987" lon="5.02843">
        <ele>487.22</ele>
        <time>2022-05-16T08:04:55Z</time>
      </trkpt>
      <trkpt lat="47.69867" lon="5.0284">
        <ele>487.5</ele>
        <time>2022-05-16T08:04:57Z</time>
      </trkpt>
      <trkpt lat="47.69864" lon="5.02838">
        <ele>487.71</ele>
        <time>2022-05-16T08:05:00Z</time>
      </trkpt>
      <trkpt lat="47.69861" lon="5.02836">
        <ele>487.9</ele>
        <time>2022-05-16T08:05:02Z</time>
      </trkpt>
      <trkpt lat="47.69858" lon="5.02833">
        <ele>487.84</ele>
        <time>2022-05-16T08:05:05Z</time>
      </trkpt>
      <trkpt lat="47.69856" lon="5.0283">
        <ele>487.36</ele>
        <time>2022-05-16T08:05:08Z</time>
      </trkpt>
      <trkpt lat="47.69854" lon="5.02827">
        <ele>486.89</ele>
        <time>2022-05-16T08:05:10Z</time>
      </trkpt>
      <trkpt lat="47.69851" lon="5.02825">
        <ele>486.55</ele>
        <time>2022-05-16T08:05:12Z</time>
      </trkpt>
      <trkpt lat="47.69848" lon="5.02823">
        <ele>486.22</ele>
        <time>2022-05-16T08:05:14Z</time>
      </trkpt>
      <trkpt lat="47.69845" lon="5.02821">
        <ele>485.9</ele>
        <time>2022-05-16T08:05:15Z</time>
      </trkpt>
      <trkpt lat="47.69842" lon="5.02819">
        <ele>485.6</ele>
        <time>2022-05-16T08:05:19Z</time>
      </trkpt>
      <trkpt lat="47.69839" lon="5.02817">
        <ele>485.32</ele>
        <time>2022-05-16T08:05:21Z</time>
      </trkpt>
      <trkpt lat="47.69837" lon="5.02815">
        <ele>485.06</ele>
        <time>2022-05-16T08:05:23Z</time>
      </trkpt>
      <trkpt lat="47.69834" lon="5.02813">
        <ele>484.81</ele>
        <time>2022-05-16T08:05:25Z</time>
      </trkpt>
      <trkpt lat="47.69831" lon="5.0281">
        <ele>484.59</ele>
        <time>2022-05-16T08:05:28Z</time>
      </trkpt>
      <trkpt lat="47.69829" lon="5.02808">
        <ele>484.52</ele>
        <time>2022-05-16T08:05:30Z</time>
      </trkpt>
      <trkpt lat="47.69826" lon="5.02806">
        <ele>484.56</ele>
        <time>2022-05-16T08:05:31Z</time>
      </trkpt>
      <trkpt lat="47.69824" lon="5.02804">
        <ele>484.62</ele>
        <time>2022-05-16T08:05:33Z</time>
      </trkpt>
      <trkpt lat="47.6982" lon="5.02802">
        <ele>484.83</ele>
        <time>2022-05-16T08:05:36Z</time>
      </trkpt>
      <trkpt lat="47.69818" lon="5.028">
        <ele>484.9</ele>
        <time>2022-05-16T08:05:38Z</time>
      </trkpt>
      <trkpt lat="47.69814" lon="5.02798">
        <ele>485.12</ele>
        <time>2022-05-16T08:05:39Z</time>
      </trkpt>
      <trkpt lat="47.69811" lon="5.02797">
        <ele>485.3</ele>
        <time>2022-05-16T08:05:42Z</time>
      </trkpt>
      <trkpt lat="47.69807" lon="5.02794">
        <ele>485.48</ele>
        <time>2022-05-16T08:05:44Z</time>
      </trkpt>
      <trkpt lat="47.69803" lon="5.0279">
        <ele>485.45</ele>
        <time>2022-05-16T08:05:47Z</time>
      </trkpt>
      <trkpt lat="47.698" lon="5.02787">
        <ele>485.4</ele>
        <time>2022-05-16T08:05:48Z</time>
      </trkpt>
      <trkpt lat="47.69798" lon="5.02785">
        <ele>485.39</ele>
        <time>2022-05-16T08:05:50Z</time>
      </trkpt>
      <trkpt lat="47.69795" lon="5.02782">
        <ele>485.42</ele>
        <time>2022-05-16T08:05:51Z</time>
      </trkpt>
      <trkpt lat="47.69793" lon="5.0278">
        <ele>485.46</ele>
        <time>2022-05-16T08:05:53Z</time>
      </trkpt>
      <trkpt lat="47.69791" lon="5.02778">
        <ele>485.52</ele>
        <time>2022-05-16T08:05:55Z</time>
      </trkpt>
      <trkpt lat="47.69788" lon="5.02775">
        <ele>485.56</ele>
        <time>2022-05-16T08:05:56Z</time>
      </trkpt>
      <trkpt lat="47.69785" lon="5.02774">
        <ele>485.67</ele>
        <time>2022-05-16T08:05:59Z</time>
      </trkpt>
      <trkpt lat="47.69782" lon="5.02771">
        <ele>485.77</ele>
        <time>2022-05-16T08:06:02Z</time>
      </trkpt>
      <trkpt lat="47.6978" lon="5.02769">
        <ele>485.87</ele>
        <time>2022-05-16T08:06:05Z</time>
      </trkpt>
      <trkpt lat="47.69777" lon="5.02765">
        <ele>486</ele>
        <time>2022-05-16T08:06:08Z</time>
      </trkpt>
      <trkpt lat="47.69775" lon="5.02762">
        <ele>486</ele>
        <time>2022-05-16T08:06:09Z</time>
      </trkpt>
      <trkpt lat="47.69772" lon="5.02759">
        <ele>486</ele>
        <time>2022-05-16T08:06:11Z</time>
      </trkpt>
      <trkpt lat="47.69769" lon="5.02756">
        <ele>486</ele>
        <time>2022-05-16T08:06:13Z</time>
      </trkpt>
      <trkpt lat="47.69766" lon="5.02754">
        <ele>486</ele>
        <time>2022-05-16T08:06:15Z</time>
      </trkpt>
      <trkpt lat="47.69764" lon="5.02752">
        <ele>486</ele>
        <time>2022-05-16T08:06:19Z</time>
      </trkpt>
      <trkpt lat="47.69761" lon="5.02749">
        <ele>486.02</ele>
        <time>2022-05-16T08:06:21Z</time>
      </trkpt>
      <trkpt lat="47.69759" lon="5.02747">
        <ele>486.07</ele>
        <time>2022-05-16T08:06:23Z</time>
      </trkpt>
      <trkpt lat="47.69756" lon="5.02745">
        <ele>486.14</ele>
        <time>2022-05-16T08:06:26Z</time>
      </trkpt>
      <trkpt lat="47.69753" lon="5.02742">
        <ele>486.26</ele>
        <time>2022-05-16T08:06:29Z</time>
      </trkpt>
      <trkpt lat="47.69751" lon="5.02739">
        <ele>486.38</ele>
        <time>2022-05-16T08:06:31Z</time>
      </trkpt>
      <trkpt lat="47.69748" lon="5.02736">
        <ele>486.5</ele>
        <time>2022-05-16T08:06:33Z</time>
      </trkpt>
      <trkpt lat="47.69746" lon="5.02733">
        <ele>486.61</ele>
        <time>2022-05-16T08:06:35Z</time>
      </trkpt>
      <trkpt lat="47.69743" lon="5.0273">
        <ele>486.72</ele>
        <time>2022-05-16T08:06:37Z</time>
      </trkpt>
      <trkpt lat="47.69741" lon="5.02727">
        <ele>486.83</ele>
        <time>2022-05-16T08:06:39Z</time>
      </trkpt>
      <trkpt lat="47.69739" lon="5.02723">
        <ele>486.97</ele>
        <time>2022-05-16T08:06:41Z</time>
      </trkpt>
      <trkpt lat="47.69737" lon="5.0272">
        <ele>487.23</ele>
        <time>2022-05-16T08:06:44Z</time>
      </trkpt>
      <trkpt lat="47.69734" lon="5.02716">
        <ele>487.71</ele>
        <time>2022-05-16T08:06:48Z</time>
      </trkpt>
      <trkpt lat="47.69732" lon="5.02713">
        <ele>488.09</ele>
        <time>2022-05-16T08:06:50Z</time>
      </trkpt>
      <trkpt lat="47.6973" lon="5.02711">
        <ele>488.39</ele>
        <time>2022-05-16T08:06:52Z</time>
      </trkpt>
      <trkpt lat="47.69728" lon="5.02707">
        <ele>488.96</ele>
        <time>2022-05-16T08:06:54Z</time>
      </trkpt>
      <trkpt lat="47.69725" lon="5.02704">
        <ele>489.49</ele>
        <time>2022-05-16T08:06:56Z</time>
      </trkpt>
      <trkpt lat="47.69723" lon="5.02701">
        <ele>490.01</ele>
        <time>2022-05-16T08:06:57Z</time>
      </trkpt>
      <trkpt lat="47.6972" lon="5.02698">
        <ele>490.26</ele>
        <time>2022-05-16T08:07:00Z</time>
      </trkpt>
      <trkpt lat="47.69717" lon="5.02695">
        <ele>490.36</ele>
        <time>2022-05-16T08:07:02Z</time>
      </trkpt>
      <trkpt lat="47.69715" lon="5.02692">
        <ele>490.38</ele>
        <time>2022-05-16T08:07:04Z</time>
      </trkpt>
      <trkpt lat="47.69713" lon="5.02689">
        <ele>490.4</ele>
        <time>2022-05-16T08:07:07Z</time>
      </trkpt>
      <trkpt lat="47.69712" lon="5.02685">
        <ele>490.61</ele>
        <time>2022-05-16T08:07:09Z</time>
      </trkpt>
      <trkpt lat="47.6971" lon="5.02681">
        <ele>490.8</ele>
        <time>2022-05-16T08:07:12Z</time>
      </trkpt>
      <trkpt lat="47.69709" lon="5.02677">
        <ele>491.1</ele>
        <time>2022-05-16T08:07:15Z</time>
      </trkpt>
      <trkpt lat="47.69707" lon="5.02672">
        <ele>491.49</ele>
        <time>2022-05-16T08:07:17Z</time>
      </trkpt>
      <trkpt lat="47.69706" lon="5.02669">
        <ele>491.77</ele>
        <time>2022-05-16T08:07:20Z</time>
      </trkpt>
      <trkpt lat="47.69705" lon="5.02664">
        <ele>492.01</ele>
        <time>2022-05-16T08:07:22Z</time>
      </trkpt>
      <trkpt lat="47.69703" lon="5.0266">
        <ele>491.98</ele>
        <time>2022-05-16T08:07:23Z</time>
      </trkpt>
      <trkpt lat="47.69701" lon="5.02657">
        <ele>491.9</ele>
        <time>2022-05-16T08:07:25Z</time>
      </trkpt>
      <trkpt lat="47.69698" lon="5.02654">
        <ele>491.72</ele>
        <time>2022-05-16T08:07:27Z</time>
      </trkpt>
      <trkpt lat="47.69696" lon="5.02652">
        <ele>491.56</ele>
        <time>2022-05-16T08:07:30Z</time>
      </trkpt>
      <trkpt lat="47.69694" lon="5.02649">
        <ele>491.28</ele>
        <time>2022-05-16T08:07:33Z</time>
      </trkpt>
      <trkpt lat="47.69691" lon="5.02646">
        <ele>490.6</ele>
        <time>2022-05-16T08:07:34Z</time>
      </trkpt>
      <trkpt lat="47.69688" lon="5.02639">
        <ele>489.84</ele>
        <time>2022-05-16T08:07:37Z</time>
      </trkpt>
      <trkpt lat="47.69686" lon="5.02635">
        <ele>489.29</ele>
        <time>2022-05-16T08:07:38Z</time>
      </trkpt>
      <trkpt lat="47.69684" lon="5.02632">
        <ele>488.81</ele>
        <time>2022-05-16T08:07:40Z</time>
      </trkpt>
      <trkpt lat="47.69681" lon="5.02629">
        <ele>488.21</ele>
        <time>2022-05-16T08:07:41Z</time>
      </trkpt>
      <trkpt lat="47.69679" lon="5.02625">
        <ele>487.78</ele>
        <time>2022-05-16T08:07:44Z</time>
      </trkpt>
      <trkpt lat="47.69677" lon="5.02621">
        <ele>487.38</ele>
        <time>2022-05-16T08:07:46Z</time>
      </trkpt>
      <trkpt lat="47.69675" lon="5.02618">
        <ele>487.05</ele>
        <time>2022-05-16T08:07:48Z</time>
      </trkpt>
      <trkpt lat="47.69673" lon="5.02615">
        <ele>486.75</ele>
        <time>2022-05-16T08:07:50Z</time>
      </trkpt>
      <trkpt lat="47.69671" lon="5.02611">
        <ele>486.46</ele>
        <time>2022-05-16T08:07:52Z</time>
      </trkpt>
      <trkpt lat="47.6967" lon="5.02606">
        <ele>486.04</ele>
        <time>2022-05-16T08:07:55Z</time>
      </trkpt>
      <trkpt lat="47.69668" lon="5.02601">
        <ele>485.45</ele>
        <time>2022-05-16T08:07:57Z</time>
      </trkpt>
      <trkpt lat="47.69667" lon="5.02598">
        <ele>485.1</ele>
        <time>2022-05-16T08:08:00Z</time>
      </trkpt>
      <trkpt lat="47.69665" lon="5.02595">
        <ele>484.9</ele>
        <time>2022-05-16T08:08:01Z</time>
      </trkpt>
      <trkpt lat="47.69663" lon="5.02591">
        <ele>484.68</ele>
        <time>2022-05-16T08:08:03Z</time>
      </trkpt>
      <trkpt lat="47.69661" lon="5.02588">
        <ele>484.54</ele>
        <time>2022-05-16T08:08:05Z</time>
      </trkpt>
      <trkpt lat="47.69659" lon="5.02584">
        <ele>484.32</ele>
        <time>2022-05-16T08:08:07Z</time>
      </trkpt>
      <trkpt lat="47.69657" lon="5.0258">
        <ele>483.95</ele>
        <time>2022-05-16T08:08:09Z</time>
      </trkpt>
      <trkpt lat="47.69655" lon="5.02574">
        <ele>483.27</ele>
        <time>2022-05-16T08:08:12Z</time>
      </trkpt>
      <trkpt lat="47.69654" lon="5.02571">
        <ele>482.92</ele>
        <time>2022-05-16T08:08:14Z</time>
      </trkpt>
      <trkpt lat="47.69652" lon="5.02567">
        <ele>482.45</ele>
        <time>2022-05-16T08:08:16Z</time>
      </trkpt>
      <trkpt lat="47.69651" lon="5.02563">
        <ele>481.96</ele>
        <time>2022-05-16T08:08:18Z</time>
      </trkpt>
      <trkpt lat="47.6965" lon="5.02559">
        <ele>481.45</ele>
        <time>2022-05-16T08:08:20Z</time>
      </trkpt>
      <trkpt lat="47.69649" lon="5.02553">
        <ele>480.94</ele>
        <time>2022-05-16T08:08:22Z</time>
      </trkpt>
      <trkpt lat="47.69648" lon="5.02549">
        <ele>480.84</ele>
        <time>2022-05-16T08:08:25Z</time>
      </trkpt>
      <trkpt lat="47.69647" lon="5.02544">
        <ele>480.71</ele>
        <time>2022-05-16T08:08:27Z</time>
      </trkpt>
      <trkpt lat="47.69646" lon="5.0254">
        <ele>480.58</ele>
        <time>2022-05-16T08:08:29Z</time>
      </trkpt>
      <trkpt lat="47.69645" lon="5.02536">
        <ele>480.45</ele>
        <time>2022-05-16T08:08:31Z</time>
      </trkpt>
      <trkpt lat="47.69644" lon="5.02531">
        <ele>480.28</ele>
        <time>2022-05-16T08:08:34Z</time>
      </trkpt>
      <trkpt lat="47.69643" lon="5.02527">
        <ele>480.11</ele>
        <time>2022-05-16T08:08:36Z</time>
      </trkpt>
      <trkpt lat="47.69642" lon="5.02523">
        <ele>479.85</ele>
        <time>2022-05-16T08:08:39Z</time>
      </trkpt>
      <trkpt lat="47.6964" lon="5.02518">
        <ele>479.39</ele>
        <time>2022-05-16T08:08:41Z</time>
      </trkpt>
      <trkpt lat="47.69639" lon="5.02513">
        <ele>478.95</ele>
        <time>2022-05-16T08:08:42Z</time>
      </trkpt>
      <trkpt lat="47.69638" lon="5.02509">
        <ele>478.71</ele>
        <time>2022-05-16T08:08:45Z</time>
      </trkpt>
      <trkpt lat="47.69637" lon="5.02505">
        <ele>478.5</ele>
        <time>2022-05-16T08:08:46Z</time>
      </trkpt>
      <trkpt lat="47.69636" lon="5.02501">
        <ele>478.28</ele>
        <time>2022-05-16T08:08:48Z</time>
      </trkpt>
      <trkpt lat="47.69635" lon="5.02497">
        <ele>478.28</ele>
        <time>2022-05-16T08:08:50Z</time>
      </trkpt>
      <trkpt lat="47.69634" lon="5.02493">
        <ele>478.35</ele>
        <time>2022-05-16T08:08:52Z</time>
      </trkpt>
      <trkpt lat="47.69633" lon="5.02489">
        <ele>478.42</ele>
        <time>2022-05-16T08:08:54Z</time>
      </trkpt>
      <trkpt lat="47.69632" lon="5.02484">
        <ele>478.5</ele>
        <time>2022-05-16T08:08:56Z</time>
      </trkpt>
      <trkpt lat="47.69631" lon="5.0248">
        <ele>478.57</ele>
        <time>2022-05-16T08:08:58Z</time>
      </trkpt>
      <trkpt lat="47.6963" lon="5.02476">
        <ele>478.64</ele>
        <time>2022-05-16T08:09:00Z</time>
      </trkpt>
      <trkpt lat="47.69629" lon="5.02471">
        <ele>478.67</ele>
        <time>2022-05-16T08:09:02Z</time>
      </trkpt>
      <trkpt lat="47.69628" lon="5.02467">
        <ele>478.6</ele>
        <time>2022-05-16T08:09:05Z</time>
      </trkpt>
      <trkpt lat="47.69627" lon="5.02462">
        <ele>478.49</ele>
        <time>2022-05-16T08:09:07Z</time>
      </trkpt>
      <trkpt lat="47.69626" lon="5.02457">
        <ele>478.38</ele>
        <time>2022-05-16T08:09:09Z</time>
      </trkpt>
      <trkpt lat="47.69625" lon="5.02452">
        <ele>478.27</ele>
        <time>2022-05-16T08:09:12Z</time>
      </trkpt>
      <trkpt lat="47.69624" lon="5.02448">
        <ele>478.2</ele>
        <time>2022-05-16T08:09:13Z</time>
      </trkpt>
      <trkpt lat="47.69623" lon="5.02443">
        <ele>478.34</ele>
        <time>2022-05-16T08:09:17Z</time>
      </trkpt>
      <trkpt lat="47.69622" lon="5.02439">
        <ele>478.96</ele>
        <time>2022-05-16T08:09:19Z</time>
      </trkpt>
      <trkpt lat="47.69622" lon="5.02435">
        <ele>479.5</ele>
        <time>2022-05-16T08:09:21Z</time>
      </trkpt>
      <trkpt lat="47.69621" lon="5.02429">
        <ele>480.35</ele>
        <time>2022-05-16T08:09:24Z</time>
      </trkpt>
      <trkpt lat="47.6962" lon="5.02425">
        <ele>480.91</ele>
        <time>2022-05-16T08:09:26Z</time>
      </trkpt>
      <trkpt lat="47.6962" lon="5.0242">
        <ele>481.56</ele>
        <time>2022-05-16T08:09:28Z</time>
      </trkpt>
      <trkpt lat="47.69619" lon="5.02415">
        <ele>482.02</ele>
        <time>2022-05-16T08:09:31Z</time>
      </trkpt>
      <trkpt lat="47.69619" lon="5.02411">
        <ele>482.06</ele>
        <time>2022-05-16T08:09:33Z</time>
      </trkpt>
      <trkpt lat="47.69618" lon="5.02407">
        <ele>482.09</ele>
        <time>2022-05-16T08:09:35Z</time>
      </trkpt>
      <trkpt lat="47.69618" lon="5.02402">
        <ele>482.13</ele>
        <time>2022-05-16T08:09:38Z</time>
      </trkpt>
      <trkpt lat="47.69617" lon="5.02397">
        <ele>482.15</ele>
        <time>2022-05-16T08:09:41Z</time>
      </trkpt>
      <trkpt lat="47.69617" lon="5.02392">
        <ele>482.19</ele>
        <time>2022-05-16T08:09:43Z</time>
      </trkpt>
      <trkpt lat="47.69617" lon="5.02387">
        <ele>482.12</ele>
        <time>2022-05-16T08:09:46Z</time>
      </trkpt>
      <trkpt lat="47.69617" lon="5.02382">
        <ele>481.87</ele>
        <time>2022-05-16T08:09:48Z</time>
      </trkpt>
      <trkpt lat="47.69617" lon="5.02378">
        <ele>481.68</ele>
        <time>2022-05-16T08:09:51Z</time>
      </trkpt>
      <trkpt lat="47.69616" lon="5.02374">
        <ele>481.39</ele>
        <time>2022-05-16T08:09:53Z</time>
      </trkpt>
      <trkpt lat="47.69616" lon="5.02369">
        <ele>481.12</ele>
        <time>2022-05-16T08:09:55Z</time>
      </trkpt>
      <trkpt lat="47.69615" lon="5.02365">
        <ele>480.78</ele>
        <time>2022-05-16T08:09:57Z</time>
      </trkpt>
      <trkpt lat="47.69614" lon="5.0236">
        <ele>480.42</ele>
        <time>2022-05-16T08:10:00Z</time>
      </trkpt>
      <trkpt lat="47.69613" lon="5.02356">
        <ele>480.28</ele>
        <time>2022-05-16T08:10:04Z</time>
      </trkpt>
      <trkpt lat="47.69612" lon="5.0235">
        <ele>480.14</ele>
        <time>2022-05-16T08:10:06Z</time>
      </trkpt>
      <trkpt lat="47.69612" lon="5.02346">
        <ele>480.15</ele>
        <time>2022-05-16T08:10:08Z</time>
      </trkpt>
      <trkpt lat="47.69611" lon="5.02341">
        <ele>480.03</ele>
        <time>2022-05-16T08:10:10Z</time>
      </trkpt>
      <trkpt lat="47.69611" lon="5.02336">
        <ele>480.02</ele>
        <time>2022-05-16T08:10:12Z</time>
      </trkpt>
      <trkpt lat="47.69611" lon="5.02331">
        <ele>480.11</ele>
        <time>2022-05-16T08:10:14Z</time>
      </trkpt>
      <trkpt lat="47.6961" lon="5.02326">
        <ele>480.5</ele>
        <time>2022-05-16T08:10:16Z</time>
      </trkpt>
      <trkpt lat="47.6961" lon="5.02322">
        <ele>480.65</ele>
        <time>2022-05-16T08:10:18Z</time>
      </trkpt>
      <trkpt lat="47.6961" lon="5.02318">
        <ele>480.79</ele>
        <time>2022-05-16T08:10:21Z</time>
      </trkpt>
      <trkpt lat="47.6961" lon="5.02314">
        <ele>480.94</ele>
        <time>2022-05-16T08:10:24Z</time>
      </trkpt>
      <trkpt lat="47.6961" lon="5.02309">
        <ele>481.12</ele>
        <time>2022-05-16T08:10:26Z</time>
      </trkpt>
      <trkpt lat="47.69609" lon="5.02305">
        <ele>481.47</ele>
        <time>2022-05-16T08:10:29Z</time>
      </trkpt>
      <trkpt lat="47.69609" lon="5.02301">
        <ele>481.61</ele>
        <time>2022-05-16T08:10:31Z</time>
      </trkpt>
      <trkpt lat="47.69608" lon="5.02296">
        <ele>481.98</ele>
        <time>2022-05-16T08:10:33Z</time>
      </trkpt>
      <trkpt lat="47.69608" lon="5.02292">
        <ele>482.11</ele>
        <time>2022-05-16T08:10:35Z</time>
      </trkpt>
      <trkpt lat="47.69608" lon="5.02288">
        <ele>482.23</ele>
        <time>2022-05-16T08:10:37Z</time>
      </trkpt>
      <trkpt lat="47.69608" lon="5.02283">
        <ele>482.39</ele>
        <time>2022-05-16T08:10:39Z</time>
      </trkpt>
      <trkpt lat="47.69608" lon="5.02278">
        <ele>482.55</ele>
        <time>2022-05-16T08:10:41Z</time>
      </trkpt>
      <trkpt lat="47.69607" lon="5.02273">
        <ele>482.89</ele>
        <time>2022-05-16T08:10:44Z</time>
      </trkpt>
      <trkpt lat="47.69606" lon="5.02269">
        <ele>483.18</ele>
        <time>2022-05-16T08:10:46Z</time>
      </trkpt>
      <trkpt lat="47.69606" lon="5.02265">
        <ele>483.3</ele>
        <time>2022-05-16T08:10:47Z</time>
      </trkpt>
      <trkpt lat="47.69605" lon="5.0226">
        <ele>483.6</ele>
        <time>2022-05-16T08:10:49Z</time>
      </trkpt>
      <trkpt lat="47.69605" lon="5.02256">
        <ele>483.71</ele>
        <time>2022-05-16T08:10:53Z</time>
      </trkpt>
      <trkpt lat="47.69604" lon="5.02252">
        <ele>483.97</ele>
        <time>2022-05-16T08:10:55Z</time>
      </trkpt>
      <trkpt lat="47.69604" lon="5.02247">
        <ele>484.51</ele>
        <time>2022-05-16T08:10:58Z</time>
      </trkpt>
      <trkpt lat="47.69603" lon="5.02243">
        <ele>485.28</ele>
        <time>2022-05-16T08:11:01Z</time>
      </trkpt>
      <trkpt lat="47.69603" lon="5.02239">
        <ele>485.92</ele>
        <time>2022-05-16T08:11:03Z</time>
      </trkpt>
      <trkpt lat="47.69603" lon="5.02234">
        <ele>486.71</ele>
        <time>2022-05-16T08:11:06Z</time>
      </trkpt>
      <trkpt lat="47.69602" lon="5.0223">
        <ele>487.44</ele>
        <time>2022-05-16T08:11:08Z</time>
      </trkpt>
      <trkpt lat="47.69602" lon="5.02225">
        <ele>488.22</ele>
        <time>2022-05-16T08:11:09Z</time>
      </trkpt>
      <trkpt lat="47.69603" lon="5.02219">
        <ele>488.9</ele>
        <time>2022-05-16T08:11:12Z</time>
      </trkpt>
      <trkpt lat="47.69603" lon="5.02212">
        <ele>489.58</ele>
        <time>2022-05-16T08:11:14Z</time>
      </trkpt>
      <trkpt lat="47.69602" lon="5.02208">
        <ele>490.02</ele>
        <time>2022-05-16T08:11:16Z</time>
      </trkpt>
      <trkpt lat="47.69601" lon="5.022">
        <ele>490.84</ele>
        <time>2022-05-16T08:11:19Z</time>
      </trkpt>
      <trkpt lat="47.696" lon="5.02196">
        <ele>491.25</ele>
        <time>2022-05-16T08:11:20Z</time>
      </trkpt>
      <trkpt lat="47.69599" lon="5.02191">
        <ele>491.56</ele>
        <time>2022-05-16T08:11:23Z</time>
      </trkpt>
      <trkpt lat="47.69599" lon="5.02187">
        <ele>491.7</ele>
        <time>2022-05-16T08:11:24Z</time>
      </trkpt>
      <trkpt lat="47.69598" lon="5.02183">
        <ele>491.88</ele>
        <time>2022-05-16T08:11:27Z</time>
      </trkpt>
      <trkpt lat="47.69598" lon="5.02179">
        <ele>492.03</ele>
        <time>2022-05-16T08:11:31Z</time>
      </trkpt>
      <trkpt lat="47.69597" lon="5.02175">
        <ele>492.21</ele>
        <time>2022-05-16T08:11:33Z</time>
      </trkpt>
      <trkpt lat="47.69596" lon="5.0217">
        <ele>492.42</ele>
        <time>2022-05-16T08:11:35Z</time>
      </trkpt>
      <trkpt lat="47.69595" lon="5.02166">
        <ele>492.62</ele>
        <time>2022-05-16T08:11:37Z</time>
      </trkpt>
      <trkpt lat="47.69595" lon="5.02161">
        <ele>492.9</ele>
        <time>2022-05-16T08:11:39Z</time>
      </trkpt>
      <trkpt lat="47.69594" lon="5.02156">
        <ele>493.24</ele>
        <time>2022-05-16T08:11:41Z</time>
      </trkpt>
      <trkpt lat="47.69594" lon="5.02151">
        <ele>493.53</ele>
        <time>2022-05-16T08:11:44Z</time>
      </trkpt>
      <trkpt lat="47.69593" lon="5.02146">
        <ele>493.88</ele>
        <time>2022-05-16T08:11:47Z</time>
      </trkpt>
      <trkpt lat="47.69593" lon="5.02141">
        <ele>494.18</ele>
        <time>2022-05-16T08:11:49Z</time>
      </trkpt>
      <trkpt lat="47.69592" lon="5.02137">
        <ele>494.44</ele>
        <time>2022-05-16T08:11:50Z</time>
      </trkpt>
      <trkpt lat="47.69591" lon="5.02133">
        <ele>494.66</ele>
        <time>2022-05-16T08:11:52Z</time>
      </trkpt>
      <trkpt lat="47.6959" lon="5.02128">
        <ele>494.91</ele>
        <time>2022-05-16T08:11:54Z</time>
      </trkpt>
      <trkpt lat="47.6959" lon="5.02124">
        <ele>495.06</ele>
        <time>2022-05-16T08:11:56Z</time>
      </trkpt>
      <trkpt lat="47.69589" lon="5.0212">
        <ele>495.27</ele>
        <time>2022-05-16T08:11:58Z</time>
      </trkpt>
      <trkpt lat="47.69588" lon="5.02116">
        <ele>495.49</ele>
        <time>2022-05-16T08:12:01Z</time>
      </trkpt>
      <trkpt lat="47.69587" lon="5.02112">
        <ele>495.7</ele>
        <time>2022-05-16T08:12:03Z</time>
      </trkpt>
      <trkpt lat="47.69587" lon="5.02107">
        <ele>495.63</ele>
        <time>2022-05-16T08:12:04Z</time>
      </trkpt>
      <trkpt lat="47.69586" lon="5.02103">
        <ele>495.57</ele>
        <time>2022-05-16T08:12:07Z</time>
      </trkpt>
      <trkpt lat="47.69586" lon="5.02098">
        <ele>495.43</ele>
        <time>2022-05-16T08:12:09Z</time>
      </trkpt>
      <trkpt lat="47.69585" lon="5.02093">
        <ele>495.31</ele>
        <time>2022-05-16T08:12:11Z</time>
      </trkpt>
      <trkpt lat="47.69584" lon="5.02089">
        <ele>495.19</ele>
        <time>2022-05-16T08:12:13Z</time>
      </trkpt>
      <trkpt lat="47.69583" lon="5.02085">
        <ele>494.99</ele>
        <time>2022-05-16T08:12:17Z</time>
      </trkpt>
      <trkpt lat="47.69582" lon="5.02081">
        <ele>494.62</ele>
        <time>2022-05-16T08:12:21Z</time>
      </trkpt>
      <trkpt lat="47.69582" lon="5.02076">
        <ele>494.44</ele>
        <time>2022-05-16T08:12:23Z</time>
      </trkpt>
      <trkpt lat="47.69582" lon="5.02072">
        <ele>494.28</ele>
        <time>2022-05-16T08:12:26Z</time>
      </trkpt>
      <trkpt lat="47.69582" lon="5.02067">
        <ele>494.1</ele>
        <time>2022-05-16T08:12:28Z</time>
      </trkpt>
      <trkpt lat="47.69581" lon="5.02063">
        <ele>493.7</ele>
        <time>2022-05-16T08:12:31Z</time>
      </trkpt>
      <trkpt lat="47.69581" lon="5.02058">
        <ele>493.51</ele>
        <time>2022-05-16T08:12:34Z</time>
      </trkpt>
      <trkpt lat="47.6958" lon="5.02054">
        <ele>493.01</ele>
        <time>2022-05-16T08:12:37Z</time>
      </trkpt>
      <trkpt lat="47.69579" lon="5.02048">
        <ele>492.22</ele>
        <time>2022-05-16T08:12:40Z</time>
      </trkpt>
      <trkpt lat="47.69578" lon="5.02043">
        <ele>491.56</ele>
        <time>2022-05-16T08:12:42Z</time>
      </trkpt>
      <trkpt lat="47.69577" lon="5.02038">
        <ele>490.94</ele>
        <time>2022-05-16T08:12:45Z</time>
      </trkpt>
      <trkpt lat="47.69575" lon="5.02034">
        <ele>490.27</ele>
        <time>2022-05-16T08:12:48Z</time>
      </trkpt>
      <trkpt lat="47.69574" lon="5.0203">
        <ele>489.82</ele>
        <time>2022-05-16T08:12:51Z</time>
      </trkpt>
      <trkpt lat="47.69574" lon="5.02026">
        <ele>489.63</ele>
        <time>2022-05-16T08:12:52Z</time>
      </trkpt>
      <trkpt lat="47.69573" lon="5.02022">
        <ele>489.43</ele>
        <time>2022-05-16T08:12:54Z</time>
      </trkpt>
      <trkpt lat="47.69572" lon="5.02017">
        <ele>489.21</ele>
        <time>2022-05-16T08:12:56Z</time>
      </trkpt>
      <trkpt lat="47.69572" lon="5.02013">
        <ele>489.15</ele>
        <time>2022-05-16T08:12:58Z</time>
      </trkpt>
      <trkpt lat="47.69571" lon="5.02008">
        <ele>488.91</ele>
        <time>2022-05-16T08:13:00Z</time>
      </trkpt>
      <trkpt lat="47.6957" lon="5.02003">
        <ele>488.65</ele>
        <time>2022-05-16T08:13:02Z</time>
      </trkpt>
      <trkpt lat="47.69568" lon="5.01998">
        <ele>488.24</ele>
        <time>2022-05-16T08:13:05Z</time>
      </trkpt>
      <trkpt lat="47.69567" lon="5.01995">
        <ele>488.06</ele>
        <time>2022-05-16T08:13:06Z</time>
      </trkpt>
      <trkpt lat="47.69565" lon="5.01991">
        <ele>487.7</ele>
        <time>2022-05-16T08:13:09Z</time>
      </trkpt>
      <trkpt lat="47.69564" lon="5.01987">
        <ele>487.52</ele>
        <time>2022-05-16T08:13:12Z</time>
      </trkpt>
      <trkpt lat="47.69563" lon="5.01983">
        <ele>487.34</ele>
        <time>2022-05-16T08:13:14Z</time>
      </trkpt>
      <trkpt lat="47.69562" lon="5.01979">
        <ele>487.16</ele>
        <time>2022-05-16T08:13:17Z</time>
      </trkpt>
      <trkpt lat="47.69561" lon="5.01975">
        <ele>486.98</ele>
        <time>2022-05-16T08:13:20Z</time>
      </trkpt>
      <trkpt lat="47.6956" lon="5.01971">
        <ele>486.71</ele>
        <time>2022-05-16T08:13:22Z</time>
      </trkpt>
      <trkpt lat="47.69559" lon="5.01966">
        <ele>486.17</ele>
        <time>2022-05-16T08:13:25Z</time>
      </trkpt>
      <trkpt lat="47.69558" lon="5.01962">
        <ele>485.7</ele>
        <time>2022-05-16T08:13:26Z</time>
      </trkpt>
      <trkpt lat="47.69556" lon="5.01957">
        <ele>484.98</ele>
        <time>2022-05-16T08:13:28Z</time>
      </trkpt>
      <trkpt lat="47.69554" lon="5.01953">
        <ele>484.59</ele>
        <time>2022-05-16T08:13:30Z</time>
      </trkpt>
      <trkpt lat="47.69553" lon="5.01949">
        <ele>484.27</ele>
        <time>2022-05-16T08:13:32Z</time>
      </trkpt>
      <trkpt lat="47.69551" lon="5.01946">
        <ele>483.97</ele>
        <time>2022-05-16T08:13:35Z</time>
      </trkpt>
      <trkpt lat="47.69549" lon="5.01942">
        <ele>483.61</ele>
        <time>2022-05-16T08:13:38Z</time>
      </trkpt>
      <trkpt lat="47.69547" lon="5.01937">
        <ele>483.24</ele>
        <time>2022-05-16T08:13:41Z</time>
      </trkpt>
      <trkpt lat="47.69546" lon="5.01933">
        <ele>482.97</ele>
        <time>2022-05-16T08:13:43Z</time>
      </trkpt>
      <trkpt lat="47.69544" lon="5.01929">
        <ele>482.7</ele>
        <time>2022-05-16T08:13:45Z</time>
      </trkpt>
      <trkpt lat="47.69543" lon="5.01925">
        <ele>482.46</ele>
        <time>2022-05-16T08:13:47Z</time>
      </trkpt>
      <trkpt lat="47.69542" lon="5.01922">
        <ele>482.29</ele>
        <time>2022-05-16T08:13:49Z</time>
      </trkpt>
      <trkpt lat="47.69541" lon="5.01918">
        <ele>482.07</ele>
        <time>2022-05-16T08:13:51Z</time>
      </trkpt>
      <trkpt lat="47.69539" lon="5.01913">
        <ele>481.76</ele>
        <time>2022-05-16T08:13:53Z</time>
      </trkpt>
      <trkpt lat="47.69537" lon="5.01909">
        <ele>481.54</ele>
        <time>2022-05-16T08:13:55Z</time>
      </trkpt>
      <trkpt lat="47.69535" lon="5.01905">
        <ele>481.36</ele>
        <time>2022-05-16T08:13:57Z</time>
      </trkpt>
      <trkpt lat="47.69533" lon="5.01901">
        <ele>481.22</ele>
        <time>2022-05-16T08:14:00Z</time>
      </trkpt>
      <trkpt lat="47.69531" lon="5.01897">
        <ele>481.13</ele>
        <time>2022-05-16T08:14:02Z</time>
      </trkpt>
      <trkpt lat="47.69529" lon="5.01892">
        <ele>481.03</ele>
        <time>2022-05-16T08:14:04Z</time>
      </trkpt>
      <trkpt lat="47.69528" lon="5.01889">
        <ele>480.99</ele>
        <time>2022-05-16T08:14:06Z</time>
      </trkpt>
      <trkpt lat="47.69526" lon="5.01885">
        <ele>481.07</ele>
        <time>2022-05-16T08:14:08Z</time>
      </trkpt>
      <trkpt lat="47.69525" lon="5.01881">
        <ele>481.21</ele>
        <time>2022-05-16T08:14:12Z</time>
      </trkpt>
      <trkpt lat="47.69523" lon="5.01878">
        <ele>481.13</ele>
        <time>2022-05-16T08:14:14Z</time>
      </trkpt>
      <trkpt lat="47.69521" lon="5.01875">
        <ele>481.02</ele>
        <time>2022-05-16T08:14:15Z</time>
      </trkpt>
      <trkpt lat="47.69519" lon="5.01872">
        <ele>480.88</ele>
        <time>2022-05-16T08:14:17Z</time>
      </trkpt>
      <trkpt lat="47.69516" lon="5.0187">
        <ele>480.51</ele>
        <time>2022-05-16T08:14:19Z</time>
      </trkpt>
      <trkpt lat="47.69513" lon="5.01868">
        <ele>480.11</ele>
        <time>2022-05-16T08:14:21Z</time>
      </trkpt>
      <trkpt lat="47.69511" lon="5.01865">
        <ele>479.87</ele>
        <time>2022-05-16T08:14:23Z</time>
      </trkpt>
      <trkpt lat="47.69509" lon="5.01862">
        <ele>479.6</ele>
        <time>2022-05-16T08:14:26Z</time>
      </trkpt>
      <trkpt lat="47.69507" lon="5.01858">
        <ele>479.68</ele>
        <time>2022-05-16T08:14:29Z</time>
      </trkpt>
      <trkpt lat="47.69505" lon="5.01854">
        <ele>479.95</ele>
        <time>2022-05-16T08:14:30Z</time>
      </trkpt>
      <trkpt lat="47.69504" lon="5.01851">
        <ele>480.28</ele>
        <time>2022-05-16T08:14:33Z</time>
      </trkpt>
      <trkpt lat="47.69501" lon="5.01847">
        <ele>480.63</ele>
        <time>2022-05-16T08:14:35Z</time>
      </trkpt>
      <trkpt lat="47.69499" lon="5.01844">
        <ele>480.88</ele>
        <time>2022-05-16T08:14:37Z</time>
      </trkpt>
      <trkpt lat="47.69497" lon="5.01841">
        <ele>480.98</ele>
        <time>2022-05-16T08:14:39Z</time>
      </trkpt>
      <trkpt lat="47.69495" lon="5.01838">
        <ele>481.02</ele>
        <time>2022-05-16T08:14:41Z</time>
      </trkpt>
      <trkpt lat="47.69493" lon="5.01834">
        <ele>481.14</ele>
        <time>2022-05-16T08:14:43Z</time>
      </trkpt>
      <trkpt lat="47.69491" lon="5.0183">
        <ele>481.01</ele>
        <time>2022-05-16T08:14:45Z</time>
      </trkpt>
      <trkpt lat="47.69489" lon="5.01826">
        <ele>480.86</ele>
        <time>2022-05-16T08:14:47Z</time>
      </trkpt>
      <trkpt lat="47.69488" lon="5.01821">
        <ele>481.06</ele>
        <time>2022-05-16T08:14:49Z</time>
      </trkpt>
      <trkpt lat="47.69486" lon="5.01817">
        <ele>480.94</ele>
        <time>2022-05-16T08:14:51Z</time>
      </trkpt>
      <trkpt lat="47.69484" lon="5.01812">
        <ele>480.95</ele>
        <time>2022-05-16T08:14:53Z</time>
      </trkpt>
      <trkpt lat="47.69482" lon="5.01809">
        <ele>480.78</ele>
        <time>2022-05-16T08:14:55Z</time>
      </trkpt>
      <trkpt lat="47.6948" lon="5.01805">
        <ele>480.76</ele>
        <time>2022-05-16T08:14:57Z</time>
      </trkpt>
      <trkpt lat="47.69478" lon="5.01802">
        <ele>480.81</ele>
        <time>2022-05-16T08:14:59Z</time>
      </trkpt>
      <trkpt lat="47.69476" lon="5.01798">
        <ele>481.07</ele>
        <time>2022-05-16T08:15:01Z</time>
      </trkpt>
      <trkpt lat="47.69474" lon="5.01795">
        <ele>481.21</ele>
        <time>2022-05-16T08:15:03Z</time>
      </trkpt>
      <trkpt lat="47.69472" lon="5.01792">
        <ele>481.41</ele>
        <time>2022-05-16T08:15:06Z</time>
      </trkpt>
      <trkpt lat="47.6947" lon="5.01789">
        <ele>481.69</ele>
        <time>2022-05-16T08:15:08Z</time>
      </trkpt>
      <trkpt lat="47.69468" lon="5.01785">
        <ele>482.13</ele>
        <time>2022-05-16T08:15:11Z</time>
      </trkpt>
      <trkpt lat="47.69466" lon="5.01782">
        <ele>482.38</ele>
        <time>2022-05-16T08:15:13Z</time>
      </trkpt>
      <trkpt lat="47.69464" lon="5.01778">
        <ele>482.78</ele>
        <time>2022-05-16T08:15:15Z</time>
      </trkpt>
      <trkpt lat="47.69463" lon="5.01773">
        <ele>483.42</ele>
        <time>2022-05-16T08:15:18Z</time>
      </trkpt>
      <trkpt lat="47.69463" lon="5.01769">
        <ele>484.04</ele>
        <time>2022-05-16T08:15:22Z</time>
      </trkpt>
      <trkpt lat="47.69461" lon="5.01764">
        <ele>484.67</ele>
        <time>2022-05-16T08:15:25Z</time>
      </trkpt>
      <trkpt lat="47.6946" lon="5.01761">
        <ele>485.12</ele>
        <time>2022-05-16T08:15:27Z</time>
      </trkpt>
      <trkpt lat="47.69457" lon="5.01757">
        <ele>485.69</ele>
        <time>2022-05-16T08:15:29Z</time>
      </trkpt>
      <trkpt lat="47.69454" lon="5.01755">
        <ele>485.99</ele>
        <time>2022-05-16T08:15:31Z</time>
      </trkpt>
      <trkpt lat="47.69452" lon="5.01751">
        <ele>486.79</ele>
        <time>2022-05-16T08:15:33Z</time>
      </trkpt>
      <trkpt lat="47.6945" lon="5.01747">
        <ele>487.15</ele>
        <time>2022-05-16T08:15:35Z</time>
      </trkpt>
      <trkpt lat="47.69448" lon="5.01744">
        <ele>487.27</ele>
        <time>2022-05-16T08:15:38Z</time>
      </trkpt>
      <trkpt lat="47.69446" lon="5.01741">
        <ele>487.36</ele>
        <time>2022-05-16T08:15:40Z</time>
      </trkpt>
      <trkpt lat="47.69444" lon="5.01738">
        <ele>487.31</ele>
        <time>2022-05-16T08:15:42Z</time>
      </trkpt>
      <trkpt lat="47.69442" lon="5.01735">
        <ele>486.89</ele>
        <time>2022-05-16T08:15:45Z</time>
      </trkpt>
      <trkpt lat="47.6944" lon="5.01732">
        <ele>486.52</ele>
        <time>2022-05-16T08:15:47Z</time>
      </trkpt>
      <trkpt lat="47.69438" lon="5.01729">
        <ele>486.19</ele>
        <time>2022-05-16T08:15:50Z</time>
      </trkpt>
      <trkpt lat="47.69436" lon="5.01726">
        <ele>485.92</ele>
        <time>2022-05-16T08:15:53Z</time>
      </trkpt>
      <trkpt lat="47.69433" lon="5.01724">
        <ele>485.38</ele>
        <time>2022-05-16T08:15:56Z</time>
      </trkpt>
      <trkpt lat="47.69431" lon="5.0172">
        <ele>485.21</ele>
        <time>2022-05-16T08:15:58Z</time>
      </trkpt>
      <trkpt lat="47.69429" lon="5.01717">
        <ele>485</ele>
        <time>2022-05-16T08:16:02Z</time>
      </trkpt>
      <trkpt lat="47.69426" lon="5.01715">
        <ele>484.62</ele>
        <time>2022-05-16T08:16:06Z</time>
      </trkpt>
      <trkpt lat="47.69423" lon="5.01715">
        <ele>484.11</ele>
        <time>2022-05-16T08:16:09Z</time>
      </trkpt>
      <trkpt lat="47.6942" lon="5.01714">
        <ele>483.73</ele>
        <time>2022-05-16T08:16:14Z</time>
      </trkpt>
      <trkpt lat="47.69418" lon="5.01712">
        <ele>483.67</ele>
        <time>2022-05-16T08:16:17Z</time>
      </trkpt>
      <trkpt lat="47.69414" lon="5.0171">
        <ele>483.5</ele>
        <time>2022-05-16T08:16:19Z</time>
      </trkpt>
      <trkpt lat="47.69411" lon="5.01709">
        <ele>483.31</ele>
        <time>2022-05-16T08:16:21Z</time>
      </trkpt>
      <trkpt lat="47.69409" lon="5.01709">
        <ele>483.1</ele>
        <time>2022-05-16T08:16:26Z</time>
      </trkpt>
      <trkpt lat="47.69406" lon="5.01708">
        <ele>482.88</ele>
        <time>2022-05-16T08:16:31Z</time>
      </trkpt>
      <trkpt lat="47.69404" lon="5.01706">
        <ele>482.81</ele>
        <time>2022-05-16T08:16:35Z</time>
      </trkpt>
      <trkpt lat="47.69401" lon="5.01704">
        <ele>482.58</ele>
        <time>2022-05-16T08:16:38Z</time>
      </trkpt>
      <trkpt lat="47.69398" lon="5.01702">
        <ele>482.28</ele>
        <time>2022-05-16T08:16:41Z</time>
      </trkpt>
      <trkpt lat="47.69395" lon="5.01701">
        <ele>481.89</ele>
        <time>2022-05-16T08:16:44Z</time>
      </trkpt>
      <trkpt lat="47.69392" lon="5.017">
        <ele>481.47</ele>
        <time>2022-05-16T08:16:47Z</time>
      </trkpt>
      <trkpt lat="47.69389" lon="5.017">
        <ele>481.02</ele>
        <time>2022-05-16T08:16:50Z</time>
      </trkpt>
      <trkpt lat="47.69387" lon="5.01699">
        <ele>480.98</ele>
        <time>2022-05-16T08:16:54Z</time>
      </trkpt>
      <trkpt lat="47.69384" lon="5.01697">
        <ele>480.97</ele>
        <time>2022-05-16T08:16:58Z</time>
      </trkpt>
      <trkpt lat="47.69382" lon="5.01695">
        <ele>480.99</ele>
        <time>2022-05-16T08:17:01Z</time>
      </trkpt>
      <trkpt lat="47.69379" lon="5.01694">
        <ele>480.99</ele>
        <time>2022-05-16T08:17:06Z</time>
      </trkpt>
      <trkpt lat="47.69376" lon="5.01694">
        <ele>480.99</ele>
        <time>2022-05-16T08:17:09Z</time>
      </trkpt>
      <trkpt lat="47.69373" lon="5.01692">
        <ele>480.98</ele>
        <time>2022-05-16T08:17:11Z</time>
      </trkpt>
      <trkpt lat="47.6937" lon="5.01691">
        <ele>481</ele>
        <time>2022-05-16T08:17:14Z</time>
      </trkpt>
      <trkpt lat="47.69367" lon="5.01691">
        <ele>481.05</ele>
        <time>2022-05-16T08:17:16Z</time>
      </trkpt>
      <trkpt lat="47.69364" lon="5.01692">
        <ele>481.06</ele>
        <time>2022-05-16T08:17:20Z</time>
      </trkpt>
      <trkpt lat="47.69361" lon="5.01694">
        <ele>481.04</ele>
        <time>2022-05-16T08:17:22Z</time>
      </trkpt>
      <trkpt lat="47.69359" lon="5.01696">
        <ele>481.32</ele>
        <time>2022-05-16T08:17:26Z</time>
      </trkpt>
      <trkpt lat="47.69356" lon="5.01696">
        <ele>481.94</ele>
        <time>2022-05-16T08:17:29Z</time>
      </trkpt>
      <trkpt lat="47.69353" lon="5.01696">
        <ele>482.56</ele>
        <time>2022-05-16T08:17:32Z</time>
      </trkpt>
      <trkpt lat="47.69349" lon="5.01697">
        <ele>483.23</ele>
        <time>2022-05-16T08:17:34Z</time>
      </trkpt>
      <trkpt lat="47.69347" lon="5.01698">
        <ele>483.47</ele>
        <time>2022-05-16T08:17:36Z</time>
      </trkpt>
      <trkpt lat="47.69344" lon="5.01698">
        <ele>484.05</ele>
        <time>2022-05-16T08:17:37Z</time>
      </trkpt>
      <trkpt lat="47.69341" lon="5.01697">
        <ele>484.83</ele>
        <time>2022-05-16T08:17:39Z</time>
      </trkpt>
      <trkpt lat="47.69338" lon="5.01697">
        <ele>485.43</ele>
        <time>2022-05-16T08:17:41Z</time>
      </trkpt>
      <trkpt lat="47.69335" lon="5.01697">
        <ele>486.02</ele>
        <time>2022-05-16T08:17:43Z</time>
      </trkpt>
      <trkpt lat="47.69332" lon="5.01696">
        <ele>486.43</ele>
        <time>2022-05-16T08:17:44Z</time>
      </trkpt>
      <trkpt lat="47.69329" lon="5.01696">
        <ele>486.02</ele>
        <time>2022-05-16T08:17:46Z</time>
      </trkpt>
      <trkpt lat="47.69326" lon="5.01695">
        <ele>485.83</ele>
        <time>2022-05-16T08:17:48Z</time>
      </trkpt>
      <trkpt lat="47.69324" lon="5.01695">
        <ele>485.54</ele>
        <time>2022-05-16T08:17:49Z</time>
      </trkpt>
      <trkpt lat="47.6932" lon="5.01694">
        <ele>485.14</ele>
        <time>2022-05-16T08:17:52Z</time>
      </trkpt>
      <trkpt lat="47.69317" lon="5.01694">
        <ele>484.71</ele>
        <time>2022-05-16T08:17:55Z</time>
      </trkpt>
      <trkpt lat="47.69314" lon="5.01694">
        <ele>484.28</ele>
        <time>2022-05-16T08:17:58Z</time>
      </trkpt>
      <trkpt lat="47.69312" lon="5.01693">
        <ele>484.12</ele>
        <time>2022-05-16T08:18:00Z</time>
      </trkpt>
      <trkpt lat="47.69308" lon="5.01692">
        <ele>483.7</ele>
        <time>2022-05-16T08:18:02Z</time>
      </trkpt>
      <trkpt lat="47.69305" lon="5.01691">
        <ele>483.48</ele>
        <time>2022-05-16T08:18:04Z</time>
      </trkpt>
      <trkpt lat="47.69301" lon="5.0169">
        <ele>483.53</ele>
        <time>2022-05-16T08:18:06Z</time>
      </trkpt>
      <trkpt lat="47.69298" lon="5.01689">
        <ele>483.62</ele>
        <time>2022-05-16T08:18:09Z</time>
      </trkpt>
      <trkpt lat="47.69295" lon="5.01688">
        <ele>483.72</ele>
        <time>2022-05-16T08:18:11Z</time>
      </trkpt>
      <trkpt lat="47.69292" lon="5.01687">
        <ele>483.85</ele>
        <time>2022-05-16T08:18:13Z</time>
      </trkpt>
      <trkpt lat="47.69288" lon="5.01686">
        <ele>483.97</ele>
        <time>2022-05-16T08:18:16Z</time>
      </trkpt>
      <trkpt lat="47.69286" lon="5.01685">
        <ele>484.13</ele>
        <time>2022-05-16T08:18:17Z</time>
      </trkpt>
      <trkpt lat="47.69283" lon="5.01684">
        <ele>484.3</ele>
        <time>2022-05-16T08:18:19Z</time>
      </trkpt>
      <trkpt lat="47.6928" lon="5.01682">
        <ele>484.7</ele>
        <time>2022-05-16T08:18:21Z</time>
      </trkpt>
      <trkpt lat="47.69278" lon="5.0168">
        <ele>485.12</ele>
        <time>2022-05-16T08:18:23Z</time>
      </trkpt>
      <trkpt lat="47.69275" lon="5.01678">
        <ele>485.29</ele>
        <time>2022-05-16T08:18:25Z</time>
      </trkpt>
      <trkpt lat="47.69272" lon="5.01677">
        <ele>485.22</ele>
        <time>2022-05-16T08:18:28Z</time>
      </trkpt>
      <trkpt lat="47.69269" lon="5.01675">
        <ele>485.35</ele>
        <time>2022-05-16T08:18:30Z</time>
      </trkpt>
      <trkpt lat="47.69267" lon="5.01673">
        <ele>485.56</ele>
        <time>2022-05-16T08:18:33Z</time>
      </trkpt>
      <trkpt lat="47.69264" lon="5.01672">
        <ele>485.46</ele>
        <time>2022-05-16T08:18:35Z</time>
      </trkpt>
      <trkpt lat="47.69261" lon="5.0167">
        <ele>485.54</ele>
        <time>2022-05-16T08:18:38Z</time>
      </trkpt>
      <trkpt lat="47.69258" lon="5.01669">
        <ele>485.42</ele>
        <time>2022-05-16T08:18:40Z</time>
      </trkpt>
      <trkpt lat="47.69255" lon="5.01668">
        <ele>485.29</ele>
        <time>2022-05-16T08:18:43Z</time>
      </trkpt>
      <trkpt lat="47.69252" lon="5.01666">
        <ele>485.31</ele>
        <time>2022-05-16T08:18:45Z</time>
      </trkpt>
      <trkpt lat="47.69249" lon="5.01664">
        <ele>485.18</ele>
        <time>2022-05-16T08:18:47Z</time>
      </trkpt>
      <trkpt lat="47.69247" lon="5.01663">
        <ele>484.94</ele>
        <time>2022-05-16T08:18:49Z</time>
      </trkpt>
      <trkpt lat="47.69244" lon="5.01662">
        <ele>484.52</ele>
        <time>2022-05-16T08:18:52Z</time>
      </trkpt>
      <trkpt lat="47.69241" lon="5.0166">
        <ele>484.33</ele>
        <time>2022-05-16T08:18:54Z</time>
      </trkpt>
      <trkpt lat="47.69238" lon="5.01659">
        <ele>483.99</ele>
        <time>2022-05-16T08:18:56Z</time>
      </trkpt>
      <trkpt lat="47.69235" lon="5.01659">
        <ele>483.46</ele>
        <time>2022-05-16T08:18:58Z</time>
      </trkpt>
      <trkpt lat="47.69232" lon="5.01658">
        <ele>483.17</ele>
        <time>2022-05-16T08:19:01Z</time>
      </trkpt>
      <trkpt lat="47.69229" lon="5.01657">
        <ele>482.91</ele>
        <time>2022-05-16T08:19:05Z</time>
      </trkpt>
      <trkpt lat="47.69226" lon="5.01656">
        <ele>482.68</ele>
        <time>2022-05-16T08:19:08Z</time>
      </trkpt>
      <trkpt lat="47.69223" lon="5.01656">
        <ele>482.2</ele>
        <time>2022-05-16T08:19:10Z</time>
      </trkpt>
      <trkpt lat="47.6922" lon="5.01655">
        <ele>482.23</ele>
        <time>2022-05-16T08:19:13Z</time>
      </trkpt>
      <trkpt lat="47.69217" lon="5.01655">
        <ele>482.04</ele>
        <time>2022-05-16T08:19:15Z</time>
      </trkpt>
      <trkpt lat="47.69214" lon="5.01655">
        <ele>481.86</ele>
        <time>2022-05-16T08:19:19Z</time>
      </trkpt>
      <trkpt lat="47.6921" lon="5.01654">
        <ele>481.85</ele>
        <time>2022-05-16T08:19:22Z</time>
      </trkpt>
      <trkpt lat="47.69207" lon="5.01653">
        <ele>481.86</ele>
        <time>2022-05-16T08:19:25Z</time>
      </trkpt>
      <trkpt lat="47.69205" lon="5.01652">
        <ele>481.91</ele>
        <time>2022-05-16T08:19:27Z</time>
      </trkpt>
      <trkpt lat="47.69202" lon="5.01651">
        <ele>481.87</ele>
        <time>2022-05-16T08:19:29Z</time>
      </trkpt>
      <trkpt lat="47.69199" lon="5.01651">
        <ele>481.63</ele>
        <time>2022-05-16T08:19:31Z</time>
      </trkpt>
      <trkpt lat="47.69196" lon="5.0165">
        <ele>481.53</ele>
        <time>2022-05-16T08:19:34Z</time>
      </trkpt>
      <trkpt lat="47.69193" lon="5.0165">
        <ele>481.35</ele>
        <time>2022-05-16T08:19:36Z</time>
      </trkpt>
      <trkpt lat="47.6919" lon="5.0165">
        <ele>481.24</ele>
        <time>2022-05-16T08:19:39Z</time>
      </trkpt>
      <trkpt lat="47.69187" lon="5.0165">
        <ele>481.13</ele>
        <time>2022-05-16T08:19:41Z</time>
      </trkpt>
      <trkpt lat="47.69184" lon="5.0165">
        <ele>481.02</ele>
        <time>2022-05-16T08:19:46Z</time>
      </trkpt>
      <trkpt lat="47.6918" lon="5.0165">
        <ele>480.88</ele>
        <time>2022-05-16T08:19:49Z</time>
      </trkpt>
      <trkpt lat="47.69176" lon="5.0165">
        <ele>480.74</ele>
        <time>2022-05-16T08:19:50Z</time>
      </trkpt>
      <trkpt lat="47.69173" lon="5.0165">
        <ele>480.63</ele>
        <time>2022-05-16T08:19:53Z</time>
      </trkpt>
      <trkpt lat="47.6917" lon="5.01649">
        <ele>480.66</ele>
        <time>2022-05-16T08:19:54Z</time>
      </trkpt>
      <trkpt lat="47.69168" lon="5.01648">
        <ele>480.74</ele>
        <time>2022-05-16T08:19:56Z</time>
      </trkpt>
      <trkpt lat="47.69165" lon="5.01647">
        <ele>480.57</ele>
        <time>2022-05-16T08:19:58Z</time>
      </trkpt>
      <trkpt lat="47.69162" lon="5.01645">
        <ele>480.41</ele>
        <time>2022-05-16T08:20:00Z</time>
      </trkpt>
      <trkpt lat="47.69159" lon="5.01644">
        <ele>480.11</ele>
        <time>2022-05-16T08:20:04Z</time>
      </trkpt>
      <trkpt lat="47.69156" lon="5.01643">
        <ele>479.82</ele>
        <time>2022-05-16T08:20:06Z</time>
      </trkpt>
      <trkpt lat="47.69152" lon="5.01642">
        <ele>479.38</ele>
        <time>2022-05-16T08:20:08Z</time>
      </trkpt>
      <trkpt lat="47.69149" lon="5.01642">
        <ele>478.94</ele>
        <time>2022-05-16T08:20:09Z</time>
      </trkpt>
      <trkpt lat="47.69146" lon="5.01641">
        <ele>478.66</ele>
        <time>2022-05-16T08:20:12Z</time>
      </trkpt>
      <trkpt lat="47.69143" lon="5.01641">
        <ele>478.22</ele>
        <time>2022-05-16T08:20:14Z</time>
      </trkpt>
      <trkpt lat="47.6914" lon="5.01642">
        <ele>477.6</ele>
        <time>2022-05-16T08:20:17Z</time>
      </trkpt>
      <trkpt lat="47.69137" lon="5.01642">
        <ele>477.51</ele>
        <time>2022-05-16T08:20:19Z</time>
      </trkpt>
      <trkpt lat="47.69134" lon="5.01642">
        <ele>477.62</ele>
        <time>2022-05-16T08:20:23Z</time>
      </trkpt>
      <trkpt lat="47.6913" lon="5.0164">
        <ele>478.12</ele>
        <time>2022-05-16T08:20:25Z</time>
      </trkpt>
      <trkpt lat="47.69128" lon="5.01639">
        <ele>478.37</ele>
        <time>2022-05-16T08:20:27Z</time>
      </trkpt>
      <trkpt lat="47.69125" lon="5.01638">
        <ele>478.56</ele>
        <time>2022-05-16T08:20:29Z</time>
      </trkpt>
      <trkpt lat="47.69122" lon="5.01637">
        <ele>478.73</ele>
        <time>2022-05-16T08:20:31Z</time>
      </trkpt>
      <trkpt lat="47.69119" lon="5.01636">
        <ele>478.88</ele>
        <time>2022-05-16T08:20:32Z</time>
      </trkpt>
      <trkpt lat="47.69116" lon="5.01635">
        <ele>479.01</ele>
        <time>2022-05-16T08:20:34Z</time>
      </trkpt>
      <trkpt lat="47.69113" lon="5.01634">
        <ele>479.13</ele>
        <time>2022-05-16T08:20:36Z</time>
      </trkpt>
      <trkpt lat="47.6911" lon="5.01632">
        <ele>479.26</ele>
        <time>2022-05-16T08:20:38Z</time>
      </trkpt>
      <trkpt lat="47.69107" lon="5.01631">
        <ele>479.33</ele>
        <time>2022-05-16T08:20:39Z</time>
      </trkpt>
      <trkpt lat="47.69104" lon="5.01629">
        <ele>479.45</ele>
        <time>2022-05-16T08:20:41Z</time>
      </trkpt>
      <trkpt lat="47.69101" lon="5.01626">
        <ele>479.63</ele>
        <time>2022-05-16T08:20:44Z</time>
      </trkpt>
      <trkpt lat="47.69098" lon="5.01624">
        <ele>479.79</ele>
        <time>2022-05-16T08:20:46Z</time>
      </trkpt>
      <trkpt lat="47.69096" lon="5.01621">
        <ele>479.99</ele>
        <time>2022-05-16T08:20:48Z</time>
      </trkpt>
      <trkpt lat="47.69093" lon="5.01619">
        <ele>480.18</ele>
        <time>2022-05-16T08:20:51Z</time>
      </trkpt>
      <trkpt lat="47.6909" lon="5.01617">
        <ele>480.39</ele>
        <time>2022-05-16T08:20:54Z</time>
      </trkpt>
      <trkpt lat="47.69087" lon="5.01615">
        <ele>480.61</ele>
        <time>2022-05-16T08:20:58Z</time>
      </trkpt>
      <trkpt lat="47.69085" lon="5.01612">
        <ele>480.88</ele>
        <time>2022-05-16T08:21:01Z</time>
      </trkpt>
      <trkpt lat="47.69082" lon="5.0161">
        <ele>481.03</ele>
        <time>2022-05-16T08:21:05Z</time>
      </trkpt>
      <trkpt lat="47.69079" lon="5.01607">
        <ele>481.14</ele>
        <time>2022-05-16T08:21:08Z</time>
      </trkpt>
      <trkpt lat="47.69076" lon="5.01604">
        <ele>481.25</ele>
        <time>2022-05-16T08:21:10Z</time>
      </trkpt>
      <trkpt lat="47.69074" lon="5.01603">
        <ele>481.25</ele>
        <time>2022-05-16T08:21:13Z</time>
      </trkpt>
      <trkpt lat="47.69071" lon="5.01601">
        <ele>481.28</ele>
        <time>2022-05-16T08:21:16Z</time>
      </trkpt>
      <trkpt lat="47.69068" lon="5.016">
        <ele>481.25</ele>
        <time>2022-05-16T08:21:19Z</time>
      </trkpt>
      <trkpt lat="47.69065" lon="5.01598">
        <ele>481.28</ele>
        <time>2022-05-16T08:21:22Z</time>
      </trkpt>
      <trkpt lat="47.69063" lon="5.01596">
        <ele>481.36</ele>
        <time>2022-05-16T08:21:29Z</time>
      </trkpt>
      <trkpt lat="47.69059" lon="5.01594">
        <ele>481.36</ele>
        <time>2022-05-16T08:21:32Z</time>
      </trkpt>
      <trkpt lat="47.69056" lon="5.01592">
        <ele>481.39</ele>
        <time>2022-05-16T08:21:34Z</time>
      </trkpt>
      <trkpt lat="47.69054" lon="5.01591">
        <ele>481.28</ele>
        <time>2022-05-16T08:21:36Z</time>
      </trkpt>
      <trkpt lat="47.69051" lon="5.0159">
        <ele>481.03</ele>
        <time>2022-05-16T08:21:39Z</time>
      </trkpt>
      <trkpt lat="47.69048" lon="5.01588">
        <ele>480.85</ele>
        <time>2022-05-16T08:21:41Z</time>
      </trkpt>
      <trkpt lat="47.69045" lon="5.01586">
        <ele>480.67</ele>
        <time>2022-05-16T08:21:43Z</time>
      </trkpt>
      <trkpt lat="47.69043" lon="5.01584">
        <ele>480.6</ele>
        <time>2022-05-16T08:21:46Z</time>
      </trkpt>
      <trkpt lat="47.6904" lon="5.01582">
        <ele>480.33</ele>
        <time>2022-05-16T08:21:48Z</time>
      </trkpt>
      <trkpt lat="47.69037" lon="5.0158">
        <ele>480.04</ele>
        <time>2022-05-16T08:21:51Z</time>
      </trkpt>
      <trkpt lat="47.69035" lon="5.01578">
        <ele>479.87</ele>
        <time>2022-05-16T08:21:53Z</time>
      </trkpt>
      <trkpt lat="47.69032" lon="5.01576">
        <ele>479.64</ele>
        <time>2022-05-16T08:21:55Z</time>
      </trkpt>
      <trkpt lat="47.69029" lon="5.01574">
        <ele>479.44</ele>
        <time>2022-05-16T08:21:58Z</time>
      </trkpt>
      <trkpt lat="47.69026" lon="5.01572">
        <ele>478.86</ele>
        <time>2022-05-16T08:22:00Z</time>
      </trkpt>
      <trkpt lat="47.69024" lon="5.01569">
        <ele>478.36</ele>
        <time>2022-05-16T08:22:02Z</time>
      </trkpt>
      <trkpt lat="47.69022" lon="5.01565">
        <ele>477.93</ele>
        <time>2022-05-16T08:22:05Z</time>
      </trkpt>
      <trkpt lat="47.6902" lon="5.01562">
        <ele>477.46</ele>
        <time>2022-05-16T08:22:08Z</time>
      </trkpt>
      <trkpt lat="47.69018" lon="5.01559">
        <ele>477.02</ele>
        <time>2022-05-16T08:22:10Z</time>
      </trkpt>
      <trkpt lat="47.69015" lon="5.01556">
        <ele>476.3</ele>
        <time>2022-05-16T08:22:11Z</time>
      </trkpt>
      <trkpt lat="47.69013" lon="5.01553">
        <ele>476.02</ele>
        <time>2022-05-16T08:22:13Z</time>
      </trkpt>
      <trkpt lat="47.69011" lon="5.0155">
        <ele>475.77</ele>
        <time>2022-05-16T08:22:15Z</time>
      </trkpt>
      <trkpt lat="47.69009" lon="5.01547">
        <ele>475.52</ele>
        <time>2022-05-16T08:22:18Z</time>
      </trkpt>
      <trkpt lat="47.69006" lon="5.01544">
        <ele>474.98</ele>
        <time>2022-05-16T08:22:21Z</time>
      </trkpt>
      <trkpt lat="47.69004" lon="5.0154">
        <ele>474.83</ele>
        <time>2022-05-16T08:22:24Z</time>
      </trkpt>
      <trkpt lat="47.69002" lon="5.01536">
        <ele>474.69</ele>
        <time>2022-05-16T08:22:26Z</time>
      </trkpt>
      <trkpt lat="47.69" lon="5.01533">
        <ele>474.44</ele>
        <time>2022-05-16T08:22:29Z</time>
      </trkpt>
      <trkpt lat="47.68997" lon="5.01529">
        <ele>473.81</ele>
        <time>2022-05-16T08:22:31Z</time>
      </trkpt>
      <trkpt lat="47.68995" lon="5.01526">
        <ele>473.19</ele>
        <time>2022-05-16T08:22:33Z</time>
      </trkpt>
      <trkpt lat="47.68992" lon="5.01523">
        <ele>472.07</ele>
        <time>2022-05-16T08:22:36Z</time>
      </trkpt>
      <trkpt lat="47.68989" lon="5.0152">
        <ele>470.93</ele>
        <time>2022-05-16T08:22:38Z</time>
      </trkpt>
      <trkpt lat="47.68987" lon="5.01517">
        <ele>470.14</ele>
        <time>2022-05-16T08:22:39Z</time>
      </trkpt>
      <trkpt lat="47.68985" lon="5.01514">
        <ele>469.33</ele>
        <time>2022-05-16T08:22:41Z</time>
      </trkpt>
      <trkpt lat="47.68983" lon="5.0151">
        <ele>468.49</ele>
        <time>2022-05-16T08:22:43Z</time>
      </trkpt>
      <trkpt lat="47.68981" lon="5.01506">
        <ele>467.62</ele>
        <time>2022-05-16T08:22:45Z</time>
      </trkpt>
      <trkpt lat="47.68979" lon="5.01502">
        <ele>466.74</ele>
        <time>2022-05-16T08:22:48Z</time>
      </trkpt>
      <trkpt lat="47.68977" lon="5.01498">
        <ele>466.02</ele>
        <time>2022-05-16T08:22:50Z</time>
      </trkpt>
      <trkpt lat="47.68976" lon="5.01494">
        <ele>465.9</ele>
        <time>2022-05-16T08:22:53Z</time>
      </trkpt>
      <trkpt lat="47.68974" lon="5.01491">
        <ele>465.33</ele>
        <time>2022-05-16T08:22:55Z</time>
      </trkpt>
      <trkpt lat="47.68972" lon="5.01487">
        <ele>464.9</ele>
        <time>2022-05-16T08:22:57Z</time>
      </trkpt>
      <trkpt lat="47.6897" lon="5.01484">
        <ele>464.86</ele>
        <time>2022-05-16T08:22:58Z</time>
      </trkpt>
      <trkpt lat="47.68968" lon="5.01481">
        <ele>464.87</ele>
        <time>2022-05-16T08:23:01Z</time>
      </trkpt>
      <trkpt lat="47.68966" lon="5.01477">
        <ele>465.05</ele>
        <time>2022-05-16T08:23:03Z</time>
      </trkpt>
      <trkpt lat="47.68964" lon="5.01474">
        <ele>465.2</ele>
        <time>2022-05-16T08:23:06Z</time>
      </trkpt>
      <trkpt lat="47.68962" lon="5.0147">
        <ele>465.47</ele>
        <time>2022-05-16T08:23:09Z</time>
      </trkpt>
      <trkpt lat="47.68961" lon="5.01466">
        <ele>465.73</ele>
        <time>2022-05-16T08:23:12Z</time>
      </trkpt>
      <trkpt lat="47.6896" lon="5.01462">
        <ele>465.94</ele>
        <time>2022-05-16T08:23:13Z</time>
      </trkpt>
      <trkpt lat="47.68958" lon="5.01458">
        <ele>465.98</ele>
        <time>2022-05-16T08:23:15Z</time>
      </trkpt>
      <trkpt lat="47.68957" lon="5.01454">
        <ele>466.09</ele>
        <time>2022-05-16T08:23:16Z</time>
      </trkpt>
      <trkpt lat="47.68955" lon="5.01451">
        <ele>465.92</ele>
        <time>2022-05-16T08:23:17Z</time>
      </trkpt>
      <trkpt lat="47.68954" lon="5.01447">
        <ele>465.94</ele>
        <time>2022-05-16T08:23:19Z</time>
      </trkpt>
      <trkpt lat="47.68952" lon="5.01444">
        <ele>465.66</ele>
        <time>2022-05-16T08:23:24Z</time>
      </trkpt>
      <trkpt lat="47.6895" lon="5.01441">
        <ele>465.37</ele>
        <time>2022-05-16T08:23:27Z</time>
      </trkpt>
      <trkpt lat="47.68948" lon="5.01437">
        <ele>465.1</ele>
        <time>2022-05-16T08:23:30Z</time>
      </trkpt>
      <trkpt lat="47.68946" lon="5.01432">
        <ele>464.83</ele>
        <time>2022-05-16T08:23:32Z</time>
      </trkpt>
      <trkpt lat="47.68946" lon="5.01427">
        <ele>465.03</ele>
        <time>2022-05-16T08:23:35Z</time>
      </trkpt>
      <trkpt lat="47.68946" lon="5.01423">
        <ele>465.19</ele>
        <time>2022-05-16T08:23:37Z</time>
      </trkpt>
      <trkpt lat="47.68945" lon="5.01419">
        <ele>465.07</ele>
        <time>2022-05-16T08:23:40Z</time>
      </trkpt>
      <trkpt lat="47.68944" lon="5.01414">
        <ele>465.01</ele>
        <time>2022-05-16T08:23:42Z</time>
      </trkpt>
      <trkpt lat="47.68943" lon="5.01409">
        <ele>465</ele>
        <time>2022-05-16T08:23:45Z</time>
      </trkpt>
      <trkpt lat="47.68943" lon="5.01404">
        <ele>465.17</ele>
        <time>2022-05-16T08:23:47Z</time>
      </trkpt>
      <trkpt lat="47.68943" lon="5.014">
        <ele>465.31</ele>
        <time>2022-05-16T08:23:50Z</time>
      </trkpt>
      <trkpt lat="47.68942" lon="5.01396">
        <ele>465.24</ele>
        <time>2022-05-16T08:23:51Z</time>
      </trkpt>
      <trkpt lat="47.68941" lon="5.01392">
        <ele>465.16</ele>
        <time>2022-05-16T08:23:53Z</time>
      </trkpt>
      <trkpt lat="47.68941" lon="5.01387">
        <ele>465.32</ele>
        <time>2022-05-16T08:23:56Z</time>
      </trkpt>
      <trkpt lat="47.6894" lon="5.01383">
        <ele>465.22</ele>
        <time>2022-05-16T08:23:58Z</time>
      </trkpt>
      <trkpt lat="47.6894" lon="5.01379">
        <ele>465.34</ele>
        <time>2022-05-16T08:24:01Z</time>
      </trkpt>
      <trkpt lat="47.68939" lon="5.01375">
        <ele>465.23</ele>
        <time>2022-05-16T08:24:04Z</time>
      </trkpt>
      <trkpt lat="47.68937" lon="5.0137">
        <ele>464.89</ele>
        <time>2022-05-16T08:24:08Z</time>
      </trkpt>
      <trkpt lat="47.68936" lon="5.01365">
        <ele>464.77</ele>
        <time>2022-05-16T08:24:11Z</time>
      </trkpt>
      <trkpt lat="47.68935" lon="5.01361">
        <ele>464.62</ele>
        <time>2022-05-16T08:24:14Z</time>
      </trkpt>
      <trkpt lat="47.68934" lon="5.01356">
        <ele>464.44</ele>
        <time>2022-05-16T08:24:17Z</time>
      </trkpt>
      <trkpt lat="47.68933" lon="5.01352">
        <ele>464.25</ele>
        <time>2022-05-16T08:24:19Z</time>
      </trkpt>
      <trkpt lat="47.68932" lon="5.01349">
        <ele>464.06</ele>
        <time>2022-05-16T08:24:22Z</time>
      </trkpt>
      <trkpt lat="47.6893" lon="5.01344">
        <ele>463.68</ele>
        <time>2022-05-16T08:24:25Z</time>
      </trkpt>
      <trkpt lat="47.68929" lon="5.0134">
        <ele>463.53</ele>
        <time>2022-05-16T08:24:28Z</time>
      </trkpt>
      <trkpt lat="47.68928" lon="5.01336">
        <ele>463.39</ele>
        <time>2022-05-16T08:24:31Z</time>
      </trkpt>
      <trkpt lat="47.68928" lon="5.01332">
        <ele>463.39</ele>
        <time>2022-05-16T08:24:33Z</time>
      </trkpt>
      <trkpt lat="47.68927" lon="5.01328">
        <ele>463.02</ele>
        <time>2022-05-16T08:24:36Z</time>
      </trkpt>
      <trkpt lat="47.68927" lon="5.01324">
        <ele>462.86</ele>
        <time>2022-05-16T08:24:38Z</time>
      </trkpt>
      <trkpt lat="47.68927" lon="5.0132">
        <ele>462.7</ele>
        <time>2022-05-16T08:24:42Z</time>
      </trkpt>
      <trkpt lat="47.68926" lon="5.01315">
        <ele>462.35</ele>
        <time>2022-05-16T08:24:44Z</time>
      </trkpt>
      <trkpt lat="47.68926" lon="5.01311">
        <ele>462.21</ele>
        <time>2022-05-16T08:24:47Z</time>
      </trkpt>
      <trkpt lat="47.68925" lon="5.01307">
        <ele>461.95</ele>
        <time>2022-05-16T08:24:49Z</time>
      </trkpt>
      <trkpt lat="47.68925" lon="5.01302">
        <ele>461.89</ele>
        <time>2022-05-16T08:24:52Z</time>
      </trkpt>
      <trkpt lat="47.68924" lon="5.01297">
        <ele>461.73</ele>
        <time>2022-05-16T08:24:55Z</time>
      </trkpt>
      <trkpt lat="47.68923" lon="5.01292">
        <ele>461.53</ele>
        <time>2022-05-16T08:24:57Z</time>
      </trkpt>
      <trkpt lat="47.68923" lon="5.01288">
        <ele>461.48</ele>
        <time>2022-05-16T08:24:58Z</time>
      </trkpt>
      <trkpt lat="47.68922" lon="5.01283">
        <ele>461.23</ele>
        <time>2022-05-16T08:25:01Z</time>
      </trkpt>
      <trkpt lat="47.68921" lon="5.01279">
        <ele>460.96</ele>
        <time>2022-05-16T08:25:04Z</time>
      </trkpt>
      <trkpt lat="47.68921" lon="5.01275">
        <ele>461.04</ele>
        <time>2022-05-16T08:25:07Z</time>
      </trkpt>
      <trkpt lat="47.6892" lon="5.01271">
        <ele>460.96</ele>
        <time>2022-05-16T08:25:10Z</time>
      </trkpt>
      <trkpt lat="47.6892" lon="5.01266">
        <ele>461.14</ele>
        <time>2022-05-16T08:25:13Z</time>
      </trkpt>
      <trkpt lat="47.68919" lon="5.01262">
        <ele>461.07</ele>
        <time>2022-05-16T08:25:15Z</time>
      </trkpt>
      <trkpt lat="47.68919" lon="5.01257">
        <ele>461.25</ele>
        <time>2022-05-16T08:25:19Z</time>
      </trkpt>
      <trkpt lat="47.68918" lon="5.01253">
        <ele>461.18</ele>
        <time>2022-05-16T08:25:21Z</time>
      </trkpt>
      <trkpt lat="47.68918" lon="5.01248">
        <ele>461.22</ele>
        <time>2022-05-16T08:25:23Z</time>
      </trkpt>
      <trkpt lat="47.68918" lon="5.01243">
        <ele>461.05</ele>
        <time>2022-05-16T08:25:26Z</time>
      </trkpt>
      <trkpt lat="47.68918" lon="5.01238">
        <ele>460.88</ele>
        <time>2022-05-16T08:25:28Z</time>
      </trkpt>
      <trkpt lat="47.68918" lon="5.01234">
        <ele>460.74</ele>
        <time>2022-05-16T08:25:30Z</time>
      </trkpt>
      <trkpt lat="47.68917" lon="5.0123">
        <ele>460.36</ele>
        <time>2022-05-16T08:25:32Z</time>
      </trkpt>
      <trkpt lat="47.68916" lon="5.01225">
        <ele>459.83</ele>
        <time>2022-05-16T08:25:35Z</time>
      </trkpt>
      <trkpt lat="47.68915" lon="5.01221">
        <ele>459.29</ele>
        <time>2022-05-16T08:25:37Z</time>
      </trkpt>
      <trkpt lat="47.68914" lon="5.01217">
        <ele>458.74</ele>
        <time>2022-05-16T08:25:38Z</time>
      </trkpt>
      <trkpt lat="47.68912" lon="5.01213">
        <ele>457.76</ele>
        <time>2022-05-16T08:25:40Z</time>
      </trkpt>
      <trkpt lat="47.6891" lon="5.01209">
        <ele>456.77</ele>
        <time>2022-05-16T08:25:41Z</time>
      </trkpt>
      <trkpt lat="47.68909" lon="5.01206">
        <ele>456.22</ele>
        <time>2022-05-16T08:25:43Z</time>
      </trkpt>
      <trkpt lat="47.68907" lon="5.01202">
        <ele>455.19</ele>
        <time>2022-05-16T08:25:45Z</time>
      </trkpt>
      <trkpt lat="47.68905" lon="5.01198">
        <ele>454.14</ele>
        <time>2022-05-16T08:25:47Z</time>
      </trkpt>
      <trkpt lat="47.68904" lon="5.01194">
        <ele>453.56</ele>
        <time>2022-05-16T08:25:50Z</time>
      </trkpt>
      <trkpt lat="47.68902" lon="5.0119">
        <ele>453</ele>
        <time>2022-05-16T08:25:52Z</time>
      </trkpt>
      <trkpt lat="47.689" lon="5.01187">
        <ele>452.44</ele>
        <time>2022-05-16T08:25:54Z</time>
      </trkpt>
      <trkpt lat="47.68898" lon="5.01183">
        <ele>452.04</ele>
        <time>2022-05-16T08:25:56Z</time>
      </trkpt>
      <trkpt lat="47.68897" lon="5.01179">
        <ele>452.08</ele>
        <time>2022-05-16T08:25:59Z</time>
      </trkpt>
      <trkpt lat="47.68895" lon="5.01175">
        <ele>451.82</ele>
        <time>2022-05-16T08:26:01Z</time>
      </trkpt>
      <trkpt lat="47.68893" lon="5.01171">
        <ele>451.65</ele>
        <time>2022-05-16T08:26:03Z</time>
      </trkpt>
      <trkpt lat="47.68891" lon="5.01167">
        <ele>451.56</ele>
        <time>2022-05-16T08:26:05Z</time>
      </trkpt>
      <trkpt lat="47.68889" lon="5.01164">
        <ele>451.32</ele>
        <time>2022-05-16T08:26:07Z</time>
      </trkpt>
      <trkpt lat="47.68887" lon="5.0116">
        <ele>451.36</ele>
        <time>2022-05-16T08:26:10Z</time>
      </trkpt>
      <trkpt lat="47.68886" lon="5.01157">
        <ele>451.53</ele>
        <time>2022-05-16T08:26:12Z</time>
      </trkpt>
      <trkpt lat="47.68884" lon="5.01153">
        <ele>451.68</ele>
        <time>2022-05-16T08:26:17Z</time>
      </trkpt>
      <trkpt lat="47.68882" lon="5.01149">
        <ele>451.89</ele>
        <time>2022-05-16T08:26:20Z</time>
      </trkpt>
      <trkpt lat="47.68882" lon="5.01145">
        <ele>452.43</ele>
        <time>2022-05-16T08:26:23Z</time>
      </trkpt>
      <trkpt lat="47.6888" lon="5.01141">
        <ele>452.74</ele>
        <time>2022-05-16T08:26:27Z</time>
      </trkpt>
      <trkpt lat="47.68878" lon="5.01137">
        <ele>452.85</ele>
        <time>2022-05-16T08:26:31Z</time>
      </trkpt>
      <trkpt lat="47.68877" lon="5.01134">
        <ele>452.79</ele>
        <time>2022-05-16T08:26:38Z</time>
      </trkpt>
      <trkpt lat="47.68875" lon="5.0113">
        <ele>452.66</ele>
        <time>2022-05-16T08:26:43Z</time>
      </trkpt>
      <trkpt lat="47.68873" lon="5.01128">
        <ele>452.51</ele>
        <time>2022-05-16T08:26:47Z</time>
      </trkpt>
      <trkpt lat="47.6887" lon="5.01125">
        <ele>452.3</ele>
        <time>2022-05-16T08:26:57Z</time>
      </trkpt>
      <trkpt lat="47.68867" lon="5.01125">
        <ele>452.03</ele>
        <time>2022-05-16T08:27:11Z</time>
      </trkpt>
      <trkpt lat="47.68865" lon="5.01124">
        <ele>451.88</ele>
        <time>2022-05-16T08:29:04Z</time>
      </trkpt>
      <trkpt lat="47.68862" lon="5.01127">
        <ele>451.51</ele>
        <time>2022-05-16T08:30:34Z</time>
      </trkpt>
      <trkpt lat="47.68859" lon="5.01129">
        <ele>450.88</ele>
        <time>2022-05-16T08:30:37Z</time>
      </trkpt>
      <trkpt lat="47.68856" lon="5.01131">
        <ele>450.1</ele>
        <time>2022-05-16T08:30:40Z</time>
      </trkpt>
      <trkpt lat="47.68854" lon="5.01134">
        <ele>449.47</ele>
        <time>2022-05-16T08:30:43Z</time>
      </trkpt>
      <trkpt lat="47.68851" lon="5.01135">
        <ele>448.69</ele>
        <time>2022-05-16T08:30:45Z</time>
      </trkpt>
      <trkpt lat="47.68848" lon="5.01136">
        <ele>447.9</ele>
        <time>2022-05-16T08:30:48Z</time>
      </trkpt>
      <trkpt lat="47.68845" lon="5.01136">
        <ele>447.16</ele>
        <time>2022-05-16T08:30:50Z</time>
      </trkpt>
      <trkpt lat="47.68842" lon="5.01138">
        <ele>446.26</ele>
        <time>2022-05-16T08:30:52Z</time>
      </trkpt>
      <trkpt lat="47.68839" lon="5.01139">
        <ele>445.4</ele>
        <time>2022-05-16T08:30:54Z</time>
      </trkpt>
      <trkpt lat="47.68837" lon="5.01141">
        <ele>444.47</ele>
        <time>2022-05-16T08:30:57Z</time>
      </trkpt>
      <trkpt lat="47.68834" lon="5.01143">
        <ele>443.28</ele>
        <time>2022-05-16T08:30:59Z</time>
      </trkpt>
      <trkpt lat="47.68831" lon="5.01144">
        <ele>442.71</ele>
        <time>2022-05-16T08:31:01Z</time>
      </trkpt>
      <trkpt lat="47.68828" lon="5.01145">
        <ele>442.27</ele>
        <time>2022-05-16T08:31:03Z</time>
      </trkpt>
      <trkpt lat="47.68824" lon="5.01146">
        <ele>441.8</ele>
        <time>2022-05-16T08:31:05Z</time>
      </trkpt>
      <trkpt lat="47.68821" lon="5.01148">
        <ele>441.28</ele>
        <time>2022-05-16T08:31:08Z</time>
      </trkpt>
      <trkpt lat="47.68817" lon="5.01149">
        <ele>440.91</ele>
        <time>2022-05-16T08:31:10Z</time>
      </trkpt>
      <trkpt lat="47.68814" lon="5.01151">
        <ele>440.51</ele>
        <time>2022-05-16T08:31:12Z</time>
      </trkpt>
      <trkpt lat="47.68811" lon="5.01152">
        <ele>440.27</ele>
        <time>2022-05-16T08:31:14Z</time>
      </trkpt>
      <trkpt lat="47.68808" lon="5.01154">
        <ele>439.98</ele>
        <time>2022-05-16T08:31:16Z</time>
      </trkpt>
      <trkpt lat="47.68805" lon="5.01155">
        <ele>439.86</ele>
        <time>2022-05-16T08:31:19Z</time>
      </trkpt>
      <trkpt lat="47.68803" lon="5.01156">
        <ele>439.87</ele>
        <time>2022-05-16T08:31:20Z</time>
      </trkpt>
      <trkpt lat="47.688" lon="5.01157">
        <ele>439.95</ele>
        <time>2022-05-16T08:31:22Z</time>
      </trkpt>
      <trkpt lat="47.68797" lon="5.01158">
        <ele>440.07</ele>
        <time>2022-05-16T08:31:25Z</time>
      </trkpt>
      <trkpt lat="47.68794" lon="5.0116">
        <ele>440.23</ele>
        <time>2022-05-16T08:31:27Z</time>
      </trkpt>
      <trkpt lat="47.68791" lon="5.01161">
        <ele>440.45</ele>
        <time>2022-05-16T08:31:30Z</time>
      </trkpt>
      <trkpt lat="47.68788" lon="5.01163">
        <ele>440.74</ele>
        <time>2022-05-16T08:31:32Z</time>
      </trkpt>
      <trkpt lat="47.68785" lon="5.01164">
        <ele>441.06</ele>
        <time>2022-05-16T08:31:34Z</time>
      </trkpt>
      <trkpt lat="47.68782" lon="5.01165">
        <ele>441.41</ele>
        <time>2022-05-16T08:31:36Z</time>
      </trkpt>
      <trkpt lat="47.68779" lon="5.01166">
        <ele>441.8</ele>
        <time>2022-05-16T08:31:38Z</time>
      </trkpt>
      <trkpt lat="47.68777" lon="5.01168">
        <ele>441.7</ele>
        <time>2022-05-16T08:31:41Z</time>
      </trkpt>
      <trkpt lat="47.68774" lon="5.01169">
        <ele>441.31</ele>
        <time>2022-05-16T08:31:43Z</time>
      </trkpt>
      <trkpt lat="47.68771" lon="5.01171">
        <ele>440.73</ele>
        <time>2022-05-16T08:31:45Z</time>
      </trkpt>
      <trkpt lat="47.68768" lon="5.01172">
        <ele>440.34</ele>
        <time>2022-05-16T08:31:47Z</time>
      </trkpt>
      <trkpt lat="47.68765" lon="5.01173">
        <ele>439.94</ele>
        <time>2022-05-16T08:31:49Z</time>
      </trkpt>
      <trkpt lat="47.68761" lon="5.01174">
        <ele>439.47</ele>
        <time>2022-05-16T08:31:52Z</time>
      </trkpt>
      <trkpt lat="47.68758" lon="5.01176">
        <ele>438.9</ele>
        <time>2022-05-16T08:31:54Z</time>
      </trkpt>
      <trkpt lat="47.68755" lon="5.01177">
        <ele>438.5</ele>
        <time>2022-05-16T08:31:58Z</time>
      </trkpt>
      <trkpt lat="47.6875" lon="5.01179">
        <ele>437.78</ele>
        <time>2022-05-16T08:32:00Z</time>
      </trkpt>
      <trkpt lat="47.68746" lon="5.0118">
        <ele>437.53</ele>
        <time>2022-05-16T08:32:03Z</time>
      </trkpt>
      <trkpt lat="47.68742" lon="5.01182">
        <ele>437.08</ele>
        <time>2022-05-16T08:32:07Z</time>
      </trkpt>
      <trkpt lat="47.68738" lon="5.01184">
        <ele>436.61</ele>
        <time>2022-05-16T08:32:10Z</time>
      </trkpt>
      <trkpt lat="47.68734" lon="5.01186">
        <ele>436.12</ele>
        <time>2022-05-16T08:32:13Z</time>
      </trkpt>
      <trkpt lat="47.6873" lon="5.01187">
        <ele>435.81</ele>
        <time>2022-05-16T08:32:17Z</time>
      </trkpt>
      <trkpt lat="47.68727" lon="5.01189">
        <ele>435.31</ele>
        <time>2022-05-16T08:32:19Z</time>
      </trkpt>
      <trkpt lat="47.68722" lon="5.01191">
        <ele>434.79</ele>
        <time>2022-05-16T08:32:22Z</time>
      </trkpt>
      <trkpt lat="47.68718" lon="5.01193">
        <ele>435.17</ele>
        <time>2022-05-16T08:32:25Z</time>
      </trkpt>
      <trkpt lat="47.68714" lon="5.01195">
        <ele>435.74</ele>
        <time>2022-05-16T08:32:27Z</time>
      </trkpt>
      <trkpt lat="47.6871" lon="5.01196">
        <ele>436.55</ele>
        <time>2022-05-16T08:32:31Z</time>
      </trkpt>
      <trkpt lat="47.68706" lon="5.01198">
        <ele>437.32</ele>
        <time>2022-05-16T08:32:34Z</time>
      </trkpt>
      <trkpt lat="47.68702" lon="5.012">
        <ele>438.11</ele>
        <time>2022-05-16T08:32:37Z</time>
      </trkpt>
      <trkpt lat="47.68697" lon="5.01202">
        <ele>439.15</ele>
        <time>2022-05-16T08:32:40Z</time>
      </trkpt>
      <trkpt lat="47.68693" lon="5.01204">
        <ele>439.73</ele>
        <time>2022-05-16T08:32:43Z</time>
      </trkpt>
      <trkpt lat="47.68689" lon="5.01206">
        <ele>439.86</ele>
        <time>2022-05-16T08:32:47Z</time>
      </trkpt>
      <trkpt lat="47.68684" lon="5.01208">
        <ele>440.07</ele>
        <time>2022-05-16T08:32:51Z</time>
      </trkpt>
      <trkpt lat="47.6868" lon="5.0121">
        <ele>440.25</ele>
        <time>2022-05-16T08:32:54Z</time>
      </trkpt>
      <trkpt lat="47.68676" lon="5.01212">
        <ele>440.45</ele>
        <time>2022-05-16T08:32:57Z</time>
      </trkpt>
      <trkpt lat="47.68672" lon="5.01214">
        <ele>440.67</ele>
        <time>2022-05-16T08:33:00Z</time>
      </trkpt>
      <trkpt lat="47.68669" lon="5.01216">
        <ele>440.85</ele>
        <time>2022-05-16T08:33:04Z</time>
      </trkpt>
      <trkpt lat="47.68666" lon="5.01218">
        <ele>440.92</ele>
        <time>2022-05-16T08:33:06Z</time>
      </trkpt>
      <trkpt lat="47.68663" lon="5.0122">
        <ele>440.57</ele>
        <time>2022-05-16T08:33:08Z</time>
      </trkpt>
      <trkpt lat="47.68659" lon="5.01221">
        <ele>440.14</ele>
        <time>2022-05-16T08:33:11Z</time>
      </trkpt>
      <trkpt lat="47.68657" lon="5.01221">
        <ele>439.91</ele>
        <time>2022-05-16T08:33:13Z</time>
      </trkpt>
      <trkpt lat="47.68653" lon="5.01223">
        <ele>439.56</ele>
        <time>2022-05-16T08:33:16Z</time>
      </trkpt>
      <trkpt lat="47.68648" lon="5.01225">
        <ele>439.25</ele>
        <time>2022-05-16T08:33:19Z</time>
      </trkpt>
      <trkpt lat="47.68644" lon="5.01227">
        <ele>439.19</ele>
        <time>2022-05-16T08:33:22Z</time>
      </trkpt>
      <trkpt lat="47.6864" lon="5.01229">
        <ele>439.27</ele>
        <time>2022-05-16T08:33:25Z</time>
      </trkpt>
      <trkpt lat="47.68636" lon="5.01231">
        <ele>439.53</ele>
        <time>2022-05-16T08:33:27Z</time>
      </trkpt>
      <trkpt lat="47.68633" lon="5.01232">
        <ele>439.59</ele>
        <time>2022-05-16T08:33:30Z</time>
      </trkpt>
      <trkpt lat="47.6863" lon="5.01234">
        <ele>439.67</ele>
        <time>2022-05-16T08:33:33Z</time>
      </trkpt>
      <trkpt lat="47.68626" lon="5.01236">
        <ele>439.57</ele>
        <time>2022-05-16T08:33:36Z</time>
      </trkpt>
      <trkpt lat="47.68622" lon="5.01238">
        <ele>439.29</ele>
        <time>2022-05-16T08:33:39Z</time>
      </trkpt>
      <trkpt lat="47.68618" lon="5.0124">
        <ele>438.85</ele>
        <time>2022-05-16T08:33:42Z</time>
      </trkpt>
      <trkpt lat="47.68614" lon="5.01241">
        <ele>438.33</ele>
        <time>2022-05-16T08:33:45Z</time>
      </trkpt>
      <trkpt lat="47.68611" lon="5.01243">
        <ele>437.76</ele>
        <time>2022-05-16T08:33:48Z</time>
      </trkpt>
      <trkpt lat="47.68607" lon="5.01245">
        <ele>437.81</ele>
        <time>2022-05-16T08:33:52Z</time>
      </trkpt>
      <trkpt lat="47.68604" lon="5.01246">
        <ele>437.91</ele>
        <time>2022-05-16T08:33:54Z</time>
      </trkpt>
      <trkpt lat="47.68601" lon="5.01246">
        <ele>438.11</ele>
        <time>2022-05-16T08:33:55Z</time>
      </trkpt>
      <trkpt lat="47.68598" lon="5.01248">
        <ele>438.13</ele>
        <time>2022-05-16T08:33:57Z</time>
      </trkpt>
      <trkpt lat="47.68595" lon="5.01249">
        <ele>438.25</ele>
        <time>2022-05-16T08:33:59Z</time>
      </trkpt>
      <trkpt lat="47.68592" lon="5.01251">
        <ele>438.28</ele>
        <time>2022-05-16T08:34:01Z</time>
      </trkpt>
      <trkpt lat="47.68589" lon="5.01253">
        <ele>438.33</ele>
        <time>2022-05-16T08:34:04Z</time>
      </trkpt>
      <trkpt lat="47.68585" lon="5.01255">
        <ele>438.5</ele>
        <time>2022-05-16T08:34:07Z</time>
      </trkpt>
      <trkpt lat="47.68583" lon="5.01257">
        <ele>438.48</ele>
        <time>2022-05-16T08:34:09Z</time>
      </trkpt>
      <trkpt lat="47.6858" lon="5.01259">
        <ele>438.23</ele>
        <time>2022-05-16T08:34:11Z</time>
      </trkpt>
      <trkpt lat="47.68577" lon="5.0126">
        <ele>438.05</ele>
        <time>2022-05-16T08:34:13Z</time>
      </trkpt>
      <trkpt lat="47.68574" lon="5.01262">
        <ele>437.8</ele>
        <time>2022-05-16T08:34:15Z</time>
      </trkpt>
      <trkpt lat="47.68571" lon="5.01263">
        <ele>437.62</ele>
        <time>2022-05-16T08:34:18Z</time>
      </trkpt>
      <trkpt lat="47.68568" lon="5.01264">
        <ele>437.44</ele>
        <time>2022-05-16T08:34:20Z</time>
      </trkpt>
      <trkpt lat="47.68565" lon="5.01265">
        <ele>437.26</ele>
        <time>2022-05-16T08:34:23Z</time>
      </trkpt>
      <trkpt lat="47.68562" lon="5.01266">
        <ele>437.08</ele>
        <time>2022-05-16T08:34:24Z</time>
      </trkpt>
      <trkpt lat="47.68559" lon="5.01267">
        <ele>436.9</ele>
        <time>2022-05-16T08:34:26Z</time>
      </trkpt>
      <trkpt lat="47.68556" lon="5.01269">
        <ele>436.65</ele>
        <time>2022-05-16T08:34:29Z</time>
      </trkpt>
      <trkpt lat="47.68553" lon="5.0127">
        <ele>436.68</ele>
        <time>2022-05-16T08:34:32Z</time>
      </trkpt>
      <trkpt lat="47.68549" lon="5.01273">
        <ele>436.62</ele>
        <time>2022-05-16T08:34:34Z</time>
      </trkpt>
      <trkpt lat="47.68546" lon="5.01274">
        <ele>436.66</ele>
        <time>2022-05-16T08:34:37Z</time>
      </trkpt>
      <trkpt lat="47.68542" lon="5.01276">
        <ele>436.65</ele>
        <time>2022-05-16T08:34:41Z</time>
      </trkpt>
      <trkpt lat="47.68539" lon="5.01278">
        <ele>436.58</ele>
        <time>2022-05-16T08:34:43Z</time>
      </trkpt>
      <trkpt lat="47.68535" lon="5.0128">
        <ele>436.56</ele>
        <time>2022-05-16T08:34:45Z</time>
      </trkpt>
      <trkpt lat="47.68532" lon="5.01281">
        <ele>436.6</ele>
        <time>2022-05-16T08:34:47Z</time>
      </trkpt>
      <trkpt lat="47.68529" lon="5.01283">
        <ele>436.57</ele>
        <time>2022-05-16T08:34:50Z</time>
      </trkpt>
      <trkpt lat="47.68526" lon="5.01284">
        <ele>436.78</ele>
        <time>2022-05-16T08:34:53Z</time>
      </trkpt>
      <trkpt lat="47.68523" lon="5.01285">
        <ele>437.08</ele>
        <time>2022-05-16T08:34:55Z</time>
      </trkpt>
      <trkpt lat="47.6852" lon="5.01286">
        <ele>437.36</ele>
        <time>2022-05-16T08:34:57Z</time>
      </trkpt>
      <trkpt lat="47.68516" lon="5.01288">
        <ele>437.65</ele>
        <time>2022-05-16T08:35:00Z</time>
      </trkpt>
      <trkpt lat="47.68511" lon="5.01291">
        <ele>437.89</ele>
        <time>2022-05-16T08:35:03Z</time>
      </trkpt>
      <trkpt lat="47.68507" lon="5.01293">
        <ele>438.08</ele>
        <time>2022-05-16T08:35:07Z</time>
      </trkpt>
      <trkpt lat="47.68503" lon="5.01295">
        <ele>438.22</ele>
        <time>2022-05-16T08:35:09Z</time>
      </trkpt>
      <trkpt lat="47.68499" lon="5.01297">
        <ele>438.28</ele>
        <time>2022-05-16T08:35:12Z</time>
      </trkpt>
      <trkpt lat="47.68495" lon="5.013">
        <ele>438.16</ele>
        <time>2022-05-16T08:35:15Z</time>
      </trkpt>
      <trkpt lat="47.68491" lon="5.01302">
        <ele>438.28</ele>
        <time>2022-05-16T08:35:18Z</time>
      </trkpt>
      <trkpt lat="47.68487" lon="5.01305">
        <ele>438.44</ele>
        <time>2022-05-16T08:35:21Z</time>
      </trkpt>
      <trkpt lat="47.68484" lon="5.01308">
        <ele>438.59</ele>
        <time>2022-05-16T08:35:24Z</time>
      </trkpt>
      <trkpt lat="47.6848" lon="5.0131">
        <ele>438.88</ele>
        <time>2022-05-16T08:35:26Z</time>
      </trkpt>
      <trkpt lat="47.68477" lon="5.01313">
        <ele>438.99</ele>
        <time>2022-05-16T08:35:29Z</time>
      </trkpt>
      <trkpt lat="47.68473" lon="5.01316">
        <ele>439.17</ele>
        <time>2022-05-16T08:35:32Z</time>
      </trkpt>
      <trkpt lat="47.68469" lon="5.01318">
        <ele>438.86</ele>
        <time>2022-05-16T08:35:35Z</time>
      </trkpt>
      <trkpt lat="47.68466" lon="5.01321">
        <ele>438.47</ele>
        <time>2022-05-16T08:35:38Z</time>
      </trkpt>
      <trkpt lat="47.68462" lon="5.01323">
        <ele>438.1</ele>
        <time>2022-05-16T08:35:41Z</time>
      </trkpt>
      <trkpt lat="47.68459" lon="5.01326">
        <ele>437.8</ele>
        <time>2022-05-16T08:35:44Z</time>
      </trkpt>
      <trkpt lat="47.68455" lon="5.01328">
        <ele>437.53</ele>
        <time>2022-05-16T08:35:46Z</time>
      </trkpt>
      <trkpt lat="47.68452" lon="5.01331">
        <ele>437.32</ele>
        <time>2022-05-16T08:35:49Z</time>
      </trkpt>
      <trkpt lat="47.68448" lon="5.01333">
        <ele>437.13</ele>
        <time>2022-05-16T08:35:53Z</time>
      </trkpt>
      <trkpt lat="47.68443" lon="5.01336">
        <ele>437.19</ele>
        <time>2022-05-16T08:35:56Z</time>
      </trkpt>
      <trkpt lat="47.6844" lon="5.01338">
        <ele>437.56</ele>
        <time>2022-05-16T08:35:58Z</time>
      </trkpt>
      <trkpt lat="47.68437" lon="5.01341">
        <ele>437.85</ele>
        <time>2022-05-16T08:36:01Z</time>
      </trkpt>
      <trkpt lat="47.68434" lon="5.01344">
        <ele>438.07</ele>
        <time>2022-05-16T08:36:05Z</time>
      </trkpt>
      <trkpt lat="47.68431" lon="5.01346">
        <ele>438.27</ele>
        <time>2022-05-16T08:36:07Z</time>
      </trkpt>
      <trkpt lat="47.68428" lon="5.01348">
        <ele>438.43</ele>
        <time>2022-05-16T08:36:09Z</time>
      </trkpt>
      <trkpt lat="47.68425" lon="5.0135">
        <ele>438.54</ele>
        <time>2022-05-16T08:36:11Z</time>
      </trkpt>
      <trkpt lat="47.68422" lon="5.01352">
        <ele>438.6</ele>
        <time>2022-05-16T08:36:14Z</time>
      </trkpt>
      <trkpt lat="47.6842" lon="5.01353">
        <ele>438.65</ele>
        <time>2022-05-16T08:36:18Z</time>
      </trkpt>
      <trkpt lat="47.68417" lon="5.01355">
        <ele>438.64</ele>
        <time>2022-05-16T08:36:36Z</time>
      </trkpt>
      <trkpt lat="47.68415" lon="5.01358">
        <ele>438.58</ele>
        <time>2022-05-16T08:36:38Z</time>
      </trkpt>
      <trkpt lat="47.68412" lon="5.01359">
        <ele>438.9</ele>
        <time>2022-05-16T08:36:40Z</time>
      </trkpt>
      <trkpt lat="47.68409" lon="5.01361">
        <ele>439.12</ele>
        <time>2022-05-16T08:36:43Z</time>
      </trkpt>
      <trkpt lat="47.68406" lon="5.01363">
        <ele>439.36</ele>
        <time>2022-05-16T08:36:45Z</time>
      </trkpt>
      <trkpt lat="47.68403" lon="5.01365">
        <ele>439.62</ele>
        <time>2022-05-16T08:36:47Z</time>
      </trkpt>
      <trkpt lat="47.684" lon="5.01368">
        <ele>439.8</ele>
        <time>2022-05-16T08:36:50Z</time>
      </trkpt>
      <trkpt lat="47.68397" lon="5.01369">
        <ele>440.18</ele>
        <time>2022-05-16T08:36:54Z</time>
      </trkpt>
      <trkpt lat="47.68393" lon="5.01372">
        <ele>440.57</ele>
        <time>2022-05-16T08:36:58Z</time>
      </trkpt>
      <trkpt lat="47.68389" lon="5.01375">
        <ele>440.98</ele>
        <time>2022-05-16T08:37:01Z</time>
      </trkpt>
      <trkpt lat="47.68385" lon="5.01378">
        <ele>441.06</ele>
        <time>2022-05-16T08:37:04Z</time>
      </trkpt>
      <trkpt lat="47.68382" lon="5.0138">
        <ele>441.14</ele>
        <time>2022-05-16T08:37:07Z</time>
      </trkpt>
      <trkpt lat="47.68379" lon="5.01382">
        <ele>441.21</ele>
        <time>2022-05-16T08:37:09Z</time>
      </trkpt>
      <trkpt lat="47.68376" lon="5.01384">
        <ele>441.28</ele>
        <time>2022-05-16T08:37:11Z</time>
      </trkpt>
      <trkpt lat="47.68372" lon="5.01387">
        <ele>441.35</ele>
        <time>2022-05-16T08:37:14Z</time>
      </trkpt>
      <trkpt lat="47.68368" lon="5.0139">
        <ele>441.38</ele>
        <time>2022-05-16T08:37:18Z</time>
      </trkpt>
      <trkpt lat="47.68365" lon="5.01392">
        <ele>441.33</ele>
        <time>2022-05-16T08:37:19Z</time>
      </trkpt>
      <trkpt lat="47.68362" lon="5.01394">
        <ele>441.22</ele>
        <time>2022-05-16T08:37:22Z</time>
      </trkpt>
      <trkpt lat="47.68359" lon="5.01396">
        <ele>440.92</ele>
        <time>2022-05-16T08:37:24Z</time>
      </trkpt>
      <trkpt lat="47.68356" lon="5.01398">
        <ele>440.56</ele>
        <time>2022-05-16T08:37:27Z</time>
      </trkpt>
      <trkpt lat="47.68353" lon="5.01401">
        <ele>440.09</ele>
        <time>2022-05-16T08:37:30Z</time>
      </trkpt>
      <trkpt lat="47.6835" lon="5.01403">
        <ele>439.77</ele>
        <time>2022-05-16T08:37:33Z</time>
      </trkpt>
      <trkpt lat="47.68348" lon="5.01405">
        <ele>439.48</ele>
        <time>2022-05-16T08:37:34Z</time>
      </trkpt>
      <trkpt lat="47.68345" lon="5.01406">
        <ele>439.31</ele>
        <time>2022-05-16T08:37:37Z</time>
      </trkpt>
      <trkpt lat="47.68342" lon="5.01408">
        <ele>439.03</ele>
        <time>2022-05-16T08:37:39Z</time>
      </trkpt>
      <trkpt lat="47.6834" lon="5.01412">
        <ele>438.54</ele>
        <time>2022-05-16T08:37:41Z</time>
      </trkpt>
      <trkpt lat="47.68336" lon="5.01414">
        <ele>438.3</ele>
        <time>2022-05-16T08:37:44Z</time>
      </trkpt>
      <trkpt lat="47.68332" lon="5.01416">
        <ele>438.02</ele>
        <time>2022-05-16T08:37:47Z</time>
      </trkpt>
      <trkpt lat="47.68329" lon="5.01419">
        <ele>437.65</ele>
        <time>2022-05-16T08:37:50Z</time>
      </trkpt>
      <trkpt lat="47.68327" lon="5.01421">
        <ele>437.39</ele>
        <time>2022-05-16T08:37:52Z</time>
      </trkpt>
      <trkpt lat="47.68324" lon="5.01424">
        <ele>436.96</ele>
        <time>2022-05-16T08:37:55Z</time>
      </trkpt>
      <trkpt lat="47.68321" lon="5.01425">
        <ele>436.69</ele>
        <time>2022-05-16T08:37:57Z</time>
      </trkpt>
      <trkpt lat="47.68318" lon="5.01427">
        <ele>436.29</ele>
        <time>2022-05-16T08:38:00Z</time>
      </trkpt>
      <trkpt lat="47.68316" lon="5.0143">
        <ele>435.82</ele>
        <time>2022-05-16T08:38:02Z</time>
      </trkpt>
      <trkpt lat="47.68314" lon="5.01433">
        <ele>435.31</ele>
        <time>2022-05-16T08:38:04Z</time>
      </trkpt>
      <trkpt lat="47.68314" lon="5.01438">
        <ele>434.7</ele>
        <time>2022-05-16T08:38:07Z</time>
      </trkpt>
      <trkpt lat="47.68314" lon="5.01442">
        <ele>434.21</ele>
        <time>2022-05-16T08:38:09Z</time>
      </trkpt>
      <trkpt lat="47.68314" lon="5.01447">
        <ele>433.66</ele>
        <time>2022-05-16T08:38:12Z</time>
      </trkpt>
      <trkpt lat="47.68315" lon="5.01451">
        <ele>433.39</ele>
        <time>2022-05-16T08:38:14Z</time>
      </trkpt>
      <trkpt lat="47.68316" lon="5.01456">
        <ele>433.04</ele>
        <time>2022-05-16T08:38:18Z</time>
      </trkpt>
      <trkpt lat="47.68317" lon="5.01462">
        <ele>432.6</ele>
        <time>2022-05-16T08:38:21Z</time>
      </trkpt>
      <trkpt lat="47.68318" lon="5.01465">
        <ele>432.46</ele>
        <time>2022-05-16T08:38:25Z</time>
      </trkpt>
      <trkpt lat="47.68321" lon="5.01468">
        <ele>432.6</ele>
        <time>2022-05-16T08:38:29Z</time>
      </trkpt>
      <trkpt lat="47.68322" lon="5.01472">
        <ele>432.39</ele>
        <time>2022-05-16T08:38:31Z</time>
      </trkpt>
      <trkpt lat="47.68324" lon="5.01476">
        <ele>432.66</ele>
        <time>2022-05-16T08:38:33Z</time>
      </trkpt>
      <trkpt lat="47.68325" lon="5.0148">
        <ele>432.8</ele>
        <time>2022-05-16T08:38:36Z</time>
      </trkpt>
      <trkpt lat="47.68326" lon="5.01485">
        <ele>432.94</ele>
        <time>2022-05-16T08:38:38Z</time>
      </trkpt>
      <trkpt lat="47.68327" lon="5.0149">
        <ele>433.09</ele>
        <time>2022-05-16T08:38:41Z</time>
      </trkpt>
      <trkpt lat="47.68329" lon="5.01493">
        <ele>433.38</ele>
        <time>2022-05-16T08:38:44Z</time>
      </trkpt>
      <trkpt lat="47.6833" lon="5.01499">
        <ele>433.52</ele>
        <time>2022-05-16T08:38:47Z</time>
      </trkpt>
      <trkpt lat="47.68331" lon="5.01503">
        <ele>433.65</ele>
        <time>2022-05-16T08:38:49Z</time>
      </trkpt>
      <trkpt lat="47.68332" lon="5.01508">
        <ele>433.79</ele>
        <time>2022-05-16T08:38:53Z</time>
      </trkpt>
      <trkpt lat="47.68334" lon="5.01513">
        <ele>434.04</ele>
        <time>2022-05-16T08:38:55Z</time>
      </trkpt>
      <trkpt lat="47.68335" lon="5.01517">
        <ele>434.08</ele>
        <time>2022-05-16T08:38:57Z</time>
      </trkpt>
      <trkpt lat="47.68336" lon="5.01521">
        <ele>434.12</ele>
        <time>2022-05-16T08:38:59Z</time>
      </trkpt>
      <trkpt lat="47.68338" lon="5.01525">
        <ele>434.18</ele>
        <time>2022-05-16T08:39:01Z</time>
      </trkpt>
      <trkpt lat="47.6834" lon="5.01528">
        <ele>434.23</ele>
        <time>2022-05-16T08:39:04Z</time>
      </trkpt>
      <trkpt lat="47.68343" lon="5.01533">
        <ele>434.16</ele>
        <time>2022-05-16T08:39:06Z</time>
      </trkpt>
      <trkpt lat="47.68345" lon="5.01537">
        <ele>434.09</ele>
        <time>2022-05-16T08:39:08Z</time>
      </trkpt>
      <trkpt lat="47.68347" lon="5.01541">
        <ele>434.02</ele>
        <time>2022-05-16T08:39:11Z</time>
      </trkpt>
      <trkpt lat="47.68349" lon="5.01544">
        <ele>433.98</ele>
        <time>2022-05-16T08:39:12Z</time>
      </trkpt>
      <trkpt lat="47.68351" lon="5.01548">
        <ele>433.91</ele>
        <time>2022-05-16T08:39:16Z</time>
      </trkpt>
      <trkpt lat="47.68353" lon="5.01552">
        <ele>433.84</ele>
        <time>2022-05-16T08:39:17Z</time>
      </trkpt>
      <trkpt lat="47.68355" lon="5.01555">
        <ele>433.8</ele>
        <time>2022-05-16T08:39:20Z</time>
      </trkpt>
      <trkpt lat="47.68357" lon="5.01559">
        <ele>433.5</ele>
        <time>2022-05-16T08:39:22Z</time>
      </trkpt>
      <trkpt lat="47.68358" lon="5.01563">
        <ele>433.11</ele>
        <time>2022-05-16T08:39:24Z</time>
      </trkpt>
      <trkpt lat="47.68361" lon="5.01568">
        <ele>432.65</ele>
        <time>2022-05-16T08:39:27Z</time>
      </trkpt>
      <trkpt lat="47.68362" lon="5.01571">
        <ele>432.17</ele>
        <time>2022-05-16T08:39:30Z</time>
      </trkpt>
      <trkpt lat="47.68365" lon="5.01574">
        <ele>431.31</ele>
        <time>2022-05-16T08:39:31Z</time>
      </trkpt>
      <trkpt lat="47.68367" lon="5.01577">
        <ele>430.62</ele>
        <time>2022-05-16T08:39:33Z</time>
      </trkpt>
      <trkpt lat="47.6837" lon="5.01579">
        <ele>429.87</ele>
        <time>2022-05-16T08:39:35Z</time>
      </trkpt>
      <trkpt lat="47.68372" lon="5.01582">
        <ele>429.18</ele>
        <time>2022-05-16T08:39:38Z</time>
      </trkpt>
      <trkpt lat="47.68374" lon="5.01586">
        <ele>428.33</ele>
        <time>2022-05-16T08:39:41Z</time>
      </trkpt>
      <trkpt lat="47.68376" lon="5.01589">
        <ele>427.64</ele>
        <time>2022-05-16T08:39:43Z</time>
      </trkpt>
      <trkpt lat="47.68377" lon="5.01593">
        <ele>427.05</ele>
        <time>2022-05-16T08:39:45Z</time>
      </trkpt>
      <trkpt lat="47.68379" lon="5.01595">
        <ele>426.61</ele>
        <time>2022-05-16T08:39:47Z</time>
      </trkpt>
      <trkpt lat="47.68382" lon="5.01597">
        <ele>426.14</ele>
        <time>2022-05-16T08:39:50Z</time>
      </trkpt>
      <trkpt lat="47.68384" lon="5.01601">
        <ele>425.68</ele>
        <time>2022-05-16T08:39:53Z</time>
      </trkpt>
      <trkpt lat="47.68386" lon="5.01605">
        <ele>425.33</ele>
        <time>2022-05-16T08:39:55Z</time>
      </trkpt>
      <trkpt lat="47.68387" lon="5.01609">
        <ele>425.1</ele>
        <time>2022-05-16T08:39:58Z</time>
      </trkpt>
      <trkpt lat="47.68389" lon="5.01613">
        <ele>424.92</ele>
        <time>2022-05-16T08:40:00Z</time>
      </trkpt>
      <trkpt lat="47.68391" lon="5.01617">
        <ele>424.64</ele>
        <time>2022-05-16T08:40:02Z</time>
      </trkpt>
      <trkpt lat="47.68393" lon="5.0162">
        <ele>424.38</ele>
        <time>2022-05-16T08:40:04Z</time>
      </trkpt>
      <trkpt lat="47.68395" lon="5.01622">
        <ele>424.17</ele>
        <time>2022-05-16T08:40:07Z</time>
      </trkpt>
      <trkpt lat="47.68397" lon="5.01625">
        <ele>423.92</ele>
        <time>2022-05-16T08:40:10Z</time>
      </trkpt>
      <trkpt lat="47.68398" lon="5.0163">
        <ele>423.66</ele>
        <time>2022-05-16T08:40:12Z</time>
      </trkpt>
      <trkpt lat="47.684" lon="5.01634">
        <ele>423.38</ele>
        <time>2022-05-16T08:40:14Z</time>
      </trkpt>
      <trkpt lat="47.68402" lon="5.01636">
        <ele>423.16</ele>
        <time>2022-05-16T08:40:17Z</time>
      </trkpt>
      <trkpt lat="47.68404" lon="5.01639">
        <ele>422.9</ele>
        <time>2022-05-16T08:40:20Z</time>
      </trkpt>
      <trkpt lat="47.68406" lon="5.01642">
        <ele>422.46</ele>
        <time>2022-05-16T08:40:23Z</time>
      </trkpt>
      <trkpt lat="47.68408" lon="5.01645">
        <ele>422.05</ele>
        <time>2022-05-16T08:40:26Z</time>
      </trkpt>
      <trkpt lat="47.6841" lon="5.01648">
        <ele>421.67</ele>
        <time>2022-05-16T08:40:34Z</time>
      </trkpt>
      <trkpt lat="47.68412" lon="5.01652">
        <ele>421.23</ele>
        <time>2022-05-16T08:40:37Z</time>
      </trkpt>
      <trkpt lat="47.68413" lon="5.01656">
        <ele>420.87</ele>
        <time>2022-05-16T08:40:40Z</time>
      </trkpt>
      <trkpt lat="47.68415" lon="5.01659">
        <ele>420.59</ele>
        <time>2022-05-16T08:40:42Z</time>
      </trkpt>
      <trkpt lat="47.68416" lon="5.01663">
        <ele>420.27</ele>
        <time>2022-05-16T08:40:45Z</time>
      </trkpt>
      <trkpt lat="47.68418" lon="5.01666">
        <ele>420.05</ele>
        <time>2022-05-16T08:40:48Z</time>
      </trkpt>
      <trkpt lat="47.6842" lon="5.01669">
        <ele>419.67</ele>
        <time>2022-05-16T08:40:50Z</time>
      </trkpt>
      <trkpt lat="47.68422" lon="5.01672">
        <ele>419.27</ele>
        <time>2022-05-16T08:40:54Z</time>
      </trkpt>
      <trkpt lat="47.68424" lon="5.01675">
        <ele>418.88</ele>
        <time>2022-05-16T08:40:57Z</time>
      </trkpt>
      <trkpt lat="47.68426" lon="5.01678">
        <ele>418.51</ele>
        <time>2022-05-16T08:41:00Z</time>
      </trkpt>
      <trkpt lat="47.68428" lon="5.01682">
        <ele>418.02</ele>
        <time>2022-05-16T08:41:03Z</time>
      </trkpt>
      <trkpt lat="47.6843" lon="5.01685">
        <ele>417.68</ele>
        <time>2022-05-16T08:41:05Z</time>
      </trkpt>
      <trkpt lat="47.68432" lon="5.01688">
        <ele>417.35</ele>
        <time>2022-05-16T08:41:09Z</time>
      </trkpt>
      <trkpt lat="47.68434" lon="5.01691">
        <ele>417.04</ele>
        <time>2022-05-16T08:41:11Z</time>
      </trkpt>
      <trkpt lat="47.68436" lon="5.01694">
        <ele>416.75</ele>
        <time>2022-05-16T08:41:13Z</time>
      </trkpt>
      <trkpt lat="47.68438" lon="5.01698">
        <ele>416.13</ele>
        <time>2022-05-16T08:41:16Z</time>
      </trkpt>
      <trkpt lat="47.6844" lon="5.01701">
        <ele>415.66</ele>
        <time>2022-05-16T08:41:19Z</time>
      </trkpt>
      <trkpt lat="47.68442" lon="5.01704">
        <ele>415.19</ele>
        <time>2022-05-16T08:41:22Z</time>
      </trkpt>
      <trkpt lat="47.68445" lon="5.01706">
        <ele>414.86</ele>
        <time>2022-05-16T08:41:25Z</time>
      </trkpt>
      <trkpt lat="47.68447" lon="5.01708">
        <ele>414.28</ele>
        <time>2022-05-16T08:41:27Z</time>
      </trkpt>
      <trkpt lat="47.6845" lon="5.0171">
        <ele>413.62</ele>
        <time>2022-05-16T08:41:29Z</time>
      </trkpt>
      <trkpt lat="47.68453" lon="5.01713">
        <ele>412.84</ele>
        <time>2022-05-16T08:41:31Z</time>
      </trkpt>
      <trkpt lat="47.68455" lon="5.01716">
        <ele>412.19</ele>
        <time>2022-05-16T08:41:33Z</time>
      </trkpt>
      <trkpt lat="47.68457" lon="5.01719">
        <ele>411.57</ele>
        <time>2022-05-16T08:41:35Z</time>
      </trkpt>
      <trkpt lat="47.68459" lon="5.01723">
        <ele>410.84</ele>
        <time>2022-05-16T08:41:38Z</time>
      </trkpt>
      <trkpt lat="47.68462" lon="5.01727">
        <ele>410.05</ele>
        <time>2022-05-16T08:41:40Z</time>
      </trkpt>
      <trkpt lat="47.68464" lon="5.0173">
        <ele>409.47</ele>
        <time>2022-05-16T08:41:41Z</time>
      </trkpt>
      <trkpt lat="47.68466" lon="5.01734">
        <ele>408.75</ele>
        <time>2022-05-16T08:41:43Z</time>
      </trkpt>
      <trkpt lat="47.68468" lon="5.01738">
        <ele>408.03</ele>
        <time>2022-05-16T08:41:45Z</time>
      </trkpt>
      <trkpt lat="47.68471" lon="5.01742">
        <ele>407.24</ele>
        <time>2022-05-16T08:41:48Z</time>
      </trkpt>
      <trkpt lat="47.68473" lon="5.01747">
        <ele>406.37</ele>
        <time>2022-05-16T08:41:50Z</time>
      </trkpt>
      <trkpt lat="47.68475" lon="5.01751">
        <ele>405.7</ele>
        <time>2022-05-16T08:41:52Z</time>
      </trkpt>
      <trkpt lat="47.68478" lon="5.01757">
        <ele>404.93</ele>
        <time>2022-05-16T08:41:54Z</time>
      </trkpt>
      <trkpt lat="47.6848" lon="5.0176">
        <ele>404.56</ele>
        <time>2022-05-16T08:41:56Z</time>
      </trkpt>
      <trkpt lat="47.68482" lon="5.01764">
        <ele>404.14</ele>
        <time>2022-05-16T08:41:58Z</time>
      </trkpt>
      <trkpt lat="47.68484" lon="5.01767">
        <ele>403.83</ele>
        <time>2022-05-16T08:41:59Z</time>
      </trkpt>
      <trkpt lat="47.68487" lon="5.0177">
        <ele>403.54</ele>
        <time>2022-05-16T08:42:02Z</time>
      </trkpt>
      <trkpt lat="47.68489" lon="5.01773">
        <ele>403.31</ele>
        <time>2022-05-16T08:42:04Z</time>
      </trkpt>
      <trkpt lat="47.68492" lon="5.01776">
        <ele>403.1</ele>
        <time>2022-05-16T08:42:05Z</time>
      </trkpt>
      <trkpt lat="47.68493" lon="5.0178">
        <ele>403.06</ele>
        <time>2022-05-16T08:42:07Z</time>
      </trkpt>
      <trkpt lat="47.68496" lon="5.01783">
        <ele>403.16</ele>
        <time>2022-05-16T08:42:10Z</time>
      </trkpt>
      <trkpt lat="47.68498" lon="5.01786">
        <ele>403.27</ele>
        <time>2022-05-16T08:42:13Z</time>
      </trkpt>
      <trkpt lat="47.685" lon="5.0179">
        <ele>403.44</ele>
        <time>2022-05-16T08:42:16Z</time>
      </trkpt>
      <trkpt lat="47.68503" lon="5.01793">
        <ele>403.81</ele>
        <time>2022-05-16T08:42:19Z</time>
      </trkpt>
      <trkpt lat="47.68505" lon="5.01795">
        <ele>404.05</ele>
        <time>2022-05-16T08:42:21Z</time>
      </trkpt>
      <trkpt lat="47.68507" lon="5.01799">
        <ele>404.33</ele>
        <time>2022-05-16T08:42:24Z</time>
      </trkpt>
      <trkpt lat="47.68509" lon="5.01802">
        <ele>404.56</ele>
        <time>2022-05-16T08:42:26Z</time>
      </trkpt>
      <trkpt lat="47.68512" lon="5.01805">
        <ele>404.85</ele>
        <time>2022-05-16T08:42:29Z</time>
      </trkpt>
      <trkpt lat="47.68514" lon="5.01808">
        <ele>405.4</ele>
        <time>2022-05-16T08:42:32Z</time>
      </trkpt>
      <trkpt lat="47.68516" lon="5.01812">
        <ele>406.21</ele>
        <time>2022-05-16T08:42:35Z</time>
      </trkpt>
      <trkpt lat="47.68518" lon="5.01815">
        <ele>406.88</ele>
        <time>2022-05-16T08:42:37Z</time>
      </trkpt>
      <trkpt lat="47.6852" lon="5.01818">
        <ele>407.55</ele>
        <time>2022-05-16T08:42:40Z</time>
      </trkpt>
      <trkpt lat="47.68522" lon="5.01822">
        <ele>408.42</ele>
        <time>2022-05-16T08:42:43Z</time>
      </trkpt>
      <trkpt lat="47.68523" lon="5.01827">
        <ele>409.38</ele>
        <time>2022-05-16T08:42:46Z</time>
      </trkpt>
      <trkpt lat="47.68524" lon="5.01831">
        <ele>410.18</ele>
        <time>2022-05-16T08:42:49Z</time>
      </trkpt>
      <trkpt lat="47.68525" lon="5.01837">
        <ele>410.86</ele>
        <time>2022-05-16T08:42:52Z</time>
      </trkpt>
      <trkpt lat="47.68525" lon="5.01841">
        <ele>411.03</ele>
        <time>2022-05-16T08:42:55Z</time>
      </trkpt>
      <trkpt lat="47.68526" lon="5.01846">
        <ele>411.32</ele>
        <time>2022-05-16T08:42:58Z</time>
      </trkpt>
      <trkpt lat="47.68527" lon="5.01851">
        <ele>411.59</ele>
        <time>2022-05-16T08:43:01Z</time>
      </trkpt>
      <trkpt lat="47.68528" lon="5.01855">
        <ele>411.8</ele>
        <time>2022-05-16T08:43:04Z</time>
      </trkpt>
      <trkpt lat="47.68529" lon="5.0186">
        <ele>412.09</ele>
        <time>2022-05-16T08:43:07Z</time>
      </trkpt>
      <trkpt lat="47.68529" lon="5.01864">
        <ele>412.34</ele>
        <time>2022-05-16T08:43:10Z</time>
      </trkpt>
      <trkpt lat="47.68529" lon="5.01869">
        <ele>412.69</ele>
        <time>2022-05-16T08:43:13Z</time>
      </trkpt>
      <trkpt lat="47.68528" lon="5.01874">
        <ele>412.95</ele>
        <time>2022-05-16T08:43:15Z</time>
      </trkpt>
      <trkpt lat="47.68529" lon="5.01878">
        <ele>413.32</ele>
        <time>2022-05-16T08:43:18Z</time>
      </trkpt>
      <trkpt lat="47.68531" lon="5.01882">
        <ele>413.76</ele>
        <time>2022-05-16T08:43:22Z</time>
      </trkpt>
      <trkpt lat="47.68531" lon="5.01886">
        <ele>414.04</ele>
        <time>2022-05-16T08:43:26Z</time>
      </trkpt>
      <trkpt lat="47.68532" lon="5.0189">
        <ele>414.34</ele>
        <time>2022-05-16T08:43:29Z</time>
      </trkpt>
      <trkpt lat="47.68534" lon="5.01893">
        <ele>414.6</ele>
        <time>2022-05-16T08:43:32Z</time>
      </trkpt>
      <trkpt lat="47.68537" lon="5.01896">
        <ele>414.92</ele>
        <time>2022-05-16T08:43:34Z</time>
      </trkpt>
      <trkpt lat="47.68539" lon="5.01899">
        <ele>415.17</ele>
        <time>2022-05-16T08:43:36Z</time>
      </trkpt>
      <trkpt lat="47.68541" lon="5.01901">
        <ele>415.39</ele>
        <time>2022-05-16T08:43:39Z</time>
      </trkpt>
      <trkpt lat="47.68544" lon="5.01904">
        <ele>415.71</ele>
        <time>2022-05-16T08:43:42Z</time>
      </trkpt>
      <trkpt lat="47.68546" lon="5.01906">
        <ele>415.93</ele>
        <time>2022-05-16T08:43:44Z</time>
      </trkpt>
      <trkpt lat="47.68549" lon="5.01907">
        <ele>416.18</ele>
        <time>2022-05-16T08:43:47Z</time>
      </trkpt>
      <trkpt lat="47.68552" lon="5.01908">
        <ele>416.43</ele>
        <time>2022-05-16T08:43:50Z</time>
      </trkpt>
      <trkpt lat="47.68556" lon="5.0191">
        <ele>416.74</ele>
        <time>2022-05-16T08:43:53Z</time>
      </trkpt>
      <trkpt lat="47.68559" lon="5.01912">
        <ele>416.65</ele>
        <time>2022-05-16T08:43:57Z</time>
      </trkpt>
      <trkpt lat="47.68562" lon="5.01915">
        <ele>416.52</ele>
        <time>2022-05-16T08:43:58Z</time>
      </trkpt>
      <trkpt lat="47.68564" lon="5.01918">
        <ele>416.16</ele>
        <time>2022-05-16T08:44:02Z</time>
      </trkpt>
      <trkpt lat="47.68566" lon="5.01921">
        <ele>415.55</ele>
        <time>2022-05-16T08:44:04Z</time>
      </trkpt>
      <trkpt lat="47.68568" lon="5.01924">
        <ele>414.99</ele>
        <time>2022-05-16T08:44:08Z</time>
      </trkpt>
      <trkpt lat="47.6857" lon="5.01926">
        <ele>414.64</ele>
        <time>2022-05-16T08:44:11Z</time>
      </trkpt>
      <trkpt lat="47.68572" lon="5.0193">
        <ele>414.07</ele>
        <time>2022-05-16T08:44:13Z</time>
      </trkpt>
      <trkpt lat="47.68574" lon="5.01933">
        <ele>413.71</ele>
        <time>2022-05-16T08:44:15Z</time>
      </trkpt>
      <trkpt lat="47.68576" lon="5.01938">
        <ele>413.18</ele>
        <time>2022-05-16T08:44:18Z</time>
      </trkpt>
      <trkpt lat="47.68577" lon="5.01942">
        <ele>412.8</ele>
        <time>2022-05-16T08:44:20Z</time>
      </trkpt>
      <trkpt lat="47.68579" lon="5.01946">
        <ele>412.53</ele>
        <time>2022-05-16T08:44:24Z</time>
      </trkpt>
      <trkpt lat="47.68581" lon="5.0195">
        <ele>412.25</ele>
        <time>2022-05-16T08:44:27Z</time>
      </trkpt>
      <trkpt lat="47.68582" lon="5.01954">
        <ele>411.89</ele>
        <time>2022-05-16T08:44:29Z</time>
      </trkpt>
      <trkpt lat="47.68583" lon="5.01958">
        <ele>411.52</ele>
        <time>2022-05-16T08:44:31Z</time>
      </trkpt>
      <trkpt lat="47.68584" lon="5.01962">
        <ele>411.13</ele>
        <time>2022-05-16T08:44:34Z</time>
      </trkpt>
      <trkpt lat="47.68585" lon="5.01966">
        <ele>410.78</ele>
        <time>2022-05-16T08:44:36Z</time>
      </trkpt>
      <trkpt lat="47.68586" lon="5.01971">
        <ele>410.4</ele>
        <time>2022-05-16T08:44:38Z</time>
      </trkpt>
      <trkpt lat="47.68586" lon="5.01976">
        <ele>410.17</ele>
        <time>2022-05-16T08:44:40Z</time>
      </trkpt>
      <trkpt lat="47.68587" lon="5.0198">
        <ele>410.15</ele>
        <time>2022-05-16T08:44:42Z</time>
      </trkpt>
      <trkpt lat="47.68587" lon="5.01984">
        <ele>410.03</ele>
        <time>2022-05-16T08:44:44Z</time>
      </trkpt>
      <trkpt lat="47.68588" lon="5.01989">
        <ele>410</ele>
        <time>2022-05-16T08:44:46Z</time>
      </trkpt>
      <trkpt lat="47.68589" lon="5.01994">
        <ele>409.99</ele>
        <time>2022-05-16T08:44:48Z</time>
      </trkpt>
      <trkpt lat="47.68589" lon="5.01999">
        <ele>409.84</ele>
        <time>2022-05-16T08:44:50Z</time>
      </trkpt>
      <trkpt lat="47.68589" lon="5.02003">
        <ele>409.73</ele>
        <time>2022-05-16T08:44:52Z</time>
      </trkpt>
      <trkpt lat="47.68589" lon="5.02007">
        <ele>409.62</ele>
        <time>2022-05-16T08:44:54Z</time>
      </trkpt>
      <trkpt lat="47.68589" lon="5.02012">
        <ele>409.47</ele>
        <time>2022-05-16T08:44:56Z</time>
      </trkpt>
      <trkpt lat="47.68589" lon="5.02017">
        <ele>409.33</ele>
        <time>2022-05-16T08:44:59Z</time>
      </trkpt>
      <trkpt lat="47.6859" lon="5.02022">
        <ele>409.36</ele>
        <time>2022-05-16T08:45:01Z</time>
      </trkpt>
      <trkpt lat="47.6859" lon="5.02026">
        <ele>409.25</ele>
        <time>2022-05-16T08:45:03Z</time>
      </trkpt>
      <trkpt lat="47.68591" lon="5.02033">
        <ele>409.76</ele>
        <time>2022-05-16T08:45:07Z</time>
      </trkpt>
      <trkpt lat="47.68591" lon="5.02038">
        <ele>410.12</ele>
        <time>2022-05-16T08:45:09Z</time>
      </trkpt>
      <trkpt lat="47.68592" lon="5.02043">
        <ele>410.66</ele>
        <time>2022-05-16T08:45:11Z</time>
      </trkpt>
      <trkpt lat="47.68593" lon="5.02048">
        <ele>411.2</ele>
        <time>2022-05-16T08:45:14Z</time>
      </trkpt>
      <trkpt lat="47.68594" lon="5.02052">
        <ele>411.66</ele>
        <time>2022-05-16T08:45:15Z</time>
      </trkpt>
      <trkpt lat="47.68596" lon="5.02057">
        <ele>412.3</ele>
        <time>2022-05-16T08:45:17Z</time>
      </trkpt>
      <trkpt lat="47.68597" lon="5.02061">
        <ele>412.56</ele>
        <time>2022-05-16T08:45:19Z</time>
      </trkpt>
      <trkpt lat="47.68598" lon="5.02066">
        <ele>412.84</ele>
        <time>2022-05-16T08:45:21Z</time>
      </trkpt>
      <trkpt lat="47.68599" lon="5.02071">
        <ele>413.13</ele>
        <time>2022-05-16T08:45:23Z</time>
      </trkpt>
      <trkpt lat="47.686" lon="5.02075">
        <ele>413.42</ele>
        <time>2022-05-16T08:45:25Z</time>
      </trkpt>
      <trkpt lat="47.68601" lon="5.02079">
        <ele>413.72</ele>
        <time>2022-05-16T08:45:28Z</time>
      </trkpt>
      <trkpt lat="47.68602" lon="5.02083">
        <ele>414.02</ele>
        <time>2022-05-16T08:45:30Z</time>
      </trkpt>
      <trkpt lat="47.68603" lon="5.02087">
        <ele>414.42</ele>
        <time>2022-05-16T08:45:32Z</time>
      </trkpt>
      <trkpt lat="47.68604" lon="5.02091">
        <ele>414.81</ele>
        <time>2022-05-16T08:45:34Z</time>
      </trkpt>
      <trkpt lat="47.68605" lon="5.02095">
        <ele>415.19</ele>
        <time>2022-05-16T08:45:36Z</time>
      </trkpt>
      <trkpt lat="47.68607" lon="5.02099">
        <ele>415.76</ele>
        <time>2022-05-16T08:45:38Z</time>
      </trkpt>
      <trkpt lat="47.68608" lon="5.02103">
        <ele>416.12</ele>
        <time>2022-05-16T08:45:40Z</time>
      </trkpt>
      <trkpt lat="47.68608" lon="5.02107">
        <ele>416.28</ele>
        <time>2022-05-16T08:45:42Z</time>
      </trkpt>
      <trkpt lat="47.68609" lon="5.02112">
        <ele>416.65</ele>
        <time>2022-05-16T08:45:45Z</time>
      </trkpt>
      <trkpt lat="47.6861" lon="5.02117">
        <ele>417.01</ele>
        <time>2022-05-16T08:45:46Z</time>
      </trkpt>
      <trkpt lat="47.68611" lon="5.02121">
        <ele>417.34</ele>
        <time>2022-05-16T08:45:48Z</time>
      </trkpt>
      <trkpt lat="47.68613" lon="5.02125">
        <ele>417.36</ele>
        <time>2022-05-16T08:45:51Z</time>
      </trkpt>
      <trkpt lat="47.68614" lon="5.02129">
        <ele>417.41</ele>
        <time>2022-05-16T08:45:52Z</time>
      </trkpt>
      <trkpt lat="47.68615" lon="5.02133">
        <ele>417.43</ele>
        <time>2022-05-16T08:45:54Z</time>
      </trkpt>
      <trkpt lat="47.68617" lon="5.02138">
        <ele>417.35</ele>
        <time>2022-05-16T08:45:57Z</time>
      </trkpt>
      <trkpt lat="47.68618" lon="5.02143">
        <ele>417.29</ele>
        <time>2022-05-16T08:45:59Z</time>
      </trkpt>
      <trkpt lat="47.68619" lon="5.02147">
        <ele>417.23</ele>
        <time>2022-05-16T08:46:02Z</time>
      </trkpt>
      <trkpt lat="47.68621" lon="5.02153">
        <ele>417.11</ele>
        <time>2022-05-16T08:46:05Z</time>
      </trkpt>
      <trkpt lat="47.68623" lon="5.02158">
        <ele>417.01</ele>
        <time>2022-05-16T08:46:07Z</time>
      </trkpt>
      <trkpt lat="47.68624" lon="5.02162">
        <ele>416.99</ele>
        <time>2022-05-16T08:46:09Z</time>
      </trkpt>
      <trkpt lat="47.68625" lon="5.02167">
        <ele>417.02</ele>
        <time>2022-05-16T08:46:12Z</time>
      </trkpt>
      <trkpt lat="47.68627" lon="5.02171">
        <ele>417.1</ele>
        <time>2022-05-16T08:46:14Z</time>
      </trkpt>
      <trkpt lat="47.68628" lon="5.02176">
        <ele>417.32</ele>
        <time>2022-05-16T08:46:16Z</time>
      </trkpt>
      <trkpt lat="47.6863" lon="5.0218">
        <ele>417.45</ele>
        <time>2022-05-16T08:46:18Z</time>
      </trkpt>
      <trkpt lat="47.68631" lon="5.02184">
        <ele>417.64</ele>
        <time>2022-05-16T08:46:21Z</time>
      </trkpt>
      <trkpt lat="47.68633" lon="5.02189">
        <ele>417.86</ele>
        <time>2022-05-16T08:46:24Z</time>
      </trkpt>
      <trkpt lat="47.68634" lon="5.02193">
        <ele>418.08</ele>
        <time>2022-05-16T08:46:26Z</time>
      </trkpt>
      <trkpt lat="47.68636" lon="5.02197">
        <ele>418.2</ele>
        <time>2022-05-16T08:46:29Z</time>
      </trkpt>
      <trkpt lat="47.68638" lon="5.02201">
        <ele>418.27</ele>
        <time>2022-05-16T08:46:31Z</time>
      </trkpt>
      <trkpt lat="47.6864" lon="5.02205">
        <ele>418.3</ele>
        <time>2022-05-16T08:46:34Z</time>
      </trkpt>
      <trkpt lat="47.68642" lon="5.02209">
        <ele>418.3</ele>
        <time>2022-05-16T08:46:36Z</time>
      </trkpt>
      <trkpt lat="47.68644" lon="5.02213">
        <ele>418.3</ele>
        <time>2022-05-16T08:46:38Z</time>
      </trkpt>
      <trkpt lat="47.68646" lon="5.02217">
        <ele>418.3</ele>
        <time>2022-05-16T08:46:41Z</time>
      </trkpt>
      <trkpt lat="47.68648" lon="5.0222">
        <ele>418.26</ele>
        <time>2022-05-16T08:46:43Z</time>
      </trkpt>
      <trkpt lat="47.6865" lon="5.02224">
        <ele>418.37</ele>
        <time>2022-05-16T08:46:45Z</time>
      </trkpt>
      <trkpt lat="47.68652" lon="5.02228">
        <ele>418.58</ele>
        <time>2022-05-16T08:46:47Z</time>
      </trkpt>
      <trkpt lat="47.68654" lon="5.02233">
        <ele>418.86</ele>
        <time>2022-05-16T08:46:49Z</time>
      </trkpt>
      <trkpt lat="47.68656" lon="5.02236">
        <ele>418.95</ele>
        <time>2022-05-16T08:46:52Z</time>
      </trkpt>
      <trkpt lat="47.6866" lon="5.0224">
        <ele>418.91</ele>
        <time>2022-05-16T08:46:55Z</time>
      </trkpt>
      <trkpt lat="47.68662" lon="5.02243">
        <ele>418.96</ele>
        <time>2022-05-16T08:46:58Z</time>
      </trkpt>
      <trkpt lat="47.68665" lon="5.02247">
        <ele>418.96</ele>
        <time>2022-05-16T08:47:00Z</time>
      </trkpt>
      <trkpt lat="47.68669" lon="5.0225">
        <ele>418.66</ele>
        <time>2022-05-16T08:47:04Z</time>
      </trkpt>
      <trkpt lat="47.68673" lon="5.02254">
        <ele>418.23</ele>
        <time>2022-05-16T08:47:06Z</time>
      </trkpt>
      <trkpt lat="47.68676" lon="5.02257">
        <ele>417.91</ele>
        <time>2022-05-16T08:47:08Z</time>
      </trkpt>
      <trkpt lat="47.68678" lon="5.0226">
        <ele>417.73</ele>
        <time>2022-05-16T08:47:10Z</time>
      </trkpt>
      <trkpt lat="47.68681" lon="5.02262">
        <ele>417.37</ele>
        <time>2022-05-16T08:47:13Z</time>
      </trkpt>
      <trkpt lat="47.68684" lon="5.02265">
        <ele>417.04</ele>
        <time>2022-05-16T08:47:15Z</time>
      </trkpt>
      <trkpt lat="47.68687" lon="5.02267">
        <ele>416.68</ele>
        <time>2022-05-16T08:47:17Z</time>
      </trkpt>
      <trkpt lat="47.6869" lon="5.0227">
        <ele>416.36</ele>
        <time>2022-05-16T08:47:20Z</time>
      </trkpt>
      <trkpt lat="47.68693" lon="5.02273">
        <ele>416.04</ele>
        <time>2022-05-16T08:47:23Z</time>
      </trkpt>
      <trkpt lat="47.68696" lon="5.02276">
        <ele>415.87</ele>
        <time>2022-05-16T08:47:26Z</time>
      </trkpt>
      <trkpt lat="47.687" lon="5.02279">
        <ele>415.78</ele>
        <time>2022-05-16T08:47:28Z</time>
      </trkpt>
      <trkpt lat="47.68703" lon="5.02282">
        <ele>415.76</ele>
        <time>2022-05-16T08:47:30Z</time>
      </trkpt>
      <trkpt lat="47.68706" lon="5.02284">
        <ele>415.88</ele>
        <time>2022-05-16T08:47:33Z</time>
      </trkpt>
      <trkpt lat="47.68709" lon="5.02287">
        <ele>416.2</ele>
        <time>2022-05-16T08:47:35Z</time>
      </trkpt>
      <trkpt lat="47.68712" lon="5.0229">
        <ele>416.71</ele>
        <time>2022-05-16T08:47:38Z</time>
      </trkpt>
      <trkpt lat="47.68715" lon="5.02293">
        <ele>417.41</ele>
        <time>2022-05-16T08:47:40Z</time>
      </trkpt>
      <trkpt lat="47.68718" lon="5.02296">
        <ele>418.29</ele>
        <time>2022-05-16T08:47:43Z</time>
      </trkpt>
      <trkpt lat="47.68721" lon="5.02299">
        <ele>419.36</ele>
        <time>2022-05-16T08:47:46Z</time>
      </trkpt>
      <trkpt lat="47.68724" lon="5.02302">
        <ele>420.34</ele>
        <time>2022-05-16T08:47:48Z</time>
      </trkpt>
      <trkpt lat="47.68728" lon="5.02305">
        <ele>421.29</ele>
        <time>2022-05-16T08:47:50Z</time>
      </trkpt>
      <trkpt lat="47.68731" lon="5.02309">
        <ele>421.59</ele>
        <time>2022-05-16T08:47:53Z</time>
      </trkpt>
      <trkpt lat="47.68735" lon="5.02312">
        <ele>421.9</ele>
        <time>2022-05-16T08:47:56Z</time>
      </trkpt>
      <trkpt lat="47.68738" lon="5.02316">
        <ele>422.19</ele>
        <time>2022-05-16T08:48:00Z</time>
      </trkpt>
      <trkpt lat="47.68741" lon="5.0232">
        <ele>422.54</ele>
        <time>2022-05-16T08:48:02Z</time>
      </trkpt>
      <trkpt lat="47.68744" lon="5.02323">
        <ele>422.92</ele>
        <time>2022-05-16T08:48:05Z</time>
      </trkpt>
      <trkpt lat="47.68747" lon="5.02326">
        <ele>423.36</ele>
        <time>2022-05-16T08:48:07Z</time>
      </trkpt>
      <trkpt lat="47.6875" lon="5.02329">
        <ele>423.84</ele>
        <time>2022-05-16T08:48:09Z</time>
      </trkpt>
      <trkpt lat="47.68753" lon="5.02332">
        <ele>423.53</ele>
        <time>2022-05-16T08:48:12Z</time>
      </trkpt>
      <trkpt lat="47.68756" lon="5.02335">
        <ele>423.22</ele>
        <time>2022-05-16T08:48:14Z</time>
      </trkpt>
      <trkpt lat="47.68759" lon="5.02339">
        <ele>423.04</ele>
        <time>2022-05-16T08:48:17Z</time>
      </trkpt>
      <trkpt lat="47.68762" lon="5.02342">
        <ele>422.85</ele>
        <time>2022-05-16T08:48:20Z</time>
      </trkpt>
      <trkpt lat="47.68765" lon="5.02345">
        <ele>422.71</ele>
        <time>2022-05-16T08:48:22Z</time>
      </trkpt>
      <trkpt lat="47.68768" lon="5.02348">
        <ele>422.62</ele>
        <time>2022-05-16T08:48:24Z</time>
      </trkpt>
      <trkpt lat="47.68771" lon="5.02351">
        <ele>422.57</ele>
        <time>2022-05-16T08:48:27Z</time>
      </trkpt>
      <trkpt lat="47.68774" lon="5.02355">
        <ele>422.67</ele>
        <time>2022-05-16T08:48:30Z</time>
      </trkpt>
      <trkpt lat="47.68777" lon="5.02358">
        <ele>422.73</ele>
        <time>2022-05-16T08:48:32Z</time>
      </trkpt>
      <trkpt lat="47.6878" lon="5.02362">
        <ele>423.18</ele>
        <time>2022-05-16T08:48:34Z</time>
      </trkpt>
      <trkpt lat="47.68782" lon="5.02365">
        <ele>423.57</ele>
        <time>2022-05-16T08:48:37Z</time>
      </trkpt>
      <trkpt lat="47.68785" lon="5.02369">
        <ele>424.11</ele>
        <time>2022-05-16T08:48:39Z</time>
      </trkpt>
      <trkpt lat="47.68788" lon="5.02373">
        <ele>424.65</ele>
        <time>2022-05-16T08:48:41Z</time>
      </trkpt>
      <trkpt lat="47.6879" lon="5.02377">
        <ele>425.16</ele>
        <time>2022-05-16T08:48:44Z</time>
      </trkpt>
      <trkpt lat="47.68792" lon="5.02381">
        <ele>425.66</ele>
        <time>2022-05-16T08:48:46Z</time>
      </trkpt>
      <trkpt lat="47.68794" lon="5.02385">
        <ele>426.16</ele>
        <time>2022-05-16T08:48:48Z</time>
      </trkpt>
      <trkpt lat="47.68796" lon="5.02391">
        <ele>426.93</ele>
        <time>2022-05-16T08:48:51Z</time>
      </trkpt>
      <trkpt lat="47.68798" lon="5.02395">
        <ele>427.55</ele>
        <time>2022-05-16T08:48:54Z</time>
      </trkpt>
      <trkpt lat="47.68799" lon="5.02399">
        <ele>428.13</ele>
        <time>2022-05-16T08:48:56Z</time>
      </trkpt>
      <trkpt lat="47.68801" lon="5.02405">
        <ele>429.06</ele>
        <time>2022-05-16T08:48:59Z</time>
      </trkpt>
      <trkpt lat="47.68803" lon="5.0241">
        <ele>429.88</ele>
        <time>2022-05-16T08:49:01Z</time>
      </trkpt>
      <trkpt lat="47.68805" lon="5.02414">
        <ele>430.58</ele>
        <time>2022-05-16T08:49:03Z</time>
      </trkpt>
      <trkpt lat="47.68806" lon="5.02418">
        <ele>431.19</ele>
        <time>2022-05-16T08:49:05Z</time>
      </trkpt>
      <trkpt lat="47.68808" lon="5.02422">
        <ele>431.79</ele>
        <time>2022-05-16T08:49:08Z</time>
      </trkpt>
      <trkpt lat="47.68809" lon="5.02427">
        <ele>432.35</ele>
        <time>2022-05-16T08:49:10Z</time>
      </trkpt>
      <trkpt lat="47.68811" lon="5.02432">
        <ele>432.92</ele>
        <time>2022-05-16T08:49:12Z</time>
      </trkpt>
      <trkpt lat="47.68812" lon="5.02437">
        <ele>433.38</ele>
        <time>2022-05-16T08:49:15Z</time>
      </trkpt>
      <trkpt lat="47.68814" lon="5.02442">
        <ele>433.82</ele>
        <time>2022-05-16T08:49:18Z</time>
      </trkpt>
      <trkpt lat="47.68816" lon="5.02446">
        <ele>434.18</ele>
        <time>2022-05-16T08:49:20Z</time>
      </trkpt>
      <trkpt lat="47.68818" lon="5.02451">
        <ele>434.73</ele>
        <time>2022-05-16T08:49:23Z</time>
      </trkpt>
      <trkpt lat="47.6882" lon="5.02456">
        <ele>435.23</ele>
        <time>2022-05-16T08:49:26Z</time>
      </trkpt>
      <trkpt lat="47.68822" lon="5.0246">
        <ele>435.58</ele>
        <time>2022-05-16T08:49:28Z</time>
      </trkpt>
      <trkpt lat="47.68824" lon="5.02465">
        <ele>435.98</ele>
        <time>2022-05-16T08:49:31Z</time>
      </trkpt>
      <trkpt lat="47.68826" lon="5.02469">
        <ele>436.23</ele>
        <time>2022-05-16T08:49:33Z</time>
      </trkpt>
      <trkpt lat="47.68827" lon="5.02475">
        <ele>436.68</ele>
        <time>2022-05-16T08:49:35Z</time>
      </trkpt>
      <trkpt lat="47.6883" lon="5.0248">
        <ele>436.83</ele>
        <time>2022-05-16T08:49:38Z</time>
      </trkpt>
      <trkpt lat="47.68832" lon="5.02485">
        <ele>437.04</ele>
        <time>2022-05-16T08:49:42Z</time>
      </trkpt>
      <trkpt lat="47.68834" lon="5.0249">
        <ele>437.36</ele>
        <time>2022-05-16T08:49:44Z</time>
      </trkpt>
      <trkpt lat="47.68836" lon="5.02494">
        <ele>437.88</ele>
        <time>2022-05-16T08:49:47Z</time>
      </trkpt>
      <trkpt lat="47.68838" lon="5.02497">
        <ele>438.31</ele>
        <time>2022-05-16T08:49:48Z</time>
      </trkpt>
      <trkpt lat="47.6884" lon="5.025">
        <ele>438.72</ele>
        <time>2022-05-16T08:49:50Z</time>
      </trkpt>
      <trkpt lat="47.68841" lon="5.02504">
        <ele>439.12</ele>
        <time>2022-05-16T08:49:52Z</time>
      </trkpt>
      <trkpt lat="47.68843" lon="5.02508">
        <ele>439.62</ele>
        <time>2022-05-16T08:49:55Z</time>
      </trkpt>
      <trkpt lat="47.68844" lon="5.02511">
        <ele>439.94</ele>
        <time>2022-05-16T08:49:57Z</time>
      </trkpt>
      <trkpt lat="47.68846" lon="5.02515">
        <ele>440.45</ele>
        <time>2022-05-16T08:49:59Z</time>
      </trkpt>
      <trkpt lat="47.68848" lon="5.02519">
        <ele>440.95</ele>
        <time>2022-05-16T08:50:02Z</time>
      </trkpt>
      <trkpt lat="47.6885" lon="5.02522">
        <ele>441.38</ele>
        <time>2022-05-16T08:50:04Z</time>
      </trkpt>
      <trkpt lat="47.68852" lon="5.02526">
        <ele>441.89</ele>
        <time>2022-05-16T08:50:07Z</time>
      </trkpt>
      <trkpt lat="47.68854" lon="5.02529">
        <ele>442.34</ele>
        <time>2022-05-16T08:50:09Z</time>
      </trkpt>
      <trkpt lat="47.68856" lon="5.02533">
        <ele>442.94</ele>
        <time>2022-05-16T08:50:12Z</time>
      </trkpt>
      <trkpt lat="47.68857" lon="5.02537">
        <ele>443.45</ele>
        <time>2022-05-16T08:50:15Z</time>
      </trkpt>
      <trkpt lat="47.68859" lon="5.02542">
        <ele>444.23</ele>
        <time>2022-05-16T08:50:18Z</time>
      </trkpt>
      <trkpt lat="47.6886" lon="5.02546">
        <ele>444.8</ele>
        <time>2022-05-16T08:50:21Z</time>
      </trkpt>
      <trkpt lat="47.68862" lon="5.0255">
        <ele>445.64</ele>
        <time>2022-05-16T08:50:24Z</time>
      </trkpt>
      <trkpt lat="47.68864" lon="5.02553">
        <ele>446.48</ele>
        <time>2022-05-16T08:50:26Z</time>
      </trkpt>
      <trkpt lat="47.68865" lon="5.02557">
        <ele>446.88</ele>
        <time>2022-05-16T08:50:28Z</time>
      </trkpt>
      <trkpt lat="47.68867" lon="5.02561">
        <ele>447.09</ele>
        <time>2022-05-16T08:50:31Z</time>
      </trkpt>
      <trkpt lat="47.6887" lon="5.02564">
        <ele>447.63</ele>
        <time>2022-05-16T08:50:33Z</time>
      </trkpt>
      <trkpt lat="47.68872" lon="5.02568">
        <ele>447.85</ele>
        <time>2022-05-16T08:50:35Z</time>
      </trkpt>
      <trkpt lat="47.68874" lon="5.0257">
        <ele>448.21</ele>
        <time>2022-05-16T08:50:37Z</time>
      </trkpt>
      <trkpt lat="47.68877" lon="5.02573">
        <ele>448.75</ele>
        <time>2022-05-16T08:50:39Z</time>
      </trkpt>
      <trkpt lat="47.68879" lon="5.02577">
        <ele>448.96</ele>
        <time>2022-05-16T08:50:42Z</time>
      </trkpt>
      <trkpt lat="47.68882" lon="5.0258">
        <ele>449.5</ele>
        <time>2022-05-16T08:50:45Z</time>
      </trkpt>
      <trkpt lat="47.68884" lon="5.02583">
        <ele>449.79</ele>
        <time>2022-05-16T08:50:48Z</time>
      </trkpt>
      <trkpt lat="47.68886" lon="5.02586">
        <ele>449.73</ele>
        <time>2022-05-16T08:50:49Z</time>
      </trkpt>
      <trkpt lat="47.68888" lon="5.0259">
        <ele>449.36</ele>
        <time>2022-05-16T08:50:52Z</time>
      </trkpt>
      <trkpt lat="47.6889" lon="5.02593">
        <ele>449.06</ele>
        <time>2022-05-16T08:50:55Z</time>
      </trkpt>
      <trkpt lat="47.68892" lon="5.02596">
        <ele>448.74</ele>
        <time>2022-05-16T08:50:57Z</time>
      </trkpt>
      <trkpt lat="47.68895" lon="5.02598">
        <ele>448.85</ele>
        <time>2022-05-16T08:51:01Z</time>
      </trkpt>
      <trkpt lat="47.68897" lon="5.02602">
        <ele>448.53</ele>
        <time>2022-05-16T08:51:15Z</time>
      </trkpt>
      <trkpt lat="47.68898" lon="5.02606">
        <ele>448.1</ele>
        <time>2022-05-16T08:51:23Z</time>
      </trkpt>
      <trkpt lat="47.68898" lon="5.0261">
        <ele>447.47</ele>
        <time>2022-05-16T08:53:33Z</time>
      </trkpt>
      <trkpt lat="47.689" lon="5.02614">
        <ele>447.53</ele>
        <time>2022-05-16T08:53:37Z</time>
      </trkpt>
      <trkpt lat="47.68902" lon="5.02617">
        <ele>447.77</ele>
        <time>2022-05-16T08:53:40Z</time>
      </trkpt>
      <trkpt lat="47.68904" lon="5.02621">
        <ele>447.93</ele>
        <time>2022-05-16T08:53:44Z</time>
      </trkpt>
      <trkpt lat="47.68906" lon="5.02625">
        <ele>448.12</ele>
        <time>2022-05-16T08:53:48Z</time>
      </trkpt>
      <trkpt lat="47.68907" lon="5.02628">
        <ele>448.14</ele>
        <time>2022-05-16T08:53:50Z</time>
      </trkpt>
      <trkpt lat="47.6891" lon="5.02631">
        <ele>448.72</ele>
        <time>2022-05-16T08:53:53Z</time>
      </trkpt>
      <trkpt lat="47.68912" lon="5.02634">
        <ele>449.04</ele>
        <time>2022-05-16T08:53:55Z</time>
      </trkpt>
      <trkpt lat="47.68914" lon="5.02636">
        <ele>449.45</ele>
        <time>2022-05-16T08:53:58Z</time>
      </trkpt>
      <trkpt lat="47.68917" lon="5.02639">
        <ele>450.05</ele>
        <time>2022-05-16T08:54:00Z</time>
      </trkpt>
      <trkpt lat="47.68919" lon="5.02641">
        <ele>450.32</ele>
        <time>2022-05-16T08:54:04Z</time>
      </trkpt>
      <trkpt lat="47.68921" lon="5.02645">
        <ele>450.56</ele>
        <time>2022-05-16T08:54:07Z</time>
      </trkpt>
      <trkpt lat="47.68923" lon="5.02648">
        <ele>450.76</ele>
        <time>2022-05-16T08:54:10Z</time>
      </trkpt>
      <trkpt lat="47.68926" lon="5.02651">
        <ele>451.05</ele>
        <time>2022-05-16T08:54:12Z</time>
      </trkpt>
      <trkpt lat="47.68928" lon="5.02654">
        <ele>451.19</ele>
        <time>2022-05-16T08:54:15Z</time>
      </trkpt>
      <trkpt lat="47.68931" lon="5.02656">
        <ele>451.43</ele>
        <time>2022-05-16T08:54:19Z</time>
      </trkpt>
      <trkpt lat="47.68933" lon="5.0266">
        <ele>451.46</ele>
        <time>2022-05-16T08:54:21Z</time>
      </trkpt>
      <trkpt lat="47.68936" lon="5.02662">
        <ele>451.63</ele>
        <time>2022-05-16T08:54:24Z</time>
      </trkpt>
      <trkpt lat="47.68938" lon="5.02665">
        <ele>451.63</ele>
        <time>2022-05-16T08:54:27Z</time>
      </trkpt>
      <trkpt lat="47.6894" lon="5.02668">
        <ele>451.69</ele>
        <time>2022-05-16T08:54:31Z</time>
      </trkpt>
      <trkpt lat="47.68943" lon="5.02671">
        <ele>452.01</ele>
        <time>2022-05-16T08:54:34Z</time>
      </trkpt>
      <trkpt lat="47.68945" lon="5.02674">
        <ele>452.31</ele>
        <time>2022-05-16T08:54:37Z</time>
      </trkpt>
      <trkpt lat="47.68947" lon="5.02676">
        <ele>452.55</ele>
        <time>2022-05-16T08:54:42Z</time>
      </trkpt>
      <trkpt lat="47.6895" lon="5.02679">
        <ele>452.87</ele>
        <time>2022-05-16T08:54:45Z</time>
      </trkpt>
      <trkpt lat="47.68952" lon="5.02681">
        <ele>453.05</ele>
        <time>2022-05-16T08:54:49Z</time>
      </trkpt>
      <trkpt lat="47.68955" lon="5.02682">
        <ele>453.27</ele>
        <time>2022-05-16T08:54:52Z</time>
      </trkpt>
      <trkpt lat="47.68958" lon="5.02683">
        <ele>453.48</ele>
        <time>2022-05-16T08:54:58Z</time>
      </trkpt>
      <trkpt lat="47.68961" lon="5.02685">
        <ele>453.66</ele>
        <time>2022-05-16T08:55:01Z</time>
      </trkpt>
      <trkpt lat="47.68964" lon="5.02687">
        <ele>453.81</ele>
        <time>2022-05-16T08:55:04Z</time>
      </trkpt>
      <trkpt lat="47.68966" lon="5.0269">
        <ele>453.86</ele>
        <time>2022-05-16T08:55:06Z</time>
      </trkpt>
      <trkpt lat="47.68968" lon="5.02693">
        <ele>453.88</ele>
        <time>2022-05-16T08:55:09Z</time>
      </trkpt>
      <trkpt lat="47.68969" lon="5.02696">
        <ele>453.83</ele>
        <time>2022-05-16T08:55:11Z</time>
      </trkpt>
      <trkpt lat="47.68971" lon="5.027">
        <ele>453.76</ele>
        <time>2022-05-16T08:55:14Z</time>
      </trkpt>
      <trkpt lat="47.68973" lon="5.02703">
        <ele>453.8</ele>
        <time>2022-05-16T08:55:18Z</time>
      </trkpt>
      <trkpt lat="47.68975" lon="5.02707">
        <ele>453.9</ele>
        <time>2022-05-16T08:55:22Z</time>
      </trkpt>
      <trkpt lat="47.68977" lon="5.0271">
        <ele>454.03</ele>
        <time>2022-05-16T08:55:24Z</time>
      </trkpt>
      <trkpt lat="47.6898" lon="5.02712">
        <ele>454.31</ele>
        <time>2022-05-16T08:55:29Z</time>
      </trkpt>
      <trkpt lat="47.68983" lon="5.02715">
        <ele>454.52</ele>
        <time>2022-05-16T08:55:31Z</time>
      </trkpt>
      <trkpt lat="47.68985" lon="5.02717">
        <ele>454.65</ele>
        <time>2022-05-16T08:55:35Z</time>
      </trkpt>
      <trkpt lat="47.68988" lon="5.0272">
        <ele>454.83</ele>
        <time>2022-05-16T08:55:39Z</time>
      </trkpt>
      <trkpt lat="47.68991" lon="5.02722">
        <ele>455.04</ele>
        <time>2022-05-16T08:55:41Z</time>
      </trkpt>
      <trkpt lat="47.68994" lon="5.02724">
        <ele>455.66</ele>
        <time>2022-05-16T08:55:45Z</time>
      </trkpt>
      <trkpt lat="47.68996" lon="5.02726">
        <ele>456.19</ele>
        <time>2022-05-16T08:55:47Z</time>
      </trkpt>
      <trkpt lat="47.68999" lon="5.02729">
        <ele>456.9</ele>
        <time>2022-05-16T08:55:49Z</time>
      </trkpt>
      <trkpt lat="47.69001" lon="5.02732">
        <ele>457.56</ele>
        <time>2022-05-16T08:55:52Z</time>
      </trkpt>
      <trkpt lat="47.69004" lon="5.02735">
        <ele>458.37</ele>
        <time>2022-05-16T08:55:54Z</time>
      </trkpt>
      <trkpt lat="47.69006" lon="5.02739">
        <ele>459.06</ele>
        <time>2022-05-16T08:55:56Z</time>
      </trkpt>
      <trkpt lat="47.69008" lon="5.02742">
        <ele>459.55</ele>
        <time>2022-05-16T08:55:57Z</time>
      </trkpt>
      <trkpt lat="47.69011" lon="5.02744">
        <ele>459.96</ele>
        <time>2022-05-16T08:55:59Z</time>
      </trkpt>
      <trkpt lat="47.69013" lon="5.02748">
        <ele>460.35</ele>
        <time>2022-05-16T08:56:01Z</time>
      </trkpt>
      <trkpt lat="47.69015" lon="5.0275">
        <ele>460.54</ele>
        <time>2022-05-16T08:56:04Z</time>
      </trkpt>
      <trkpt lat="47.69017" lon="5.02753">
        <ele>460.49</ele>
        <time>2022-05-16T08:56:06Z</time>
      </trkpt>
      <trkpt lat="47.6902" lon="5.02757">
        <ele>460.51</ele>
        <time>2022-05-16T08:56:10Z</time>
      </trkpt>
      <trkpt lat="47.69022" lon="5.0276">
        <ele>460.57</ele>
        <time>2022-05-16T08:56:12Z</time>
      </trkpt>
      <trkpt lat="47.69025" lon="5.02763">
        <ele>460.76</ele>
        <time>2022-05-16T08:56:14Z</time>
      </trkpt>
      <trkpt lat="47.69027" lon="5.02765">
        <ele>460.93</ele>
        <time>2022-05-16T08:56:16Z</time>
      </trkpt>
      <trkpt lat="47.6903" lon="5.02767">
        <ele>461.11</ele>
        <time>2022-05-16T08:56:18Z</time>
      </trkpt>
      <trkpt lat="47.69033" lon="5.0277">
        <ele>461.24</ele>
        <time>2022-05-16T08:56:21Z</time>
      </trkpt>
      <trkpt lat="47.69036" lon="5.02773">
        <ele>461.35</ele>
        <time>2022-05-16T08:56:23Z</time>
      </trkpt>
      <trkpt lat="47.69038" lon="5.02776">
        <ele>461.39</ele>
        <time>2022-05-16T08:56:25Z</time>
      </trkpt>
      <trkpt lat="47.69041" lon="5.02778">
        <ele>461.48</ele>
        <time>2022-05-16T08:56:28Z</time>
      </trkpt>
      <trkpt lat="47.69043" lon="5.02781">
        <ele>461.61</ele>
        <time>2022-05-16T08:56:30Z</time>
      </trkpt>
      <trkpt lat="47.69045" lon="5.02783">
        <ele>461.74</ele>
        <time>2022-05-16T08:56:33Z</time>
      </trkpt>
      <trkpt lat="47.69047" lon="5.02786">
        <ele>461.9</ele>
        <time>2022-05-16T08:56:36Z</time>
      </trkpt>
      <trkpt lat="47.69049" lon="5.0279">
        <ele>462.1</ele>
        <time>2022-05-16T08:56:39Z</time>
      </trkpt>
      <trkpt lat="47.69052" lon="5.02793">
        <ele>462.35</ele>
        <time>2022-05-16T08:56:43Z</time>
      </trkpt>
      <trkpt lat="47.69054" lon="5.02796">
        <ele>462.56</ele>
        <time>2022-05-16T08:56:45Z</time>
      </trkpt>
      <trkpt lat="47.69057" lon="5.02799">
        <ele>462.76</ele>
        <time>2022-05-16T08:56:48Z</time>
      </trkpt>
      <trkpt lat="47.69059" lon="5.02801">
        <ele>462.84</ele>
        <time>2022-05-16T08:56:50Z</time>
      </trkpt>
      <trkpt lat="47.69062" lon="5.02803">
        <ele>462.91</ele>
        <time>2022-05-16T08:56:52Z</time>
      </trkpt>
      <trkpt lat="47.69065" lon="5.02805">
        <ele>462.98</ele>
        <time>2022-05-16T08:56:54Z</time>
      </trkpt>
      <trkpt lat="47.69068" lon="5.02808">
        <ele>462.82</ele>
        <time>2022-05-16T08:56:56Z</time>
      </trkpt>
      <trkpt lat="47.6907" lon="5.02811">
        <ele>462.61</ele>
        <time>2022-05-16T08:56:59Z</time>
      </trkpt>
      <trkpt lat="47.69073" lon="5.02813">
        <ele>462.46</ele>
        <time>2022-05-16T08:57:00Z</time>
      </trkpt>
      <trkpt lat="47.69075" lon="5.02816">
        <ele>462.25</ele>
        <time>2022-05-16T08:57:02Z</time>
      </trkpt>
      <trkpt lat="47.69077" lon="5.02819">
        <ele>462.03</ele>
        <time>2022-05-16T08:57:03Z</time>
      </trkpt>
      <trkpt lat="47.6908" lon="5.02822">
        <ele>461.82</ele>
        <time>2022-05-16T08:57:05Z</time>
      </trkpt>
      <trkpt lat="47.69082" lon="5.02825">
        <ele>461.6</ele>
        <time>2022-05-16T08:57:08Z</time>
      </trkpt>
      <trkpt lat="47.69085" lon="5.02827">
        <ele>461.65</ele>
        <time>2022-05-16T08:57:11Z</time>
      </trkpt>
      <trkpt lat="47.69087" lon="5.02829">
        <ele>461.73</ele>
        <time>2022-05-16T08:57:13Z</time>
      </trkpt>
      <trkpt lat="47.6909" lon="5.02831">
        <ele>461.91</ele>
        <time>2022-05-16T08:57:15Z</time>
      </trkpt>
      <trkpt lat="47.69093" lon="5.02834">
        <ele>462.01</ele>
        <time>2022-05-16T08:57:18Z</time>
      </trkpt>
      <trkpt lat="47.69095" lon="5.02837">
        <ele>462.07</ele>
        <time>2022-05-16T08:57:20Z</time>
      </trkpt>
      <trkpt lat="47.69098" lon="5.0284">
        <ele>462.22</ele>
        <time>2022-05-16T08:57:22Z</time>
      </trkpt>
      <trkpt lat="47.691" lon="5.02843">
        <ele>462.24</ele>
        <time>2022-05-16T08:57:24Z</time>
      </trkpt>
      <trkpt lat="47.69102" lon="5.02848">
        <ele>462.13</ele>
        <time>2022-05-16T08:57:27Z</time>
      </trkpt>
      <trkpt lat="47.69104" lon="5.02852">
        <ele>462.06</ele>
        <time>2022-05-16T08:57:29Z</time>
      </trkpt>
      <trkpt lat="47.69106" lon="5.02855">
        <ele>462.03</ele>
        <time>2022-05-16T08:57:31Z</time>
      </trkpt>
      <trkpt lat="47.69108" lon="5.02859">
        <ele>461.92</ele>
        <time>2022-05-16T08:57:34Z</time>
      </trkpt>
      <trkpt lat="47.6911" lon="5.02861">
        <ele>461.93</ele>
        <time>2022-05-16T08:57:36Z</time>
      </trkpt>
      <trkpt lat="47.69112" lon="5.02864">
        <ele>461.91</ele>
        <time>2022-05-16T08:57:39Z</time>
      </trkpt>
      <trkpt lat="47.69115" lon="5.02867">
        <ele>462.08</ele>
        <time>2022-05-16T08:57:42Z</time>
      </trkpt>
      <trkpt lat="47.69117" lon="5.0287">
        <ele>462.07</ele>
        <time>2022-05-16T08:57:44Z</time>
      </trkpt>
      <trkpt lat="47.6912" lon="5.02873">
        <ele>462.15</ele>
        <time>2022-05-16T08:57:47Z</time>
      </trkpt>
      <trkpt lat="47.69122" lon="5.02876">
        <ele>462.08</ele>
        <time>2022-05-16T08:57:49Z</time>
      </trkpt>
      <trkpt lat="47.69124" lon="5.02879">
        <ele>461.97</ele>
        <time>2022-05-16T08:57:53Z</time>
      </trkpt>
      <trkpt lat="47.69127" lon="5.02882">
        <ele>461.92</ele>
        <time>2022-05-16T08:57:56Z</time>
      </trkpt>
      <trkpt lat="47.69129" lon="5.02884">
        <ele>461.87</ele>
        <time>2022-05-16T08:57:58Z</time>
      </trkpt>
      <trkpt lat="47.69132" lon="5.02887">
        <ele>461.74</ele>
        <time>2022-05-16T08:58:01Z</time>
      </trkpt>
      <trkpt lat="47.69134" lon="5.0289">
        <ele>461.61</ele>
        <time>2022-05-16T08:58:04Z</time>
      </trkpt>
      <trkpt lat="47.69137" lon="5.02892">
        <ele>461.75</ele>
        <time>2022-05-16T08:58:07Z</time>
      </trkpt>
      <trkpt lat="47.6914" lon="5.02894">
        <ele>462.04</ele>
        <time>2022-05-16T08:58:09Z</time>
      </trkpt>
      <trkpt lat="47.69144" lon="5.02897">
        <ele>462.7</ele>
        <time>2022-05-16T08:58:11Z</time>
      </trkpt>
      <trkpt lat="47.69146" lon="5.02899">
        <ele>462.99</ele>
        <time>2022-05-16T08:58:13Z</time>
      </trkpt>
      <trkpt lat="47.69149" lon="5.02902">
        <ele>463.37</ele>
        <time>2022-05-16T08:58:16Z</time>
      </trkpt>
      <trkpt lat="47.69151" lon="5.02904">
        <ele>463.6</ele>
        <time>2022-05-16T08:58:17Z</time>
      </trkpt>
      <trkpt lat="47.69153" lon="5.02908">
        <ele>463.66</ele>
        <time>2022-05-16T08:58:19Z</time>
      </trkpt>
      <trkpt lat="47.69155" lon="5.0291">
        <ele>463.84</ele>
        <time>2022-05-16T08:58:21Z</time>
      </trkpt>
      <trkpt lat="47.69157" lon="5.02913">
        <ele>463.91</ele>
        <time>2022-05-16T08:58:23Z</time>
      </trkpt>
      <trkpt lat="47.69159" lon="5.02916">
        <ele>463.95</ele>
        <time>2022-05-16T08:58:25Z</time>
      </trkpt>
      <trkpt lat="47.69161" lon="5.02919">
        <ele>463.87</ele>
        <time>2022-05-16T08:58:27Z</time>
      </trkpt>
      <trkpt lat="47.69163" lon="5.02924">
        <ele>463.45</ele>
        <time>2022-05-16T08:58:30Z</time>
      </trkpt>
      <trkpt lat="47.69164" lon="5.02927">
        <ele>463.16</ele>
        <time>2022-05-16T08:58:32Z</time>
      </trkpt>
      <trkpt lat="47.69166" lon="5.02932">
        <ele>462.71</ele>
        <time>2022-05-16T08:58:35Z</time>
      </trkpt>
      <trkpt lat="47.69166" lon="5.02935">
        <ele>462.28</ele>
        <time>2022-05-16T08:58:39Z</time>
      </trkpt>
      <trkpt lat="47.69167" lon="5.02939">
        <ele>461.83</ele>
        <time>2022-05-16T08:58:40Z</time>
      </trkpt>
      <trkpt lat="47.69168" lon="5.02943">
        <ele>461.36</ele>
        <time>2022-05-16T08:58:41Z</time>
      </trkpt>
      <trkpt lat="47.69169" lon="5.02948">
        <ele>460.74</ele>
        <time>2022-05-16T08:58:43Z</time>
      </trkpt>
      <trkpt lat="47.6917" lon="5.02952">
        <ele>460.27</ele>
        <time>2022-05-16T08:58:46Z</time>
      </trkpt>
      <trkpt lat="47.69172" lon="5.02955">
        <ele>460.06</ele>
        <time>2022-05-16T08:58:47Z</time>
      </trkpt>
      <trkpt lat="47.69174" lon="5.02958">
        <ele>459.84</ele>
        <time>2022-05-16T08:58:49Z</time>
      </trkpt>
      <trkpt lat="47.69176" lon="5.02962">
        <ele>459.48</ele>
        <time>2022-05-16T08:58:52Z</time>
      </trkpt>
      <trkpt lat="47.69177" lon="5.02965">
        <ele>459.16</ele>
        <time>2022-05-16T08:58:55Z</time>
      </trkpt>
      <trkpt lat="47.69179" lon="5.02969">
        <ele>458.8</ele>
        <time>2022-05-16T08:58:57Z</time>
      </trkpt>
      <trkpt lat="47.69181" lon="5.02973">
        <ele>458.54</ele>
        <time>2022-05-16T08:59:00Z</time>
      </trkpt>
      <trkpt lat="47.69181" lon="5.02978">
        <ele>458.45</ele>
        <time>2022-05-16T08:59:03Z</time>
      </trkpt>
      <trkpt lat="47.69181" lon="5.02982">
        <ele>458.39</ele>
        <time>2022-05-16T08:59:07Z</time>
      </trkpt>
      <trkpt lat="47.69182" lon="5.02986">
        <ele>458.49</ele>
        <time>2022-05-16T08:59:11Z</time>
      </trkpt>
      <trkpt lat="47.69184" lon="5.02991">
        <ele>458.79</ele>
        <time>2022-05-16T08:59:14Z</time>
      </trkpt>
      <trkpt lat="47.69185" lon="5.02995">
        <ele>458.96</ele>
        <time>2022-05-16T08:59:16Z</time>
      </trkpt>
      <trkpt lat="47.69186" lon="5.03">
        <ele>459.18</ele>
        <time>2022-05-16T08:59:20Z</time>
      </trkpt>
      <trkpt lat="47.69187" lon="5.03004">
        <ele>459.13</ele>
        <time>2022-05-16T08:59:22Z</time>
      </trkpt>
      <trkpt lat="47.69188" lon="5.03009">
        <ele>459.06</ele>
        <time>2022-05-16T08:59:24Z</time>
      </trkpt>
      <trkpt lat="47.69189" lon="5.03013">
        <ele>459.08</ele>
        <time>2022-05-16T08:59:26Z</time>
      </trkpt>
      <trkpt lat="47.6919" lon="5.03018">
        <ele>459.08</ele>
        <time>2022-05-16T08:59:28Z</time>
      </trkpt>
      <trkpt lat="47.6919" lon="5.03022">
        <ele>458.87</ele>
        <time>2022-05-16T08:59:30Z</time>
      </trkpt>
      <trkpt lat="47.69191" lon="5.03026">
        <ele>458.97</ele>
        <time>2022-05-16T08:59:31Z</time>
      </trkpt>
      <trkpt lat="47.69192" lon="5.0303">
        <ele>459.06</ele>
        <time>2022-05-16T08:59:34Z</time>
      </trkpt>
      <trkpt lat="47.69193" lon="5.03034">
        <ele>459.11</ele>
        <time>2022-05-16T08:59:36Z</time>
      </trkpt>
      <trkpt lat="47.69194" lon="5.03039">
        <ele>459.06</ele>
        <time>2022-05-16T08:59:39Z</time>
      </trkpt>
      <trkpt lat="47.69195" lon="5.03043">
        <ele>458.97</ele>
        <time>2022-05-16T08:59:40Z</time>
      </trkpt>
      <trkpt lat="47.69196" lon="5.03048">
        <ele>458.74</ele>
        <time>2022-05-16T08:59:43Z</time>
      </trkpt>
      <trkpt lat="47.69196" lon="5.03053">
        <ele>458.4</ele>
        <time>2022-05-16T08:59:45Z</time>
      </trkpt>
      <trkpt lat="47.69197" lon="5.03058">
        <ele>458.19</ele>
        <time>2022-05-16T08:59:48Z</time>
      </trkpt>
      <trkpt lat="47.69197" lon="5.03062">
        <ele>457.9</ele>
        <time>2022-05-16T08:59:51Z</time>
      </trkpt>
      <trkpt lat="47.69198" lon="5.03066">
        <ele>457.76</ele>
        <time>2022-05-16T08:59:52Z</time>
      </trkpt>
      <trkpt lat="47.69198" lon="5.0307">
        <ele>457.47</ele>
        <time>2022-05-16T08:59:54Z</time>
      </trkpt>
      <trkpt lat="47.69198" lon="5.03076">
        <ele>457.04</ele>
        <time>2022-05-16T08:59:58Z</time>
      </trkpt>
      <trkpt lat="47.69199" lon="5.0308">
        <ele>456.9</ele>
        <time>2022-05-16T09:00:00Z</time>
      </trkpt>
      <trkpt lat="47.692" lon="5.03086">
        <ele>456.61</ele>
        <time>2022-05-16T09:00:04Z</time>
      </trkpt>
      <trkpt lat="47.69202" lon="5.03091">
        <ele>456.54</ele>
        <time>2022-05-16T09:00:05Z</time>
      </trkpt>
      <trkpt lat="47.69203" lon="5.03097">
        <ele>456.25</ele>
        <time>2022-05-16T09:00:07Z</time>
      </trkpt>
      <trkpt lat="47.69203" lon="5.03101">
        <ele>455.96</ele>
        <time>2022-05-16T09:00:09Z</time>
      </trkpt>
      <trkpt lat="47.69204" lon="5.03106">
        <ele>455.74</ele>
        <time>2022-05-16T09:00:11Z</time>
      </trkpt>
      <trkpt lat="47.69205" lon="5.03109">
        <ele>455.67</ele>
        <time>2022-05-16T09:00:15Z</time>
      </trkpt>
      <trkpt lat="47.69205" lon="5.03114">
        <ele>455.52</ele>
        <time>2022-05-16T09:00:18Z</time>
      </trkpt>
      <trkpt lat="47.69206" lon="5.03119">
        <ele>455.66</ele>
        <time>2022-05-16T09:00:20Z</time>
      </trkpt>
      <trkpt lat="47.69207" lon="5.03123">
        <ele>455.81</ele>
        <time>2022-05-16T09:00:22Z</time>
      </trkpt>
      <trkpt lat="47.69208" lon="5.03127">
        <ele>455.95</ele>
        <time>2022-05-16T09:00:23Z</time>
      </trkpt>
      <trkpt lat="47.69208" lon="5.03132">
        <ele>455.95</ele>
        <time>2022-05-16T09:00:26Z</time>
      </trkpt>
      <trkpt lat="47.69208" lon="5.03136">
        <ele>455.95</ele>
        <time>2022-05-16T09:00:30Z</time>
      </trkpt>
      <trkpt lat="47.69208" lon="5.03142">
        <ele>456.01</ele>
        <time>2022-05-16T09:00:33Z</time>
      </trkpt>
      <trkpt lat="47.69209" lon="5.03147">
        <ele>456.23</ele>
        <time>2022-05-16T09:00:36Z</time>
      </trkpt>
      <trkpt lat="47.6921" lon="5.03152">
        <ele>456.45</ele>
        <time>2022-05-16T09:00:38Z</time>
      </trkpt>
      <trkpt lat="47.69211" lon="5.03157">
        <ele>456.65</ele>
        <time>2022-05-16T09:00:40Z</time>
      </trkpt>
      <trkpt lat="47.69212" lon="5.03161">
        <ele>456.82</ele>
        <time>2022-05-16T09:00:41Z</time>
      </trkpt>
      <trkpt lat="47.69212" lon="5.03166">
        <ele>456.89</ele>
        <time>2022-05-16T09:00:43Z</time>
      </trkpt>
      <trkpt lat="47.69212" lon="5.0317">
        <ele>456.9</ele>
        <time>2022-05-16T09:00:45Z</time>
      </trkpt>
      <trkpt lat="47.69213" lon="5.03175">
        <ele>457</ele>
        <time>2022-05-16T09:00:46Z</time>
      </trkpt>
      <trkpt lat="47.69213" lon="5.03179">
        <ele>457</ele>
        <time>2022-05-16T09:00:48Z</time>
      </trkpt>
      <trkpt lat="47.69213" lon="5.03183">
        <ele>457</ele>
        <time>2022-05-16T09:00:50Z</time>
      </trkpt>
      <trkpt lat="47.69213" lon="5.03188">
        <ele>457</ele>
        <time>2022-05-16T09:00:52Z</time>
      </trkpt>
      <trkpt lat="47.69213" lon="5.03192">
        <ele>457</ele>
        <time>2022-05-16T09:00:54Z</time>
      </trkpt>
      <trkpt lat="47.69213" lon="5.03196">
        <ele>457.06</ele>
        <time>2022-05-16T09:00:56Z</time>
      </trkpt>
      <trkpt lat="47.69213" lon="5.03201">
        <ele>457.24</ele>
        <time>2022-05-16T09:00:58Z</time>
      </trkpt>
      <trkpt lat="47.69214" lon="5.03205">
        <ele>457.49</ele>
        <time>2022-05-16T09:01:00Z</time>
      </trkpt>
      <trkpt lat="47.69214" lon="5.0321">
        <ele>457.67</ele>
        <time>2022-05-16T09:01:02Z</time>
      </trkpt>
      <trkpt lat="47.69215" lon="5.03214">
        <ele>457.92</ele>
        <time>2022-05-16T09:01:04Z</time>
      </trkpt>
      <trkpt lat="47.69215" lon="5.03218">
        <ele>458.07</ele>
        <time>2022-05-16T09:01:07Z</time>
      </trkpt>
      <trkpt lat="47.69215" lon="5.03223">
        <ele>458.29</ele>
        <time>2022-05-16T09:01:11Z</time>
      </trkpt>
      <trkpt lat="47.69215" lon="5.03228">
        <ele>458.74</ele>
        <time>2022-05-16T09:01:14Z</time>
      </trkpt>
      <trkpt lat="47.69216" lon="5.03233">
        <ele>459.32</ele>
        <time>2022-05-16T09:01:17Z</time>
      </trkpt>
      <trkpt lat="47.69216" lon="5.03237">
        <ele>459.69</ele>
        <time>2022-05-16T09:01:20Z</time>
      </trkpt>
      <trkpt lat="47.69216" lon="5.03242">
        <ele>460.15</ele>
        <time>2022-05-16T09:01:22Z</time>
      </trkpt>
      <trkpt lat="47.69217" lon="5.03245">
        <ele>460.59</ele>
        <time>2022-05-16T09:01:24Z</time>
      </trkpt>
      <trkpt lat="47.69217" lon="5.0325">
        <ele>461.06</ele>
        <time>2022-05-16T09:01:26Z</time>
      </trkpt>
      <trkpt lat="47.69217" lon="5.03254">
        <ele>461.14</ele>
        <time>2022-05-16T09:01:29Z</time>
      </trkpt>
      <trkpt lat="47.69217" lon="5.03259">
        <ele>461.24</ele>
        <time>2022-05-16T09:01:32Z</time>
      </trkpt>
      <trkpt lat="47.69218" lon="5.03266">
        <ele>461.5</ele>
        <time>2022-05-16T09:01:34Z</time>
      </trkpt>
      <trkpt lat="47.69218" lon="5.0327">
        <ele>461.57</ele>
        <time>2022-05-16T09:01:37Z</time>
      </trkpt>
      <trkpt lat="47.69219" lon="5.03275">
        <ele>461.73</ele>
        <time>2022-05-16T09:01:39Z</time>
      </trkpt>
      <trkpt lat="47.69219" lon="5.0328">
        <ele>461.77</ele>
        <time>2022-05-16T09:01:42Z</time>
      </trkpt>
      <trkpt lat="47.69219" lon="5.03285">
        <ele>461.77</ele>
        <time>2022-05-16T09:01:44Z</time>
      </trkpt>
      <trkpt lat="47.6922" lon="5.03289">
        <ele>461.84</ele>
        <time>2022-05-16T09:01:46Z</time>
      </trkpt>
      <trkpt lat="47.69221" lon="5.03293">
        <ele>461.91</ele>
        <time>2022-05-16T09:01:47Z</time>
      </trkpt>
      <trkpt lat="47.69221" lon="5.03297">
        <ele>461.91</ele>
        <time>2022-05-16T09:01:49Z</time>
      </trkpt>
      <trkpt lat="47.69222" lon="5.03301">
        <ele>461.98</ele>
        <time>2022-05-16T09:01:52Z</time>
      </trkpt>
      <trkpt lat="47.69223" lon="5.03306">
        <ele>462.03</ele>
        <time>2022-05-16T09:01:54Z</time>
      </trkpt>
      <trkpt lat="47.69223" lon="5.03311">
        <ele>462.02</ele>
        <time>2022-05-16T09:01:57Z</time>
      </trkpt>
      <trkpt lat="47.69222" lon="5.03316">
        <ele>461.99</ele>
        <time>2022-05-16T09:01:59Z</time>
      </trkpt>
      <trkpt lat="47.69222" lon="5.0332">
        <ele>461.99</ele>
        <time>2022-05-16T09:02:02Z</time>
      </trkpt>
      <trkpt lat="47.69221" lon="5.03325">
        <ele>461.94</ele>
        <time>2022-05-16T09:02:04Z</time>
      </trkpt>
      <trkpt lat="47.69221" lon="5.03329">
        <ele>461.95</ele>
        <time>2022-05-16T09:02:06Z</time>
      </trkpt>
      <trkpt lat="47.6922" lon="5.03333">
        <ele>461.92</ele>
        <time>2022-05-16T09:02:08Z</time>
      </trkpt>
      <trkpt lat="47.6922" lon="5.03338">
        <ele>461.92</ele>
        <time>2022-05-16T09:02:11Z</time>
      </trkpt>
      <trkpt lat="47.6922" lon="5.03342">
        <ele>461.92</ele>
        <time>2022-05-16T09:02:13Z</time>
      </trkpt>
      <trkpt lat="47.6922" lon="5.03346">
        <ele>461.92</ele>
        <time>2022-05-16T09:02:15Z</time>
      </trkpt>
      <trkpt lat="47.6922" lon="5.03351">
        <ele>461.92</ele>
        <time>2022-05-16T09:02:18Z</time>
      </trkpt>
      <trkpt lat="47.6922" lon="5.03355">
        <ele>461.92</ele>
        <time>2022-05-16T09:02:20Z</time>
      </trkpt>
      <trkpt lat="47.6922" lon="5.0336">
        <ele>461.92</ele>
        <time>2022-05-16T09:02:24Z</time>
      </trkpt>
      <trkpt lat="47.69221" lon="5.03364">
        <ele>462.06</ele>
        <time>2022-05-16T09:02:26Z</time>
      </trkpt>
      <trkpt lat="47.6922" lon="5.03369">
        <ele>462.2</ele>
        <time>2022-05-16T09:02:29Z</time>
      </trkpt>
      <trkpt lat="47.6922" lon="5.03374">
        <ele>462.38</ele>
        <time>2022-05-16T09:02:31Z</time>
      </trkpt>
      <trkpt lat="47.69219" lon="5.03379">
        <ele>462.53</ele>
        <time>2022-05-16T09:02:33Z</time>
      </trkpt>
      <trkpt lat="47.69219" lon="5.03384">
        <ele>462.71</ele>
        <time>2022-05-16T09:02:35Z</time>
      </trkpt>
      <trkpt lat="47.6922" lon="5.0339">
        <ele>462.96</ele>
        <time>2022-05-16T09:02:38Z</time>
      </trkpt>
      <trkpt lat="47.69221" lon="5.03394">
        <ele>463.13</ele>
        <time>2022-05-16T09:02:41Z</time>
      </trkpt>
      <trkpt lat="47.69221" lon="5.034">
        <ele>463.34</ele>
        <time>2022-05-16T09:02:44Z</time>
      </trkpt>
      <trkpt lat="47.69221" lon="5.03405">
        <ele>463.51</ele>
        <time>2022-05-16T09:02:46Z</time>
      </trkpt>
      <trkpt lat="47.69221" lon="5.03409">
        <ele>463.65</ele>
        <time>2022-05-16T09:02:47Z</time>
      </trkpt>
      <trkpt lat="47.69221" lon="5.03413">
        <ele>463.79</ele>
        <time>2022-05-16T09:02:49Z</time>
      </trkpt>
      <trkpt lat="47.6922" lon="5.03417">
        <ele>463.82</ele>
        <time>2022-05-16T09:02:52Z</time>
      </trkpt>
      <trkpt lat="47.69219" lon="5.03422">
        <ele>463.43</ele>
        <time>2022-05-16T09:02:54Z</time>
      </trkpt>
      <trkpt lat="47.69219" lon="5.03427">
        <ele>463.11</ele>
        <time>2022-05-16T09:02:57Z</time>
      </trkpt>
      <trkpt lat="47.69218" lon="5.03432">
        <ele>462.76</ele>
        <time>2022-05-16T09:02:59Z</time>
      </trkpt>
      <trkpt lat="47.69218" lon="5.03436">
        <ele>462.52</ele>
        <time>2022-05-16T09:03:02Z</time>
      </trkpt>
      <trkpt lat="47.69218" lon="5.03441">
        <ele>462.21</ele>
        <time>2022-05-16T09:03:04Z</time>
      </trkpt>
      <trkpt lat="47.69218" lon="5.03446">
        <ele>462.11</ele>
        <time>2022-05-16T09:03:07Z</time>
      </trkpt>
      <trkpt lat="47.69217" lon="5.03451">
        <ele>462.47</ele>
        <time>2022-05-16T09:03:09Z</time>
      </trkpt>
      <trkpt lat="47.69217" lon="5.03456">
        <ele>462.83</ele>
        <time>2022-05-16T09:03:12Z</time>
      </trkpt>
      <trkpt lat="47.69217" lon="5.03461">
        <ele>463.19</ele>
        <time>2022-05-16T09:03:14Z</time>
      </trkpt>
      <trkpt lat="47.69217" lon="5.03465">
        <ele>463.48</ele>
        <time>2022-05-16T09:03:17Z</time>
      </trkpt>
      <trkpt lat="47.69217" lon="5.03472">
        <ele>463.98</ele>
        <time>2022-05-16T09:03:19Z</time>
      </trkpt>
      <trkpt lat="47.69216" lon="5.03477">
        <ele>464.23</ele>
        <time>2022-05-16T09:03:22Z</time>
      </trkpt>
      <trkpt lat="47.69216" lon="5.03481">
        <ele>464.42</ele>
        <time>2022-05-16T09:03:24Z</time>
      </trkpt>
      <trkpt lat="47.69216" lon="5.03486">
        <ele>464.66</ele>
        <time>2022-05-16T09:03:26Z</time>
      </trkpt>
      <trkpt lat="47.69215" lon="5.03491">
        <ele>464.82</ele>
        <time>2022-05-16T09:03:29Z</time>
      </trkpt>
      <trkpt lat="47.69215" lon="5.03495">
        <ele>465</ele>
        <time>2022-05-16T09:03:31Z</time>
      </trkpt>
      <trkpt lat="47.69216" lon="5.03499">
        <ele>465.28</ele>
        <time>2022-05-16T09:03:33Z</time>
      </trkpt>
      <trkpt lat="47.69216" lon="5.03503">
        <ele>465.33</ele>
        <time>2022-05-16T09:03:34Z</time>
      </trkpt>
      <trkpt lat="47.69216" lon="5.03508">
        <ele>465.33</ele>
        <time>2022-05-16T09:03:37Z</time>
      </trkpt>
      <trkpt lat="47.69217" lon="5.03514">
        <ele>465.44</ele>
        <time>2022-05-16T09:03:39Z</time>
      </trkpt>
      <trkpt lat="47.69217" lon="5.0352">
        <ele>465.44</ele>
        <time>2022-05-16T09:03:43Z</time>
      </trkpt>
      <trkpt lat="47.69217" lon="5.03524">
        <ele>465.44</ele>
        <time>2022-05-16T09:03:44Z</time>
      </trkpt>
      <trkpt lat="47.69218" lon="5.03528">
        <ele>465.55</ele>
        <time>2022-05-16T09:03:47Z</time>
      </trkpt>
      <trkpt lat="47.69219" lon="5.03533">
        <ele>465.82</ele>
        <time>2022-05-16T09:03:49Z</time>
      </trkpt>
      <trkpt lat="47.6922" lon="5.03537">
        <ele>466.07</ele>
        <time>2022-05-16T09:03:52Z</time>
      </trkpt>
      <trkpt lat="47.69221" lon="5.03542">
        <ele>466.36</ele>
        <time>2022-05-16T09:03:55Z</time>
      </trkpt>
      <trkpt lat="47.69221" lon="5.03546">
        <ele>466.5</ele>
        <time>2022-05-16T09:03:58Z</time>
      </trkpt>
      <trkpt lat="47.69221" lon="5.03551">
        <ele>466.67</ele>
        <time>2022-05-16T09:03:59Z</time>
      </trkpt>
      <trkpt lat="47.69222" lon="5.03556">
        <ele>466.97</ele>
        <time>2022-05-16T09:04:02Z</time>
      </trkpt>
      <trkpt lat="47.69223" lon="5.03562">
        <ele>467.05</ele>
        <time>2022-05-16T09:04:05Z</time>
      </trkpt>
      <trkpt lat="47.69224" lon="5.03565">
        <ele>467.11</ele>
        <time>2022-05-16T09:04:07Z</time>
      </trkpt>
      <trkpt lat="47.69225" lon="5.0357">
        <ele>467.15</ele>
        <time>2022-05-16T09:04:09Z</time>
      </trkpt>
      <trkpt lat="47.69226" lon="5.03574">
        <ele>467.18</ele>
        <time>2022-05-16T09:04:11Z</time>
      </trkpt>
      <trkpt lat="47.69228" lon="5.03579">
        <ele>467.24</ele>
        <time>2022-05-16T09:04:13Z</time>
      </trkpt>
      <trkpt lat="47.69229" lon="5.03583">
        <ele>467.25</ele>
        <time>2022-05-16T09:04:15Z</time>
      </trkpt>
      <trkpt lat="47.6923" lon="5.03587">
        <ele>467.09</ele>
        <time>2022-05-16T09:04:18Z</time>
      </trkpt>
      <trkpt lat="47.69231" lon="5.03592">
        <ele>466.89</ele>
        <time>2022-05-16T09:04:21Z</time>
      </trkpt>
      <trkpt lat="47.69232" lon="5.03595">
        <ele>466.81</ele>
        <time>2022-05-16T09:04:23Z</time>
      </trkpt>
      <trkpt lat="47.69233" lon="5.03599">
        <ele>466.7</ele>
        <time>2022-05-16T09:04:26Z</time>
      </trkpt>
      <trkpt lat="47.69234" lon="5.03603">
        <ele>466.61</ele>
        <time>2022-05-16T09:04:30Z</time>
      </trkpt>
      <trkpt lat="47.69235" lon="5.03607">
        <ele>466.54</ele>
        <time>2022-05-16T09:04:33Z</time>
      </trkpt>
      <trkpt lat="47.69236" lon="5.03611">
        <ele>466.49</ele>
        <time>2022-05-16T09:04:37Z</time>
      </trkpt>
      <trkpt lat="47.69236" lon="5.03616">
        <ele>466.22</ele>
        <time>2022-05-16T09:04:40Z</time>
      </trkpt>
      <trkpt lat="47.69237" lon="5.03621">
        <ele>466.07</ele>
        <time>2022-05-16T09:04:43Z</time>
      </trkpt>
      <trkpt lat="47.69237" lon="5.03625">
        <ele>465.86</ele>
        <time>2022-05-16T09:04:45Z</time>
      </trkpt>
      <trkpt lat="47.69237" lon="5.03629">
        <ele>465.65</ele>
        <time>2022-05-16T09:04:47Z</time>
      </trkpt>
      <trkpt lat="47.69237" lon="5.03634">
        <ele>465.39</ele>
        <time>2022-05-16T09:04:50Z</time>
      </trkpt>
      <trkpt lat="47.69238" lon="5.03638">
        <ele>465.32</ele>
        <time>2022-05-16T09:04:52Z</time>
      </trkpt>
      <trkpt lat="47.69238" lon="5.03643">
        <ele>465.14</ele>
        <time>2022-05-16T09:04:55Z</time>
      </trkpt>
      <trkpt lat="47.69238" lon="5.03648">
        <ele>464.99</ele>
        <time>2022-05-16T09:04:58Z</time>
      </trkpt>
      <trkpt lat="47.69239" lon="5.03653">
        <ele>465.01</ele>
        <time>2022-05-16T09:05:00Z</time>
      </trkpt>
      <trkpt lat="47.69239" lon="5.03657">
        <ele>464.9</ele>
        <time>2022-05-16T09:05:03Z</time>
      </trkpt>
      <trkpt lat="47.69239" lon="5.03661">
        <ele>464.79</ele>
        <time>2022-05-16T09:05:15Z</time>
      </trkpt>
      <trkpt lat="47.69241" lon="5.03665">
        <ele>465.09</ele>
        <time>2022-05-16T09:05:38Z</time>
      </trkpt>
      <trkpt lat="47.69242" lon="5.03669">
        <ele>465.22</ele>
        <time>2022-05-16T09:05:44Z</time>
      </trkpt>
      <trkpt lat="47.69243" lon="5.03673">
        <ele>465.37</ele>
        <time>2022-05-16T09:05:48Z</time>
      </trkpt>
      <trkpt lat="47.69242" lon="5.03679">
        <ele>465.02</ele>
        <time>2022-05-16T09:05:53Z</time>
      </trkpt>
      <trkpt lat="47.69243" lon="5.03684">
        <ele>465.17</ele>
        <time>2022-05-16T09:05:56Z</time>
      </trkpt>
      <trkpt lat="47.69243" lon="5.03688">
        <ele>465.1</ele>
        <time>2022-05-16T09:05:58Z</time>
      </trkpt>
      <trkpt lat="47.69243" lon="5.03693">
        <ele>465.01</ele>
        <time>2022-05-16T09:06:00Z</time>
      </trkpt>
      <trkpt lat="47.69244" lon="5.03697">
        <ele>465.33</ele>
        <time>2022-05-16T09:06:02Z</time>
      </trkpt>
      <trkpt lat="47.69244" lon="5.03701">
        <ele>465.42</ele>
        <time>2022-05-16T09:06:05Z</time>
      </trkpt>
      <trkpt lat="47.69245" lon="5.03706">
        <ele>465.78</ele>
        <time>2022-05-16T09:06:07Z</time>
      </trkpt>
      <trkpt lat="47.69246" lon="5.0371">
        <ele>466.09</ele>
        <time>2022-05-16T09:06:09Z</time>
      </trkpt>
      <trkpt lat="47.69247" lon="5.03714">
        <ele>466.36</ele>
        <time>2022-05-16T09:06:11Z</time>
      </trkpt>
      <trkpt lat="47.69248" lon="5.03718">
        <ele>466.61</ele>
        <time>2022-05-16T09:06:14Z</time>
      </trkpt>
      <trkpt lat="47.69249" lon="5.03722">
        <ele>466.82</ele>
        <time>2022-05-16T09:06:16Z</time>
      </trkpt>
      <trkpt lat="47.6925" lon="5.03726">
        <ele>467.27</ele>
        <time>2022-05-16T09:06:19Z</time>
      </trkpt>
      <trkpt lat="47.69251" lon="5.0373">
        <ele>467.83</ele>
        <time>2022-05-16T09:06:22Z</time>
      </trkpt>
      <trkpt lat="47.69253" lon="5.03734">
        <ele>468.62</ele>
        <time>2022-05-16T09:06:25Z</time>
      </trkpt>
      <trkpt lat="47.69254" lon="5.03738">
        <ele>469.12</ele>
        <time>2022-05-16T09:06:28Z</time>
      </trkpt>
      <trkpt lat="47.69255" lon="5.03742">
        <ele>469.61</ele>
        <time>2022-05-16T09:06:30Z</time>
      </trkpt>
      <trkpt lat="47.69256" lon="5.03746">
        <ele>470.07</ele>
        <time>2022-05-16T09:06:32Z</time>
      </trkpt>
      <trkpt lat="47.69257" lon="5.0375">
        <ele>470.51</ele>
        <time>2022-05-16T09:06:34Z</time>
      </trkpt>
      <trkpt lat="47.69258" lon="5.03755">
        <ele>470.26</ele>
        <time>2022-05-16T09:06:36Z</time>
      </trkpt>
      <trkpt lat="47.69259" lon="5.03759">
        <ele>470.09</ele>
        <time>2022-05-16T09:06:39Z</time>
      </trkpt>
      <trkpt lat="47.6926" lon="5.03764">
        <ele>469.79</ele>
        <time>2022-05-16T09:06:41Z</time>
      </trkpt>
      <trkpt lat="47.69261" lon="5.03768">
        <ele>469.57</ele>
        <time>2022-05-16T09:06:43Z</time>
      </trkpt>
      <trkpt lat="47.69262" lon="5.03772">
        <ele>469.32</ele>
        <time>2022-05-16T09:06:45Z</time>
      </trkpt>
      <trkpt lat="47.69263" lon="5.03776">
        <ele>469.06</ele>
        <time>2022-05-16T09:06:49Z</time>
      </trkpt>
      <trkpt lat="47.69264" lon="5.03781">
        <ele>468.73</ele>
        <time>2022-05-16T09:06:54Z</time>
      </trkpt>
      <trkpt lat="47.69264" lon="5.03785">
        <ele>468.36</ele>
        <time>2022-05-16T09:06:59Z</time>
      </trkpt>
      <trkpt lat="47.69264" lon="5.0379">
        <ele>467.91</ele>
        <time>2022-05-16T09:07:01Z</time>
      </trkpt>
      <trkpt lat="47.69266" lon="5.03795">
        <ele>467.71</ele>
        <time>2022-05-16T09:07:03Z</time>
      </trkpt>
      <trkpt lat="47.69267" lon="5.03799">
        <ele>467.45</ele>
        <time>2022-05-16T09:07:06Z</time>
      </trkpt>
      <trkpt lat="47.69268" lon="5.03804">
        <ele>467.09</ele>
        <time>2022-05-16T09:07:09Z</time>
      </trkpt>
      <trkpt lat="47.69269" lon="5.03809">
        <ele>466.47</ele>
        <time>2022-05-16T09:07:11Z</time>
      </trkpt>
      <trkpt lat="47.69269" lon="5.03813">
        <ele>465.8</ele>
        <time>2022-05-16T09:07:14Z</time>
      </trkpt>
      <trkpt lat="47.6927" lon="5.03818">
        <ele>465.05</ele>
        <time>2022-05-16T09:07:16Z</time>
      </trkpt>
      <trkpt lat="47.6927" lon="5.03822">
        <ele>464.37</ele>
        <time>2022-05-16T09:07:21Z</time>
      </trkpt>
      <trkpt lat="47.69271" lon="5.03827">
        <ele>463.6</ele>
        <time>2022-05-16T09:07:23Z</time>
      </trkpt>
      <trkpt lat="47.69272" lon="5.03831">
        <ele>462.99</ele>
        <time>2022-05-16T09:07:25Z</time>
      </trkpt>
      <trkpt lat="47.69273" lon="5.03835">
        <ele>462.52</ele>
        <time>2022-05-16T09:07:27Z</time>
      </trkpt>
      <trkpt lat="47.69274" lon="5.0384">
        <ele>462.18</ele>
        <time>2022-05-16T09:07:29Z</time>
      </trkpt>
      <trkpt lat="47.69275" lon="5.03844">
        <ele>461.96</ele>
        <time>2022-05-16T09:07:30Z</time>
      </trkpt>
      <trkpt lat="47.69276" lon="5.03849">
        <ele>461.67</ele>
        <time>2022-05-16T09:07:33Z</time>
      </trkpt>
      <trkpt lat="47.69278" lon="5.03854">
        <ele>461.54</ele>
        <time>2022-05-16T09:07:35Z</time>
      </trkpt>
      <trkpt lat="47.69279" lon="5.03857">
        <ele>461.47</ele>
        <time>2022-05-16T09:07:36Z</time>
      </trkpt>
      <trkpt lat="47.6928" lon="5.03861">
        <ele>461.33</ele>
        <time>2022-05-16T09:07:38Z</time>
      </trkpt>
      <trkpt lat="47.6928" lon="5.03866">
        <ele>460.98</ele>
        <time>2022-05-16T09:07:41Z</time>
      </trkpt>
      <trkpt lat="47.69281" lon="5.0387">
        <ele>460.86</ele>
        <time>2022-05-16T09:07:43Z</time>
      </trkpt>
      <trkpt lat="47.69282" lon="5.03875">
        <ele>460.68</ele>
        <time>2022-05-16T09:07:46Z</time>
      </trkpt>
      <trkpt lat="47.69283" lon="5.03879">
        <ele>460.59</ele>
        <time>2022-05-16T09:07:48Z</time>
      </trkpt>
      <trkpt lat="47.69284" lon="5.03884">
        <ele>460.43</ele>
        <time>2022-05-16T09:07:50Z</time>
      </trkpt>
      <trkpt lat="47.69285" lon="5.03889">
        <ele>460.3</ele>
        <time>2022-05-16T09:07:52Z</time>
      </trkpt>
      <trkpt lat="47.69287" lon="5.03893">
        <ele>460.61</ele>
        <time>2022-05-16T09:07:55Z</time>
      </trkpt>
      <trkpt lat="47.69287" lon="5.03897">
        <ele>460.56</ele>
        <time>2022-05-16T09:07:59Z</time>
      </trkpt>
      <trkpt lat="47.69288" lon="5.03902">
        <ele>460.67</ele>
        <time>2022-05-16T09:08:01Z</time>
      </trkpt>
      <trkpt lat="47.69289" lon="5.03907">
        <ele>460.76</ele>
        <time>2022-05-16T09:08:03Z</time>
      </trkpt>
      <trkpt lat="47.6929" lon="5.03913">
        <ele>460.82</ele>
        <time>2022-05-16T09:08:06Z</time>
      </trkpt>
      <trkpt lat="47.69292" lon="5.03916">
        <ele>461.06</ele>
        <time>2022-05-16T09:08:09Z</time>
      </trkpt>
      <trkpt lat="47.69293" lon="5.03921">
        <ele>460.97</ele>
        <time>2022-05-16T09:08:11Z</time>
      </trkpt>
      <trkpt lat="47.69294" lon="5.03925">
        <ele>460.91</ele>
        <time>2022-05-16T09:08:14Z</time>
      </trkpt>
      <trkpt lat="47.69295" lon="5.03929">
        <ele>460.87</ele>
        <time>2022-05-16T09:08:18Z</time>
      </trkpt>
      <trkpt lat="47.69296" lon="5.03934">
        <ele>460.79</ele>
        <time>2022-05-16T09:08:20Z</time>
      </trkpt>
      <trkpt lat="47.69297" lon="5.03938">
        <ele>460.76</ele>
        <time>2022-05-16T09:08:22Z</time>
      </trkpt>
      <trkpt lat="47.69298" lon="5.03942">
        <ele>460.75</ele>
        <time>2022-05-16T09:08:25Z</time>
      </trkpt>
      <trkpt lat="47.69299" lon="5.03947">
        <ele>460.71</ele>
        <time>2022-05-16T09:08:29Z</time>
      </trkpt>
      <trkpt lat="47.693" lon="5.03952">
        <ele>460.67</ele>
        <time>2022-05-16T09:08:31Z</time>
      </trkpt>
      <trkpt lat="47.69301" lon="5.03956">
        <ele>460.7</ele>
        <time>2022-05-16T09:08:34Z</time>
      </trkpt>
      <trkpt lat="47.69302" lon="5.0396">
        <ele>460.73</ele>
        <time>2022-05-16T09:08:36Z</time>
      </trkpt>
      <trkpt lat="47.69303" lon="5.03964">
        <ele>460.77</ele>
        <time>2022-05-16T09:08:39Z</time>
      </trkpt>
      <trkpt lat="47.69303" lon="5.03968">
        <ele>460.61</ele>
        <time>2022-05-16T09:08:41Z</time>
      </trkpt>
      <trkpt lat="47.69304" lon="5.03973">
        <ele>460.61</ele>
        <time>2022-05-16T09:08:45Z</time>
      </trkpt>
      <trkpt lat="47.69304" lon="5.03977">
        <ele>460.34</ele>
        <time>2022-05-16T09:08:47Z</time>
      </trkpt>
      <trkpt lat="47.69305" lon="5.03982">
        <ele>460.19</ele>
        <time>2022-05-16T09:08:50Z</time>
      </trkpt>
      <trkpt lat="47.69306" lon="5.03986">
        <ele>460.08</ele>
        <time>2022-05-16T09:08:52Z</time>
      </trkpt>
      <trkpt lat="47.69306" lon="5.03991">
        <ele>459.72</ele>
        <time>2022-05-16T09:08:56Z</time>
      </trkpt>
      <trkpt lat="47.69306" lon="5.03996">
        <ele>459.37</ele>
        <time>2022-05-16T09:08:58Z</time>
      </trkpt>
      <trkpt lat="47.69306" lon="5.04">
        <ele>459.08</ele>
        <time>2022-05-16T09:09:01Z</time>
      </trkpt>
      <trkpt lat="47.69306" lon="5.04005">
        <ele>458.73</ele>
        <time>2022-05-16T09:09:04Z</time>
      </trkpt>
      <trkpt lat="47.69306" lon="5.04009">
        <ele>458.44</ele>
        <time>2022-05-16T09:09:07Z</time>
      </trkpt>
      <trkpt lat="47.69307" lon="5.04014">
        <ele>458.3</ele>
        <time>2022-05-16T09:09:09Z</time>
      </trkpt>
      <trkpt lat="47.69308" lon="5.04018">
        <ele>458.26</ele>
        <time>2022-05-16T09:09:12Z</time>
      </trkpt>
      <trkpt lat="47.69308" lon="5.04023">
        <ele>457.93</ele>
        <time>2022-05-16T09:09:16Z</time>
      </trkpt>
      <trkpt lat="47.6931" lon="5.04027">
        <ele>458.17</ele>
        <time>2022-05-16T09:09:18Z</time>
      </trkpt>
      <trkpt lat="47.69311" lon="5.0403">
        <ele>458.34</ele>
        <time>2022-05-16T09:09:21Z</time>
      </trkpt>
      <trkpt lat="47.69312" lon="5.04034">
        <ele>458.52</ele>
        <time>2022-05-16T09:09:24Z</time>
      </trkpt>
      <trkpt lat="47.69314" lon="5.04039">
        <ele>458.88</ele>
        <time>2022-05-16T09:09:26Z</time>
      </trkpt>
      <trkpt lat="47.69315" lon="5.04043">
        <ele>459.01</ele>
        <time>2022-05-16T09:09:30Z</time>
      </trkpt>
      <trkpt lat="47.69317" lon="5.04048">
        <ele>459.28</ele>
        <time>2022-05-16T09:09:32Z</time>
      </trkpt>
      <trkpt lat="47.69318" lon="5.04052">
        <ele>459.35</ele>
        <time>2022-05-16T09:09:34Z</time>
      </trkpt>
      <trkpt lat="47.69319" lon="5.04055">
        <ele>459.44</ele>
        <time>2022-05-16T09:09:36Z</time>
      </trkpt>
      <trkpt lat="47.6932" lon="5.04059">
        <ele>458.98</ele>
        <time>2022-05-16T09:09:37Z</time>
      </trkpt>
      <trkpt lat="47.69321" lon="5.04063">
        <ele>458.47</ele>
        <time>2022-05-16T09:09:39Z</time>
      </trkpt>
      <trkpt lat="47.69322" lon="5.04067">
        <ele>457.98</ele>
        <time>2022-05-16T09:09:42Z</time>
      </trkpt>
      <trkpt lat="47.69324" lon="5.04072">
        <ele>457.55</ele>
        <time>2022-05-16T09:09:44Z</time>
      </trkpt>
      <trkpt lat="47.69325" lon="5.04076">
        <ele>457.11</ele>
        <time>2022-05-16T09:09:47Z</time>
      </trkpt>
      <trkpt lat="47.69325" lon="5.04081">
        <ele>456.29</ele>
        <time>2022-05-16T09:09:49Z</time>
      </trkpt>
      <trkpt lat="47.69326" lon="5.04085">
        <ele>455.9</ele>
        <time>2022-05-16T09:09:51Z</time>
      </trkpt>
      <trkpt lat="47.69326" lon="5.0409">
        <ele>455.14</ele>
        <time>2022-05-16T09:09:53Z</time>
      </trkpt>
      <trkpt lat="47.69327" lon="5.04095">
        <ele>454.59</ele>
        <time>2022-05-16T09:09:55Z</time>
      </trkpt>
      <trkpt lat="47.69327" lon="5.04099">
        <ele>453.97</ele>
        <time>2022-05-16T09:09:58Z</time>
      </trkpt>
      <trkpt lat="47.69328" lon="5.04103">
        <ele>453.52</ele>
        <time>2022-05-16T09:10:00Z</time>
      </trkpt>
      <trkpt lat="47.69329" lon="5.04107">
        <ele>453.05</ele>
        <time>2022-05-16T09:10:03Z</time>
      </trkpt>
      <trkpt lat="47.69329" lon="5.04112">
        <ele>452.28</ele>
        <time>2022-05-16T09:10:05Z</time>
      </trkpt>
      <trkpt lat="47.6933" lon="5.04116">
        <ele>452.01</ele>
        <time>2022-05-16T09:10:08Z</time>
      </trkpt>
      <trkpt lat="47.69331" lon="5.04121">
        <ele>451.63</ele>
        <time>2022-05-16T09:10:10Z</time>
      </trkpt>
      <trkpt lat="47.69331" lon="5.04125">
        <ele>451.21</ele>
        <time>2022-05-16T09:10:12Z</time>
      </trkpt>
      <trkpt lat="47.69332" lon="5.04129">
        <ele>450.91</ele>
        <time>2022-05-16T09:10:14Z</time>
      </trkpt>
      <trkpt lat="47.69333" lon="5.04134">
        <ele>450.49</ele>
        <time>2022-05-16T09:10:17Z</time>
      </trkpt>
      <trkpt lat="47.69334" lon="5.04139">
        <ele>450.08</ele>
        <time>2022-05-16T09:10:19Z</time>
      </trkpt>
      <trkpt lat="47.69336" lon="5.04144">
        <ele>449.85</ele>
        <time>2022-05-16T09:10:21Z</time>
      </trkpt>
      <trkpt lat="47.69336" lon="5.04148">
        <ele>449.43</ele>
        <time>2022-05-16T09:10:24Z</time>
      </trkpt>
      <trkpt lat="47.69337" lon="5.04155">
        <ele>448.86</ele>
        <time>2022-05-16T09:10:27Z</time>
      </trkpt>
      <trkpt lat="47.69337" lon="5.04159">
        <ele>448.45</ele>
        <time>2022-05-16T09:10:28Z</time>
      </trkpt>
      <trkpt lat="47.69338" lon="5.04165">
        <ele>448.01</ele>
        <time>2022-05-16T09:10:31Z</time>
      </trkpt>
      <trkpt lat="47.69338" lon="5.0417">
        <ele>447.72</ele>
        <time>2022-05-16T09:10:33Z</time>
      </trkpt>
      <trkpt lat="47.69338" lon="5.04174">
        <ele>447.58</ele>
        <time>2022-05-16T09:10:37Z</time>
      </trkpt>
      <trkpt lat="47.69339" lon="5.04178">
        <ele>447.61</ele>
        <time>2022-05-16T09:10:39Z</time>
      </trkpt>
      <trkpt lat="47.69339" lon="5.04183">
        <ele>447.43</ele>
        <time>2022-05-16T09:10:42Z</time>
      </trkpt>
      <trkpt lat="47.6934" lon="5.04188">
        <ele>447.43</ele>
        <time>2022-05-16T09:10:45Z</time>
      </trkpt>
      <trkpt lat="47.69341" lon="5.04192">
        <ele>447.47</ele>
        <time>2022-05-16T09:10:48Z</time>
      </trkpt>
      <trkpt lat="47.69342" lon="5.04195">
        <ele>447.52</ele>
        <time>2022-05-16T09:10:51Z</time>
      </trkpt>
      <trkpt lat="47.69343" lon="5.042">
        <ele>447.34</ele>
        <time>2022-05-16T09:10:56Z</time>
      </trkpt>
      <trkpt lat="47.69344" lon="5.04203">
        <ele>447.3</ele>
        <time>2022-05-16T09:11:04Z</time>
      </trkpt>
      <trkpt lat="47.69347" lon="5.04208">
        <ele>447.48</ele>
        <time>2022-05-16T09:11:33Z</time>
      </trkpt>
      <trkpt lat="47.69348" lon="5.04212">
        <ele>447.38</ele>
        <time>2022-05-16T09:11:42Z</time>
      </trkpt>
      <trkpt lat="47.69351" lon="5.04211">
        <ele>447.99</ele>
        <time>2022-05-16T09:11:47Z</time>
      </trkpt>
      <trkpt lat="47.69354" lon="5.0421">
        <ele>448.6</ele>
        <time>2022-05-16T09:11:51Z</time>
      </trkpt>
      <trkpt lat="47.69356" lon="5.04209">
        <ele>449.03</ele>
        <time>2022-05-16T09:11:54Z</time>
      </trkpt>
      <trkpt lat="47.6936" lon="5.04208">
        <ele>449.82</ele>
        <time>2022-05-16T09:11:59Z</time>
      </trkpt>
      <trkpt lat="47.69362" lon="5.04207">
        <ele>450.32</ele>
        <time>2022-05-16T09:12:03Z</time>
      </trkpt>
      <trkpt lat="47.69365" lon="5.04207">
        <ele>451.08</ele>
        <time>2022-05-16T09:12:05Z</time>
      </trkpt>
      <trkpt lat="47.69368" lon="5.04207">
        <ele>451.83</ele>
        <time>2022-05-16T09:12:09Z</time>
      </trkpt>
      <trkpt lat="47.69371" lon="5.04208">
        <ele>452.52</ele>
        <time>2022-05-16T09:12:12Z</time>
      </trkpt>
      <trkpt lat="47.69374" lon="5.04209">
        <ele>453.2</ele>
        <time>2022-05-16T09:12:15Z</time>
      </trkpt>
      <trkpt lat="47.69377" lon="5.04209">
        <ele>453.96</ele>
        <time>2022-05-16T09:12:18Z</time>
      </trkpt>
      <trkpt lat="47.6938" lon="5.04209">
        <ele>454.71</ele>
        <time>2022-05-16T09:12:21Z</time>
      </trkpt>
      <trkpt lat="47.69383" lon="5.04209">
        <ele>455.47</ele>
        <time>2022-05-16T09:12:24Z</time>
      </trkpt>
      <trkpt lat="47.69386" lon="5.04209">
        <ele>456.22</ele>
        <time>2022-05-16T09:12:27Z</time>
      </trkpt>
      <trkpt lat="47.69389" lon="5.04209">
        <ele>456.97</ele>
        <time>2022-05-16T09:12:30Z</time>
      </trkpt>
      <trkpt lat="47.69392" lon="5.04209">
        <ele>457.57</ele>
        <time>2022-05-16T09:12:32Z</time>
      </trkpt>
      <trkpt lat="47.69396" lon="5.04209">
        <ele>458.37</ele>
        <time>2022-05-16T09:12:36Z</time>
      </trkpt>
      <trkpt lat="47.69398" lon="5.0421">
        <ele>458.7</ele>
        <time>2022-05-16T09:12:38Z</time>
      </trkpt>
      <trkpt lat="47.69401" lon="5.0421">
        <ele>459.3</ele>
        <time>2022-05-16T09:12:41Z</time>
      </trkpt>
      <trkpt lat="47.69404" lon="5.04209">
        <ele>459.96</ele>
        <time>2022-05-16T09:12:45Z</time>
      </trkpt>
      <trkpt lat="47.69407" lon="5.04209">
        <ele>460.55</ele>
        <time>2022-05-16T09:12:47Z</time>
      </trkpt>
      <trkpt lat="47.6941" lon="5.0421">
        <ele>461.11</ele>
        <time>2022-05-16T09:12:50Z</time>
      </trkpt>
      <trkpt lat="47.69413" lon="5.04211">
        <ele>461.67</ele>
        <time>2022-05-16T09:12:52Z</time>
      </trkpt>
      <trkpt lat="47.69416" lon="5.04213">
        <ele>462.2</ele>
        <time>2022-05-16T09:12:54Z</time>
      </trkpt>
      <trkpt lat="47.69419" lon="5.04214">
        <ele>462.83</ele>
        <time>2022-05-16T09:12:56Z</time>
      </trkpt>
      <trkpt lat="47.69421" lon="5.04216">
        <ele>463.25</ele>
        <time>2022-05-16T09:13:00Z</time>
      </trkpt>
      <trkpt lat="47.69424" lon="5.04216">
        <ele>463.95</ele>
        <time>2022-05-16T09:13:03Z</time>
      </trkpt>
      <trkpt lat="47.69427" lon="5.04216">
        <ele>464.66</ele>
        <time>2022-05-16T09:13:05Z</time>
      </trkpt>
      <trkpt lat="47.69431" lon="5.04216">
        <ele>465.6</ele>
        <time>2022-05-16T09:13:07Z</time>
      </trkpt>
      <trkpt lat="47.69434" lon="5.04216">
        <ele>466.31</ele>
        <time>2022-05-16T09:13:10Z</time>
      </trkpt>
      <trkpt lat="47.69437" lon="5.04216">
        <ele>467.02</ele>
        <time>2022-05-16T09:13:13Z</time>
      </trkpt>
      <trkpt lat="47.6944" lon="5.04217">
        <ele>467.75</ele>
        <time>2022-05-16T09:13:15Z</time>
      </trkpt>
      <trkpt lat="47.69443" lon="5.04218">
        <ele>468.5</ele>
        <time>2022-05-16T09:13:18Z</time>
      </trkpt>
      <trkpt lat="47.69446" lon="5.04219">
        <ele>469.11</ele>
        <time>2022-05-16T09:13:23Z</time>
      </trkpt>
      <trkpt lat="47.69449" lon="5.04219">
        <ele>469.54</ele>
        <time>2022-05-16T09:13:25Z</time>
      </trkpt>
      <trkpt lat="47.69452" lon="5.04219">
        <ele>469.97</ele>
        <time>2022-05-16T09:13:27Z</time>
      </trkpt>
      <trkpt lat="47.69454" lon="5.0422">
        <ele>470.3</ele>
        <time>2022-05-16T09:13:29Z</time>
      </trkpt>
      <trkpt lat="47.69457" lon="5.04221">
        <ele>470.76</ele>
        <time>2022-05-16T09:13:31Z</time>
      </trkpt>
      <trkpt lat="47.6946" lon="5.04223">
        <ele>471.24</ele>
        <time>2022-05-16T09:13:34Z</time>
      </trkpt>
      <trkpt lat="47.69462" lon="5.04223">
        <ele>471.53</ele>
        <time>2022-05-16T09:13:38Z</time>
      </trkpt>
      <trkpt lat="47.69465" lon="5.04225">
        <ele>471.96</ele>
        <time>2022-05-16T09:13:42Z</time>
      </trkpt>
      <trkpt lat="47.69468" lon="5.04226">
        <ele>472.39</ele>
        <time>2022-05-16T09:13:45Z</time>
      </trkpt>
      <trkpt lat="47.6947" lon="5.04228">
        <ele>472.68</ele>
        <time>2022-05-16T09:13:49Z</time>
      </trkpt>
      <trkpt lat="47.69474" lon="5.04229">
        <ele>473</ele>
        <time>2022-05-16T09:13:51Z</time>
      </trkpt>
      <trkpt lat="47.69477" lon="5.04231">
        <ele>473</ele>
        <time>2022-05-16T09:13:56Z</time>
      </trkpt>
      <trkpt lat="47.69479" lon="5.04231">
        <ele>473</ele>
        <time>2022-05-16T09:13:59Z</time>
      </trkpt>
      <trkpt lat="47.69482" lon="5.0423">
        <ele>473</ele>
        <time>2022-05-16T09:14:03Z</time>
      </trkpt>
      <trkpt lat="47.69485" lon="5.0423">
        <ele>473</ele>
        <time>2022-05-16T09:14:06Z</time>
      </trkpt>
      <trkpt lat="47.69488" lon="5.0423">
        <ele>473</ele>
        <time>2022-05-16T09:14:10Z</time>
      </trkpt>
      <trkpt lat="47.69491" lon="5.0423">
        <ele>473</ele>
        <time>2022-05-16T09:14:13Z</time>
      </trkpt>
      <trkpt lat="47.69495" lon="5.0423">
        <ele>473</ele>
        <time>2022-05-16T09:14:16Z</time>
      </trkpt>
      <trkpt lat="47.69499" lon="5.0423">
        <ele>473</ele>
        <time>2022-05-16T09:14:18Z</time>
      </trkpt>
      <trkpt lat="47.69501" lon="5.04229">
        <ele>472.99</ele>
        <time>2022-05-16T09:14:21Z</time>
      </trkpt>
      <trkpt lat="47.69504" lon="5.04229">
        <ele>472.96</ele>
        <time>2022-05-16T09:14:24Z</time>
      </trkpt>
      <trkpt lat="47.69507" lon="5.04229">
        <ele>472.94</ele>
        <time>2022-05-16T09:14:27Z</time>
      </trkpt>
      <trkpt lat="47.69511" lon="5.04229">
        <ele>472.9</ele>
        <time>2022-05-16T09:14:30Z</time>
      </trkpt>
      <trkpt lat="47.69514" lon="5.04229">
        <ele>472.88</ele>
        <time>2022-05-16T09:14:33Z</time>
      </trkpt>
      <trkpt lat="47.69517" lon="5.0423">
        <ele>472.83</ele>
        <time>2022-05-16T09:14:36Z</time>
      </trkpt>
      <trkpt lat="47.6952" lon="5.04231">
        <ele>472.77</ele>
        <time>2022-05-16T09:14:39Z</time>
      </trkpt>
      <trkpt lat="47.69522" lon="5.04233">
        <ele>472.69</ele>
        <time>2022-05-16T09:14:44Z</time>
      </trkpt>
      <trkpt lat="47.69525" lon="5.04232">
        <ele>472.68</ele>
        <time>2022-05-16T09:15:50Z</time>
      </trkpt>
      <trkpt lat="47.69528" lon="5.04232">
        <ele>472.67</ele>
        <time>2022-05-16T09:15:53Z</time>
      </trkpt>
      <trkpt lat="47.69532" lon="5.04231">
        <ele>473.14</ele>
        <time>2022-05-16T09:15:56Z</time>
      </trkpt>
      <trkpt lat="47.69535" lon="5.0423">
        <ele>473.5</ele>
        <time>2022-05-16T09:15:59Z</time>
      </trkpt>
      <trkpt lat="47.69538" lon="5.04229">
        <ele>473.86</ele>
        <time>2022-05-16T09:16:01Z</time>
      </trkpt>
      <trkpt lat="47.69541" lon="5.04228">
        <ele>474.22</ele>
        <time>2022-05-16T09:16:03Z</time>
      </trkpt>
      <trkpt lat="47.69544" lon="5.04227">
        <ele>474.58</ele>
        <time>2022-05-16T09:16:05Z</time>
      </trkpt>
      <trkpt lat="47.69548" lon="5.04226">
        <ele>475.05</ele>
        <time>2022-05-16T09:16:09Z</time>
      </trkpt>
      <trkpt lat="47.69551" lon="5.04226">
        <ele>475.37</ele>
        <time>2022-05-16T09:16:11Z</time>
      </trkpt>
      <trkpt lat="47.69554" lon="5.04227">
        <ele>475.66</ele>
        <time>2022-05-16T09:16:12Z</time>
      </trkpt>
      <trkpt lat="47.69557" lon="5.04228">
        <ele>475.9</ele>
        <time>2022-05-16T09:16:14Z</time>
      </trkpt>
      <trkpt lat="47.6956" lon="5.04229">
        <ele>476.08</ele>
        <time>2022-05-16T09:16:17Z</time>
      </trkpt>
      <trkpt lat="47.69563" lon="5.0423">
        <ele>476.26</ele>
        <time>2022-05-16T09:16:19Z</time>
      </trkpt>
      <trkpt lat="47.69566" lon="5.04232">
        <ele>476.4</ele>
        <time>2022-05-16T09:16:22Z</time>
      </trkpt>
      <trkpt lat="47.69569" lon="5.04233">
        <ele>476.58</ele>
        <time>2022-05-16T09:16:25Z</time>
      </trkpt>
      <trkpt lat="47.69572" lon="5.04235">
        <ele>476.72</ele>
        <time>2022-05-16T09:16:27Z</time>
      </trkpt>
      <trkpt lat="47.69574" lon="5.04238">
        <ele>476.76</ele>
        <time>2022-05-16T09:16:30Z</time>
      </trkpt>
      <trkpt lat="47.69577" lon="5.0424">
        <ele>476.9</ele>
        <time>2022-05-16T09:16:35Z</time>
      </trkpt>
      <trkpt lat="47.69579" lon="5.04242">
        <ele>476.98</ele>
        <time>2022-05-16T09:16:37Z</time>
      </trkpt>
      <trkpt lat="47.69582" lon="5.04242">
        <ele>477.19</ele>
        <time>2022-05-16T09:16:40Z</time>
      </trkpt>
      <trkpt lat="47.69585" lon="5.04242">
        <ele>477.37</ele>
        <time>2022-05-16T09:16:42Z</time>
      </trkpt>
      <trkpt lat="47.69588" lon="5.04242">
        <ele>477.5</ele>
        <time>2022-05-16T09:16:44Z</time>
      </trkpt>
      <trkpt lat="47.69591" lon="5.04243">
        <ele>477.6</ele>
        <time>2022-05-16T09:16:47Z</time>
      </trkpt>
      <trkpt lat="47.69594" lon="5.04244">
        <ele>477.68</ele>
        <time>2022-05-16T09:16:49Z</time>
      </trkpt>
      <trkpt lat="47.69597" lon="5.04244">
        <ele>477.81</ele>
        <time>2022-05-16T09:16:52Z</time>
      </trkpt>
      <trkpt lat="47.696" lon="5.04244">
        <ele>477.95</ele>
        <time>2022-05-16T09:16:55Z</time>
      </trkpt>
      <trkpt lat="47.69603" lon="5.04243">
        <ele>478.14</ele>
        <time>2022-05-16T09:16:57Z</time>
      </trkpt>
      <trkpt lat="47.69606" lon="5.04243">
        <ele>478.27</ele>
        <time>2022-05-16T09:17:01Z</time>
      </trkpt>
      <trkpt lat="47.69609" lon="5.04243">
        <ele>478.41</ele>
        <time>2022-05-16T09:17:04Z</time>
      </trkpt>
      <trkpt lat="47.69612" lon="5.04243">
        <ele>478.58</ele>
        <time>2022-05-16T09:17:07Z</time>
      </trkpt>
      <trkpt lat="47.69615" lon="5.04244">
        <ele>478.76</ele>
        <time>2022-05-16T09:17:09Z</time>
      </trkpt>
      <trkpt lat="47.69619" lon="5.04245">
        <ele>479.06</ele>
        <time>2022-05-16T09:17:12Z</time>
      </trkpt>
      <trkpt lat="47.69623" lon="5.04244">
        <ele>479.44</ele>
        <time>2022-05-16T09:17:15Z</time>
      </trkpt>
      <trkpt lat="47.69626" lon="5.04244">
        <ele>479.69</ele>
        <time>2022-05-16T09:17:17Z</time>
      </trkpt>
      <trkpt lat="47.69629" lon="5.04246">
        <ele>479.94</ele>
        <time>2022-05-16T09:17:20Z</time>
      </trkpt>
      <trkpt lat="47.69633" lon="5.04247">
        <ele>480.32</ele>
        <time>2022-05-16T09:17:22Z</time>
      </trkpt>
      <trkpt lat="47.69635" lon="5.04249">
        <ele>480.56</ele>
        <time>2022-05-16T09:17:24Z</time>
      </trkpt>
      <trkpt lat="47.69638" lon="5.0425">
        <ele>480.9</ele>
        <time>2022-05-16T09:17:29Z</time>
      </trkpt>
      <trkpt lat="47.69641" lon="5.04251">
        <ele>480.89</ele>
        <time>2022-05-16T09:17:31Z</time>
      </trkpt>
      <trkpt lat="47.69644" lon="5.04251">
        <ele>480.79</ele>
        <time>2022-05-16T09:17:33Z</time>
      </trkpt>
      <trkpt lat="47.69647" lon="5.04251">
        <ele>480.68</ele>
        <time>2022-05-16T09:17:35Z</time>
      </trkpt>
      <trkpt lat="47.6965" lon="5.04251">
        <ele>480.58</ele>
        <time>2022-05-16T09:17:37Z</time>
      </trkpt>
      <trkpt lat="47.69653" lon="5.04252">
        <ele>480.46</ele>
        <time>2022-05-16T09:17:41Z</time>
      </trkpt>
      <trkpt lat="47.69656" lon="5.04253">
        <ele>480.34</ele>
        <time>2022-05-16T09:17:43Z</time>
      </trkpt>
      <trkpt lat="47.69659" lon="5.04255">
        <ele>480.23</ele>
        <time>2022-05-16T09:17:48Z</time>
      </trkpt>
      <trkpt lat="47.69662" lon="5.04257">
        <ele>480.13</ele>
        <time>2022-05-16T09:17:50Z</time>
      </trkpt>
      <trkpt lat="47.69665" lon="5.04259">
        <ele>480.04</ele>
        <time>2022-05-16T09:17:53Z</time>
      </trkpt>
      <trkpt lat="47.69668" lon="5.04261">
        <ele>479.73</ele>
        <time>2022-05-16T09:17:57Z</time>
      </trkpt>
      <trkpt lat="47.6967" lon="5.04261">
        <ele>479.33</ele>
        <time>2022-05-16T09:18:01Z</time>
      </trkpt>
      <trkpt lat="47.69673" lon="5.04262">
        <ele>478.73</ele>
        <time>2022-05-16T09:18:06Z</time>
      </trkpt>
      <trkpt lat="47.69676" lon="5.04264">
        <ele>478.15</ele>
        <time>2022-05-16T09:18:10Z</time>
      </trkpt>
      <trkpt lat="47.69679" lon="5.04264">
        <ele>477.56</ele>
        <time>2022-05-16T09:18:14Z</time>
      </trkpt>
      <trkpt lat="47.69682" lon="5.04263">
        <ele>476.95</ele>
        <time>2022-05-16T09:18:20Z</time>
      </trkpt>
      <trkpt lat="47.69685" lon="5.04263">
        <ele>476.35</ele>
        <time>2022-05-16T09:18:26Z</time>
      </trkpt>
      <trkpt lat="47.69687" lon="5.04263">
        <ele>475.95</ele>
        <time>2022-05-16T09:18:30Z</time>
      </trkpt>
      <trkpt lat="47.6969" lon="5.04263">
        <ele>475.35</ele>
        <time>2022-05-16T09:18:37Z</time>
      </trkpt>
      <trkpt lat="47.69693" lon="5.04261">
        <ele>474.69</ele>
        <time>2022-05-16T09:18:42Z</time>
      </trkpt>
      <trkpt lat="47.69696" lon="5.04261">
        <ele>474.06</ele>
        <time>2022-05-16T09:18:48Z</time>
      </trkpt>
      <trkpt lat="47.69699" lon="5.04261">
        <ele>473.41</ele>
        <time>2022-05-16T09:18:53Z</time>
      </trkpt>
      <trkpt lat="47.69702" lon="5.04261">
        <ele>472.76</ele>
        <time>2022-05-16T09:19:00Z</time>
      </trkpt>
      <trkpt lat="47.69705" lon="5.04261">
        <ele>472.12</ele>
        <time>2022-05-16T09:19:03Z</time>
      </trkpt>
      <trkpt lat="47.69708" lon="5.04262">
        <ele>471.5</ele>
        <time>2022-05-16T09:19:07Z</time>
      </trkpt>
      <trkpt lat="47.69711" lon="5.04262">
        <ele>470.86</ele>
        <time>2022-05-16T09:19:11Z</time>
      </trkpt>
      <trkpt lat="47.69713" lon="5.04263">
        <ele>470.46</ele>
        <time>2022-05-16T09:19:16Z</time>
      </trkpt>
      <trkpt lat="47.69716" lon="5.04264">
        <ele>469.85</ele>
        <time>2022-05-16T09:19:22Z</time>
      </trkpt>
      <trkpt lat="47.69719" lon="5.04265">
        <ele>469.24</ele>
        <time>2022-05-16T09:19:26Z</time>
      </trkpt>
      <trkpt lat="47.69721" lon="5.04266">
        <ele>468.84</ele>
        <time>2022-05-16T09:19:30Z</time>
      </trkpt>
      <trkpt lat="47.69725" lon="5.04267">
        <ele>468.01</ele>
        <time>2022-05-16T09:19:33Z</time>
      </trkpt>
      <trkpt lat="47.69727" lon="5.04268">
        <ele>467.62</ele>
        <time>2022-05-16T09:19:38Z</time>
      </trkpt>
      <trkpt lat="47.6973" lon="5.0427">
        <ele>467.04</ele>
        <time>2022-05-16T09:19:40Z</time>
      </trkpt>
      <trkpt lat="47.69733" lon="5.04272">
        <ele>466.46</ele>
        <time>2022-05-16T09:19:43Z</time>
      </trkpt>
      <trkpt lat="47.69736" lon="5.04273">
        <ele>465.85</ele>
        <time>2022-05-16T09:19:46Z</time>
      </trkpt>
      <trkpt lat="47.69739" lon="5.04275">
        <ele>465.28</ele>
        <time>2022-05-16T09:19:52Z</time>
      </trkpt>
      <trkpt lat="47.69742" lon="5.04272">
        <ele>464.52</ele>
        <time>2022-05-16T09:20:01Z</time>
      </trkpt>
      <trkpt lat="47.69745" lon="5.04267">
        <ele>463.69</ele>
        <time>2022-05-16T09:20:03Z</time>
      </trkpt>
      <trkpt lat="47.69746" lon="5.04263">
        <ele>463.33</ele>
        <time>2022-05-16T09:20:06Z</time>
      </trkpt>
      <trkpt lat="47.69749" lon="5.0426">
        <ele>462.58</ele>
        <time>2022-05-16T09:20:13Z</time>
      </trkpt>
      <trkpt lat="47.69751" lon="5.04259">
        <ele>462.15</ele>
        <time>2022-05-16T09:20:17Z</time>
      </trkpt>
      <trkpt lat="47.69752" lon="5.04254">
        <ele>461.82</ele>
        <time>2022-05-16T09:20:27Z</time>
      </trkpt>
      <trkpt lat="47.69752" lon="5.0425">
        <ele>461.71</ele>
        <time>2022-05-16T09:20:30Z</time>
      </trkpt>
      <trkpt lat="47.69751" lon="5.04245">
        <ele>462.21</ele>
        <time>2022-05-16T09:20:32Z</time>
      </trkpt>
      <trkpt lat="47.6975" lon="5.04241">
        <ele>462.65</ele>
        <time>2022-05-16T09:20:38Z</time>
      </trkpt>
      <trkpt lat="47.6975" lon="5.04236">
        <ele>463.01</ele>
        <time>2022-05-16T09:20:39Z</time>
      </trkpt>
      <trkpt lat="47.69749" lon="5.04232">
        <ele>463.44</ele>
        <time>2022-05-16T09:20:41Z</time>
      </trkpt>
      <trkpt lat="47.69749" lon="5.04226">
        <ele>463.85</ele>
        <time>2022-05-16T09:20:45Z</time>
      </trkpt>
      <trkpt lat="47.69748" lon="5.04222">
        <ele>464.21</ele>
        <time>2022-05-16T09:20:47Z</time>
      </trkpt>
      <trkpt lat="47.69747" lon="5.04218">
        <ele>464.2</ele>
        <time>2022-05-16T09:20:50Z</time>
      </trkpt>
      <trkpt lat="47.69747" lon="5.04214">
        <ele>464.09</ele>
        <time>2022-05-16T09:20:52Z</time>
      </trkpt>
      <trkpt lat="47.69747" lon="5.04209">
        <ele>463.95</ele>
        <time>2022-05-16T09:20:55Z</time>
      </trkpt>
      <trkpt lat="47.69747" lon="5.04204">
        <ele>463.81</ele>
        <time>2022-05-16T09:21:00Z</time>
      </trkpt>
      <trkpt lat="47.69747" lon="5.042">
        <ele>463.7</ele>
        <time>2022-05-16T09:21:03Z</time>
      </trkpt>
      <trkpt lat="47.69746" lon="5.04195">
        <ele>463.73</ele>
        <time>2022-05-16T09:21:07Z</time>
      </trkpt>
      <trkpt lat="47.69746" lon="5.04189">
        <ele>463.89</ele>
        <time>2022-05-16T09:21:11Z</time>
      </trkpt>
      <trkpt lat="47.69746" lon="5.04185">
        <ele>464.01</ele>
        <time>2022-05-16T09:21:13Z</time>
      </trkpt>
      <trkpt lat="47.69744" lon="5.04181">
        <ele>464.46</ele>
        <time>2022-05-16T09:21:15Z</time>
      </trkpt>
      <trkpt lat="47.69744" lon="5.04177">
        <ele>464.57</ele>
        <time>2022-05-16T09:21:19Z</time>
      </trkpt>
      <trkpt lat="47.69743" lon="5.04172">
        <ele>464.86</ele>
        <time>2022-05-16T09:21:23Z</time>
      </trkpt>
      <trkpt lat="47.69743" lon="5.04168">
        <ele>464.97</ele>
        <time>2022-05-16T09:21:26Z</time>
      </trkpt>
      <trkpt lat="47.69744" lon="5.04163">
        <ele>464.76</ele>
        <time>2022-05-16T09:21:28Z</time>
      </trkpt>
      <trkpt lat="47.69745" lon="5.04159">
        <ele>464.49</ele>
        <time>2022-05-16T09:21:31Z</time>
      </trkpt>
      <trkpt lat="47.69745" lon="5.04155">
        <ele>464.38</ele>
        <time>2022-05-16T09:21:33Z</time>
      </trkpt>
      <trkpt lat="47.69747" lon="5.04151">
        <ele>463.93</ele>
        <time>2022-05-16T09:21:35Z</time>
      </trkpt>
      <trkpt lat="47.69748" lon="5.04146">
        <ele>463.6</ele>
        <time>2022-05-16T09:21:38Z</time>
      </trkpt>
      <trkpt lat="47.69749" lon="5.04142">
        <ele>463.29</ele>
        <time>2022-05-16T09:21:42Z</time>
      </trkpt>
      <trkpt lat="47.69748" lon="5.04138">
        <ele>463.36</ele>
        <time>2022-05-16T09:21:45Z</time>
      </trkpt>
      <trkpt lat="47.69749" lon="5.04133">
        <ele>463.18</ele>
        <time>2022-05-16T09:21:48Z</time>
      </trkpt>
      <trkpt lat="47.69749" lon="5.04129">
        <ele>463.18</ele>
        <time>2022-05-16T09:21:51Z</time>
      </trkpt>
      <trkpt lat="47.69749" lon="5.04124">
        <ele>463.18</ele>
        <time>2022-05-16T09:21:53Z</time>
      </trkpt>
      <trkpt lat="47.69748" lon="5.04119">
        <ele>463.36</ele>
        <time>2022-05-16T09:21:56Z</time>
      </trkpt>
      <trkpt lat="47.69747" lon="5.04115">
        <ele>463.54</ele>
        <time>2022-05-16T09:21:58Z</time>
      </trkpt>
      <trkpt lat="47.69746" lon="5.0411">
        <ele>463.65</ele>
        <time>2022-05-16T09:22:00Z</time>
      </trkpt>
      <trkpt lat="47.69746" lon="5.04105">
        <ele>463.31</ele>
        <time>2022-05-16T09:22:03Z</time>
      </trkpt>
      <trkpt lat="47.69746" lon="5.041">
        <ele>462.98</ele>
        <time>2022-05-16T09:22:05Z</time>
      </trkpt>
      <trkpt lat="47.69746" lon="5.04096">
        <ele>462.71</ele>
        <time>2022-05-16T09:22:08Z</time>
      </trkpt>
      <trkpt lat="47.69745" lon="5.04091">
        <ele>462.58</ele>
        <time>2022-05-16T09:22:13Z</time>
      </trkpt>
      <trkpt lat="47.69745" lon="5.04087">
        <ele>462.32</ele>
        <time>2022-05-16T09:22:15Z</time>
      </trkpt>
      <trkpt lat="47.69745" lon="5.04083">
        <ele>462.07</ele>
        <time>2022-05-16T09:22:19Z</time>
      </trkpt>
      <trkpt lat="47.69744" lon="5.04078">
        <ele>462.1</ele>
        <time>2022-05-16T09:22:21Z</time>
      </trkpt>
      <trkpt lat="47.69744" lon="5.04072">
        <ele>461.89</ele>
        <time>2022-05-16T09:22:24Z</time>
      </trkpt>
      <trkpt lat="47.69744" lon="5.04067">
        <ele>461.71</ele>
        <time>2022-05-16T09:22:25Z</time>
      </trkpt>
      <trkpt lat="47.69745" lon="5.04062">
        <ele>461.31</ele>
        <time>2022-05-16T09:22:28Z</time>
      </trkpt>
      <trkpt lat="47.69745" lon="5.04058">
        <ele>461.17</ele>
        <time>2022-05-16T09:22:30Z</time>
      </trkpt>
      <trkpt lat="47.69746" lon="5.04053">
        <ele>460.76</ele>
        <time>2022-05-16T09:22:33Z</time>
      </trkpt>
      <trkpt lat="47.69746" lon="5.04049">
        <ele>460.59</ele>
        <time>2022-05-16T09:22:36Z</time>
      </trkpt>
      <trkpt lat="47.69745" lon="5.04045">
        <ele>460.63</ele>
        <time>2022-05-16T09:22:42Z</time>
      </trkpt>
      <trkpt lat="47.69745" lon="5.0404">
        <ele>460.42</ele>
        <time>2022-05-16T09:22:45Z</time>
      </trkpt>
      <trkpt lat="47.69746" lon="5.04035">
        <ele>460.02</ele>
        <time>2022-05-16T09:22:47Z</time>
      </trkpt>
      <trkpt lat="47.69747" lon="5.04031">
        <ele>459.67</ele>
        <time>2022-05-16T09:22:49Z</time>
      </trkpt>
      <trkpt lat="47.69749" lon="5.04027">
        <ele>459.18</ele>
        <time>2022-05-16T09:22:52Z</time>
      </trkpt>
      <trkpt lat="47.69751" lon="5.04025">
        <ele>458.81</ele>
        <time>2022-05-16T09:22:56Z</time>
      </trkpt>
      <trkpt lat="47.69753" lon="5.04022">
        <ele>458.42</ele>
        <time>2022-05-16T09:22:58Z</time>
      </trkpt>
      <trkpt lat="47.69755" lon="5.04019">
        <ele>457.99</ele>
        <time>2022-05-16T09:23:02Z</time>
      </trkpt>
      <trkpt lat="47.69757" lon="5.04015">
        <ele>457.51</ele>
        <time>2022-05-16T09:23:05Z</time>
      </trkpt>
      <trkpt lat="47.6976" lon="5.04012">
        <ele>456.79</ele>
        <time>2022-05-16T09:23:07Z</time>
      </trkpt>
      <trkpt lat="47.69762" lon="5.0401">
        <ele>456.29</ele>
        <time>2022-05-16T09:23:09Z</time>
      </trkpt>
      <trkpt lat="47.69765" lon="5.04007">
        <ele>455.49</ele>
        <time>2022-05-16T09:23:11Z</time>
      </trkpt>
      <trkpt lat="47.69767" lon="5.04004">
        <ele>454.89</ele>
        <time>2022-05-16T09:23:15Z</time>
      </trkpt>
      <trkpt lat="47.69769" lon="5.04001">
        <ele>454.26</ele>
        <time>2022-05-16T09:23:17Z</time>
      </trkpt>
      <trkpt lat="47.69771" lon="5.03998">
        <ele>453.56</ele>
        <time>2022-05-16T09:23:20Z</time>
      </trkpt>
      <trkpt lat="47.69774" lon="5.03996">
        <ele>452.66</ele>
        <time>2022-05-16T09:23:23Z</time>
      </trkpt>
      <trkpt lat="47.69777" lon="5.03997">
        <ele>451.98</ele>
        <time>2022-05-16T09:23:28Z</time>
      </trkpt>
      <trkpt lat="47.69779" lon="5.03999">
        <ele>451.53</ele>
        <time>2022-05-16T09:23:33Z</time>
      </trkpt>
      <trkpt lat="47.69781" lon="5.04002">
        <ele>451.09</ele>
        <time>2022-05-16T09:23:36Z</time>
      </trkpt>
      <trkpt lat="47.69783" lon="5.04005">
        <ele>450.63</ele>
        <time>2022-05-16T09:23:39Z</time>
      </trkpt>
      <trkpt lat="47.69785" lon="5.04008">
        <ele>450.16</ele>
        <time>2022-05-16T09:23:41Z</time>
      </trkpt>
      <trkpt lat="47.69787" lon="5.04011">
        <ele>449.67</ele>
        <time>2022-05-16T09:23:44Z</time>
      </trkpt>
      <trkpt lat="47.69788" lon="5.04015">
        <ele>449.57</ele>
        <time>2022-05-16T09:23:46Z</time>
      </trkpt>
      <trkpt lat="47.69789" lon="5.04019">
        <ele>449.46</ele>
        <time>2022-05-16T09:23:50Z</time>
      </trkpt>
      <trkpt lat="47.69791" lon="5.04022">
        <ele>448.92</ele>
        <time>2022-05-16T09:23:53Z</time>
      </trkpt>
      <trkpt lat="47.69793" lon="5.04025">
        <ele>448.37</ele>
        <time>2022-05-16T09:23:56Z</time>
      </trkpt>
      <trkpt lat="47.69795" lon="5.04028">
        <ele>447.81</ele>
        <time>2022-05-16T09:23:59Z</time>
      </trkpt>
      <trkpt lat="47.69797" lon="5.04032">
        <ele>447.23</ele>
        <time>2022-05-16T09:24:02Z</time>
      </trkpt>
      <trkpt lat="47.69799" lon="5.04036">
        <ele>446.66</ele>
        <time>2022-05-16T09:24:04Z</time>
      </trkpt>
      <trkpt lat="47.698" lon="5.04039">
        <ele>446.4</ele>
        <time>2022-05-16T09:24:07Z</time>
      </trkpt>
      <trkpt lat="47.69802" lon="5.04043">
        <ele>445.83</ele>
        <time>2022-05-16T09:24:09Z</time>
      </trkpt>
      <trkpt lat="47.69804" lon="5.04046">
        <ele>445.22</ele>
        <time>2022-05-16T09:24:11Z</time>
      </trkpt>
      <trkpt lat="47.69805" lon="5.0405">
        <ele>445</ele>
        <time>2022-05-16T09:24:13Z</time>
      </trkpt>
      <trkpt lat="47.69807" lon="5.04055">
        <ele>444.2</ele>
        <time>2022-05-16T09:24:16Z</time>
      </trkpt>
      <trkpt lat="47.69809" lon="5.04058">
        <ele>443.16</ele>
        <time>2022-05-16T09:24:19Z</time>
      </trkpt>
      <trkpt lat="47.69811" lon="5.04061">
        <ele>442.14</ele>
        <time>2022-05-16T09:24:23Z</time>
      </trkpt>
      <trkpt lat="47.69813" lon="5.04064">
        <ele>441.14</ele>
        <time>2022-05-16T09:24:27Z</time>
      </trkpt>
      <trkpt lat="47.69816" lon="5.04068">
        <ele>439.7</ele>
        <time>2022-05-16T09:24:31Z</time>
      </trkpt>
      <trkpt lat="47.69818" lon="5.0407">
        <ele>438.75</ele>
        <time>2022-05-16T09:24:34Z</time>
      </trkpt>
      <trkpt lat="47.6982" lon="5.04072">
        <ele>437.82</ele>
        <time>2022-05-16T09:24:39Z</time>
      </trkpt>
      <trkpt lat="47.69823" lon="5.04075">
        <ele>436.46</ele>
        <time>2022-05-16T09:24:43Z</time>
      </trkpt>
      <trkpt lat="47.69825" lon="5.04077">
        <ele>435.58</ele>
        <time>2022-05-16T09:24:45Z</time>
      </trkpt>
      <trkpt lat="47.69827" lon="5.0408">
        <ele>434.78</ele>
        <time>2022-05-16T09:24:49Z</time>
      </trkpt>
      <trkpt lat="47.6983" lon="5.04083">
        <ele>433.54</ele>
        <time>2022-05-16T09:24:51Z</time>
      </trkpt>
      <trkpt lat="47.69832" lon="5.04086">
        <ele>432.54</ele>
        <time>2022-05-16T09:24:55Z</time>
      </trkpt>
      <trkpt lat="47.69834" lon="5.0409">
        <ele>431.48</ele>
        <time>2022-05-16T09:24:59Z</time>
      </trkpt>
      <trkpt lat="47.69836" lon="5.04093">
        <ele>430.53</ele>
        <time>2022-05-16T09:25:01Z</time>
      </trkpt>
      <trkpt lat="47.69838" lon="5.04096">
        <ele>429.6</ele>
        <time>2022-05-16T09:25:04Z</time>
      </trkpt>
      <trkpt lat="47.6984" lon="5.04098">
        <ele>428.72</ele>
        <time>2022-05-16T09:25:07Z</time>
      </trkpt>
      <trkpt lat="47.69843" lon="5.04099">
        <ele>427.46</ele>
        <time>2022-05-16T09:25:11Z</time>
      </trkpt>
      <trkpt lat="47.69846" lon="5.04103">
        <ele>426.14</ele>
        <time>2022-05-16T09:25:15Z</time>
      </trkpt>
      <trkpt lat="47.69847" lon="5.04106">
        <ele>425.68</ele>
        <time>2022-05-16T09:25:18Z</time>
      </trkpt>
      <trkpt lat="47.69849" lon="5.04111">
        <ele>424.8</ele>
        <time>2022-05-16T09:25:21Z</time>
      </trkpt>
      <trkpt lat="47.69851" lon="5.04114">
        <ele>424.11</ele>
        <time>2022-05-16T09:25:24Z</time>
      </trkpt>
      <trkpt lat="47.69853" lon="5.04117">
        <ele>423.42</ele>
        <time>2022-05-16T09:25:26Z</time>
      </trkpt>
      <trkpt lat="47.69855" lon="5.0412">
        <ele>422.74</ele>
        <time>2022-05-16T09:25:29Z</time>
      </trkpt>
      <trkpt lat="47.69858" lon="5.04123">
        <ele>421.66</ele>
        <time>2022-05-16T09:25:34Z</time>
      </trkpt>
      <trkpt lat="47.6986" lon="5.04127">
        <ele>421.01</ele>
        <time>2022-05-16T09:25:37Z</time>
      </trkpt>
      <trkpt lat="47.69862" lon="5.04131">
        <ele>420.66</ele>
        <time>2022-05-16T09:25:40Z</time>
      </trkpt>
      <trkpt lat="47.69863" lon="5.04135">
        <ele>420.73</ele>
        <time>2022-05-16T09:25:42Z</time>
      </trkpt>
      <trkpt lat="47.69865" lon="5.04138">
        <ele>420.69</ele>
        <time>2022-05-16T09:25:44Z</time>
      </trkpt>
      <trkpt lat="47.69867" lon="5.04142">
        <ele>420.64</ele>
        <time>2022-05-16T09:25:46Z</time>
      </trkpt>
      <trkpt lat="47.69869" lon="5.04146">
        <ele>420.54</ele>
        <time>2022-05-16T09:25:49Z</time>
      </trkpt>
      <trkpt lat="47.69871" lon="5.04149">
        <ele>420.39</ele>
        <time>2022-05-16T09:25:50Z</time>
      </trkpt>
      <trkpt lat="47.69873" lon="5.04153">
        <ele>420.22</ele>
        <time>2022-05-16T09:25:52Z</time>
      </trkpt>
      <trkpt lat="47.69876" lon="5.04158">
        <ele>419.88</ele>
        <time>2022-05-16T09:25:55Z</time>
      </trkpt>
      <trkpt lat="47.69878" lon="5.0416">
        <ele>419.62</ele>
        <time>2022-05-16T09:25:56Z</time>
      </trkpt>
      <trkpt lat="47.69881" lon="5.04164">
        <ele>419.18</ele>
        <time>2022-05-16T09:26:00Z</time>
      </trkpt>
      <trkpt lat="47.69883" lon="5.04166">
        <ele>418.86</ele>
        <time>2022-05-16T09:26:01Z</time>
      </trkpt>
      <trkpt lat="47.69886" lon="5.04169">
        <ele>418.42</ele>
        <time>2022-05-16T09:26:03Z</time>
      </trkpt>
      <trkpt lat="47.69888" lon="5.04172">
        <ele>418.13</ele>
        <time>2022-05-16T09:26:05Z</time>
      </trkpt>
      <trkpt lat="47.69891" lon="5.04175">
        <ele>417.65</ele>
        <time>2022-05-16T09:26:06Z</time>
      </trkpt>
      <trkpt lat="47.69893" lon="5.04177">
        <ele>417.3</ele>
        <time>2022-05-16T09:26:09Z</time>
      </trkpt>
      <trkpt lat="47.69896" lon="5.0418">
        <ele>416.73</ele>
        <time>2022-05-16T09:26:10Z</time>
      </trkpt>
      <trkpt lat="47.69899" lon="5.04182">
        <ele>416.14</ele>
        <time>2022-05-16T09:26:13Z</time>
      </trkpt>
      <trkpt lat="47.69901" lon="5.04185">
        <ele>415.68</ele>
        <time>2022-05-16T09:26:14Z</time>
      </trkpt>
      <trkpt lat="47.69904" lon="5.04186">
        <ele>415.07</ele>
        <time>2022-05-16T09:26:17Z</time>
      </trkpt>
      <trkpt lat="47.69907" lon="5.04189">
        <ele>414.34</ele>
        <time>2022-05-16T09:26:18Z</time>
      </trkpt>
      <trkpt lat="47.69909" lon="5.04192">
        <ele>413.78</ele>
        <time>2022-05-16T09:26:19Z</time>
      </trkpt>
      <trkpt lat="47.6991" lon="5.04196">
        <ele>413.33</ele>
        <time>2022-05-16T09:26:21Z</time>
      </trkpt>
      <trkpt lat="47.69912" lon="5.042">
        <ele>412.61</ele>
        <time>2022-05-16T09:26:23Z</time>
      </trkpt>
      <trkpt lat="47.69914" lon="5.04204">
        <ele>411.89</ele>
        <time>2022-05-16T09:26:25Z</time>
      </trkpt>
      <trkpt lat="47.69916" lon="5.04206">
        <ele>411.31</ele>
        <time>2022-05-16T09:26:27Z</time>
      </trkpt>
      <trkpt lat="47.69918" lon="5.04209">
        <ele>410.38</ele>
        <time>2022-05-16T09:26:29Z</time>
      </trkpt>
      <trkpt lat="47.6992" lon="5.04213">
        <ele>409.26</ele>
        <time>2022-05-16T09:26:31Z</time>
      </trkpt>
      <trkpt lat="47.69922" lon="5.04216">
        <ele>408.25</ele>
        <time>2022-05-16T09:26:32Z</time>
      </trkpt>
      <trkpt lat="47.69925" lon="5.04219">
        <ele>406.86</ele>
        <time>2022-05-16T09:26:35Z</time>
      </trkpt>
      <trkpt lat="47.69928" lon="5.04221">
        <ele>405.56</ele>
        <time>2022-05-16T09:26:36Z</time>
      </trkpt>
      <trkpt lat="47.6993" lon="5.04223">
        <ele>404.73</ele>
        <time>2022-05-16T09:26:38Z</time>
      </trkpt>
      <trkpt lat="47.69933" lon="5.04225">
        <ele>403.59</ele>
        <time>2022-05-16T09:26:41Z</time>
      </trkpt>
      <trkpt lat="47.69935" lon="5.04228">
        <ele>402.88</ele>
        <time>2022-05-16T09:26:43Z</time>
      </trkpt>
      <trkpt lat="47.69938" lon="5.04231">
        <ele>401.79</ele>
        <time>2022-05-16T09:26:45Z</time>
      </trkpt>
      <trkpt lat="47.69939" lon="5.04235">
        <ele>401.53</ele>
        <time>2022-05-16T09:26:48Z</time>
      </trkpt>
      <trkpt lat="47.69941" lon="5.04239">
        <ele>400.89</ele>
        <time>2022-05-16T09:26:50Z</time>
      </trkpt>
      <trkpt lat="47.69944" lon="5.0424">
        <ele>399.81</ele>
        <time>2022-05-16T09:26:52Z</time>
      </trkpt>
      <trkpt lat="47.69947" lon="5.04242">
        <ele>399.07</ele>
        <time>2022-05-16T09:26:54Z</time>
      </trkpt>
      <trkpt lat="47.6995" lon="5.04244">
        <ele>398.38</ele>
        <time>2022-05-16T09:26:56Z</time>
      </trkpt>
      <trkpt lat="47.69952" lon="5.04247">
        <ele>397.99</ele>
        <time>2022-05-16T09:26:58Z</time>
      </trkpt>
      <trkpt lat="47.69954" lon="5.0425">
        <ele>397.59</ele>
        <time>2022-05-16T09:27:00Z</time>
      </trkpt>
      <trkpt lat="47.69956" lon="5.04253">
        <ele>397.2</ele>
        <time>2022-05-16T09:27:02Z</time>
      </trkpt>
      <trkpt lat="47.69958" lon="5.04256">
        <ele>396.8</ele>
        <time>2022-05-16T09:27:04Z</time>
      </trkpt>
      <trkpt lat="47.6996" lon="5.04259">
        <ele>396.4</ele>
        <time>2022-05-16T09:27:07Z</time>
      </trkpt>
      <trkpt lat="47.69963" lon="5.04262">
        <ele>395.76</ele>
        <time>2022-05-16T09:27:09Z</time>
      </trkpt>
      <trkpt lat="47.69966" lon="5.04265">
        <ele>395.11</ele>
        <time>2022-05-16T09:27:11Z</time>
      </trkpt>
      <trkpt lat="47.69968" lon="5.04268">
        <ele>394.71</ele>
        <time>2022-05-16T09:27:14Z</time>
      </trkpt>
      <trkpt lat="47.6997" lon="5.04272">
        <ele>394.35</ele>
        <time>2022-05-16T09:27:16Z</time>
      </trkpt>
      <trkpt lat="47.69973" lon="5.04275">
        <ele>393.71</ele>
        <time>2022-05-16T09:27:18Z</time>
      </trkpt>
      <trkpt lat="47.69975" lon="5.04277">
        <ele>393.28</ele>
        <time>2022-05-16T09:27:21Z</time>
      </trkpt>
      <trkpt lat="47.69977" lon="5.0428">
        <ele>392.88</ele>
        <time>2022-05-16T09:27:24Z</time>
      </trkpt>
      <trkpt lat="47.69979" lon="5.04282">
        <ele>392.44</ele>
        <time>2022-05-16T09:27:26Z</time>
      </trkpt>
      <trkpt lat="47.69982" lon="5.04285">
        <ele>391.8</ele>
        <time>2022-05-16T09:27:30Z</time>
      </trkpt>
      <trkpt lat="47.69984" lon="5.04288">
        <ele>391.4</ele>
        <time>2022-05-16T09:27:32Z</time>
      </trkpt>
      <trkpt lat="47.69987" lon="5.04291">
        <ele>390.75</ele>
        <time>2022-05-16T09:27:35Z</time>
      </trkpt>
      <trkpt lat="47.69989" lon="5.04294">
        <ele>390.36</ele>
        <time>2022-05-16T09:27:38Z</time>
      </trkpt>
      <trkpt lat="47.69992" lon="5.04297">
        <ele>389.71</ele>
        <time>2022-05-16T09:27:41Z</time>
      </trkpt>
      <trkpt lat="47.69994" lon="5.04299">
        <ele>389.28</ele>
        <time>2022-05-16T09:27:43Z</time>
      </trkpt>
      <trkpt lat="47.69996" lon="5.04301">
        <ele>388.84</ele>
        <time>2022-05-16T09:27:45Z</time>
      </trkpt>
      <trkpt lat="47.69999" lon="5.04304">
        <ele>388.2</ele>
        <time>2022-05-16T09:27:47Z</time>
      </trkpt>
      <trkpt lat="47.70001" lon="5.04307">
        <ele>387.89</ele>
        <time>2022-05-16T09:27:50Z</time>
      </trkpt>
      <trkpt lat="47.70004" lon="5.0431">
        <ele>387.59</ele>
        <time>2022-05-16T09:27:52Z</time>
      </trkpt>
      <trkpt lat="47.70006" lon="5.04313">
        <ele>387.41</ele>
        <time>2022-05-16T09:27:54Z</time>
      </trkpt>
      <trkpt lat="47.70008" lon="5.04317">
        <ele>387.25</ele>
        <time>2022-05-16T09:27:58Z</time>
      </trkpt>
      <trkpt lat="47.70009" lon="5.04321">
        <ele>387.21</ele>
        <time>2022-05-16T09:28:00Z</time>
      </trkpt>
      <trkpt lat="47.70011" lon="5.04324">
        <ele>387.07</ele>
        <time>2022-05-16T09:28:03Z</time>
      </trkpt>
      <trkpt lat="47.70013" lon="5.04328">
        <ele>386.97</ele>
        <time>2022-05-16T09:28:04Z</time>
      </trkpt>
      <trkpt lat="47.70015" lon="5.04332">
        <ele>386.89</ele>
        <time>2022-05-16T09:28:07Z</time>
      </trkpt>
      <trkpt lat="47.70016" lon="5.04335">
        <ele>386.79</ele>
        <time>2022-05-16T09:28:09Z</time>
      </trkpt>
      <trkpt lat="47.70018" lon="5.04339">
        <ele>386.5</ele>
        <time>2022-05-16T09:28:12Z</time>
      </trkpt>
      <trkpt lat="47.70021" lon="5.04343">
        <ele>386.14</ele>
        <time>2022-05-16T09:28:15Z</time>
      </trkpt>
      <trkpt lat="47.70022" lon="5.04346">
        <ele>385.96</ele>
        <time>2022-05-16T09:28:18Z</time>
      </trkpt>
      <trkpt lat="47.70024" lon="5.04349">
        <ele>385.71</ele>
        <time>2022-05-16T09:28:22Z</time>
      </trkpt>
      <trkpt lat="47.70026" lon="5.04353">
        <ele>385.42</ele>
        <time>2022-05-16T09:28:26Z</time>
      </trkpt>
      <trkpt lat="47.70028" lon="5.04355">
        <ele>385.21</ele>
        <time>2022-05-16T09:28:28Z</time>
      </trkpt>
      <trkpt lat="47.7003" lon="5.04359">
        <ele>385</ele>
        <time>2022-05-16T09:28:31Z</time>
      </trkpt>
      <trkpt lat="47.70033" lon="5.04363">
        <ele>384.68</ele>
        <time>2022-05-16T09:28:33Z</time>
      </trkpt>
      <trkpt lat="47.70035" lon="5.04367">
        <ele>384.32</ele>
        <time>2022-05-16T09:28:35Z</time>
      </trkpt>
      <trkpt lat="47.70038" lon="5.0437">
        <ele>383.99</ele>
        <time>2022-05-16T09:28:37Z</time>
      </trkpt>
      <trkpt lat="47.7004" lon="5.04374">
        <ele>383.63</ele>
        <time>2022-05-16T09:28:38Z</time>
      </trkpt>
      <trkpt lat="47.70042" lon="5.04378">
        <ele>383.27</ele>
        <time>2022-05-16T09:28:41Z</time>
      </trkpt>
      <trkpt lat="47.70043" lon="5.04382">
        <ele>382.95</ele>
        <time>2022-05-16T09:28:42Z</time>
      </trkpt>
      <trkpt lat="47.70045" lon="5.04385">
        <ele>382.66</ele>
        <time>2022-05-16T09:28:44Z</time>
      </trkpt>
      <trkpt lat="47.70047" lon="5.04388">
        <ele>382.37</ele>
        <time>2022-05-16T09:28:46Z</time>
      </trkpt>
      <trkpt lat="47.70049" lon="5.04391">
        <ele>382.24</ele>
        <time>2022-05-16T09:28:48Z</time>
      </trkpt>
      <trkpt lat="47.70052" lon="5.04394">
        <ele>382.13</ele>
        <time>2022-05-16T09:28:50Z</time>
      </trkpt>
      <trkpt lat="47.70054" lon="5.04397">
        <ele>382.06</ele>
        <time>2022-05-16T09:28:51Z</time>
      </trkpt>
      <trkpt lat="47.70056" lon="5.044">
        <ele>382.01</ele>
        <time>2022-05-16T09:28:54Z</time>
      </trkpt>
      <trkpt lat="47.70058" lon="5.04404">
        <ele>382.04</ele>
        <time>2022-05-16T09:28:56Z</time>
      </trkpt>
      <trkpt lat="47.70061" lon="5.04407">
        <ele>382.07</ele>
        <time>2022-05-16T09:28:58Z</time>
      </trkpt>
      <trkpt lat="47.70063" lon="5.04409">
        <ele>382.07</ele>
        <time>2022-05-16T09:29:00Z</time>
      </trkpt>
      <trkpt lat="47.70065" lon="5.04412">
        <ele>382.06</ele>
        <time>2022-05-16T09:29:02Z</time>
      </trkpt>
      <trkpt lat="47.70068" lon="5.04415">
        <ele>382.03</ele>
        <time>2022-05-16T09:29:05Z</time>
      </trkpt>
      <trkpt lat="47.7007" lon="5.04419">
        <ele>381.88</ele>
        <time>2022-05-16T09:29:08Z</time>
      </trkpt>
      <trkpt lat="47.70071" lon="5.04423">
        <ele>381.67</ele>
        <time>2022-05-16T09:29:10Z</time>
      </trkpt>
      <trkpt lat="47.70072" lon="5.04427">
        <ele>381.48</ele>
        <time>2022-05-16T09:29:13Z</time>
      </trkpt>
      <trkpt lat="47.70073" lon="5.04431">
        <ele>381.29</ele>
        <time>2022-05-16T09:29:15Z</time>
      </trkpt>
      <trkpt lat="47.70074" lon="5.04436">
        <ele>381.07</ele>
        <time>2022-05-16T09:29:17Z</time>
      </trkpt>
      <trkpt lat="47.70075" lon="5.0444">
        <ele>380.91</ele>
        <time>2022-05-16T09:29:20Z</time>
      </trkpt>
      <trkpt lat="47.70076" lon="5.04445">
        <ele>380.74</ele>
        <time>2022-05-16T09:29:22Z</time>
      </trkpt>
      <trkpt lat="47.70076" lon="5.0445">
        <ele>380.74</ele>
        <time>2022-05-16T09:29:26Z</time>
      </trkpt>
      <trkpt lat="47.70077" lon="5.04454">
        <ele>380.77</ele>
        <time>2022-05-16T09:29:28Z</time>
      </trkpt>
      <trkpt lat="47.70077" lon="5.04458">
        <ele>380.77</ele>
        <time>2022-05-16T09:29:30Z</time>
      </trkpt>
      <trkpt lat="47.70078" lon="5.04462">
        <ele>380.81</ele>
        <time>2022-05-16T09:29:33Z</time>
      </trkpt>
      <trkpt lat="47.70079" lon="5.04466">
        <ele>380.84</ele>
        <time>2022-05-16T09:29:35Z</time>
      </trkpt>
      <trkpt lat="47.70079" lon="5.0447">
        <ele>380.84</ele>
        <time>2022-05-16T09:29:37Z</time>
      </trkpt>
      <trkpt lat="47.7008" lon="5.04475">
        <ele>380.88</ele>
        <time>2022-05-16T09:29:40Z</time>
      </trkpt>
      <trkpt lat="47.7008" lon="5.0448">
        <ele>380.88</ele>
        <time>2022-05-16T09:29:42Z</time>
      </trkpt>
      <trkpt lat="47.70081" lon="5.04485">
        <ele>380.92</ele>
        <time>2022-05-16T09:29:44Z</time>
      </trkpt>
      <trkpt lat="47.70082" lon="5.04491">
        <ele>380.95</ele>
        <time>2022-05-16T09:29:47Z</time>
      </trkpt>
      <trkpt lat="47.70082" lon="5.04496">
        <ele>380.95</ele>
        <time>2022-05-16T09:29:49Z</time>
      </trkpt>
      <trkpt lat="47.70083" lon="5.045">
        <ele>380.99</ele>
        <time>2022-05-16T09:29:54Z</time>
      </trkpt>
      <trkpt lat="47.70085" lon="5.04505">
        <ele>381.12</ele>
        <time>2022-05-16T09:29:57Z</time>
      </trkpt>
      <trkpt lat="47.70087" lon="5.04509">
        <ele>381.26</ele>
        <time>2022-05-16T09:30:00Z</time>
      </trkpt>
      <trkpt lat="47.70089" lon="5.04512">
        <ele>381.41</ele>
        <time>2022-05-16T09:30:01Z</time>
      </trkpt>
      <trkpt lat="47.70091" lon="5.04515">
        <ele>381.55</ele>
        <time>2022-05-16T09:30:02Z</time>
      </trkpt>
      <trkpt lat="47.70093" lon="5.04518">
        <ele>381.7</ele>
        <time>2022-05-16T09:30:05Z</time>
      </trkpt>
      <trkpt lat="47.70096" lon="5.0452">
        <ele>381.91</ele>
        <time>2022-05-16T09:30:08Z</time>
      </trkpt>
      <trkpt lat="47.70098" lon="5.04521">
        <ele>382.06</ele>
        <time>2022-05-16T09:30:10Z</time>
      </trkpt>
      <trkpt lat="47.70102" lon="5.04522">
        <ele>382.34</ele>
        <time>2022-05-16T09:30:13Z</time>
      </trkpt>
      <trkpt lat="47.70105" lon="5.04523">
        <ele>382.56</ele>
        <time>2022-05-16T09:30:15Z</time>
      </trkpt>
      <trkpt lat="47.70107" lon="5.04524">
        <ele>382.7</ele>
        <time>2022-05-16T09:30:18Z</time>
      </trkpt>
      <trkpt lat="47.7011" lon="5.04525">
        <ele>382.92</ele>
        <time>2022-05-16T09:30:20Z</time>
      </trkpt>
      <trkpt lat="47.70113" lon="5.04525">
        <ele>383.15</ele>
        <time>2022-05-16T09:30:22Z</time>
      </trkpt>
      <trkpt lat="47.70116" lon="5.04526">
        <ele>383.37</ele>
        <time>2022-05-16T09:30:25Z</time>
      </trkpt>
      <trkpt lat="47.70119" lon="5.04527">
        <ele>383.58</ele>
        <time>2022-05-16T09:30:28Z</time>
      </trkpt>
      <trkpt lat="47.70123" lon="5.04527">
        <ele>383.88</ele>
        <time>2022-05-16T09:30:31Z</time>
      </trkpt>
      <trkpt lat="47.70125" lon="5.04528">
        <ele>384</ele>
        <time>2022-05-16T09:30:35Z</time>
      </trkpt>
      <trkpt lat="47.70128" lon="5.04531">
        <ele>384.15</ele>
        <time>2022-05-16T09:30:38Z</time>
      </trkpt>
      <trkpt lat="47.7013" lon="5.04534">
        <ele>384.21</ele>
        <time>2022-05-16T09:30:41Z</time>
      </trkpt>
      <trkpt lat="47.70131" lon="5.04538">
        <ele>384.17</ele>
        <time>2022-05-16T09:30:44Z</time>
      </trkpt>
      <trkpt lat="47.70133" lon="5.04542">
        <ele>384.17</ele>
        <time>2022-05-16T09:30:48Z</time>
      </trkpt>
      <trkpt lat="47.70135" lon="5.04545">
        <ele>384.19</ele>
        <time>2022-05-16T09:30:51Z</time>
      </trkpt>
      <trkpt lat="47.70138" lon="5.04548">
        <ele>384.23</ele>
        <time>2022-05-16T09:30:55Z</time>
      </trkpt>
      <trkpt lat="47.7014" lon="5.04551">
        <ele>384.12</ele>
        <time>2022-05-16T09:30:57Z</time>
      </trkpt>
      <trkpt lat="47.70142" lon="5.04554">
        <ele>383.94</ele>
        <time>2022-05-16T09:30:59Z</time>
      </trkpt>
      <trkpt lat="47.70144" lon="5.04557">
        <ele>383.79</ele>
        <time>2022-05-16T09:31:01Z</time>
      </trkpt>
      <trkpt lat="47.70147" lon="5.0456">
        <ele>383.57</ele>
        <time>2022-05-16T09:31:03Z</time>
      </trkpt>
      <trkpt lat="47.70149" lon="5.04562">
        <ele>383.38</ele>
        <time>2022-05-16T09:31:06Z</time>
      </trkpt>
      <trkpt lat="47.70152" lon="5.04564">
        <ele>383.1</ele>
        <time>2022-05-16T09:31:09Z</time>
      </trkpt>
      <trkpt lat="47.70155" lon="5.04565">
        <ele>382.83</ele>
        <time>2022-05-16T09:31:11Z</time>
      </trkpt>
      <trkpt lat="47.70158" lon="5.04566">
        <ele>382.54</ele>
        <time>2022-05-16T09:31:14Z</time>
      </trkpt>
      <trkpt lat="47.70161" lon="5.04567">
        <ele>382.22</ele>
        <time>2022-05-16T09:31:17Z</time>
      </trkpt>
      <trkpt lat="47.70164" lon="5.04567">
        <ele>381.98</ele>
        <time>2022-05-16T09:31:19Z</time>
      </trkpt>
      <trkpt lat="47.70167" lon="5.04567">
        <ele>381.76</ele>
        <time>2022-05-16T09:31:21Z</time>
      </trkpt>
      <trkpt lat="47.70169" lon="5.04568">
        <ele>381.61</ele>
        <time>2022-05-16T09:31:24Z</time>
      </trkpt>
      <trkpt lat="47.70172" lon="5.04569">
        <ele>381.45</ele>
        <time>2022-05-16T09:31:27Z</time>
      </trkpt>
      <trkpt lat="47.70175" lon="5.0457">
        <ele>381.3</ele>
        <time>2022-05-16T09:31:30Z</time>
      </trkpt>
      <trkpt lat="47.70178" lon="5.04571">
        <ele>381.15</ele>
        <time>2022-05-16T09:31:32Z</time>
      </trkpt>
      <trkpt lat="47.70181" lon="5.04573">
        <ele>380.92</ele>
        <time>2022-05-16T09:31:37Z</time>
      </trkpt>
      <trkpt lat="47.70184" lon="5.04576">
        <ele>380.63</ele>
        <time>2022-05-16T09:31:39Z</time>
      </trkpt>
      <trkpt lat="47.70185" lon="5.0458">
        <ele>380.28</ele>
        <time>2022-05-16T09:31:43Z</time>
      </trkpt>
      <trkpt lat="47.70186" lon="5.04583">
        <ele>380.03</ele>
        <time>2022-05-16T09:31:47Z</time>
      </trkpt>
      <trkpt lat="47.70189" lon="5.04586">
        <ele>379.87</ele>
        <time>2022-05-16T09:31:50Z</time>
      </trkpt>
      <trkpt lat="47.70191" lon="5.04588">
        <ele>379.79</ele>
        <time>2022-05-16T09:31:54Z</time>
      </trkpt>
      <trkpt lat="47.70193" lon="5.04592">
        <ele>379.66</ele>
        <time>2022-05-16T09:31:56Z</time>
      </trkpt>
      <trkpt lat="47.70195" lon="5.04595">
        <ele>379.6</ele>
        <time>2022-05-16T09:31:59Z</time>
      </trkpt>
      <trkpt lat="47.70196" lon="5.046">
        <ele>379.47</ele>
        <time>2022-05-16T09:32:02Z</time>
      </trkpt>
      <trkpt lat="47.70197" lon="5.04605">
        <ele>379.36</ele>
        <time>2022-05-16T09:32:04Z</time>
      </trkpt>
      <trkpt lat="47.70198" lon="5.0461">
        <ele>379.29</ele>
        <time>2022-05-16T09:32:06Z</time>
      </trkpt>
      <trkpt lat="47.70199" lon="5.04615">
        <ele>379.26</ele>
        <time>2022-05-16T09:32:09Z</time>
      </trkpt>
      <trkpt lat="47.702" lon="5.04619">
        <ele>379.29</ele>
        <time>2022-05-16T09:32:10Z</time>
      </trkpt>
      <trkpt lat="47.702" lon="5.04625">
        <ele>379.2</ele>
        <time>2022-05-16T09:32:14Z</time>
      </trkpt>
      <trkpt lat="47.70201" lon="5.04629">
        <ele>379.28</ele>
        <time>2022-05-16T09:32:16Z</time>
      </trkpt>
      <trkpt lat="47.70202" lon="5.04633">
        <ele>379.4</ele>
        <time>2022-05-16T09:32:18Z</time>
      </trkpt>
      <trkpt lat="47.70203" lon="5.04637">
        <ele>379.55</ele>
        <time>2022-05-16T09:32:21Z</time>
      </trkpt>
      <trkpt lat="47.70204" lon="5.04641">
        <ele>379.65</ele>
        <time>2022-05-16T09:32:24Z</time>
      </trkpt>
      <trkpt lat="47.70206" lon="5.04645">
        <ele>379.91</ele>
        <time>2022-05-16T09:32:26Z</time>
      </trkpt>
      <trkpt lat="47.70207" lon="5.04649">
        <ele>380.03</ele>
        <time>2022-05-16T09:32:29Z</time>
      </trkpt>
      <trkpt lat="47.70209" lon="5.04652">
        <ele>380.42</ele>
        <time>2022-05-16T09:32:32Z</time>
      </trkpt>
      <trkpt lat="47.70211" lon="5.04655">
        <ele>380.86</ele>
        <time>2022-05-16T09:32:35Z</time>
      </trkpt>
      <trkpt lat="47.70213" lon="5.04658">
        <ele>381.34</ele>
        <time>2022-05-16T09:32:39Z</time>
      </trkpt>
      <trkpt lat="47.70216" lon="5.0466">
        <ele>382.13</ele>
        <time>2022-05-16T09:32:43Z</time>
      </trkpt>
      <trkpt lat="47.70218" lon="5.04663">
        <ele>382.71</ele>
        <time>2022-05-16T09:32:46Z</time>
      </trkpt>
      <trkpt lat="47.70221" lon="5.04666">
        <ele>383.63</ele>
        <time>2022-05-16T09:33:03Z</time>
      </trkpt>
      <trkpt lat="47.70223" lon="5.04668">
        <ele>384.05</ele>
        <time>2022-05-16T09:33:06Z</time>
      </trkpt>
      <trkpt lat="47.70225" lon="5.04671">
        <ele>384.17</ele>
        <time>2022-05-16T09:33:32Z</time>
      </trkpt>
      <trkpt lat="47.70228" lon="5.04672">
        <ele>384.34</ele>
        <time>2022-05-16T09:34:05Z</time>
      </trkpt>
    </trkseg>
  </trk>
</gpx>